<?xml version="1.0" encoding="UTF-8" standalone="no" ?>
<gpx xmlns="http://www.topografix.com/GPX/1/1" xmlns:xsi="http://www.w3.org/2001/XMLSchema-instance" xsi:schemaLocation="http://www.topografix.com/GPX/1/1 http://www.topografix.com/GPX/1/1/gpx.xsd" version="1.1" creator="VisuGPX - https://www.visugpx.com">
  <metadata>
    <name>Lances de Malissard depuis La scia</name>
    <desc><![CDATA[Pas de tester sur le terrain]]></desc>
  </metadata>
  <trk>
    <name><![CDATA[Lances de Malissard depuis Saint Philibert (Chartreuse)]]></name>
    <trkseg>
      <trkpt lat="45.34604" lon="5.86495">
        <ele>1487.5</ele>
        <time>2009-01-08T10:19:02+01:00</time>
      </trkpt>
      <trkpt lat="45.34603" lon="5.86494">
        <ele>1504.6005859</ele>
        <time>2009-01-08T10:19:10+01:00</time>
      </trkpt>
      <trkpt lat="45.346" lon="5.86492">
        <ele>1508.4458008</ele>
        <time>2009-01-08T10:19:26+01:00</time>
      </trkpt>
      <trkpt lat="45.34598" lon="5.86492">
        <ele>1510.8491211</ele>
        <time>2009-01-08T10:19:31+01:00</time>
      </trkpt>
      <trkpt lat="45.34594" lon="5.8649">
        <ele>1516.1364746</ele>
        <time>2009-01-08T10:19:39+01:00</time>
      </trkpt>
      <trkpt lat="45.3459" lon="5.8649">
        <ele>1519.9816895</ele>
        <time>2009-01-08T10:19:46+01:00</time>
      </trkpt>
      <trkpt lat="45.34582" lon="5.86491">
        <ele>1519.9816895</ele>
        <time>2009-01-08T10:19:52+01:00</time>
      </trkpt>
      <trkpt lat="45.34577" lon="5.86492">
        <ele>1520.4624023</ele>
        <time>2009-01-08T10:20:00+01:00</time>
      </trkpt>
      <trkpt lat="45.34574" lon="5.86493">
        <ele>1521.423584</ele>
        <time>2009-01-08T10:20:08+01:00</time>
      </trkpt>
      <trkpt lat="45.34572" lon="5.86492">
        <ele>1522.8657227</ele>
        <time>2009-01-08T10:20:13+01:00</time>
      </trkpt>
      <trkpt lat="45.34569" lon="5.86493">
        <ele>1524.3076172</ele>
        <time>2009-01-08T10:20:18+01:00</time>
      </trkpt>
      <trkpt lat="45.34568" lon="5.86492">
        <ele>1525.7495117</ele>
        <time>2009-01-08T10:20:21+01:00</time>
      </trkpt>
      <trkpt lat="45.3456" lon="5.86488">
        <ele>1527.6721191</ele>
        <time>2009-01-08T10:20:28+01:00</time>
      </trkpt>
      <trkpt lat="45.34559" lon="5.86488">
        <ele>1527.6721191</ele>
        <time>2009-01-08T10:20:29+01:00</time>
      </trkpt>
      <trkpt lat="45.34557" lon="5.86482">
        <ele>1529.5947266</ele>
        <time>2009-01-08T10:20:37+01:00</time>
      </trkpt>
      <trkpt lat="45.34552" lon="5.86476">
        <ele>1527.1916504</ele>
        <time>2009-01-08T10:20:44+01:00</time>
      </trkpt>
      <trkpt lat="45.34547" lon="5.86473">
        <ele>1525.2687988</ele>
        <time>2009-01-08T10:20:51+01:00</time>
      </trkpt>
      <trkpt lat="45.34541" lon="5.86475">
        <ele>1527.1916504</ele>
        <time>2009-01-08T10:21:01+01:00</time>
      </trkpt>
      <trkpt lat="45.34541" lon="5.86476">
        <ele>1527.1916504</ele>
        <time>2009-01-08T10:21:09+01:00</time>
      </trkpt>
      <trkpt lat="45.34538" lon="5.86476">
        <ele>1527.1916504</ele>
        <time>2009-01-08T10:21:18+01:00</time>
      </trkpt>
      <trkpt lat="45.34535" lon="5.86472">
        <ele>1527.6721191</ele>
        <time>2009-01-08T10:21:23+01:00</time>
      </trkpt>
      <trkpt lat="45.34531" lon="5.8647">
        <ele>1525.2687988</ele>
        <time>2009-01-08T10:21:28+01:00</time>
      </trkpt>
      <trkpt lat="45.34528" lon="5.86467">
        <ele>1525.2687988</ele>
        <time>2009-01-08T10:21:33+01:00</time>
      </trkpt>
      <trkpt lat="45.34524" lon="5.86463">
        <ele>1525.2687988</ele>
        <time>2009-01-08T10:21:39+01:00</time>
      </trkpt>
      <trkpt lat="45.34519" lon="5.86462">
        <ele>1525.7495117</ele>
        <time>2009-01-08T10:21:45+01:00</time>
      </trkpt>
      <trkpt lat="45.34516" lon="5.8646">
        <ele>1525.7495117</ele>
        <time>2009-01-08T10:21:50+01:00</time>
      </trkpt>
      <trkpt lat="45.34511" lon="5.86457">
        <ele>1525.2687988</ele>
        <time>2009-01-08T10:21:56+01:00</time>
      </trkpt>
      <trkpt lat="45.34506" lon="5.86453">
        <ele>1525.7495117</ele>
        <time>2009-01-08T10:22:02+01:00</time>
      </trkpt>
      <trkpt lat="45.34504" lon="5.8645">
        <ele>1529.1140137</ele>
        <time>2009-01-08T10:22:09+01:00</time>
      </trkpt>
      <trkpt lat="45.34499" lon="5.86443">
        <ele>1532.4790039</ele>
        <time>2009-01-08T10:22:20+01:00</time>
      </trkpt>
      <trkpt lat="45.34496" lon="5.86443">
        <ele>1532.9594727</ele>
        <time>2009-01-08T10:22:24+01:00</time>
      </trkpt>
      <trkpt lat="45.34494" lon="5.86443">
        <ele>1533.9208984</ele>
        <time>2009-01-08T10:22:29+01:00</time>
      </trkpt>
      <trkpt lat="45.34491" lon="5.86444">
        <ele>1534.8823242</ele>
        <time>2009-01-08T10:22:34+01:00</time>
      </trkpt>
      <trkpt lat="45.34487" lon="5.86445">
        <ele>1535.362793</ele>
        <time>2009-01-08T10:22:40+01:00</time>
      </trkpt>
      <trkpt lat="45.34484" lon="5.86443">
        <ele>1534.8823242</ele>
        <time>2009-01-08T10:22:44+01:00</time>
      </trkpt>
      <trkpt lat="45.34481" lon="5.86443">
        <ele>1535.8435059</ele>
        <time>2009-01-08T10:22:49+01:00</time>
      </trkpt>
      <trkpt lat="45.34477" lon="5.86446">
        <ele>1536.8046875</ele>
        <time>2009-01-08T10:22:56+01:00</time>
      </trkpt>
      <trkpt lat="45.34474" lon="5.86448">
        <ele>1538.2468262</ele>
        <time>2009-01-08T10:23:02+01:00</time>
      </trkpt>
      <trkpt lat="45.34469" lon="5.86451">
        <ele>1540.6499023</ele>
        <time>2009-01-08T10:23:10+01:00</time>
      </trkpt>
      <trkpt lat="45.34464" lon="5.86453">
        <ele>1543.5339355</ele>
        <time>2009-01-08T10:23:17+01:00</time>
      </trkpt>
      <trkpt lat="45.3446" lon="5.86455">
        <ele>1543.5339355</ele>
        <time>2009-01-08T10:23:23+01:00</time>
      </trkpt>
      <trkpt lat="45.34457" lon="5.86457">
        <ele>1544.4951172</ele>
        <time>2009-01-08T10:23:28+01:00</time>
      </trkpt>
      <trkpt lat="45.34455" lon="5.86458">
        <ele>1545.456543</ele>
        <time>2009-01-08T10:23:33+01:00</time>
      </trkpt>
      <trkpt lat="45.34452" lon="5.86459">
        <ele>1546.8984375</ele>
        <time>2009-01-08T10:23:42+01:00</time>
      </trkpt>
      <trkpt lat="45.34449" lon="5.86461">
        <ele>1546.8984375</ele>
        <time>2009-01-08T10:23:48+01:00</time>
      </trkpt>
      <trkpt lat="45.34447" lon="5.86462">
        <ele>1547.3791504</ele>
        <time>2009-01-08T10:23:52+01:00</time>
      </trkpt>
      <trkpt lat="45.34442" lon="5.86465">
        <ele>1547.8598633</ele>
        <time>2009-01-08T10:23:59+01:00</time>
      </trkpt>
      <trkpt lat="45.34437" lon="5.8647">
        <ele>1549.302002</ele>
        <time>2009-01-08T10:24:07+01:00</time>
      </trkpt>
      <trkpt lat="45.34433" lon="5.86474">
        <ele>1550.2634277</ele>
        <time>2009-01-08T10:24:13+01:00</time>
      </trkpt>
      <trkpt lat="45.34429" lon="5.86475">
        <ele>1551.2246094</ele>
        <time>2009-01-08T10:24:18+01:00</time>
      </trkpt>
      <trkpt lat="45.34424" lon="5.86479">
        <ele>1552.6665039</ele>
        <time>2009-01-08T10:24:25+01:00</time>
      </trkpt>
      <trkpt lat="45.34421" lon="5.86483">
        <ele>1554.1086426</ele>
        <time>2009-01-08T10:24:31+01:00</time>
      </trkpt>
      <trkpt lat="45.34417" lon="5.86485">
        <ele>1554.1086426</ele>
        <time>2009-01-08T10:24:36+01:00</time>
      </trkpt>
      <trkpt lat="45.34414" lon="5.86488">
        <ele>1553.6279297</ele>
        <time>2009-01-08T10:24:41+01:00</time>
      </trkpt>
      <trkpt lat="45.34414" lon="5.86491">
        <ele>1554.5891113</ele>
        <time>2009-01-08T10:24:48+01:00</time>
      </trkpt>
      <trkpt lat="45.34415" lon="5.86493">
        <ele>1554.5891113</ele>
        <time>2009-01-08T10:25:04+01:00</time>
      </trkpt>
      <trkpt lat="45.34415" lon="5.86494">
        <ele>1554.5891113</ele>
        <time>2009-01-08T10:25:14+01:00</time>
      </trkpt>
      <trkpt lat="45.34414" lon="5.86493">
        <ele>1554.1086426</ele>
        <time>2009-01-08T10:25:22+01:00</time>
      </trkpt>
      <trkpt lat="45.34414" lon="5.86494">
        <ele>1553.1472168</ele>
        <time>2009-01-08T10:25:41+01:00</time>
      </trkpt>
      <trkpt lat="45.34412" lon="5.86497">
        <ele>1553.6279297</ele>
        <time>2009-01-08T10:25:49+01:00</time>
      </trkpt>
      <trkpt lat="45.3441" lon="5.86502">
        <ele>1555.5505371</ele>
        <time>2009-01-08T10:25:56+01:00</time>
      </trkpt>
      <trkpt lat="45.34408" lon="5.86505">
        <ele>1556.9924316</ele>
        <time>2009-01-08T10:26:01+01:00</time>
      </trkpt>
      <trkpt lat="45.34407" lon="5.86507">
        <ele>1558.9150391</ele>
        <time>2009-01-08T10:26:05+01:00</time>
      </trkpt>
      <trkpt lat="45.34405" lon="5.86512">
        <ele>1560.8376465</ele>
        <time>2009-01-08T10:26:11+01:00</time>
      </trkpt>
      <trkpt lat="45.34404" lon="5.86515">
        <ele>1561.3183594</ele>
        <time>2009-01-08T10:26:15+01:00</time>
      </trkpt>
      <trkpt lat="45.34403" lon="5.8652">
        <ele>1563.2409668</ele>
        <time>2009-01-08T10:26:21+01:00</time>
      </trkpt>
      <trkpt lat="45.34401" lon="5.86525">
        <ele>1563.7214355</ele>
        <time>2009-01-08T10:26:27+01:00</time>
      </trkpt>
      <trkpt lat="45.34399" lon="5.8653">
        <ele>1564.2023926</ele>
        <time>2009-01-08T10:26:33+01:00</time>
      </trkpt>
      <trkpt lat="45.34398" lon="5.86535">
        <ele>1564.6831055</ele>
        <time>2009-01-08T10:26:38+01:00</time>
      </trkpt>
      <trkpt lat="45.34396" lon="5.86539">
        <ele>1565.1638184</ele>
        <time>2009-01-08T10:26:44+01:00</time>
      </trkpt>
      <trkpt lat="45.34394" lon="5.86543">
        <ele>1565.1638184</ele>
        <time>2009-01-08T10:26:48+01:00</time>
      </trkpt>
      <trkpt lat="45.34393" lon="5.86548">
        <ele>1566.6057129</ele>
        <time>2009-01-08T10:26:54+01:00</time>
      </trkpt>
      <trkpt lat="45.34391" lon="5.86552">
        <ele>1567.0864258</ele>
        <time>2009-01-08T10:26:59+01:00</time>
      </trkpt>
      <trkpt lat="45.3439" lon="5.86555">
        <ele>1567.5668945</ele>
        <time>2009-01-08T10:27:04+01:00</time>
      </trkpt>
      <trkpt lat="45.34388" lon="5.86561">
        <ele>1569.4897461</ele>
        <time>2009-01-08T10:27:11+01:00</time>
      </trkpt>
      <trkpt lat="45.34388" lon="5.86566">
        <ele>1570.9316406</ele>
        <time>2009-01-08T10:27:16+01:00</time>
      </trkpt>
      <trkpt lat="45.34386" lon="5.8657">
        <ele>1571.8928223</ele>
        <time>2009-01-08T10:27:22+01:00</time>
      </trkpt>
      <trkpt lat="45.34385" lon="5.86572">
        <ele>1573.3349609</ele>
        <time>2009-01-08T10:27:28+01:00</time>
      </trkpt>
      <trkpt lat="45.34387" lon="5.86571">
        <ele>1574.2961426</ele>
        <time>2009-01-08T10:27:33+01:00</time>
      </trkpt>
      <trkpt lat="45.3439" lon="5.86571">
        <ele>1574.2961426</ele>
        <time>2009-01-08T10:27:38+01:00</time>
      </trkpt>
      <trkpt lat="45.34391" lon="5.86569">
        <ele>1575.2573242</ele>
        <time>2009-01-08T10:27:42+01:00</time>
      </trkpt>
      <trkpt lat="45.34394" lon="5.86568">
        <ele>1575.7380371</ele>
        <time>2009-01-08T10:27:47+01:00</time>
      </trkpt>
      <trkpt lat="45.34397" lon="5.86569">
        <ele>1576.21875</ele>
        <time>2009-01-08T10:27:52+01:00</time>
      </trkpt>
      <trkpt lat="45.344" lon="5.86569">
        <ele>1576.6994629</ele>
        <time>2009-01-08T10:27:56+01:00</time>
      </trkpt>
      <trkpt lat="45.34404" lon="5.86569">
        <ele>1576.6994629</ele>
        <time>2009-01-08T10:28:02+01:00</time>
      </trkpt>
      <trkpt lat="45.34407" lon="5.8657">
        <ele>1577.1801758</ele>
        <time>2009-01-08T10:28:07+01:00</time>
      </trkpt>
      <trkpt lat="45.34411" lon="5.8657">
        <ele>1578.1413574</ele>
        <time>2009-01-08T10:28:13+01:00</time>
      </trkpt>
      <trkpt lat="45.34413" lon="5.86569">
        <ele>1579.1025391</ele>
        <time>2009-01-08T10:28:17+01:00</time>
      </trkpt>
      <trkpt lat="45.34416" lon="5.86569">
        <ele>1579.583252</ele>
        <time>2009-01-08T10:28:21+01:00</time>
      </trkpt>
      <trkpt lat="45.34419" lon="5.86569">
        <ele>1581.0256348</ele>
        <time>2009-01-08T10:28:27+01:00</time>
      </trkpt>
      <trkpt lat="45.34423" lon="5.8657">
        <ele>1581.5061035</ele>
        <time>2009-01-08T10:28:33+01:00</time>
      </trkpt>
      <trkpt lat="45.34426" lon="5.8657">
        <ele>1582.4675293</ele>
        <time>2009-01-08T10:28:38+01:00</time>
      </trkpt>
      <trkpt lat="45.34429" lon="5.86571">
        <ele>1583.4287109</ele>
        <time>2009-01-08T10:28:43+01:00</time>
      </trkpt>
      <trkpt lat="45.34432" lon="5.86573">
        <ele>1584.3901367</ele>
        <time>2009-01-08T10:28:49+01:00</time>
      </trkpt>
      <trkpt lat="45.34435" lon="5.86574">
        <ele>1584.8708496</ele>
        <time>2009-01-08T10:28:53+01:00</time>
      </trkpt>
      <trkpt lat="45.34438" lon="5.86575">
        <ele>1585.8320312</ele>
        <time>2009-01-08T10:28:59+01:00</time>
      </trkpt>
      <trkpt lat="45.3444" lon="5.86575">
        <ele>1586.3127441</ele>
        <time>2009-01-08T10:29:03+01:00</time>
      </trkpt>
      <trkpt lat="45.34443" lon="5.86576">
        <ele>1587.2739258</ele>
        <time>2009-01-08T10:29:07+01:00</time>
      </trkpt>
      <trkpt lat="45.34445" lon="5.86577">
        <ele>1587.2739258</ele>
        <time>2009-01-08T10:29:11+01:00</time>
      </trkpt>
      <trkpt lat="45.34446" lon="5.86578">
        <ele>1588.2353516</ele>
        <time>2009-01-08T10:29:15+01:00</time>
      </trkpt>
      <trkpt lat="45.34448" lon="5.86579">
        <ele>1589.6772461</ele>
        <time>2009-01-08T10:29:20+01:00</time>
      </trkpt>
      <trkpt lat="45.34447" lon="5.8658">
        <ele>1590.6384277</ele>
        <time>2009-01-08T10:29:25+01:00</time>
      </trkpt>
      <trkpt lat="45.34445" lon="5.86585">
        <ele>1593.041748</ele>
        <time>2009-01-08T10:29:32+01:00</time>
      </trkpt>
      <trkpt lat="45.34443" lon="5.86589">
        <ele>1594.0031738</ele>
        <time>2009-01-08T10:29:38+01:00</time>
      </trkpt>
      <trkpt lat="45.34441" lon="5.86594">
        <ele>1595.9257812</ele>
        <time>2009-01-08T10:29:46+01:00</time>
      </trkpt>
      <trkpt lat="45.3444" lon="5.86595">
        <ele>1596.887207</ele>
        <time>2009-01-08T10:29:52+01:00</time>
      </trkpt>
      <trkpt lat="45.34441" lon="5.86595">
        <ele>1596.887207</ele>
        <time>2009-01-08T10:30:21+01:00</time>
      </trkpt>
      <trkpt lat="45.34441" lon="5.86596">
        <ele>1595.4450684</ele>
        <time>2009-01-08T10:30:38+01:00</time>
      </trkpt>
      <trkpt lat="45.3444" lon="5.86599">
        <ele>1596.887207</ele>
        <time>2009-01-08T10:30:44+01:00</time>
      </trkpt>
      <trkpt lat="45.3444" lon="5.86603">
        <ele>1597.8486328</ele>
        <time>2009-01-08T10:30:48+01:00</time>
      </trkpt>
      <trkpt lat="45.34438" lon="5.86607">
        <ele>1599.7712402</ele>
        <time>2009-01-08T10:30:53+01:00</time>
      </trkpt>
      <trkpt lat="45.34437" lon="5.86611">
        <ele>1602.1743164</ele>
        <time>2009-01-08T10:30:58+01:00</time>
      </trkpt>
      <trkpt lat="45.34435" lon="5.86616">
        <ele>1604.097168</ele>
        <time>2009-01-08T10:31:05+01:00</time>
      </trkpt>
      <trkpt lat="45.34433" lon="5.86621">
        <ele>1605.5390625</ele>
        <time>2009-01-08T10:31:12+01:00</time>
      </trkpt>
      <trkpt lat="45.34433" lon="5.86625">
        <ele>1607.4616699</ele>
        <time>2009-01-08T10:31:17+01:00</time>
      </trkpt>
      <trkpt lat="45.34432" lon="5.8663">
        <ele>1608.4228516</ele>
        <time>2009-01-08T10:31:22+01:00</time>
      </trkpt>
      <trkpt lat="45.3443" lon="5.86634">
        <ele>1609.3842773</ele>
        <time>2009-01-08T10:31:28+01:00</time>
      </trkpt>
      <trkpt lat="45.34429" lon="5.86636">
        <ele>1609.3842773</ele>
        <time>2009-01-08T10:31:33+01:00</time>
      </trkpt>
      <trkpt lat="45.34427" lon="5.86635">
        <ele>1609.3842773</ele>
        <time>2009-01-08T10:31:39+01:00</time>
      </trkpt>
      <trkpt lat="45.34427" lon="5.86634">
        <ele>1608.9035645</ele>
        <time>2009-01-08T10:31:45+01:00</time>
      </trkpt>
      <trkpt lat="45.34426" lon="5.86634">
        <ele>1608.9035645</ele>
        <time>2009-01-08T10:31:52+01:00</time>
      </trkpt>
      <trkpt lat="45.34425" lon="5.86634">
        <ele>1607.9423828</ele>
        <time>2009-01-08T10:32:06+01:00</time>
      </trkpt>
      <trkpt lat="45.34425" lon="5.86633">
        <ele>1606.980957</ele>
        <time>2009-01-08T10:32:18+01:00</time>
      </trkpt>
      <trkpt lat="45.34424" lon="5.86633">
        <ele>1606.980957</ele>
        <time>2009-01-08T10:32:27+01:00</time>
      </trkpt>
      <trkpt lat="45.34425" lon="5.86633">
        <ele>1606.0195312</ele>
        <time>2009-01-08T10:32:34+01:00</time>
      </trkpt>
      <trkpt lat="45.34424" lon="5.86632">
        <ele>1605.5390625</ele>
        <time>2009-01-08T10:32:41+01:00</time>
      </trkpt>
      <trkpt lat="45.34424" lon="5.86633">
        <ele>1606.0195312</ele>
        <time>2009-01-08T10:32:48+01:00</time>
      </trkpt>
      <trkpt lat="45.34424" lon="5.86631">
        <ele>1606.5002441</ele>
        <time>2009-01-08T10:33:00+01:00</time>
      </trkpt>
      <trkpt lat="45.34424" lon="5.86632">
        <ele>1606.5002441</ele>
        <time>2009-01-08T10:33:05+01:00</time>
      </trkpt>
      <trkpt lat="45.34423" lon="5.86632">
        <ele>1606.980957</ele>
        <time>2009-01-08T10:33:11+01:00</time>
      </trkpt>
      <trkpt lat="45.34423" lon="5.86633">
        <ele>1606.0195312</ele>
        <time>2009-01-08T10:33:27+01:00</time>
      </trkpt>
      <trkpt lat="45.34422" lon="5.86636">
        <ele>1606.5002441</ele>
        <time>2009-01-08T10:33:33+01:00</time>
      </trkpt>
      <trkpt lat="45.3442" lon="5.86641">
        <ele>1608.4228516</ele>
        <time>2009-01-08T10:33:41+01:00</time>
      </trkpt>
      <trkpt lat="45.34417" lon="5.86647">
        <ele>1609.8647461</ele>
        <time>2009-01-08T10:33:51+01:00</time>
      </trkpt>
      <trkpt lat="45.34416" lon="5.86649">
        <ele>1610.8261719</ele>
        <time>2009-01-08T10:33:58+01:00</time>
      </trkpt>
      <trkpt lat="45.34415" lon="5.86652">
        <ele>1611.7875977</ele>
        <time>2009-01-08T10:34:19+01:00</time>
      </trkpt>
      <trkpt lat="45.34413" lon="5.86656">
        <ele>1612.7490234</ele>
        <time>2009-01-08T10:34:24+01:00</time>
      </trkpt>
      <trkpt lat="45.3441" lon="5.86661">
        <ele>1613.2297363</ele>
        <time>2009-01-08T10:34:31+01:00</time>
      </trkpt>
      <trkpt lat="45.34408" lon="5.86665">
        <ele>1614.6716309</ele>
        <time>2009-01-08T10:34:37+01:00</time>
      </trkpt>
      <trkpt lat="45.34405" lon="5.86669">
        <ele>1616.1135254</ele>
        <time>2009-01-08T10:34:44+01:00</time>
      </trkpt>
      <trkpt lat="45.34402" lon="5.86673">
        <ele>1617.0749512</ele>
        <time>2009-01-08T10:34:51+01:00</time>
      </trkpt>
      <trkpt lat="45.344" lon="5.86676">
        <ele>1618.0361328</ele>
        <time>2009-01-08T10:34:57+01:00</time>
      </trkpt>
      <trkpt lat="45.34399" lon="5.86677">
        <ele>1618.5168457</ele>
        <time>2009-01-08T10:35:02+01:00</time>
      </trkpt>
      <trkpt lat="45.34397" lon="5.8668">
        <ele>1619.9587402</ele>
        <time>2009-01-08T10:35:07+01:00</time>
      </trkpt>
      <trkpt lat="45.34395" lon="5.86682">
        <ele>1620.920166</ele>
        <time>2009-01-08T10:35:14+01:00</time>
      </trkpt>
      <trkpt lat="45.34394" lon="5.86686">
        <ele>1621.4006348</ele>
        <time>2009-01-08T10:35:22+01:00</time>
      </trkpt>
      <trkpt lat="45.34393" lon="5.86686">
        <ele>1621.4006348</ele>
        <time>2009-01-08T10:35:27+01:00</time>
      </trkpt>
      <trkpt lat="45.34392" lon="5.8669">
        <ele>1621.4006348</ele>
        <time>2009-01-08T10:35:35+01:00</time>
      </trkpt>
      <trkpt lat="45.34391" lon="5.86694">
        <ele>1622.8427734</ele>
        <time>2009-01-08T10:35:42+01:00</time>
      </trkpt>
      <trkpt lat="45.34389" lon="5.86697">
        <ele>1623.8039551</ele>
        <time>2009-01-08T10:35:47+01:00</time>
      </trkpt>
      <trkpt lat="45.34387" lon="5.867">
        <ele>1624.7653809</ele>
        <time>2009-01-08T10:35:52+01:00</time>
      </trkpt>
      <trkpt lat="45.34384" lon="5.86704">
        <ele>1626.6879883</ele>
        <time>2009-01-08T10:35:59+01:00</time>
      </trkpt>
      <trkpt lat="45.34386" lon="5.86704">
        <ele>1627.6491699</ele>
        <time>2009-01-08T10:36:09+01:00</time>
      </trkpt>
      <trkpt lat="45.34387" lon="5.86705">
        <ele>1627.1687012</ele>
        <time>2009-01-08T10:36:13+01:00</time>
      </trkpt>
      <trkpt lat="45.3439" lon="5.86705">
        <ele>1627.6491699</ele>
        <time>2009-01-08T10:36:25+01:00</time>
      </trkpt>
      <trkpt lat="45.34393" lon="5.86705">
        <ele>1628.6108398</ele>
        <time>2009-01-08T10:36:31+01:00</time>
      </trkpt>
      <trkpt lat="45.34394" lon="5.86705">
        <ele>1628.6108398</ele>
        <time>2009-01-08T10:36:39+01:00</time>
      </trkpt>
      <trkpt lat="45.34393" lon="5.86705">
        <ele>1627.1687012</ele>
        <time>2009-01-08T10:36:52+01:00</time>
      </trkpt>
      <trkpt lat="45.34394" lon="5.86705">
        <ele>1628.130127</ele>
        <time>2009-01-08T10:37:01+01:00</time>
      </trkpt>
      <trkpt lat="45.34393" lon="5.86706">
        <ele>1629.0913086</ele>
        <time>2009-01-08T10:37:13+01:00</time>
      </trkpt>
      <trkpt lat="45.34394" lon="5.86706">
        <ele>1629.5720215</ele>
        <time>2009-01-08T10:37:43+01:00</time>
      </trkpt>
      <trkpt lat="45.34394" lon="5.86705">
        <ele>1631.0141602</ele>
        <time>2009-01-08T10:37:56+01:00</time>
      </trkpt>
      <trkpt lat="45.34395" lon="5.86705">
        <ele>1631.0141602</ele>
        <time>2009-01-08T10:38:35+01:00</time>
      </trkpt>
      <trkpt lat="45.34397" lon="5.86707">
        <ele>1631.4946289</ele>
        <time>2009-01-08T10:38:40+01:00</time>
      </trkpt>
      <trkpt lat="45.34401" lon="5.86709">
        <ele>1631.9753418</ele>
        <time>2009-01-08T10:38:47+01:00</time>
      </trkpt>
      <trkpt lat="45.34404" lon="5.86709">
        <ele>1631.9753418</ele>
        <time>2009-01-08T10:38:52+01:00</time>
      </trkpt>
      <trkpt lat="45.34404" lon="5.86712">
        <ele>1632.4560547</ele>
        <time>2009-01-08T10:38:57+01:00</time>
      </trkpt>
      <trkpt lat="45.34401" lon="5.86717">
        <ele>1634.3786621</ele>
        <time>2009-01-08T10:39:05+01:00</time>
      </trkpt>
      <trkpt lat="45.34398" lon="5.86721">
        <ele>1635.3398438</ele>
        <time>2009-01-08T10:39:12+01:00</time>
      </trkpt>
      <trkpt lat="45.34396" lon="5.86724">
        <ele>1637.2624512</ele>
        <time>2009-01-08T10:39:17+01:00</time>
      </trkpt>
      <trkpt lat="45.34394" lon="5.86727">
        <ele>1639.1850586</ele>
        <time>2009-01-08T10:39:24+01:00</time>
      </trkpt>
      <trkpt lat="45.34395" lon="5.86727">
        <ele>1639.6657715</ele>
        <time>2009-01-08T10:39:29+01:00</time>
      </trkpt>
      <trkpt lat="45.344" lon="5.86727">
        <ele>1640.6269531</ele>
        <time>2009-01-08T10:39:35+01:00</time>
      </trkpt>
      <trkpt lat="45.34403" lon="5.86727">
        <ele>1641.107666</ele>
        <time>2009-01-08T10:39:41+01:00</time>
      </trkpt>
      <trkpt lat="45.34405" lon="5.86729">
        <ele>1642.5498047</ele>
        <time>2009-01-08T10:39:46+01:00</time>
      </trkpt>
      <trkpt lat="45.34404" lon="5.8673">
        <ele>1643.0302734</ele>
        <time>2009-01-08T10:39:51+01:00</time>
      </trkpt>
      <trkpt lat="45.34404" lon="5.86731">
        <ele>1643.5109863</ele>
        <time>2009-01-08T10:39:59+01:00</time>
      </trkpt>
      <trkpt lat="45.34403" lon="5.86733">
        <ele>1643.9916992</ele>
        <time>2009-01-08T10:40:22+01:00</time>
      </trkpt>
      <trkpt lat="45.34404" lon="5.86734">
        <ele>1643.5109863</ele>
        <time>2009-01-08T10:40:30+01:00</time>
      </trkpt>
      <trkpt lat="45.34401" lon="5.86736">
        <ele>1644.4724121</ele>
        <time>2009-01-08T10:41:01+01:00</time>
      </trkpt>
      <trkpt lat="45.34399" lon="5.86739">
        <ele>1645.4338379</ele>
        <time>2009-01-08T10:41:06+01:00</time>
      </trkpt>
      <trkpt lat="45.34396" lon="5.86742">
        <ele>1646.8757324</ele>
        <time>2009-01-08T10:41:12+01:00</time>
      </trkpt>
      <trkpt lat="45.34393" lon="5.86746">
        <ele>1648.317627</ele>
        <time>2009-01-08T10:41:19+01:00</time>
      </trkpt>
      <trkpt lat="45.34391" lon="5.86749">
        <ele>1649.2790527</ele>
        <time>2009-01-08T10:41:25+01:00</time>
      </trkpt>
      <trkpt lat="45.34388" lon="5.86753">
        <ele>1651.2016602</ele>
        <time>2009-01-08T10:41:31+01:00</time>
      </trkpt>
      <trkpt lat="45.34386" lon="5.86756">
        <ele>1652.1628418</ele>
        <time>2009-01-08T10:41:36+01:00</time>
      </trkpt>
      <trkpt lat="45.34383" lon="5.8676">
        <ele>1654.0856934</ele>
        <time>2009-01-08T10:41:43+01:00</time>
      </trkpt>
      <trkpt lat="45.3438" lon="5.86763">
        <ele>1655.5275879</ele>
        <time>2009-01-08T10:41:49+01:00</time>
      </trkpt>
      <trkpt lat="45.34378" lon="5.86765">
        <ele>1656.4887695</ele>
        <time>2009-01-08T10:41:54+01:00</time>
      </trkpt>
      <trkpt lat="45.34376" lon="5.86768">
        <ele>1657.4501953</ele>
        <time>2009-01-08T10:42:00+01:00</time>
      </trkpt>
      <trkpt lat="45.34379" lon="5.86768">
        <ele>1657.4501953</ele>
        <time>2009-01-08T10:42:10+01:00</time>
      </trkpt>
      <trkpt lat="45.34382" lon="5.8677">
        <ele>1657.4501953</ele>
        <time>2009-01-08T10:42:14+01:00</time>
      </trkpt>
      <trkpt lat="45.34385" lon="5.86772">
        <ele>1657.4501953</ele>
        <time>2009-01-08T10:42:20+01:00</time>
      </trkpt>
      <trkpt lat="45.34387" lon="5.86772">
        <ele>1658.8920898</ele>
        <time>2009-01-08T10:42:24+01:00</time>
      </trkpt>
      <trkpt lat="45.34388" lon="5.86774">
        <ele>1660.3342285</ele>
        <time>2009-01-08T10:42:30+01:00</time>
      </trkpt>
      <trkpt lat="45.34384" lon="5.86776">
        <ele>1661.7763672</ele>
        <time>2009-01-08T10:42:35+01:00</time>
      </trkpt>
      <trkpt lat="45.34381" lon="5.86779">
        <ele>1663.6987305</ele>
        <time>2009-01-08T10:42:42+01:00</time>
      </trkpt>
      <trkpt lat="45.34378" lon="5.86782">
        <ele>1664.6601562</ele>
        <time>2009-01-08T10:42:49+01:00</time>
      </trkpt>
      <trkpt lat="45.34376" lon="5.86786">
        <ele>1666.1020508</ele>
        <time>2009-01-08T10:42:55+01:00</time>
      </trkpt>
      <trkpt lat="45.34372" lon="5.86789">
        <ele>1668.5053711</ele>
        <time>2009-01-08T10:43:02+01:00</time>
      </trkpt>
      <trkpt lat="45.34369" lon="5.86793">
        <ele>1668.986084</ele>
        <time>2009-01-08T10:43:08+01:00</time>
      </trkpt>
      <trkpt lat="45.34367" lon="5.86796">
        <ele>1668.986084</ele>
        <time>2009-01-08T10:43:13+01:00</time>
      </trkpt>
      <trkpt lat="45.34364" lon="5.868">
        <ele>1670.4279785</ele>
        <time>2009-01-08T10:43:19+01:00</time>
      </trkpt>
      <trkpt lat="45.34362" lon="5.86802">
        <ele>1670.9086914</ele>
        <time>2009-01-08T10:43:23+01:00</time>
      </trkpt>
      <trkpt lat="45.3436" lon="5.86805">
        <ele>1672.3505859</ele>
        <time>2009-01-08T10:43:28+01:00</time>
      </trkpt>
      <trkpt lat="45.34357" lon="5.86809">
        <ele>1673.3120117</ele>
        <time>2009-01-08T10:43:34+01:00</time>
      </trkpt>
      <trkpt lat="45.34354" lon="5.86813">
        <ele>1675.234375</ele>
        <time>2009-01-08T10:43:41+01:00</time>
      </trkpt>
      <trkpt lat="45.34354" lon="5.86814">
        <ele>1675.234375</ele>
        <time>2009-01-08T10:43:46+01:00</time>
      </trkpt>
      <trkpt lat="45.34355" lon="5.86813">
        <ele>1676.6767578</ele>
        <time>2009-01-08T10:44:12+01:00</time>
      </trkpt>
      <trkpt lat="45.34353" lon="5.86815">
        <ele>1676.1960449</ele>
        <time>2009-01-08T10:44:44+01:00</time>
      </trkpt>
      <trkpt lat="45.34351" lon="5.86819">
        <ele>1677.1574707</ele>
        <time>2009-01-08T10:44:49+01:00</time>
      </trkpt>
      <trkpt lat="45.34348" lon="5.86824">
        <ele>1678.5993652</ele>
        <time>2009-01-08T10:44:56+01:00</time>
      </trkpt>
      <trkpt lat="45.34346" lon="5.86827">
        <ele>1679.5605469</ele>
        <time>2009-01-08T10:45:01+01:00</time>
      </trkpt>
      <trkpt lat="45.34343" lon="5.86831">
        <ele>1681.0026855</ele>
        <time>2009-01-08T10:45:06+01:00</time>
      </trkpt>
      <trkpt lat="45.34342" lon="5.86834">
        <ele>1681.4831543</ele>
        <time>2009-01-08T10:45:10+01:00</time>
      </trkpt>
      <trkpt lat="45.34339" lon="5.86838">
        <ele>1683.4057617</ele>
        <time>2009-01-08T10:45:15+01:00</time>
      </trkpt>
      <trkpt lat="45.34338" lon="5.86842">
        <ele>1684.3671875</ele>
        <time>2009-01-08T10:45:21+01:00</time>
      </trkpt>
      <trkpt lat="45.34336" lon="5.86848">
        <ele>1685.809082</ele>
        <time>2009-01-08T10:45:28+01:00</time>
      </trkpt>
      <trkpt lat="45.34334" lon="5.86853">
        <ele>1687.2509766</ele>
        <time>2009-01-08T10:45:34+01:00</time>
      </trkpt>
      <trkpt lat="45.34333" lon="5.86856">
        <ele>1687.7316895</ele>
        <time>2009-01-08T10:45:39+01:00</time>
      </trkpt>
      <trkpt lat="45.34332" lon="5.8686">
        <ele>1688.6931152</ele>
        <time>2009-01-08T10:45:44+01:00</time>
      </trkpt>
      <trkpt lat="45.34333" lon="5.8686">
        <ele>1689.173584</ele>
        <time>2009-01-08T10:45:49+01:00</time>
      </trkpt>
      <trkpt lat="45.34334" lon="5.8686">
        <ele>1689.173584</ele>
        <time>2009-01-08T10:45:54+01:00</time>
      </trkpt>
      <trkpt lat="45.34333" lon="5.86858">
        <ele>1690.6154785</ele>
        <time>2009-01-08T10:46:07+01:00</time>
      </trkpt>
      <trkpt lat="45.34335" lon="5.86858">
        <ele>1690.1350098</ele>
        <time>2009-01-08T10:46:42+01:00</time>
      </trkpt>
      <trkpt lat="45.34338" lon="5.86859">
        <ele>1691.0961914</ele>
        <time>2009-01-08T10:46:48+01:00</time>
      </trkpt>
      <trkpt lat="45.34341" lon="5.86859">
        <ele>1692.0578613</ele>
        <time>2009-01-08T10:46:54+01:00</time>
      </trkpt>
      <trkpt lat="45.34345" lon="5.8686">
        <ele>1693.019043</ele>
        <time>2009-01-08T10:47:00+01:00</time>
      </trkpt>
      <trkpt lat="45.34348" lon="5.86861">
        <ele>1693.9804688</ele>
        <time>2009-01-08T10:47:06+01:00</time>
      </trkpt>
      <trkpt lat="45.34349" lon="5.86861">
        <ele>1694.4609375</ele>
        <time>2009-01-08T10:47:11+01:00</time>
      </trkpt>
      <trkpt lat="45.3435" lon="5.86861">
        <ele>1694.9416504</ele>
        <time>2009-01-08T10:47:19+01:00</time>
      </trkpt>
      <trkpt lat="45.34354" lon="5.86862">
        <ele>1695.9030762</ele>
        <time>2009-01-08T10:47:25+01:00</time>
      </trkpt>
      <trkpt lat="45.34357" lon="5.86863">
        <ele>1696.3837891</ele>
        <time>2009-01-08T10:47:31+01:00</time>
      </trkpt>
      <trkpt lat="45.34357" lon="5.86865">
        <ele>1697.3449707</ele>
        <time>2009-01-08T10:47:36+01:00</time>
      </trkpt>
      <trkpt lat="45.34354" lon="5.86869">
        <ele>1698.3061523</ele>
        <time>2009-01-08T10:47:41+01:00</time>
      </trkpt>
      <trkpt lat="45.34352" lon="5.86873">
        <ele>1698.3061523</ele>
        <time>2009-01-08T10:47:46+01:00</time>
      </trkpt>
      <trkpt lat="45.34348" lon="5.86878">
        <ele>1699.2675781</ele>
        <time>2009-01-08T10:47:52+01:00</time>
      </trkpt>
      <trkpt lat="45.34346" lon="5.86881">
        <ele>1700.2290039</ele>
        <time>2009-01-08T10:47:57+01:00</time>
      </trkpt>
      <trkpt lat="45.34344" lon="5.86885">
        <ele>1701.1901855</ele>
        <time>2009-01-08T10:48:02+01:00</time>
      </trkpt>
      <trkpt lat="45.34342" lon="5.86891">
        <ele>1703.112793</ele>
        <time>2009-01-08T10:48:10+01:00</time>
      </trkpt>
      <trkpt lat="45.3434" lon="5.86897">
        <ele>1704.5546875</ele>
        <time>2009-01-08T10:48:17+01:00</time>
      </trkpt>
      <trkpt lat="45.34338" lon="5.86901">
        <ele>1705.0354004</ele>
        <time>2009-01-08T10:48:22+01:00</time>
      </trkpt>
      <trkpt lat="45.34337" lon="5.86905">
        <ele>1706.4772949</ele>
        <time>2009-01-08T10:48:27+01:00</time>
      </trkpt>
      <trkpt lat="45.34337" lon="5.86907">
        <ele>1707.4387207</ele>
        <time>2009-01-08T10:48:34+01:00</time>
      </trkpt>
      <trkpt lat="45.3434" lon="5.86906">
        <ele>1708.4001465</ele>
        <time>2009-01-08T10:48:40+01:00</time>
      </trkpt>
      <trkpt lat="45.34343" lon="5.86905">
        <ele>1709.3615723</ele>
        <time>2009-01-08T10:48:46+01:00</time>
      </trkpt>
      <trkpt lat="45.34346" lon="5.86905">
        <ele>1709.3615723</ele>
        <time>2009-01-08T10:48:51+01:00</time>
      </trkpt>
      <trkpt lat="45.34348" lon="5.86904">
        <ele>1709.3615723</ele>
        <time>2009-01-08T10:48:55+01:00</time>
      </trkpt>
      <trkpt lat="45.34351" lon="5.86904">
        <ele>1709.842041</ele>
        <time>2009-01-08T10:49:00+01:00</time>
      </trkpt>
      <trkpt lat="45.34351" lon="5.86905">
        <ele>1710.8034668</ele>
        <time>2009-01-08T10:49:05+01:00</time>
      </trkpt>
      <trkpt lat="45.34349" lon="5.86909">
        <ele>1711.2841797</ele>
        <time>2009-01-08T10:49:11+01:00</time>
      </trkpt>
      <trkpt lat="45.34348" lon="5.86913">
        <ele>1711.2841797</ele>
        <time>2009-01-08T10:49:16+01:00</time>
      </trkpt>
      <trkpt lat="45.34346" lon="5.86918">
        <ele>1712.7260742</ele>
        <time>2009-01-08T10:49:22+01:00</time>
      </trkpt>
      <trkpt lat="45.34344" lon="5.86923">
        <ele>1714.1679688</ele>
        <time>2009-01-08T10:49:29+01:00</time>
      </trkpt>
      <trkpt lat="45.34342" lon="5.86928">
        <ele>1716.0905762</ele>
        <time>2009-01-08T10:49:36+01:00</time>
      </trkpt>
      <trkpt lat="45.34341" lon="5.86931">
        <ele>1717.052002</ele>
        <time>2009-01-08T10:49:42+01:00</time>
      </trkpt>
      <trkpt lat="45.34342" lon="5.86931">
        <ele>1718.0131836</ele>
        <time>2009-01-08T10:49:57+01:00</time>
      </trkpt>
      <trkpt lat="45.34343" lon="5.86931">
        <ele>1718.4938965</ele>
        <time>2009-01-08T10:50:07+01:00</time>
      </trkpt>
      <trkpt lat="45.34343" lon="5.86929">
        <ele>1718.4938965</ele>
        <time>2009-01-08T10:50:20+01:00</time>
      </trkpt>
      <trkpt lat="45.34347" lon="5.86928">
        <ele>1719.935791</ele>
        <time>2009-01-08T10:50:27+01:00</time>
      </trkpt>
      <trkpt lat="45.34352" lon="5.86926">
        <ele>1721.8583984</ele>
        <time>2009-01-08T10:50:34+01:00</time>
      </trkpt>
      <trkpt lat="45.34355" lon="5.86926">
        <ele>1723.7810059</ele>
        <time>2009-01-08T10:50:42+01:00</time>
      </trkpt>
      <trkpt lat="45.34357" lon="5.86925">
        <ele>1722.8198242</ele>
        <time>2009-01-08T10:51:25+01:00</time>
      </trkpt>
      <trkpt lat="45.3436" lon="5.86925">
        <ele>1723.3005371</ele>
        <time>2009-01-08T10:51:30+01:00</time>
      </trkpt>
      <trkpt lat="45.34364" lon="5.86925">
        <ele>1724.2619629</ele>
        <time>2009-01-08T10:51:37+01:00</time>
      </trkpt>
      <trkpt lat="45.34368" lon="5.86925">
        <ele>1725.2231445</ele>
        <time>2009-01-08T10:51:44+01:00</time>
      </trkpt>
      <trkpt lat="45.34371" lon="5.86925">
        <ele>1725.2231445</ele>
        <time>2009-01-08T10:51:48+01:00</time>
      </trkpt>
      <trkpt lat="45.34373" lon="5.86925">
        <ele>1725.2231445</ele>
        <time>2009-01-08T10:51:52+01:00</time>
      </trkpt>
      <trkpt lat="45.34376" lon="5.86926">
        <ele>1726.1845703</ele>
        <time>2009-01-08T10:51:57+01:00</time>
      </trkpt>
      <trkpt lat="45.34379" lon="5.86927">
        <ele>1726.6652832</ele>
        <time>2009-01-08T10:52:03+01:00</time>
      </trkpt>
      <trkpt lat="45.34383" lon="5.86927">
        <ele>1728.1071777</ele>
        <time>2009-01-08T10:52:08+01:00</time>
      </trkpt>
      <trkpt lat="45.34386" lon="5.86928">
        <ele>1728.1071777</ele>
        <time>2009-01-08T10:52:14+01:00</time>
      </trkpt>
      <trkpt lat="45.34389" lon="5.86928">
        <ele>1729.0683594</ele>
        <time>2009-01-08T10:52:19+01:00</time>
      </trkpt>
      <trkpt lat="45.34393" lon="5.86929">
        <ele>1729.5490723</ele>
        <time>2009-01-08T10:52:24+01:00</time>
      </trkpt>
      <trkpt lat="45.34396" lon="5.8693">
        <ele>1730.510498</ele>
        <time>2009-01-08T10:52:29+01:00</time>
      </trkpt>
      <trkpt lat="45.34399" lon="5.8693">
        <ele>1731.4716797</ele>
        <time>2009-01-08T10:52:34+01:00</time>
      </trkpt>
      <trkpt lat="45.34402" lon="5.8693">
        <ele>1732.9135742</ele>
        <time>2009-01-08T10:52:40+01:00</time>
      </trkpt>
      <trkpt lat="45.34405" lon="5.8693">
        <ele>1734.3557129</ele>
        <time>2009-01-08T10:52:45+01:00</time>
      </trkpt>
      <trkpt lat="45.34407" lon="5.8693">
        <ele>1735.3168945</ele>
        <time>2009-01-08T10:52:49+01:00</time>
      </trkpt>
      <trkpt lat="45.3441" lon="5.86931">
        <ele>1736.2783203</ele>
        <time>2009-01-08T10:52:54+01:00</time>
      </trkpt>
      <trkpt lat="45.34408" lon="5.86934">
        <ele>1737.239502</ele>
        <time>2009-01-08T10:52:59+01:00</time>
      </trkpt>
      <trkpt lat="45.34407" lon="5.86938">
        <ele>1739.6428223</ele>
        <time>2009-01-08T10:53:06+01:00</time>
      </trkpt>
      <trkpt lat="45.34405" lon="5.86944">
        <ele>1741.5656738</ele>
        <time>2009-01-08T10:53:14+01:00</time>
      </trkpt>
      <trkpt lat="45.34403" lon="5.86948">
        <ele>1743.0075684</ele>
        <time>2009-01-08T10:53:20+01:00</time>
      </trkpt>
      <trkpt lat="45.34402" lon="5.86952">
        <ele>1743.9689941</ele>
        <time>2009-01-08T10:53:25+01:00</time>
      </trkpt>
      <trkpt lat="45.344" lon="5.86956">
        <ele>1745.4108887</ele>
        <time>2009-01-08T10:53:30+01:00</time>
      </trkpt>
      <trkpt lat="45.34398" lon="5.86961">
        <ele>1746.8527832</ele>
        <time>2009-01-08T10:53:37+01:00</time>
      </trkpt>
      <trkpt lat="45.34397" lon="5.86965">
        <ele>1747.3334961</ele>
        <time>2009-01-08T10:53:43+01:00</time>
      </trkpt>
      <trkpt lat="45.34396" lon="5.86969">
        <ele>1748.2946777</ele>
        <time>2009-01-08T10:53:47+01:00</time>
      </trkpt>
      <trkpt lat="45.34395" lon="5.86973">
        <ele>1749.7368164</ele>
        <time>2009-01-08T10:53:54+01:00</time>
      </trkpt>
      <trkpt lat="45.34396" lon="5.86972">
        <ele>1750.2175293</ele>
        <time>2009-01-08T10:53:59+01:00</time>
      </trkpt>
      <trkpt lat="45.34399" lon="5.86972">
        <ele>1750.697998</ele>
        <time>2009-01-08T10:54:03+01:00</time>
      </trkpt>
      <trkpt lat="45.34403" lon="5.86972">
        <ele>1752.1398926</ele>
        <time>2009-01-08T10:54:10+01:00</time>
      </trkpt>
      <trkpt lat="45.34406" lon="5.86972">
        <ele>1753.1013184</ele>
        <time>2009-01-08T10:54:15+01:00</time>
      </trkpt>
      <trkpt lat="45.34408" lon="5.86972">
        <ele>1752.6206055</ele>
        <time>2009-01-08T10:54:18+01:00</time>
      </trkpt>
      <trkpt lat="45.3441" lon="5.86972">
        <ele>1753.5820312</ele>
        <time>2009-01-08T10:54:22+01:00</time>
      </trkpt>
      <trkpt lat="45.34413" lon="5.86973">
        <ele>1754.0627441</ele>
        <time>2009-01-08T10:54:28+01:00</time>
      </trkpt>
      <trkpt lat="45.34416" lon="5.86973">
        <ele>1755.0239258</ele>
        <time>2009-01-08T10:54:35+01:00</time>
      </trkpt>
      <trkpt lat="45.34419" lon="5.86973">
        <ele>1755.9851074</ele>
        <time>2009-01-08T10:54:39+01:00</time>
      </trkpt>
      <trkpt lat="45.34422" lon="5.86973">
        <ele>1757.4274902</ele>
        <time>2009-01-08T10:54:45+01:00</time>
      </trkpt>
      <trkpt lat="45.34426" lon="5.86973">
        <ele>1758.3886719</ele>
        <time>2009-01-08T10:54:51+01:00</time>
      </trkpt>
      <trkpt lat="45.3443" lon="5.86975">
        <ele>1759.3500977</ele>
        <time>2009-01-08T10:54:58+01:00</time>
      </trkpt>
      <trkpt lat="45.34433" lon="5.86975">
        <ele>1760.7919922</ele>
        <time>2009-01-08T10:55:03+01:00</time>
      </trkpt>
      <trkpt lat="45.34435" lon="5.86976">
        <ele>1761.753418</ele>
        <time>2009-01-08T10:55:08+01:00</time>
      </trkpt>
      <trkpt lat="45.34437" lon="5.86976">
        <ele>1761.753418</ele>
        <time>2009-01-08T10:55:12+01:00</time>
      </trkpt>
      <trkpt lat="45.3444" lon="5.86977">
        <ele>1762.2338867</ele>
        <time>2009-01-08T10:55:17+01:00</time>
      </trkpt>
      <trkpt lat="45.34444" lon="5.86978">
        <ele>1763.6757812</ele>
        <time>2009-01-08T10:55:23+01:00</time>
      </trkpt>
      <trkpt lat="45.34446" lon="5.86979">
        <ele>1764.637207</ele>
        <time>2009-01-08T10:55:29+01:00</time>
      </trkpt>
      <trkpt lat="45.34446" lon="5.8698">
        <ele>1766.0791016</ele>
        <time>2009-01-08T10:55:34+01:00</time>
      </trkpt>
      <trkpt lat="45.34444" lon="5.86983">
        <ele>1767.0405273</ele>
        <time>2009-01-08T10:55:40+01:00</time>
      </trkpt>
      <trkpt lat="45.34441" lon="5.86987">
        <ele>1768.4824219</ele>
        <time>2009-01-08T10:55:45+01:00</time>
      </trkpt>
      <trkpt lat="45.34438" lon="5.86991">
        <ele>1769.9243164</ele>
        <time>2009-01-08T10:55:51+01:00</time>
      </trkpt>
      <trkpt lat="45.34437" lon="5.86992">
        <ele>1770.8857422</ele>
        <time>2009-01-08T10:55:56+01:00</time>
      </trkpt>
      <trkpt lat="45.34435" lon="5.86993">
        <ele>1771.3662109</ele>
        <time>2009-01-08T10:56:13+01:00</time>
      </trkpt>
      <trkpt lat="45.34432" lon="5.86997">
        <ele>1771.8469238</ele>
        <time>2009-01-08T10:56:18+01:00</time>
      </trkpt>
      <trkpt lat="45.34431" lon="5.86999">
        <ele>1773.2893066</ele>
        <time>2009-01-08T10:56:24+01:00</time>
      </trkpt>
      <trkpt lat="45.3443" lon="5.87003">
        <ele>1775.2116699</ele>
        <time>2009-01-08T10:56:43+01:00</time>
      </trkpt>
      <trkpt lat="45.3443" lon="5.87006">
        <ele>1776.1730957</ele>
        <time>2009-01-08T10:56:48+01:00</time>
      </trkpt>
      <trkpt lat="45.34429" lon="5.8701">
        <ele>1777.6149902</ele>
        <time>2009-01-08T10:56:54+01:00</time>
      </trkpt>
      <trkpt lat="45.34428" lon="5.87015">
        <ele>1779.5375977</ele>
        <time>2009-01-08T10:57:01+01:00</time>
      </trkpt>
      <trkpt lat="45.34429" lon="5.87015">
        <ele>1780.0183105</ele>
        <time>2009-01-08T10:57:05+01:00</time>
      </trkpt>
      <trkpt lat="45.34432" lon="5.87014">
        <ele>1780.0183105</ele>
        <time>2009-01-08T10:57:09+01:00</time>
      </trkpt>
      <trkpt lat="45.34434" lon="5.87014">
        <ele>1780.0183105</ele>
        <time>2009-01-08T10:57:14+01:00</time>
      </trkpt>
      <trkpt lat="45.34437" lon="5.87014">
        <ele>1780.4990234</ele>
        <time>2009-01-08T10:57:19+01:00</time>
      </trkpt>
      <trkpt lat="45.3444" lon="5.87014">
        <ele>1781.940918</ele>
        <time>2009-01-08T10:57:39+01:00</time>
      </trkpt>
      <trkpt lat="45.34443" lon="5.87014">
        <ele>1782.4216309</ele>
        <time>2009-01-08T10:57:43+01:00</time>
      </trkpt>
      <trkpt lat="45.34444" lon="5.87014">
        <ele>1782.4216309</ele>
        <time>2009-01-08T10:57:50+01:00</time>
      </trkpt>
      <trkpt lat="45.34448" lon="5.87015">
        <ele>1783.3828125</ele>
        <time>2009-01-08T10:57:55+01:00</time>
      </trkpt>
      <trkpt lat="45.34451" lon="5.87015">
        <ele>1784.3442383</ele>
        <time>2009-01-08T10:58:00+01:00</time>
      </trkpt>
      <trkpt lat="45.34453" lon="5.87017">
        <ele>1784.3442383</ele>
        <time>2009-01-08T10:58:05+01:00</time>
      </trkpt>
      <trkpt lat="45.34456" lon="5.87018">
        <ele>1784.8249512</ele>
        <time>2009-01-08T10:58:10+01:00</time>
      </trkpt>
      <trkpt lat="45.34459" lon="5.87019">
        <ele>1786.7473145</ele>
        <time>2009-01-08T10:58:16+01:00</time>
      </trkpt>
      <trkpt lat="45.34461" lon="5.8702">
        <ele>1787.2280273</ele>
        <time>2009-01-08T10:58:21+01:00</time>
      </trkpt>
      <trkpt lat="45.34464" lon="5.87021">
        <ele>1787.7087402</ele>
        <time>2009-01-08T10:58:26+01:00</time>
      </trkpt>
      <trkpt lat="45.34466" lon="5.87022">
        <ele>1787.7087402</ele>
        <time>2009-01-08T10:58:30+01:00</time>
      </trkpt>
      <trkpt lat="45.3447" lon="5.87022">
        <ele>1788.6704102</ele>
        <time>2009-01-08T10:58:36+01:00</time>
      </trkpt>
      <trkpt lat="45.34476" lon="5.87024">
        <ele>1791.5541992</ele>
        <time>2009-01-08T10:58:44+01:00</time>
      </trkpt>
      <trkpt lat="45.34477" lon="5.87026">
        <ele>1792.0349121</ele>
        <time>2009-01-08T10:58:49+01:00</time>
      </trkpt>
      <trkpt lat="45.3448" lon="5.87028">
        <ele>1792.9960938</ele>
        <time>2009-01-08T10:58:54+01:00</time>
      </trkpt>
      <trkpt lat="45.34484" lon="5.87029">
        <ele>1794.4379883</ele>
        <time>2009-01-08T10:59:01+01:00</time>
      </trkpt>
      <trkpt lat="45.34488" lon="5.87032">
        <ele>1795.880127</ele>
        <time>2009-01-08T10:59:07+01:00</time>
      </trkpt>
      <trkpt lat="45.34491" lon="5.87033">
        <ele>1796.8413086</ele>
        <time>2009-01-08T10:59:13+01:00</time>
      </trkpt>
      <trkpt lat="45.34494" lon="5.87036">
        <ele>1797.8027344</ele>
        <time>2009-01-08T10:59:19+01:00</time>
      </trkpt>
      <trkpt lat="45.34497" lon="5.87037">
        <ele>1799.7253418</ele>
        <time>2009-01-08T10:59:25+01:00</time>
      </trkpt>
      <trkpt lat="45.34496" lon="5.87038">
        <ele>1800.6865234</ele>
        <time>2009-01-08T10:59:30+01:00</time>
      </trkpt>
      <trkpt lat="45.34493" lon="5.8704">
        <ele>1801.6479492</ele>
        <time>2009-01-08T10:59:36+01:00</time>
      </trkpt>
      <trkpt lat="45.34489" lon="5.87043">
        <ele>1803.5705566</ele>
        <time>2009-01-08T10:59:43+01:00</time>
      </trkpt>
      <trkpt lat="45.34487" lon="5.87046">
        <ele>1804.5319824</ele>
        <time>2009-01-08T10:59:49+01:00</time>
      </trkpt>
      <trkpt lat="45.34485" lon="5.87048">
        <ele>1805.0126953</ele>
        <time>2009-01-08T10:59:54+01:00</time>
      </trkpt>
      <trkpt lat="45.34482" lon="5.87051">
        <ele>1805.0126953</ele>
        <time>2009-01-08T10:59:58+01:00</time>
      </trkpt>
      <trkpt lat="45.3448" lon="5.87054">
        <ele>1806.4545898</ele>
        <time>2009-01-08T11:00:04+01:00</time>
      </trkpt>
      <trkpt lat="45.34477" lon="5.87056">
        <ele>1807.4160156</ele>
        <time>2009-01-08T11:00:08+01:00</time>
      </trkpt>
      <trkpt lat="45.34475" lon="5.87058">
        <ele>1808.3771973</ele>
        <time>2009-01-08T11:00:13+01:00</time>
      </trkpt>
      <trkpt lat="45.34473" lon="5.87062">
        <ele>1808.8579102</ele>
        <time>2009-01-08T11:00:18+01:00</time>
      </trkpt>
      <trkpt lat="45.34471" lon="5.87065">
        <ele>1809.8190918</ele>
        <time>2009-01-08T11:00:23+01:00</time>
      </trkpt>
      <trkpt lat="45.3447" lon="5.87069">
        <ele>1811.2612305</ele>
        <time>2009-01-08T11:00:28+01:00</time>
      </trkpt>
      <trkpt lat="45.34468" lon="5.87073">
        <ele>1812.703125</ele>
        <time>2009-01-08T11:00:34+01:00</time>
      </trkpt>
      <trkpt lat="45.34466" lon="5.87076">
        <ele>1813.6643066</ele>
        <time>2009-01-08T11:00:39+01:00</time>
      </trkpt>
      <trkpt lat="45.34467" lon="5.87075">
        <ele>1815.1064453</ele>
        <time>2009-01-08T11:01:03+01:00</time>
      </trkpt>
      <trkpt lat="45.34469" lon="5.87075">
        <ele>1815.1064453</ele>
        <time>2009-01-08T11:01:08+01:00</time>
      </trkpt>
      <trkpt lat="45.34472" lon="5.87075">
        <ele>1816.067627</ele>
        <time>2009-01-08T11:01:13+01:00</time>
      </trkpt>
      <trkpt lat="45.34475" lon="5.87075">
        <ele>1816.5483398</ele>
        <time>2009-01-08T11:01:18+01:00</time>
      </trkpt>
      <trkpt lat="45.34476" lon="5.87075">
        <ele>1816.5483398</ele>
        <time>2009-01-08T11:01:24+01:00</time>
      </trkpt>
      <trkpt lat="45.34478" lon="5.87076">
        <ele>1816.5483398</ele>
        <time>2009-01-08T11:01:33+01:00</time>
      </trkpt>
      <trkpt lat="45.34481" lon="5.87078">
        <ele>1815.5871582</ele>
        <time>2009-01-08T11:01:56+01:00</time>
      </trkpt>
      <trkpt lat="45.34484" lon="5.87078">
        <ele>1817.5095215</ele>
        <time>2009-01-08T11:02:01+01:00</time>
      </trkpt>
      <trkpt lat="45.34486" lon="5.87078">
        <ele>1817.5095215</ele>
        <time>2009-01-08T11:02:05+01:00</time>
      </trkpt>
      <trkpt lat="45.34488" lon="5.87079">
        <ele>1818.4709473</ele>
        <time>2009-01-08T11:02:09+01:00</time>
      </trkpt>
      <trkpt lat="45.34493" lon="5.8708">
        <ele>1820.3937988</ele>
        <time>2009-01-08T11:02:15+01:00</time>
      </trkpt>
      <trkpt lat="45.34492" lon="5.8708">
        <ele>1820.8745117</ele>
        <time>2009-01-08T11:02:19+01:00</time>
      </trkpt>
      <trkpt lat="45.34492" lon="5.87081">
        <ele>1821.8356934</ele>
        <time>2009-01-08T11:02:27+01:00</time>
      </trkpt>
      <trkpt lat="45.34492" lon="5.8708">
        <ele>1822.3164062</ele>
        <time>2009-01-08T11:02:45+01:00</time>
      </trkpt>
      <trkpt lat="45.34492" lon="5.87081">
        <ele>1822.7971191</ele>
        <time>2009-01-08T11:02:51+01:00</time>
      </trkpt>
      <trkpt lat="45.34495" lon="5.87083">
        <ele>1823.277832</ele>
        <time>2009-01-08T11:02:56+01:00</time>
      </trkpt>
      <trkpt lat="45.34493" lon="5.87085">
        <ele>1824.2390137</ele>
        <time>2009-01-08T11:03:00+01:00</time>
      </trkpt>
      <trkpt lat="45.34489" lon="5.87088">
        <ele>1824.2390137</ele>
        <time>2009-01-08T11:03:06+01:00</time>
      </trkpt>
      <trkpt lat="45.34486" lon="5.87091">
        <ele>1824.7197266</ele>
        <time>2009-01-08T11:03:11+01:00</time>
      </trkpt>
      <trkpt lat="45.34486" lon="5.87092">
        <ele>1825.2001953</ele>
        <time>2009-01-08T11:03:16+01:00</time>
      </trkpt>
      <trkpt lat="45.34488" lon="5.87095">
        <ele>1825.6809082</ele>
        <time>2009-01-08T11:03:22+01:00</time>
      </trkpt>
      <trkpt lat="45.3449" lon="5.87097">
        <ele>1826.1616211</ele>
        <time>2009-01-08T11:03:26+01:00</time>
      </trkpt>
      <trkpt lat="45.34491" lon="5.87099">
        <ele>1827.6035156</ele>
        <time>2009-01-08T11:03:31+01:00</time>
      </trkpt>
      <trkpt lat="45.34492" lon="5.87101">
        <ele>1828.0842285</ele>
        <time>2009-01-08T11:03:35+01:00</time>
      </trkpt>
      <trkpt lat="45.34494" lon="5.87103">
        <ele>1829.0454102</ele>
        <time>2009-01-08T11:03:39+01:00</time>
      </trkpt>
      <trkpt lat="45.34495" lon="5.87105">
        <ele>1830.0068359</ele>
        <time>2009-01-08T11:03:44+01:00</time>
      </trkpt>
      <trkpt lat="45.34493" lon="5.87107">
        <ele>1830.9682617</ele>
        <time>2009-01-08T11:03:50+01:00</time>
      </trkpt>
      <trkpt lat="45.34491" lon="5.87109">
        <ele>1832.4101562</ele>
        <time>2009-01-08T11:03:54+01:00</time>
      </trkpt>
      <trkpt lat="45.34489" lon="5.87113">
        <ele>1833.8520508</ele>
        <time>2009-01-08T11:04:00+01:00</time>
      </trkpt>
      <trkpt lat="45.34488" lon="5.87117">
        <ele>1835.7746582</ele>
        <time>2009-01-08T11:04:05+01:00</time>
      </trkpt>
      <trkpt lat="45.34486" lon="5.87119">
        <ele>1836.2556152</ele>
        <time>2009-01-08T11:04:09+01:00</time>
      </trkpt>
      <trkpt lat="45.34488" lon="5.8712">
        <ele>1837.6975098</ele>
        <time>2009-01-08T11:04:20+01:00</time>
      </trkpt>
      <trkpt lat="45.3449" lon="5.87121">
        <ele>1838.1782227</ele>
        <time>2009-01-08T11:04:25+01:00</time>
      </trkpt>
      <trkpt lat="45.34492" lon="5.87122">
        <ele>1838.1782227</ele>
        <time>2009-01-08T11:04:30+01:00</time>
      </trkpt>
      <trkpt lat="45.34496" lon="5.87123">
        <ele>1839.1394043</ele>
        <time>2009-01-08T11:04:36+01:00</time>
      </trkpt>
      <trkpt lat="45.34497" lon="5.87125">
        <ele>1839.1394043</ele>
        <time>2009-01-08T11:04:40+01:00</time>
      </trkpt>
      <trkpt lat="45.34499" lon="5.87125">
        <ele>1841.0620117</ele>
        <time>2009-01-08T11:04:45+01:00</time>
      </trkpt>
      <trkpt lat="45.34502" lon="5.87126">
        <ele>1842.0234375</ele>
        <time>2009-01-08T11:04:50+01:00</time>
      </trkpt>
      <trkpt lat="45.34502" lon="5.87127">
        <ele>1842.5041504</ele>
        <time>2009-01-08T11:04:55+01:00</time>
      </trkpt>
      <trkpt lat="45.34499" lon="5.87127">
        <ele>1842.5041504</ele>
        <time>2009-01-08T11:05:01+01:00</time>
      </trkpt>
      <trkpt lat="45.34498" lon="5.87129">
        <ele>1843.465332</ele>
        <time>2009-01-08T11:05:05+01:00</time>
      </trkpt>
      <trkpt lat="45.34494" lon="5.8713">
        <ele>1843.9460449</ele>
        <time>2009-01-08T11:05:10+01:00</time>
      </trkpt>
      <trkpt lat="45.34492" lon="5.87132">
        <ele>1844.9072266</ele>
        <time>2009-01-08T11:05:18+01:00</time>
      </trkpt>
      <trkpt lat="45.34494" lon="5.87132">
        <ele>1845.3879395</ele>
        <time>2009-01-08T11:05:23+01:00</time>
      </trkpt>
      <trkpt lat="45.34499" lon="5.87133">
        <ele>1845.8686523</ele>
        <time>2009-01-08T11:05:30+01:00</time>
      </trkpt>
      <trkpt lat="45.34501" lon="5.87133">
        <ele>1846.3493652</ele>
        <time>2009-01-08T11:05:36+01:00</time>
      </trkpt>
      <trkpt lat="45.34502" lon="5.87134">
        <ele>1847.3105469</ele>
        <time>2009-01-08T11:05:40+01:00</time>
      </trkpt>
      <trkpt lat="45.345" lon="5.87137">
        <ele>1848.7524414</ele>
        <time>2009-01-08T11:05:45+01:00</time>
      </trkpt>
      <trkpt lat="45.34497" lon="5.87138">
        <ele>1849.7138672</ele>
        <time>2009-01-08T11:05:50+01:00</time>
      </trkpt>
      <trkpt lat="45.34496" lon="5.8714">
        <ele>1851.1557617</ele>
        <time>2009-01-08T11:05:57+01:00</time>
      </trkpt>
      <trkpt lat="45.34498" lon="5.8714">
        <ele>1851.6364746</ele>
        <time>2009-01-08T11:06:02+01:00</time>
      </trkpt>
      <trkpt lat="45.34499" lon="5.8714">
        <ele>1851.6364746</ele>
        <time>2009-01-08T11:06:06+01:00</time>
      </trkpt>
      <trkpt lat="45.34501" lon="5.87141">
        <ele>1851.6364746</ele>
        <time>2009-01-08T11:06:11+01:00</time>
      </trkpt>
      <trkpt lat="45.34503" lon="5.87141">
        <ele>1852.1171875</ele>
        <time>2009-01-08T11:06:21+01:00</time>
      </trkpt>
      <trkpt lat="45.34505" lon="5.87142">
        <ele>1852.5979004</ele>
        <time>2009-01-08T11:06:25+01:00</time>
      </trkpt>
      <trkpt lat="45.34508" lon="5.87142">
        <ele>1853.5593262</ele>
        <time>2009-01-08T11:06:30+01:00</time>
      </trkpt>
      <trkpt lat="45.3451" lon="5.87143">
        <ele>1854.0400391</ele>
        <time>2009-01-08T11:06:34+01:00</time>
      </trkpt>
      <trkpt lat="45.34512" lon="5.87143">
        <ele>1855.0012207</ele>
        <time>2009-01-08T11:06:38+01:00</time>
      </trkpt>
      <trkpt lat="45.34514" lon="5.87144">
        <ele>1855.9624023</ele>
        <time>2009-01-08T11:06:43+01:00</time>
      </trkpt>
      <trkpt lat="45.34518" lon="5.87144">
        <ele>1856.9238281</ele>
        <time>2009-01-08T11:06:49+01:00</time>
      </trkpt>
      <trkpt lat="45.3452" lon="5.87145">
        <ele>1856.9238281</ele>
        <time>2009-01-08T11:06:53+01:00</time>
      </trkpt>
      <trkpt lat="45.34521" lon="5.87146">
        <ele>1857.404541</ele>
        <time>2009-01-08T11:06:58+01:00</time>
      </trkpt>
      <trkpt lat="45.34519" lon="5.87147">
        <ele>1858.3657227</ele>
        <time>2009-01-08T11:07:04+01:00</time>
      </trkpt>
      <trkpt lat="45.34517" lon="5.8715">
        <ele>1858.8464355</ele>
        <time>2009-01-08T11:07:09+01:00</time>
      </trkpt>
      <trkpt lat="45.34513" lon="5.87154">
        <ele>1860.769043</ele>
        <time>2009-01-08T11:07:17+01:00</time>
      </trkpt>
      <trkpt lat="45.34512" lon="5.87156">
        <ele>1861.2497559</ele>
        <time>2009-01-08T11:07:22+01:00</time>
      </trkpt>
      <trkpt lat="45.34509" lon="5.87159">
        <ele>1862.2109375</ele>
        <time>2009-01-08T11:07:28+01:00</time>
      </trkpt>
      <trkpt lat="45.34507" lon="5.87162">
        <ele>1863.652832</ele>
        <time>2009-01-08T11:07:35+01:00</time>
      </trkpt>
      <trkpt lat="45.34505" lon="5.87164">
        <ele>1864.6142578</ele>
        <time>2009-01-08T11:07:39+01:00</time>
      </trkpt>
      <trkpt lat="45.34504" lon="5.87166">
        <ele>1865.5756836</ele>
        <time>2009-01-08T11:07:46+01:00</time>
      </trkpt>
      <trkpt lat="45.34502" lon="5.87168">
        <ele>1866.5368652</ele>
        <time>2009-01-08T11:08:01+01:00</time>
      </trkpt>
      <trkpt lat="45.34501" lon="5.87171">
        <ele>1866.5368652</ele>
        <time>2009-01-08T11:08:06+01:00</time>
      </trkpt>
      <trkpt lat="45.345" lon="5.87173">
        <ele>1866.5368652</ele>
        <time>2009-01-08T11:08:11+01:00</time>
      </trkpt>
      <trkpt lat="45.34502" lon="5.87172">
        <ele>1867.4980469</ele>
        <time>2009-01-08T11:08:16+01:00</time>
      </trkpt>
      <trkpt lat="45.34503" lon="5.87173">
        <ele>1867.9787598</ele>
        <time>2009-01-08T11:08:22+01:00</time>
      </trkpt>
      <trkpt lat="45.34504" lon="5.87174">
        <ele>1871.3435059</ele>
        <time>2009-01-08T11:08:52+01:00</time>
      </trkpt>
      <trkpt lat="45.34505" lon="5.87173">
        <ele>1871.8242188</ele>
        <time>2009-01-08T11:09:17+01:00</time>
      </trkpt>
      <trkpt lat="45.34507" lon="5.87173">
        <ele>1872.7856445</ele>
        <time>2009-01-08T11:09:22+01:00</time>
      </trkpt>
      <trkpt lat="45.3451" lon="5.87173">
        <ele>1873.2663574</ele>
        <time>2009-01-08T11:09:27+01:00</time>
      </trkpt>
      <trkpt lat="45.34511" lon="5.87175">
        <ele>1873.7468262</ele>
        <time>2009-01-08T11:09:33+01:00</time>
      </trkpt>
      <trkpt lat="45.34508" lon="5.87178">
        <ele>1874.2275391</ele>
        <time>2009-01-08T11:09:38+01:00</time>
      </trkpt>
      <trkpt lat="45.34506" lon="5.87181">
        <ele>1874.708252</ele>
        <time>2009-01-08T11:09:44+01:00</time>
      </trkpt>
      <trkpt lat="45.34503" lon="5.87184">
        <ele>1876.1501465</ele>
        <time>2009-01-08T11:09:50+01:00</time>
      </trkpt>
      <trkpt lat="45.34501" lon="5.87187">
        <ele>1876.6308594</ele>
        <time>2009-01-08T11:09:55+01:00</time>
      </trkpt>
      <trkpt lat="45.34501" lon="5.87188">
        <ele>1877.1115723</ele>
        <time>2009-01-08T11:10:00+01:00</time>
      </trkpt>
      <trkpt lat="45.34502" lon="5.87188">
        <ele>1877.1115723</ele>
        <time>2009-01-08T11:10:05+01:00</time>
      </trkpt>
      <trkpt lat="45.34504" lon="5.8719">
        <ele>1877.592041</ele>
        <time>2009-01-08T11:10:09+01:00</time>
      </trkpt>
      <trkpt lat="45.34505" lon="5.8719">
        <ele>1878.0727539</ele>
        <time>2009-01-08T11:10:13+01:00</time>
      </trkpt>
      <trkpt lat="45.34504" lon="5.87189">
        <ele>1879.9953613</ele>
        <time>2009-01-08T11:10:32+01:00</time>
      </trkpt>
      <trkpt lat="45.34506" lon="5.87189">
        <ele>1879.5146484</ele>
        <time>2009-01-08T11:10:44+01:00</time>
      </trkpt>
      <trkpt lat="45.34507" lon="5.8719">
        <ele>1879.9953613</ele>
        <time>2009-01-08T11:10:48+01:00</time>
      </trkpt>
      <trkpt lat="45.34508" lon="5.87191">
        <ele>1879.5146484</ele>
        <time>2009-01-08T11:10:53+01:00</time>
      </trkpt>
      <trkpt lat="45.34512" lon="5.87192">
        <ele>1879.5146484</ele>
        <time>2009-01-08T11:10:57+01:00</time>
      </trkpt>
      <trkpt lat="45.34514" lon="5.8719">
        <ele>1880.9567871</ele>
        <time>2009-01-08T11:11:02+01:00</time>
      </trkpt>
      <trkpt lat="45.34517" lon="5.8719">
        <ele>1882.3986816</ele>
        <time>2009-01-08T11:11:07+01:00</time>
      </trkpt>
      <trkpt lat="45.3452" lon="5.8719">
        <ele>1883.3598633</ele>
        <time>2009-01-08T11:11:12+01:00</time>
      </trkpt>
      <trkpt lat="45.34522" lon="5.8719">
        <ele>1882.8791504</ele>
        <time>2009-01-08T11:11:15+01:00</time>
      </trkpt>
      <trkpt lat="45.34525" lon="5.87191">
        <ele>1883.8405762</ele>
        <time>2009-01-08T11:11:21+01:00</time>
      </trkpt>
      <trkpt lat="45.34523" lon="5.87193">
        <ele>1885.7634277</ele>
        <time>2009-01-08T11:11:27+01:00</time>
      </trkpt>
      <trkpt lat="45.3452" lon="5.87197">
        <ele>1887.2053223</ele>
        <time>2009-01-08T11:11:34+01:00</time>
      </trkpt>
      <trkpt lat="45.34515" lon="5.87197">
        <ele>1888.6474609</ele>
        <time>2009-01-08T11:11:45+01:00</time>
      </trkpt>
      <trkpt lat="45.34512" lon="5.87201">
        <ele>1888.6474609</ele>
        <time>2009-01-08T11:11:51+01:00</time>
      </trkpt>
      <trkpt lat="45.34511" lon="5.87202">
        <ele>1889.1279297</ele>
        <time>2009-01-08T11:11:56+01:00</time>
      </trkpt>
      <trkpt lat="45.34511" lon="5.87203">
        <ele>1889.6086426</ele>
        <time>2009-01-08T11:12:01+01:00</time>
      </trkpt>
      <trkpt lat="45.34511" lon="5.87205">
        <ele>1891.0505371</ele>
        <time>2009-01-08T11:12:11+01:00</time>
      </trkpt>
      <trkpt lat="45.3451" lon="5.87207">
        <ele>1891.53125</ele>
        <time>2009-01-08T11:12:18+01:00</time>
      </trkpt>
      <trkpt lat="45.34508" lon="5.87209">
        <ele>1892.0119629</ele>
        <time>2009-01-08T11:12:24+01:00</time>
      </trkpt>
      <trkpt lat="45.34506" lon="5.8721">
        <ele>1893.9345703</ele>
        <time>2009-01-08T11:12:30+01:00</time>
      </trkpt>
      <trkpt lat="45.34507" lon="5.8721">
        <ele>1893.4538574</ele>
        <time>2009-01-08T11:12:38+01:00</time>
      </trkpt>
      <trkpt lat="45.3451" lon="5.87212">
        <ele>1893.4538574</ele>
        <time>2009-01-08T11:12:44+01:00</time>
      </trkpt>
      <trkpt lat="45.3451" lon="5.87214">
        <ele>1893.9345703</ele>
        <time>2009-01-08T11:12:51+01:00</time>
      </trkpt>
      <trkpt lat="45.3451" lon="5.87216">
        <ele>1893.9345703</ele>
        <time>2009-01-08T11:12:55+01:00</time>
      </trkpt>
      <trkpt lat="45.34511" lon="5.87218">
        <ele>1895.8571777</ele>
        <time>2009-01-08T11:13:07+01:00</time>
      </trkpt>
      <trkpt lat="45.34511" lon="5.87219">
        <ele>1893.9345703</ele>
        <time>2009-01-08T11:13:19+01:00</time>
      </trkpt>
      <trkpt lat="45.34507" lon="5.87217">
        <ele>1894.895752</ele>
        <time>2009-01-08T11:13:28+01:00</time>
      </trkpt>
      <trkpt lat="45.34506" lon="5.87218">
        <ele>1895.3764648</ele>
        <time>2009-01-08T11:13:35+01:00</time>
      </trkpt>
      <trkpt lat="45.34504" lon="5.8722">
        <ele>1895.3764648</ele>
        <time>2009-01-08T11:13:40+01:00</time>
      </trkpt>
      <trkpt lat="45.34501" lon="5.87223">
        <ele>1896.3378906</ele>
        <time>2009-01-08T11:13:45+01:00</time>
      </trkpt>
      <trkpt lat="45.34498" lon="5.87226">
        <ele>1897.7797852</ele>
        <time>2009-01-08T11:13:51+01:00</time>
      </trkpt>
      <trkpt lat="45.34496" lon="5.87228">
        <ele>1897.7797852</ele>
        <time>2009-01-08T11:13:56+01:00</time>
      </trkpt>
      <trkpt lat="45.34495" lon="5.8723">
        <ele>1897.7797852</ele>
        <time>2009-01-08T11:14:01+01:00</time>
      </trkpt>
      <trkpt lat="45.34494" lon="5.87233">
        <ele>1897.7797852</ele>
        <time>2009-01-08T11:14:04+01:00</time>
      </trkpt>
      <trkpt lat="45.34492" lon="5.87233">
        <ele>1898.7409668</ele>
        <time>2009-01-08T11:14:09+01:00</time>
      </trkpt>
      <trkpt lat="45.34491" lon="5.87235">
        <ele>1900.1833496</ele>
        <time>2009-01-08T11:14:20+01:00</time>
      </trkpt>
      <trkpt lat="45.34489" lon="5.87238">
        <ele>1900.6638184</ele>
        <time>2009-01-08T11:14:26+01:00</time>
      </trkpt>
      <trkpt lat="45.34486" lon="5.87241">
        <ele>1900.6638184</ele>
        <time>2009-01-08T11:14:33+01:00</time>
      </trkpt>
      <trkpt lat="45.34484" lon="5.87244">
        <ele>1901.6252441</ele>
        <time>2009-01-08T11:14:37+01:00</time>
      </trkpt>
      <trkpt lat="45.34483" lon="5.87247">
        <ele>1902.1057129</ele>
        <time>2009-01-08T11:14:41+01:00</time>
      </trkpt>
      <trkpt lat="45.34483" lon="5.8725">
        <ele>1898.7409668</ele>
        <time>2009-01-08T11:15:01+01:00</time>
      </trkpt>
      <trkpt lat="45.34481" lon="5.87244">
        <ele>1904.9897461</ele>
        <time>2009-01-08T11:15:25+01:00</time>
      </trkpt>
      <trkpt lat="45.34478" lon="5.87251">
        <ele>1905.470459</ele>
        <time>2009-01-08T11:15:31+01:00</time>
      </trkpt>
      <trkpt lat="45.34475" lon="5.87256">
        <ele>1905.9509277</ele>
        <time>2009-01-08T11:15:37+01:00</time>
      </trkpt>
      <trkpt lat="45.34473" lon="5.87259">
        <ele>1908.8349609</ele>
        <time>2009-01-08T11:15:43+01:00</time>
      </trkpt>
      <trkpt lat="45.34471" lon="5.87262">
        <ele>1909.7961426</ele>
        <time>2009-01-08T11:15:48+01:00</time>
      </trkpt>
      <trkpt lat="45.34469" lon="5.87264">
        <ele>1910.7575684</ele>
        <time>2009-01-08T11:15:52+01:00</time>
      </trkpt>
      <trkpt lat="45.34466" lon="5.87267">
        <ele>1913.1608887</ele>
        <time>2009-01-08T11:15:59+01:00</time>
      </trkpt>
      <trkpt lat="45.34464" lon="5.87269">
        <ele>1914.1220703</ele>
        <time>2009-01-08T11:16:03+01:00</time>
      </trkpt>
      <trkpt lat="45.34462" lon="5.87269">
        <ele>1914.6027832</ele>
        <time>2009-01-08T11:16:09+01:00</time>
      </trkpt>
      <trkpt lat="45.3446" lon="5.87271">
        <ele>1915.0834961</ele>
        <time>2009-01-08T11:16:13+01:00</time>
      </trkpt>
      <trkpt lat="45.34464" lon="5.87271">
        <ele>1916.5256348</ele>
        <time>2009-01-08T11:16:27+01:00</time>
      </trkpt>
      <trkpt lat="45.34465" lon="5.87271">
        <ele>1916.0449219</ele>
        <time>2009-01-08T11:16:31+01:00</time>
      </trkpt>
      <trkpt lat="45.34466" lon="5.87274">
        <ele>1916.0449219</ele>
        <time>2009-01-08T11:16:37+01:00</time>
      </trkpt>
      <trkpt lat="45.34464" lon="5.87276">
        <ele>1915.0834961</ele>
        <time>2009-01-08T11:16:41+01:00</time>
      </trkpt>
      <trkpt lat="45.34461" lon="5.87277">
        <ele>1915.0834961</ele>
        <time>2009-01-08T11:16:46+01:00</time>
      </trkpt>
      <trkpt lat="45.34459" lon="5.87279">
        <ele>1915.564209</ele>
        <time>2009-01-08T11:16:52+01:00</time>
      </trkpt>
      <trkpt lat="45.34457" lon="5.87282">
        <ele>1917.0063477</ele>
        <time>2009-01-08T11:16:59+01:00</time>
      </trkpt>
      <trkpt lat="45.34456" lon="5.87283">
        <ele>1917.4868164</ele>
        <time>2009-01-08T11:17:04+01:00</time>
      </trkpt>
      <trkpt lat="45.34459" lon="5.87285">
        <ele>1920.8515625</ele>
        <time>2009-01-08T11:17:14+01:00</time>
      </trkpt>
      <trkpt lat="45.3446" lon="5.87286">
        <ele>1921.3320312</ele>
        <time>2009-01-08T11:17:28+01:00</time>
      </trkpt>
      <trkpt lat="45.3446" lon="5.87284">
        <ele>1919.8901367</ele>
        <time>2009-01-08T11:17:47+01:00</time>
      </trkpt>
      <trkpt lat="45.34459" lon="5.87284">
        <ele>1918.4482422</ele>
        <time>2009-01-08T11:18:00+01:00</time>
      </trkpt>
      <trkpt lat="45.34457" lon="5.87284">
        <ele>1917.0063477</ele>
        <time>2009-01-08T11:18:09+01:00</time>
      </trkpt>
      <trkpt lat="45.34459" lon="5.87287">
        <ele>1916.5256348</ele>
        <time>2009-01-08T11:18:16+01:00</time>
      </trkpt>
      <trkpt lat="45.3446" lon="5.87288">
        <ele>1916.0449219</ele>
        <time>2009-01-08T11:18:26+01:00</time>
      </trkpt>
      <trkpt lat="45.34459" lon="5.87289">
        <ele>1915.0834961</ele>
        <time>2009-01-08T11:18:43+01:00</time>
      </trkpt>
      <trkpt lat="45.34459" lon="5.87288">
        <ele>1914.6027832</ele>
        <time>2009-01-08T11:18:53+01:00</time>
      </trkpt>
      <trkpt lat="45.34459" lon="5.87287">
        <ele>1913.6413574</ele>
        <time>2009-01-08T11:19:07+01:00</time>
      </trkpt>
      <trkpt lat="45.34458" lon="5.87286">
        <ele>1915.0834961</ele>
        <time>2009-01-08T11:19:18+01:00</time>
      </trkpt>
      <trkpt lat="45.34459" lon="5.87285">
        <ele>1916.0449219</ele>
        <time>2009-01-08T11:19:27+01:00</time>
      </trkpt>
      <trkpt lat="45.3446" lon="5.87286">
        <ele>1916.0449219</ele>
        <time>2009-01-08T11:19:37+01:00</time>
      </trkpt>
      <trkpt lat="45.3446" lon="5.87287">
        <ele>1916.5256348</ele>
        <time>2009-01-08T11:19:45+01:00</time>
      </trkpt>
      <trkpt lat="45.34459" lon="5.87288">
        <ele>1913.6413574</ele>
        <time>2009-01-08T11:20:07+01:00</time>
      </trkpt>
      <trkpt lat="45.34459" lon="5.87289">
        <ele>1914.1220703</ele>
        <time>2009-01-08T11:20:14+01:00</time>
      </trkpt>
      <trkpt lat="45.34461" lon="5.87283">
        <ele>1917.9675293</ele>
        <time>2009-01-08T11:20:24+01:00</time>
      </trkpt>
      <trkpt lat="45.34457" lon="5.87281">
        <ele>1913.6413574</ele>
        <time>2009-01-08T11:20:36+01:00</time>
      </trkpt>
      <trkpt lat="45.34454" lon="5.87281">
        <ele>1913.6413574</ele>
        <time>2009-01-08T11:20:59+01:00</time>
      </trkpt>
      <trkpt lat="45.34457" lon="5.87287">
        <ele>1912.1994629</ele>
        <time>2009-01-08T11:21:20+01:00</time>
      </trkpt>
      <trkpt lat="45.34458" lon="5.87287">
        <ele>1913.1608887</ele>
        <time>2009-01-08T11:21:27+01:00</time>
      </trkpt>
      <trkpt lat="45.34455" lon="5.87287">
        <ele>1913.1608887</ele>
        <time>2009-01-08T11:21:36+01:00</time>
      </trkpt>
      <trkpt lat="45.34457" lon="5.87286">
        <ele>1916.5256348</ele>
        <time>2009-01-08T11:21:50+01:00</time>
      </trkpt>
      <trkpt lat="45.34458" lon="5.87286">
        <ele>1916.5256348</ele>
        <time>2009-01-08T11:21:54+01:00</time>
      </trkpt>
      <trkpt lat="45.34456" lon="5.87288">
        <ele>1917.9675293</ele>
        <time>2009-01-08T11:22:04+01:00</time>
      </trkpt>
      <trkpt lat="45.34454" lon="5.87291">
        <ele>1917.9675293</ele>
        <time>2009-01-08T11:22:13+01:00</time>
      </trkpt>
      <trkpt lat="45.34453" lon="5.87294">
        <ele>1918.4482422</ele>
        <time>2009-01-08T11:22:22+01:00</time>
      </trkpt>
      <trkpt lat="45.34452" lon="5.87297">
        <ele>1918.9289551</ele>
        <time>2009-01-08T11:22:28+01:00</time>
      </trkpt>
      <trkpt lat="45.3445" lon="5.873">
        <ele>1919.8901367</ele>
        <time>2009-01-08T11:22:36+01:00</time>
      </trkpt>
      <trkpt lat="45.34448" lon="5.87303">
        <ele>1920.3708496</ele>
        <time>2009-01-08T11:22:45+01:00</time>
      </trkpt>
      <trkpt lat="45.34449" lon="5.87304">
        <ele>1920.8515625</ele>
        <time>2009-01-08T11:22:52+01:00</time>
      </trkpt>
      <trkpt lat="45.3445" lon="5.87303">
        <ele>1922.293457</ele>
        <time>2009-01-08T11:22:59+01:00</time>
      </trkpt>
      <trkpt lat="45.34449" lon="5.87302">
        <ele>1925.657959</ele>
        <time>2009-01-08T11:23:07+01:00</time>
      </trkpt>
      <trkpt lat="45.34449" lon="5.87305">
        <ele>1926.6193848</ele>
        <time>2009-01-08T11:23:16+01:00</time>
      </trkpt>
      <trkpt lat="45.34449" lon="5.87306">
        <ele>1929.0224609</ele>
        <time>2009-01-08T11:23:24+01:00</time>
      </trkpt>
      <trkpt lat="45.34446" lon="5.87302">
        <ele>1930.9453125</ele>
        <time>2009-01-08T11:23:28+01:00</time>
      </trkpt>
      <trkpt lat="45.34445" lon="5.87303">
        <ele>1931.9064941</ele>
        <time>2009-01-08T11:23:34+01:00</time>
      </trkpt>
      <trkpt lat="45.34446" lon="5.87307">
        <ele>1932.8679199</ele>
        <time>2009-01-08T11:23:41+01:00</time>
      </trkpt>
      <trkpt lat="45.34445" lon="5.87306">
        <ele>1933.8293457</ele>
        <time>2009-01-08T11:23:48+01:00</time>
      </trkpt>
      <trkpt lat="45.34446" lon="5.87309">
        <ele>1934.3100586</ele>
        <time>2009-01-08T11:23:55+01:00</time>
      </trkpt>
      <trkpt lat="45.34446" lon="5.87311">
        <ele>1934.7907715</ele>
        <time>2009-01-08T11:23:59+01:00</time>
      </trkpt>
      <trkpt lat="45.34446" lon="5.87313">
        <ele>1936.7131348</ele>
        <time>2009-01-08T11:24:08+01:00</time>
      </trkpt>
      <trkpt lat="45.34446" lon="5.87314">
        <ele>1938.1552734</ele>
        <time>2009-01-08T11:24:16+01:00</time>
      </trkpt>
      <trkpt lat="45.34447" lon="5.87316">
        <ele>1940.0778809</ele>
        <time>2009-01-08T11:24:24+01:00</time>
      </trkpt>
      <trkpt lat="45.34448" lon="5.8732">
        <ele>1942.0004883</ele>
        <time>2009-01-08T11:24:35+01:00</time>
      </trkpt>
      <trkpt lat="45.34447" lon="5.87321">
        <ele>1943.4423828</ele>
        <time>2009-01-08T11:24:42+01:00</time>
      </trkpt>
      <trkpt lat="45.34449" lon="5.87324">
        <ele>1945.3649902</ele>
        <time>2009-01-08T11:24:47+01:00</time>
      </trkpt>
      <trkpt lat="45.34445" lon="5.87324">
        <ele>1948.2490234</ele>
        <time>2009-01-08T11:25:00+01:00</time>
      </trkpt>
      <trkpt lat="45.34445" lon="5.87326">
        <ele>1948.2490234</ele>
        <time>2009-01-08T11:25:05+01:00</time>
      </trkpt>
      <trkpt lat="45.34445" lon="5.8733">
        <ele>1946.8068848</ele>
        <time>2009-01-08T11:25:12+01:00</time>
      </trkpt>
      <trkpt lat="45.34446" lon="5.87331">
        <ele>1947.7683105</ele>
        <time>2009-01-08T11:25:24+01:00</time>
      </trkpt>
      <trkpt lat="45.34444" lon="5.8733">
        <ele>1948.2490234</ele>
        <time>2009-01-08T11:25:31+01:00</time>
      </trkpt>
      <trkpt lat="45.34442" lon="5.8733">
        <ele>1950.171875</ele>
        <time>2009-01-08T11:25:37+01:00</time>
      </trkpt>
      <trkpt lat="45.34441" lon="5.87328">
        <ele>1954.0170898</ele>
        <time>2009-01-08T11:25:47+01:00</time>
      </trkpt>
      <trkpt lat="45.34442" lon="5.87332">
        <ele>1958.8234863</ele>
        <time>2009-01-08T11:26:04+01:00</time>
      </trkpt>
      <trkpt lat="45.34442" lon="5.87334">
        <ele>1955.9394531</ele>
        <time>2009-01-08T11:26:15+01:00</time>
      </trkpt>
      <trkpt lat="45.34441" lon="5.87334">
        <ele>1953.536377</ele>
        <time>2009-01-08T11:26:24+01:00</time>
      </trkpt>
      <trkpt lat="45.34443" lon="5.87338">
        <ele>1952.0942383</ele>
        <time>2009-01-08T11:26:40+01:00</time>
      </trkpt>
      <trkpt lat="45.34445" lon="5.8734">
        <ele>1952.5749512</ele>
        <time>2009-01-08T11:26:50+01:00</time>
      </trkpt>
      <trkpt lat="45.34447" lon="5.87342">
        <ele>1955.4589844</ele>
        <time>2009-01-08T11:26:54+01:00</time>
      </trkpt>
      <trkpt lat="45.34447" lon="5.87343">
        <ele>1956.420166</ele>
        <time>2009-01-08T11:27:04+01:00</time>
      </trkpt>
      <trkpt lat="45.34448" lon="5.87344">
        <ele>1956.9008789</ele>
        <time>2009-01-08T11:27:10+01:00</time>
      </trkpt>
      <trkpt lat="45.34447" lon="5.87346">
        <ele>1957.8623047</ele>
        <time>2009-01-08T11:27:15+01:00</time>
      </trkpt>
      <trkpt lat="45.34446" lon="5.87347">
        <ele>1957.8623047</ele>
        <time>2009-01-08T11:27:20+01:00</time>
      </trkpt>
      <trkpt lat="45.34445" lon="5.87349">
        <ele>1958.8234863</ele>
        <time>2009-01-08T11:27:26+01:00</time>
      </trkpt>
      <trkpt lat="45.34446" lon="5.87351">
        <ele>1958.8234863</ele>
        <time>2009-01-08T11:27:33+01:00</time>
      </trkpt>
      <trkpt lat="45.34446" lon="5.87352">
        <ele>1959.784668</ele>
        <time>2009-01-08T11:27:39+01:00</time>
      </trkpt>
      <trkpt lat="45.34445" lon="5.87353">
        <ele>1960.7460938</ele>
        <time>2009-01-08T11:27:45+01:00</time>
      </trkpt>
      <trkpt lat="45.34445" lon="5.87354">
        <ele>1961.7075195</ele>
        <time>2009-01-08T11:27:50+01:00</time>
      </trkpt>
      <trkpt lat="45.34444" lon="5.87355">
        <ele>1963.6298828</ele>
        <time>2009-01-08T11:28:00+01:00</time>
      </trkpt>
      <trkpt lat="45.34444" lon="5.87357">
        <ele>1965.0722656</ele>
        <time>2009-01-08T11:28:12+01:00</time>
      </trkpt>
      <trkpt lat="45.34445" lon="5.87359">
        <ele>1965.5529785</ele>
        <time>2009-01-08T11:28:19+01:00</time>
      </trkpt>
      <trkpt lat="45.34443" lon="5.87362">
        <ele>1966.0334473</ele>
        <time>2009-01-08T11:28:31+01:00</time>
      </trkpt>
      <trkpt lat="45.34442" lon="5.87362">
        <ele>1966.994873</ele>
        <time>2009-01-08T11:28:38+01:00</time>
      </trkpt>
      <trkpt lat="45.34443" lon="5.87363">
        <ele>1967.9560547</ele>
        <time>2009-01-08T11:28:45+01:00</time>
      </trkpt>
      <trkpt lat="45.34442" lon="5.87365">
        <ele>1968.4367676</ele>
        <time>2009-01-08T11:28:56+01:00</time>
      </trkpt>
      <trkpt lat="45.34441" lon="5.87369">
        <ele>1971.3205566</ele>
        <time>2009-01-08T11:29:13+01:00</time>
      </trkpt>
      <trkpt lat="45.3444" lon="5.8737">
        <ele>1972.7626953</ele>
        <time>2009-01-08T11:29:18+01:00</time>
      </trkpt>
      <trkpt lat="45.34441" lon="5.87372">
        <ele>1975.1657715</ele>
        <time>2009-01-08T11:29:26+01:00</time>
      </trkpt>
      <trkpt lat="45.34442" lon="5.87374">
        <ele>1975.6464844</ele>
        <time>2009-01-08T11:29:33+01:00</time>
      </trkpt>
      <trkpt lat="45.34442" lon="5.87376">
        <ele>1976.6079102</ele>
        <time>2009-01-08T11:29:39+01:00</time>
      </trkpt>
      <trkpt lat="45.34443" lon="5.87377">
        <ele>1977.5690918</ele>
        <time>2009-01-08T11:29:49+01:00</time>
      </trkpt>
      <trkpt lat="45.34443" lon="5.87376">
        <ele>1976.1271973</ele>
        <time>2009-01-08T11:30:04+01:00</time>
      </trkpt>
      <trkpt lat="45.34443" lon="5.87378">
        <ele>1975.1657715</ele>
        <time>2009-01-08T11:30:14+01:00</time>
      </trkpt>
      <trkpt lat="45.34442" lon="5.87376">
        <ele>1974.6853027</ele>
        <time>2009-01-08T11:30:30+01:00</time>
      </trkpt>
      <trkpt lat="45.34443" lon="5.87376">
        <ele>1973.723877</ele>
        <time>2009-01-08T11:30:46+01:00</time>
      </trkpt>
      <trkpt lat="45.34444" lon="5.87378">
        <ele>1972.7626953</ele>
        <time>2009-01-08T11:30:56+01:00</time>
      </trkpt>
      <trkpt lat="45.34443" lon="5.87377">
        <ele>1971.8012695</ele>
        <time>2009-01-08T11:31:04+01:00</time>
      </trkpt>
      <trkpt lat="45.34445" lon="5.87379">
        <ele>1973.2434082</ele>
        <time>2009-01-08T11:31:15+01:00</time>
      </trkpt>
      <trkpt lat="45.34446" lon="5.87379">
        <ele>1973.723877</ele>
        <time>2009-01-08T11:31:26+01:00</time>
      </trkpt>
      <trkpt lat="45.34445" lon="5.87378">
        <ele>1974.2045898</ele>
        <time>2009-01-08T11:31:36+01:00</time>
      </trkpt>
      <trkpt lat="45.34445" lon="5.87375">
        <ele>1976.6079102</ele>
        <time>2009-01-08T11:31:52+01:00</time>
      </trkpt>
      <trkpt lat="45.34444" lon="5.87377">
        <ele>1973.723877</ele>
        <time>2009-01-08T11:32:04+01:00</time>
      </trkpt>
      <trkpt lat="45.34444" lon="5.87379">
        <ele>1973.2434082</ele>
        <time>2009-01-08T11:32:32+01:00</time>
      </trkpt>
      <trkpt lat="45.34445" lon="5.87379">
        <ele>1973.723877</ele>
        <time>2009-01-08T11:32:41+01:00</time>
      </trkpt>
      <trkpt lat="45.34445" lon="5.8738">
        <ele>1973.2434082</ele>
        <time>2009-01-08T11:32:52+01:00</time>
      </trkpt>
      <trkpt lat="45.34443" lon="5.87376">
        <ele>1975.6464844</ele>
        <time>2009-01-08T11:33:01+01:00</time>
      </trkpt>
      <trkpt lat="45.34446" lon="5.87377">
        <ele>1976.1271973</ele>
        <time>2009-01-08T11:33:12+01:00</time>
      </trkpt>
      <trkpt lat="45.34446" lon="5.87376">
        <ele>1976.1271973</ele>
        <time>2009-01-08T11:33:20+01:00</time>
      </trkpt>
      <trkpt lat="45.34445" lon="5.87376">
        <ele>1976.6079102</ele>
        <time>2009-01-08T11:33:26+01:00</time>
      </trkpt>
      <trkpt lat="45.34444" lon="5.87376">
        <ele>1976.6079102</ele>
        <time>2009-01-08T11:33:39+01:00</time>
      </trkpt>
      <trkpt lat="45.34446" lon="5.87376">
        <ele>1976.6079102</ele>
        <time>2009-01-08T11:33:46+01:00</time>
      </trkpt>
      <trkpt lat="45.34446" lon="5.87377">
        <ele>1976.6079102</ele>
        <time>2009-01-08T11:33:56+01:00</time>
      </trkpt>
      <trkpt lat="45.34445" lon="5.87376">
        <ele>1976.6079102</ele>
        <time>2009-01-08T11:34:03+01:00</time>
      </trkpt>
      <trkpt lat="45.34445" lon="5.87374">
        <ele>1977.088623</ele>
        <time>2009-01-08T11:34:12+01:00</time>
      </trkpt>
      <trkpt lat="45.34446" lon="5.87373">
        <ele>1978.0498047</ele>
        <time>2009-01-08T11:34:17+01:00</time>
      </trkpt>
      <trkpt lat="45.34447" lon="5.87373">
        <ele>1977.088623</ele>
        <time>2009-01-08T11:34:28+01:00</time>
      </trkpt>
      <trkpt lat="45.34449" lon="5.87373">
        <ele>1977.5690918</ele>
        <time>2009-01-08T11:34:41+01:00</time>
      </trkpt>
      <trkpt lat="45.34451" lon="5.87374">
        <ele>1978.5305176</ele>
        <time>2009-01-08T11:34:47+01:00</time>
      </trkpt>
      <trkpt lat="45.34451" lon="5.87373">
        <ele>1979.0109863</ele>
        <time>2009-01-08T11:34:55+01:00</time>
      </trkpt>
      <trkpt lat="45.34453" lon="5.87375">
        <ele>1979.9724121</ele>
        <time>2009-01-08T11:35:03+01:00</time>
      </trkpt>
      <trkpt lat="45.34452" lon="5.87375">
        <ele>1981.4145508</ele>
        <time>2009-01-08T11:35:09+01:00</time>
      </trkpt>
      <trkpt lat="45.34453" lon="5.87375">
        <ele>1982.8564453</ele>
        <time>2009-01-08T11:35:18+01:00</time>
      </trkpt>
      <trkpt lat="45.34454" lon="5.87375">
        <ele>1981.8952637</ele>
        <time>2009-01-08T11:35:25+01:00</time>
      </trkpt>
      <trkpt lat="45.34456" lon="5.87376">
        <ele>1982.3759766</ele>
        <time>2009-01-08T11:35:29+01:00</time>
      </trkpt>
      <trkpt lat="45.34457" lon="5.87378">
        <ele>1983.8178711</ele>
        <time>2009-01-08T11:35:34+01:00</time>
      </trkpt>
      <trkpt lat="45.34457" lon="5.87379">
        <ele>1983.8178711</ele>
        <time>2009-01-08T11:35:40+01:00</time>
      </trkpt>
      <trkpt lat="45.34457" lon="5.8738">
        <ele>1984.7792969</ele>
        <time>2009-01-08T11:35:45+01:00</time>
      </trkpt>
      <trkpt lat="45.34456" lon="5.8738">
        <ele>1986.2211914</ele>
        <time>2009-01-08T11:35:59+01:00</time>
      </trkpt>
      <trkpt lat="45.34456" lon="5.87383">
        <ele>1986.2211914</ele>
        <time>2009-01-08T11:36:05+01:00</time>
      </trkpt>
      <trkpt lat="45.34456" lon="5.87384">
        <ele>1986.7016602</ele>
        <time>2009-01-08T11:36:11+01:00</time>
      </trkpt>
      <trkpt lat="45.34456" lon="5.87385">
        <ele>1988.1437988</ele>
        <time>2009-01-08T11:36:17+01:00</time>
      </trkpt>
      <trkpt lat="45.34458" lon="5.87388">
        <ele>1987.6630859</ele>
        <time>2009-01-08T11:36:39+01:00</time>
      </trkpt>
      <trkpt lat="45.34459" lon="5.87389">
        <ele>1988.1437988</ele>
        <time>2009-01-08T11:36:45+01:00</time>
      </trkpt>
      <trkpt lat="45.3446" lon="5.87389">
        <ele>1989.5856934</ele>
        <time>2009-01-08T11:36:53+01:00</time>
      </trkpt>
      <trkpt lat="45.34461" lon="5.87391">
        <ele>1991.0275879</ele>
        <time>2009-01-08T11:37:02+01:00</time>
      </trkpt>
      <trkpt lat="45.34462" lon="5.87392">
        <ele>1991.0275879</ele>
        <time>2009-01-08T11:37:08+01:00</time>
      </trkpt>
      <trkpt lat="45.34462" lon="5.87394">
        <ele>1991.5083008</ele>
        <time>2009-01-08T11:37:14+01:00</time>
      </trkpt>
      <trkpt lat="45.34463" lon="5.87395">
        <ele>1992.4697266</ele>
        <time>2009-01-08T11:37:20+01:00</time>
      </trkpt>
      <trkpt lat="45.34462" lon="5.87397">
        <ele>1992.9501953</ele>
        <time>2009-01-08T11:37:29+01:00</time>
      </trkpt>
      <trkpt lat="45.34461" lon="5.87399">
        <ele>1995.8342285</ele>
        <time>2009-01-08T11:37:37+01:00</time>
      </trkpt>
      <trkpt lat="45.34461" lon="5.87401">
        <ele>1999.1989746</ele>
        <time>2009-01-08T11:37:42+01:00</time>
      </trkpt>
      <trkpt lat="45.3446" lon="5.87402">
        <ele>1999.6796875</ele>
        <time>2009-01-08T11:37:49+01:00</time>
      </trkpt>
      <trkpt lat="45.34459" lon="5.87402">
        <ele>1997.2763672</ele>
        <time>2009-01-08T11:38:11+01:00</time>
      </trkpt>
      <trkpt lat="45.34459" lon="5.87401">
        <ele>1997.2763672</ele>
        <time>2009-01-08T11:38:18+01:00</time>
      </trkpt>
      <trkpt lat="45.3446" lon="5.87402">
        <ele>1995.8342285</ele>
        <time>2009-01-08T11:38:29+01:00</time>
      </trkpt>
      <trkpt lat="45.3446" lon="5.87403">
        <ele>1995.8342285</ele>
        <time>2009-01-08T11:39:00+01:00</time>
      </trkpt>
      <trkpt lat="45.34461" lon="5.87402">
        <ele>1996.7956543</ele>
        <time>2009-01-08T11:39:14+01:00</time>
      </trkpt>
      <trkpt lat="45.3446" lon="5.87401">
        <ele>1997.2763672</ele>
        <time>2009-01-08T11:39:22+01:00</time>
      </trkpt>
      <trkpt lat="45.34459" lon="5.874">
        <ele>1998.7182617</ele>
        <time>2009-01-08T11:39:37+01:00</time>
      </trkpt>
      <trkpt lat="45.3446" lon="5.87401">
        <ele>1997.7570801</ele>
        <time>2009-01-08T11:39:46+01:00</time>
      </trkpt>
      <trkpt lat="45.3446" lon="5.87402">
        <ele>1997.2763672</ele>
        <time>2009-01-08T11:39:58+01:00</time>
      </trkpt>
      <trkpt lat="45.34461" lon="5.87403">
        <ele>2001.121582</ele>
        <time>2009-01-08T11:40:51+01:00</time>
      </trkpt>
      <trkpt lat="45.34464" lon="5.87404">
        <ele>2001.6022949</ele>
        <time>2009-01-08T11:41:10+01:00</time>
      </trkpt>
      <trkpt lat="45.34464" lon="5.87405">
        <ele>2001.121582</ele>
        <time>2009-01-08T11:41:17+01:00</time>
      </trkpt>
      <trkpt lat="45.34464" lon="5.87406">
        <ele>2004.486084</ele>
        <time>2009-01-08T11:41:38+01:00</time>
      </trkpt>
      <trkpt lat="45.34465" lon="5.87406">
        <ele>2005.4475098</ele>
        <time>2009-01-08T11:41:48+01:00</time>
      </trkpt>
      <trkpt lat="45.34466" lon="5.87411">
        <ele>2004.9667969</ele>
        <time>2009-01-08T11:41:53+01:00</time>
      </trkpt>
      <trkpt lat="45.34467" lon="5.87413">
        <ele>2005.9279785</ele>
        <time>2009-01-08T11:41:59+01:00</time>
      </trkpt>
      <trkpt lat="45.34466" lon="5.87412">
        <ele>1998.7182617</ele>
        <time>2009-01-08T11:42:10+01:00</time>
      </trkpt>
      <trkpt lat="45.34468" lon="5.87411">
        <ele>1995.8342285</ele>
        <time>2009-01-08T11:42:25+01:00</time>
      </trkpt>
      <trkpt lat="45.3447" lon="5.87411">
        <ele>1997.7570801</ele>
        <time>2009-01-08T11:42:30+01:00</time>
      </trkpt>
      <trkpt lat="45.34469" lon="5.87405">
        <ele>1998.2375488</ele>
        <time>2009-01-08T11:42:39+01:00</time>
      </trkpt>
      <trkpt lat="45.34472" lon="5.87403">
        <ele>2000.1604004</ele>
        <time>2009-01-08T11:42:46+01:00</time>
      </trkpt>
      <trkpt lat="45.34475" lon="5.87404">
        <ele>2003.0441895</ele>
        <time>2009-01-08T11:42:53+01:00</time>
      </trkpt>
      <trkpt lat="45.34477" lon="5.87404">
        <ele>2002.0827637</ele>
        <time>2009-01-08T11:42:59+01:00</time>
      </trkpt>
      <trkpt lat="45.34479" lon="5.87403">
        <ele>2003.0441895</ele>
        <time>2009-01-08T11:43:06+01:00</time>
      </trkpt>
      <trkpt lat="45.34482" lon="5.87402">
        <ele>2002.5634766</ele>
        <time>2009-01-08T11:43:13+01:00</time>
      </trkpt>
      <trkpt lat="45.34484" lon="5.874">
        <ele>2004.0056152</ele>
        <time>2009-01-08T11:43:22+01:00</time>
      </trkpt>
      <trkpt lat="45.34486" lon="5.87401">
        <ele>2007.3701172</ele>
        <time>2009-01-08T11:43:27+01:00</time>
      </trkpt>
      <trkpt lat="45.34488" lon="5.87401">
        <ele>2007.8508301</ele>
        <time>2009-01-08T11:43:32+01:00</time>
      </trkpt>
      <trkpt lat="45.34491" lon="5.87401">
        <ele>2007.8508301</ele>
        <time>2009-01-08T11:43:40+01:00</time>
      </trkpt>
      <trkpt lat="45.34493" lon="5.874">
        <ele>2006.8894043</ele>
        <time>2009-01-08T11:43:46+01:00</time>
      </trkpt>
      <trkpt lat="45.34494" lon="5.87398">
        <ele>2014.0993652</ele>
        <time>2009-01-08T11:44:13+01:00</time>
      </trkpt>
      <trkpt lat="45.34496" lon="5.87396">
        <ele>2016.0219727</ele>
        <time>2009-01-08T11:44:20+01:00</time>
      </trkpt>
      <trkpt lat="45.34498" lon="5.87395">
        <ele>2016.5026855</ele>
        <time>2009-01-08T11:44:26+01:00</time>
      </trkpt>
      <trkpt lat="45.34498" lon="5.87393">
        <ele>2016.5026855</ele>
        <time>2009-01-08T11:44:31+01:00</time>
      </trkpt>
      <trkpt lat="45.34498" lon="5.87391">
        <ele>2016.0219727</ele>
        <time>2009-01-08T11:44:49+01:00</time>
      </trkpt>
      <trkpt lat="45.34499" lon="5.87389">
        <ele>2016.5026855</ele>
        <time>2009-01-08T11:44:56+01:00</time>
      </trkpt>
      <trkpt lat="45.34499" lon="5.87386">
        <ele>2016.9833984</ele>
        <time>2009-01-08T11:45:11+01:00</time>
      </trkpt>
      <trkpt lat="45.345" lon="5.87385">
        <ele>2016.0219727</ele>
        <time>2009-01-08T11:45:16+01:00</time>
      </trkpt>
      <trkpt lat="45.345" lon="5.87386">
        <ele>2016.0219727</ele>
        <time>2009-01-08T11:45:22+01:00</time>
      </trkpt>
      <trkpt lat="45.34503" lon="5.87387">
        <ele>2016.0219727</ele>
        <time>2009-01-08T11:45:28+01:00</time>
      </trkpt>
      <trkpt lat="45.34509" lon="5.87388">
        <ele>2015.5415039</ele>
        <time>2009-01-08T11:45:35+01:00</time>
      </trkpt>
      <trkpt lat="45.34511" lon="5.87389">
        <ele>2014.0993652</ele>
        <time>2009-01-08T11:45:44+01:00</time>
      </trkpt>
      <trkpt lat="45.34514" lon="5.87389">
        <ele>2014.5800781</ele>
        <time>2009-01-08T11:45:52+01:00</time>
      </trkpt>
      <trkpt lat="45.34517" lon="5.8739">
        <ele>2015.060791</ele>
        <time>2009-01-08T11:45:58+01:00</time>
      </trkpt>
      <trkpt lat="45.3452" lon="5.8739">
        <ele>2015.5415039</ele>
        <time>2009-01-08T11:46:04+01:00</time>
      </trkpt>
      <trkpt lat="45.3452" lon="5.87391">
        <ele>2016.0219727</ele>
        <time>2009-01-08T11:46:09+01:00</time>
      </trkpt>
      <trkpt lat="45.3452" lon="5.8739">
        <ele>2016.5026855</ele>
        <time>2009-01-08T11:46:31+01:00</time>
      </trkpt>
      <trkpt lat="45.34523" lon="5.8739">
        <ele>2016.0219727</ele>
        <time>2009-01-08T11:46:48+01:00</time>
      </trkpt>
      <trkpt lat="45.34528" lon="5.87389">
        <ele>2016.0219727</ele>
        <time>2009-01-08T11:46:54+01:00</time>
      </trkpt>
      <trkpt lat="45.34533" lon="5.87388">
        <ele>2016.9833984</ele>
        <time>2009-01-08T11:47:01+01:00</time>
      </trkpt>
      <trkpt lat="45.34538" lon="5.87384">
        <ele>2017.9445801</ele>
        <time>2009-01-08T11:47:09+01:00</time>
      </trkpt>
      <trkpt lat="45.34544" lon="5.87382">
        <ele>2018.425293</ele>
        <time>2009-01-08T11:47:17+01:00</time>
      </trkpt>
      <trkpt lat="45.34547" lon="5.87381">
        <ele>2019.3867188</ele>
        <time>2009-01-08T11:47:24+01:00</time>
      </trkpt>
      <trkpt lat="45.34548" lon="5.8738">
        <ele>2019.8671875</ele>
        <time>2009-01-08T11:47:44+01:00</time>
      </trkpt>
      <trkpt lat="45.34551" lon="5.87378">
        <ele>2020.8286133</ele>
        <time>2009-01-08T11:48:14+01:00</time>
      </trkpt>
      <trkpt lat="45.34555" lon="5.87375">
        <ele>2019.3867188</ele>
        <time>2009-01-08T11:48:19+01:00</time>
      </trkpt>
      <trkpt lat="45.34563" lon="5.87376">
        <ele>2017.9445801</ele>
        <time>2009-01-08T11:48:27+01:00</time>
      </trkpt>
      <trkpt lat="45.34566" lon="5.87377">
        <ele>2016.9833984</ele>
        <time>2009-01-08T11:48:32+01:00</time>
      </trkpt>
      <trkpt lat="45.3457" lon="5.87376">
        <ele>2016.0219727</ele>
        <time>2009-01-08T11:48:38+01:00</time>
      </trkpt>
      <trkpt lat="45.34572" lon="5.87375">
        <ele>2016.0219727</ele>
        <time>2009-01-08T11:48:43+01:00</time>
      </trkpt>
      <trkpt lat="45.34576" lon="5.87374">
        <ele>2016.0219727</ele>
        <time>2009-01-08T11:48:50+01:00</time>
      </trkpt>
      <trkpt lat="45.34581" lon="5.87372">
        <ele>2016.0219727</ele>
        <time>2009-01-08T11:48:58+01:00</time>
      </trkpt>
      <trkpt lat="45.34584" lon="5.87371">
        <ele>2016.0219727</ele>
        <time>2009-01-08T11:49:05+01:00</time>
      </trkpt>
      <trkpt lat="45.34589" lon="5.87369">
        <ele>2015.5415039</ele>
        <time>2009-01-08T11:49:13+01:00</time>
      </trkpt>
      <trkpt lat="45.34593" lon="5.87367">
        <ele>2015.5415039</ele>
        <time>2009-01-08T11:49:18+01:00</time>
      </trkpt>
      <trkpt lat="45.34597" lon="5.87364">
        <ele>2015.5415039</ele>
        <time>2009-01-08T11:49:23+01:00</time>
      </trkpt>
      <trkpt lat="45.34601" lon="5.8736">
        <ele>2015.5415039</ele>
        <time>2009-01-08T11:49:30+01:00</time>
      </trkpt>
      <trkpt lat="45.34604" lon="5.87356">
        <ele>2016.9833984</ele>
        <time>2009-01-08T11:49:38+01:00</time>
      </trkpt>
      <trkpt lat="45.34607" lon="5.87353">
        <ele>2017.4638672</ele>
        <time>2009-01-08T11:49:44+01:00</time>
      </trkpt>
      <trkpt lat="45.34609" lon="5.87349">
        <ele>2017.9445801</ele>
        <time>2009-01-08T11:49:49+01:00</time>
      </trkpt>
      <trkpt lat="45.3461" lon="5.87346">
        <ele>2019.8671875</ele>
        <time>2009-01-08T11:49:55+01:00</time>
      </trkpt>
      <trkpt lat="45.34612" lon="5.87344">
        <ele>2021.309082</ele>
        <time>2009-01-08T11:50:00+01:00</time>
      </trkpt>
      <trkpt lat="45.34613" lon="5.87343">
        <ele>2022.2705078</ele>
        <time>2009-01-08T11:50:06+01:00</time>
      </trkpt>
      <trkpt lat="45.34615" lon="5.87341">
        <ele>2021.7897949</ele>
        <time>2009-01-08T11:50:13+01:00</time>
      </trkpt>
      <trkpt lat="45.34617" lon="5.87338">
        <ele>2021.309082</ele>
        <time>2009-01-08T11:50:19+01:00</time>
      </trkpt>
      <trkpt lat="45.34618" lon="5.87337">
        <ele>2023.7124023</ele>
        <time>2009-01-08T11:50:25+01:00</time>
      </trkpt>
      <trkpt lat="45.34619" lon="5.87334">
        <ele>2026.1157227</ele>
        <time>2009-01-08T11:50:34+01:00</time>
      </trkpt>
      <trkpt lat="45.3462" lon="5.87331">
        <ele>2029.4804688</ele>
        <time>2009-01-08T11:50:41+01:00</time>
      </trkpt>
      <trkpt lat="45.34622" lon="5.87331">
        <ele>2028.0385742</ele>
        <time>2009-01-08T11:50:46+01:00</time>
      </trkpt>
      <trkpt lat="45.34624" lon="5.87333">
        <ele>2027.0771484</ele>
        <time>2009-01-08T11:51:02+01:00</time>
      </trkpt>
      <trkpt lat="45.34623" lon="5.87331">
        <ele>2027.5576172</ele>
        <time>2009-01-08T11:51:11+01:00</time>
      </trkpt>
      <trkpt lat="45.34624" lon="5.8733">
        <ele>2029.4804688</ele>
        <time>2009-01-08T11:51:15+01:00</time>
      </trkpt>
      <trkpt lat="45.34627" lon="5.87331">
        <ele>2031.4030762</ele>
        <time>2009-01-08T11:51:22+01:00</time>
      </trkpt>
      <trkpt lat="45.34627" lon="5.87332">
        <ele>2033.3256836</ele>
        <time>2009-01-08T11:51:30+01:00</time>
      </trkpt>
      <trkpt lat="45.34627" lon="5.87333">
        <ele>2034.2871094</ele>
        <time>2009-01-08T11:51:37+01:00</time>
      </trkpt>
      <trkpt lat="45.34626" lon="5.87334">
        <ele>2033.8063965</ele>
        <time>2009-01-08T11:51:48+01:00</time>
      </trkpt>
      <trkpt lat="45.34627" lon="5.87333">
        <ele>2032.8449707</ele>
        <time>2009-01-08T11:52:02+01:00</time>
      </trkpt>
      <trkpt lat="45.34627" lon="5.87332">
        <ele>2033.8063965</ele>
        <time>2009-01-08T11:52:11+01:00</time>
      </trkpt>
      <trkpt lat="45.34627" lon="5.87329">
        <ele>2032.8449707</ele>
        <time>2009-01-08T11:52:18+01:00</time>
      </trkpt>
      <trkpt lat="45.34628" lon="5.87327">
        <ele>2034.7678223</ele>
        <time>2009-01-08T11:52:26+01:00</time>
      </trkpt>
      <trkpt lat="45.34627" lon="5.87326">
        <ele>2044.3808594</ele>
        <time>2009-01-08T11:52:32+01:00</time>
      </trkpt>
      <trkpt lat="45.34627" lon="5.87323">
        <ele>2051.1101074</ele>
        <time>2009-01-08T11:52:39+01:00</time>
      </trkpt>
      <trkpt lat="45.34629" lon="5.87321">
        <ele>2048.2260742</ele>
        <time>2009-01-08T11:52:46+01:00</time>
      </trkpt>
      <trkpt lat="45.34631" lon="5.87319">
        <ele>2044.8615723</ele>
        <time>2009-01-08T11:52:52+01:00</time>
      </trkpt>
      <trkpt lat="45.34633" lon="5.87318">
        <ele>2042.9387207</ele>
        <time>2009-01-08T11:53:04+01:00</time>
      </trkpt>
      <trkpt lat="45.34633" lon="5.87317">
        <ele>2043.4194336</ele>
        <time>2009-01-08T11:53:09+01:00</time>
      </trkpt>
      <trkpt lat="45.34634" lon="5.87317">
        <ele>2045.3422852</ele>
        <time>2009-01-08T11:53:14+01:00</time>
      </trkpt>
      <trkpt lat="45.34635" lon="5.87316">
        <ele>2047.2648926</ele>
        <time>2009-01-08T11:53:19+01:00</time>
      </trkpt>
      <trkpt lat="45.34636" lon="5.87315">
        <ele>2047.2648926</ele>
        <time>2009-01-08T11:53:31+01:00</time>
      </trkpt>
      <trkpt lat="45.34637" lon="5.87316">
        <ele>2050.1489258</ele>
        <time>2009-01-08T11:53:47+01:00</time>
      </trkpt>
      <trkpt lat="45.34637" lon="5.87313">
        <ele>2050.1489258</ele>
        <time>2009-01-08T11:53:54+01:00</time>
      </trkpt>
      <trkpt lat="45.34638" lon="5.8731">
        <ele>2050.6293945</ele>
        <time>2009-01-08T11:53:59+01:00</time>
      </trkpt>
      <trkpt lat="45.3464" lon="5.87308">
        <ele>2051.5908203</ele>
        <time>2009-01-08T11:54:04+01:00</time>
      </trkpt>
      <trkpt lat="45.34642" lon="5.87305">
        <ele>2052.552002</ele>
        <time>2009-01-08T11:54:10+01:00</time>
      </trkpt>
      <trkpt lat="45.34644" lon="5.87305">
        <ele>2052.0712891</ele>
        <time>2009-01-08T11:54:15+01:00</time>
      </trkpt>
      <trkpt lat="45.34646" lon="5.87305">
        <ele>2051.5908203</ele>
        <time>2009-01-08T11:54:22+01:00</time>
      </trkpt>
      <trkpt lat="45.34651" lon="5.87309">
        <ele>2049.6682129</ele>
        <time>2009-01-08T11:54:28+01:00</time>
      </trkpt>
      <trkpt lat="45.34656" lon="5.8731">
        <ele>2049.6682129</ele>
        <time>2009-01-08T11:54:34+01:00</time>
      </trkpt>
      <trkpt lat="45.34659" lon="5.87311">
        <ele>2049.1875</ele>
        <time>2009-01-08T11:54:40+01:00</time>
      </trkpt>
      <trkpt lat="45.34662" lon="5.87312">
        <ele>2049.1875</ele>
        <time>2009-01-08T11:54:46+01:00</time>
      </trkpt>
      <trkpt lat="45.34666" lon="5.87313">
        <ele>2049.1875</ele>
        <time>2009-01-08T11:54:52+01:00</time>
      </trkpt>
      <trkpt lat="45.34669" lon="5.87313">
        <ele>2049.1875</ele>
        <time>2009-01-08T11:54:57+01:00</time>
      </trkpt>
      <trkpt lat="45.34673" lon="5.87316">
        <ele>2048.7067871</ele>
        <time>2009-01-08T11:55:03+01:00</time>
      </trkpt>
      <trkpt lat="45.34676" lon="5.87316">
        <ele>2048.7067871</ele>
        <time>2009-01-08T11:55:09+01:00</time>
      </trkpt>
      <trkpt lat="45.34678" lon="5.87317">
        <ele>2050.1489258</ele>
        <time>2009-01-08T11:55:15+01:00</time>
      </trkpt>
      <trkpt lat="45.34682" lon="5.87316">
        <ele>2051.5908203</ele>
        <time>2009-01-08T11:55:21+01:00</time>
      </trkpt>
      <trkpt lat="45.34684" lon="5.87314">
        <ele>2052.0712891</ele>
        <time>2009-01-08T11:55:26+01:00</time>
      </trkpt>
      <trkpt lat="45.34688" lon="5.87315">
        <ele>2051.5908203</ele>
        <time>2009-01-08T11:55:33+01:00</time>
      </trkpt>
      <trkpt lat="45.34692" lon="5.87316">
        <ele>2051.5908203</ele>
        <time>2009-01-08T11:55:39+01:00</time>
      </trkpt>
      <trkpt lat="45.34693" lon="5.87317">
        <ele>2052.552002</ele>
        <time>2009-01-08T11:55:49+01:00</time>
      </trkpt>
      <trkpt lat="45.34693" lon="5.87316">
        <ele>2053.5134277</ele>
        <time>2009-01-08T11:55:57+01:00</time>
      </trkpt>
      <trkpt lat="45.34693" lon="5.87317">
        <ele>2052.552002</ele>
        <time>2009-01-08T11:56:24+01:00</time>
      </trkpt>
      <trkpt lat="45.34693" lon="5.87318">
        <ele>2051.5908203</ele>
        <time>2009-01-08T11:56:34+01:00</time>
      </trkpt>
      <trkpt lat="45.34692" lon="5.87316">
        <ele>2053.9941406</ele>
        <time>2009-01-08T11:57:07+01:00</time>
      </trkpt>
      <trkpt lat="45.34693" lon="5.87316">
        <ele>2053.5134277</ele>
        <time>2009-01-08T11:57:17+01:00</time>
      </trkpt>
      <trkpt lat="45.34692" lon="5.87317">
        <ele>2051.5908203</ele>
        <time>2009-01-08T11:57:45+01:00</time>
      </trkpt>
      <trkpt lat="45.34692" lon="5.87318">
        <ele>2051.5908203</ele>
        <time>2009-01-08T11:58:04+01:00</time>
      </trkpt>
      <trkpt lat="45.34693" lon="5.87318">
        <ele>2052.0712891</ele>
        <time>2009-01-08T11:58:23+01:00</time>
      </trkpt>
      <trkpt lat="45.34694" lon="5.87318">
        <ele>2053.5134277</ele>
        <time>2009-01-08T11:58:53+01:00</time>
      </trkpt>
      <trkpt lat="45.34693" lon="5.87317">
        <ele>2054.9553223</ele>
        <time>2009-01-08T11:59:11+01:00</time>
      </trkpt>
      <trkpt lat="45.34693" lon="5.87316">
        <ele>2054.9553223</ele>
        <time>2009-01-08T11:59:21+01:00</time>
      </trkpt>
      <trkpt lat="45.34693" lon="5.87317">
        <ele>2053.5134277</ele>
        <time>2009-01-08T11:59:39+01:00</time>
      </trkpt>
      <trkpt lat="45.34692" lon="5.87317">
        <ele>2054.4746094</ele>
        <time>2009-01-08T11:59:46+01:00</time>
      </trkpt>
      <trkpt lat="45.34691" lon="5.87316">
        <ele>2055.4360352</ele>
        <time>2009-01-08T11:59:59+01:00</time>
      </trkpt>
      <trkpt lat="45.34692" lon="5.87317">
        <ele>2054.4746094</ele>
        <time>2009-01-08T12:00:04+01:00</time>
      </trkpt>
      <trkpt lat="45.34693" lon="5.87317">
        <ele>2054.9553223</ele>
        <time>2009-01-08T12:00:11+01:00</time>
      </trkpt>
      <trkpt lat="45.34691" lon="5.87316">
        <ele>2054.4746094</ele>
        <time>2009-01-08T12:00:19+01:00</time>
      </trkpt>
      <trkpt lat="45.34692" lon="5.87318">
        <ele>2054.4746094</ele>
        <time>2009-01-08T12:00:23+01:00</time>
      </trkpt>
      <trkpt lat="45.34693" lon="5.87317">
        <ele>2054.4746094</ele>
        <time>2009-01-08T12:00:40+01:00</time>
      </trkpt>
      <trkpt lat="45.34693" lon="5.87318">
        <ele>2052.552002</ele>
        <time>2009-01-08T12:00:47+01:00</time>
      </trkpt>
      <trkpt lat="45.34693" lon="5.87319">
        <ele>2052.552002</ele>
        <time>2009-01-08T12:00:55+01:00</time>
      </trkpt>
      <trkpt lat="45.34691" lon="5.87319">
        <ele>2052.552002</ele>
        <time>2009-01-08T12:01:16+01:00</time>
      </trkpt>
      <trkpt lat="45.3469" lon="5.87317">
        <ele>2052.552002</ele>
        <time>2009-01-08T12:01:24+01:00</time>
      </trkpt>
      <trkpt lat="45.34691" lon="5.87319">
        <ele>2051.5908203</ele>
        <time>2009-01-08T12:01:30+01:00</time>
      </trkpt>
      <trkpt lat="45.34691" lon="5.8732">
        <ele>2052.552002</ele>
        <time>2009-01-08T12:01:38+01:00</time>
      </trkpt>
      <trkpt lat="45.34691" lon="5.87319">
        <ele>2053.5134277</ele>
        <time>2009-01-08T12:01:48+01:00</time>
      </trkpt>
      <trkpt lat="45.34692" lon="5.87317">
        <ele>2053.9941406</ele>
        <time>2009-01-08T12:02:05+01:00</time>
      </trkpt>
      <trkpt lat="45.34693" lon="5.87317">
        <ele>2053.9941406</ele>
        <time>2009-01-08T12:02:21+01:00</time>
      </trkpt>
      <trkpt lat="45.34692" lon="5.87316">
        <ele>2053.5134277</ele>
        <time>2009-01-08T12:02:43+01:00</time>
      </trkpt>
      <trkpt lat="45.34692" lon="5.87317">
        <ele>2053.5134277</ele>
        <time>2009-01-08T12:02:50+01:00</time>
      </trkpt>
      <trkpt lat="45.34692" lon="5.87316">
        <ele>2054.9553223</ele>
        <time>2009-01-08T12:03:06+01:00</time>
      </trkpt>
      <trkpt lat="45.34693" lon="5.87317">
        <ele>2053.5134277</ele>
        <time>2009-01-08T12:03:28+01:00</time>
      </trkpt>
      <trkpt lat="45.34693" lon="5.87318">
        <ele>2053.0327148</ele>
        <time>2009-01-08T12:03:54+01:00</time>
      </trkpt>
      <trkpt lat="45.34693" lon="5.87319">
        <ele>2050.6293945</ele>
        <time>2009-01-08T12:04:26+01:00</time>
      </trkpt>
      <trkpt lat="45.34694" lon="5.87319">
        <ele>2050.1489258</ele>
        <time>2009-01-08T12:05:07+01:00</time>
      </trkpt>
      <trkpt lat="45.34696" lon="5.8732">
        <ele>2051.1101074</ele>
        <time>2009-01-08T12:05:19+01:00</time>
      </trkpt>
      <trkpt lat="45.34695" lon="5.8732">
        <ele>2051.5908203</ele>
        <time>2009-01-08T12:05:25+01:00</time>
      </trkpt>
      <trkpt lat="45.34692" lon="5.8732">
        <ele>2052.0712891</ele>
        <time>2009-01-08T12:05:30+01:00</time>
      </trkpt>
      <trkpt lat="45.34689" lon="5.87318">
        <ele>2052.552002</ele>
        <time>2009-01-08T12:05:35+01:00</time>
      </trkpt>
      <trkpt lat="45.34688" lon="5.87318">
        <ele>2052.552002</ele>
        <time>2009-01-08T12:05:41+01:00</time>
      </trkpt>
      <trkpt lat="45.34687" lon="5.87318">
        <ele>2052.552002</ele>
        <time>2009-01-08T12:06:03+01:00</time>
      </trkpt>
      <trkpt lat="45.34685" lon="5.87318">
        <ele>2053.0327148</ele>
        <time>2009-01-08T12:06:25+01:00</time>
      </trkpt>
      <trkpt lat="45.34685" lon="5.8732">
        <ele>2051.1101074</ele>
        <time>2009-01-08T12:06:40+01:00</time>
      </trkpt>
      <trkpt lat="45.34684" lon="5.87321">
        <ele>2050.6293945</ele>
        <time>2009-01-08T12:06:46+01:00</time>
      </trkpt>
      <trkpt lat="45.34684" lon="5.87322">
        <ele>2048.7067871</ele>
        <time>2009-01-08T12:06:51+01:00</time>
      </trkpt>
      <trkpt lat="45.34682" lon="5.87322">
        <ele>2047.7456055</ele>
        <time>2009-01-08T12:06:58+01:00</time>
      </trkpt>
      <trkpt lat="45.34683" lon="5.87322">
        <ele>2047.7456055</ele>
        <time>2009-01-08T12:07:04+01:00</time>
      </trkpt>
      <trkpt lat="45.34683" lon="5.87323">
        <ele>2047.2648926</ele>
        <time>2009-01-08T12:07:12+01:00</time>
      </trkpt>
      <trkpt lat="45.34684" lon="5.87324">
        <ele>2047.2648926</ele>
        <time>2009-01-08T12:07:18+01:00</time>
      </trkpt>
      <trkpt lat="45.34686" lon="5.87324">
        <ele>2047.7456055</ele>
        <time>2009-01-08T12:07:23+01:00</time>
      </trkpt>
      <trkpt lat="45.34688" lon="5.87326">
        <ele>2048.2260742</ele>
        <time>2009-01-08T12:07:28+01:00</time>
      </trkpt>
      <trkpt lat="45.34691" lon="5.87328">
        <ele>2047.7456055</ele>
        <time>2009-01-08T12:07:33+01:00</time>
      </trkpt>
      <trkpt lat="45.34697" lon="5.87332">
        <ele>2046.7841797</ele>
        <time>2009-01-08T12:07:37+01:00</time>
      </trkpt>
      <trkpt lat="45.34698" lon="5.87333">
        <ele>2044.8615723</ele>
        <time>2009-01-08T12:07:40+01:00</time>
      </trkpt>
      <trkpt lat="45.347" lon="5.87341">
        <ele>2041.0161133</ele>
        <time>2009-01-08T12:07:44+01:00</time>
      </trkpt>
      <trkpt lat="45.34701" lon="5.87346">
        <ele>2038.1323242</ele>
        <time>2009-01-08T12:07:47+01:00</time>
      </trkpt>
      <trkpt lat="45.34694" lon="5.8735">
        <ele>2034.7678223</ele>
        <time>2009-01-08T12:07:51+01:00</time>
      </trkpt>
      <trkpt lat="45.34677" lon="5.87348">
        <ele>2030.9226074</ele>
        <time>2009-01-08T12:07:56+01:00</time>
      </trkpt>
      <trkpt lat="45.34673" lon="5.87347">
        <ele>2029.9611816</ele>
        <time>2009-01-08T12:07:58+01:00</time>
      </trkpt>
      <trkpt lat="45.34671" lon="5.87347">
        <ele>2028.5192871</ele>
        <time>2009-01-08T12:08:10+01:00</time>
      </trkpt>
      <trkpt lat="45.3467" lon="5.87348">
        <ele>2033.3256836</ele>
        <time>2009-01-08T12:08:53+01:00</time>
      </trkpt>
      <trkpt lat="45.34664" lon="5.87351">
        <ele>2030.4418945</ele>
        <time>2009-01-08T12:08:57+01:00</time>
      </trkpt>
      <trkpt lat="45.34665" lon="5.87357">
        <ele>2026.5964355</ele>
        <time>2009-01-08T12:09:01+01:00</time>
      </trkpt>
      <trkpt lat="45.34665" lon="5.87364">
        <ele>2022.2705078</ele>
        <time>2009-01-08T12:09:05+01:00</time>
      </trkpt>
      <trkpt lat="45.34661" lon="5.87365">
        <ele>2020.8286133</ele>
        <time>2009-01-08T12:09:07+01:00</time>
      </trkpt>
      <trkpt lat="45.3466" lon="5.87363">
        <ele>2018.9060059</ele>
        <time>2009-01-08T12:09:15+01:00</time>
      </trkpt>
      <trkpt lat="45.3466" lon="5.87361">
        <ele>2013.1381836</ele>
        <time>2009-01-08T12:09:32+01:00</time>
      </trkpt>
      <trkpt lat="45.34655" lon="5.87361">
        <ele>2010.7346191</ele>
        <time>2009-01-08T12:09:41+01:00</time>
      </trkpt>
      <trkpt lat="45.34648" lon="5.87361">
        <ele>2009.7731934</ele>
        <time>2009-01-08T12:09:43+01:00</time>
      </trkpt>
      <trkpt lat="45.34647" lon="5.87388">
        <ele>2004.486084</ele>
        <time>2009-01-08T12:09:47+01:00</time>
      </trkpt>
      <trkpt lat="45.34645" lon="5.87406">
        <ele>2000.1604004</ele>
        <time>2009-01-08T12:09:49+01:00</time>
      </trkpt>
      <trkpt lat="45.3464" lon="5.87422">
        <ele>1995.8342285</ele>
        <time>2009-01-08T12:09:51+01:00</time>
      </trkpt>
      <trkpt lat="45.34635" lon="5.87418">
        <ele>1989.1049805</ele>
        <time>2009-01-08T12:09:54+01:00</time>
      </trkpt>
      <trkpt lat="45.34635" lon="5.87417">
        <ele>1986.7016602</ele>
        <time>2009-01-08T12:09:58+01:00</time>
      </trkpt>
      <trkpt lat="45.34634" lon="5.87417">
        <ele>1984.298584</ele>
        <time>2009-01-08T12:10:07+01:00</time>
      </trkpt>
      <trkpt lat="45.34634" lon="5.87418">
        <ele>1982.3759766</ele>
        <time>2009-01-08T12:10:22+01:00</time>
      </trkpt>
      <trkpt lat="45.34636" lon="5.87414">
        <ele>1982.3759766</ele>
        <time>2009-01-08T12:10:41+01:00</time>
      </trkpt>
      <trkpt lat="45.34636" lon="5.87415">
        <ele>1981.4145508</ele>
        <time>2009-01-08T12:10:51+01:00</time>
      </trkpt>
      <trkpt lat="45.34635" lon="5.87417">
        <ele>1980.4533691</ele>
        <time>2009-01-08T12:10:58+01:00</time>
      </trkpt>
      <trkpt lat="45.34628" lon="5.87429">
        <ele>1979.0109863</ele>
        <time>2009-01-08T12:11:02+01:00</time>
      </trkpt>
      <trkpt lat="45.34622" lon="5.8744">
        <ele>1978.0498047</ele>
        <time>2009-01-08T12:11:04+01:00</time>
      </trkpt>
      <trkpt lat="45.34618" lon="5.87481">
        <ele>1969.3981934</ele>
        <time>2009-01-08T12:11:08+01:00</time>
      </trkpt>
      <trkpt lat="45.34639" lon="5.87504">
        <ele>1960.2653809</ele>
        <time>2009-01-08T12:11:11+01:00</time>
      </trkpt>
      <trkpt lat="45.34626" lon="5.87531">
        <ele>1944.4035645</ele>
        <time>2009-01-08T12:11:14+01:00</time>
      </trkpt>
      <trkpt lat="45.34636" lon="5.87537">
        <ele>1929.5031738</ele>
        <time>2009-01-08T12:11:16+01:00</time>
      </trkpt>
      <trkpt lat="45.34645" lon="5.87537">
        <ele>1919.409668</ele>
        <time>2009-01-08T12:11:18+01:00</time>
      </trkpt>
      <trkpt lat="45.34645" lon="5.87536">
        <ele>1913.1608887</ele>
        <time>2009-01-08T12:11:21+01:00</time>
      </trkpt>
      <trkpt lat="45.34643" lon="5.87535">
        <ele>1909.7961426</ele>
        <time>2009-01-08T12:11:24+01:00</time>
      </trkpt>
      <trkpt lat="45.34642" lon="5.87535">
        <ele>1909.7961426</ele>
        <time>2009-01-08T12:11:31+01:00</time>
      </trkpt>
      <trkpt lat="45.34641" lon="5.87537">
        <ele>1909.3156738</ele>
        <time>2009-01-08T12:12:04+01:00</time>
      </trkpt>
      <trkpt lat="45.34641" lon="5.87538">
        <ele>1909.7961426</ele>
        <time>2009-01-08T12:12:14+01:00</time>
      </trkpt>
      <trkpt lat="45.34641" lon="5.87537">
        <ele>1909.7961426</ele>
        <time>2009-01-08T12:12:19+01:00</time>
      </trkpt>
      <trkpt lat="45.34637" lon="5.87538">
        <ele>1908.354248</ele>
        <time>2009-01-08T12:12:25+01:00</time>
      </trkpt>
      <trkpt lat="45.34628" lon="5.87543">
        <ele>1905.470459</ele>
        <time>2009-01-08T12:12:30+01:00</time>
      </trkpt>
      <trkpt lat="45.34625" lon="5.87543">
        <ele>1904.9897461</ele>
        <time>2009-01-08T12:12:34+01:00</time>
      </trkpt>
      <trkpt lat="45.34624" lon="5.87543">
        <ele>1904.5090332</ele>
        <time>2009-01-08T12:12:36+01:00</time>
      </trkpt>
      <trkpt lat="45.34621" lon="5.87551">
        <ele>1902.1057129</ele>
        <time>2009-01-08T12:12:40+01:00</time>
      </trkpt>
      <trkpt lat="45.34621" lon="5.87565">
        <ele>1898.7409668</ele>
        <time>2009-01-08T12:12:43+01:00</time>
      </trkpt>
      <trkpt lat="45.34618" lon="5.87579">
        <ele>1893.4538574</ele>
        <time>2009-01-08T12:12:46+01:00</time>
      </trkpt>
      <trkpt lat="45.346" lon="5.87589">
        <ele>1886.2441406</ele>
        <time>2009-01-08T12:12:51+01:00</time>
      </trkpt>
      <trkpt lat="45.34597" lon="5.8759">
        <ele>1884.8022461</ele>
        <time>2009-01-08T12:12:54+01:00</time>
      </trkpt>
      <trkpt lat="45.34598" lon="5.87589">
        <ele>1881.4372559</ele>
        <time>2009-01-08T12:13:20+01:00</time>
      </trkpt>
      <trkpt lat="45.34596" lon="5.87589">
        <ele>1877.1115723</ele>
        <time>2009-01-08T12:13:49+01:00</time>
      </trkpt>
      <trkpt lat="45.34595" lon="5.87589">
        <ele>1876.6308594</ele>
        <time>2009-01-08T12:13:58+01:00</time>
      </trkpt>
      <trkpt lat="45.34593" lon="5.87592">
        <ele>1874.708252</ele>
        <time>2009-01-08T12:14:01+01:00</time>
      </trkpt>
      <trkpt lat="45.34587" lon="5.87603">
        <ele>1871.8242188</ele>
        <time>2009-01-08T12:14:04+01:00</time>
      </trkpt>
      <trkpt lat="45.34585" lon="5.8762">
        <ele>1866.5368652</ele>
        <time>2009-01-08T12:14:07+01:00</time>
      </trkpt>
      <trkpt lat="45.34588" lon="5.87627">
        <ele>1864.1335449</ele>
        <time>2009-01-08T12:14:08+01:00</time>
      </trkpt>
      <trkpt lat="45.34586" lon="5.87651">
        <ele>1853.5593262</ele>
        <time>2009-01-08T12:14:12+01:00</time>
      </trkpt>
      <trkpt lat="45.34588" lon="5.87679">
        <ele>1839.6201172</ele>
        <time>2009-01-08T12:14:16+01:00</time>
      </trkpt>
      <trkpt lat="45.34591" lon="5.87701">
        <ele>1829.526123</ele>
        <time>2009-01-08T12:14:19+01:00</time>
      </trkpt>
      <trkpt lat="45.34578" lon="5.87714">
        <ele>1818.4709473</ele>
        <time>2009-01-08T12:14:22+01:00</time>
      </trkpt>
      <trkpt lat="45.34563" lon="5.87719">
        <ele>1806.4545898</ele>
        <time>2009-01-08T12:14:27+01:00</time>
      </trkpt>
      <trkpt lat="45.34565" lon="5.8772">
        <ele>1806.4545898</ele>
        <time>2009-01-08T12:14:31+01:00</time>
      </trkpt>
      <trkpt lat="45.34566" lon="5.87719">
        <ele>1806.4545898</ele>
        <time>2009-01-08T12:14:36+01:00</time>
      </trkpt>
      <trkpt lat="45.34564" lon="5.87717">
        <ele>1810.2998047</ele>
        <time>2009-01-08T12:14:52+01:00</time>
      </trkpt>
      <trkpt lat="45.34562" lon="5.87717">
        <ele>1810.2998047</ele>
        <time>2009-01-08T12:15:05+01:00</time>
      </trkpt>
      <trkpt lat="45.34545" lon="5.87719">
        <ele>1805.973877</ele>
        <time>2009-01-08T12:15:10+01:00</time>
      </trkpt>
      <trkpt lat="45.34525" lon="5.87743">
        <ele>1799.7253418</ele>
        <time>2009-01-08T12:15:14+01:00</time>
      </trkpt>
      <trkpt lat="45.3451" lon="5.87772">
        <ele>1794.4379883</ele>
        <time>2009-01-08T12:15:18+01:00</time>
      </trkpt>
      <trkpt lat="45.34503" lon="5.87794">
        <ele>1790.1123047</ele>
        <time>2009-01-08T12:15:21+01:00</time>
      </trkpt>
      <trkpt lat="45.34499" lon="5.87824">
        <ele>1783.8635254</ele>
        <time>2009-01-08T12:15:26+01:00</time>
      </trkpt>
      <trkpt lat="45.34495" lon="5.8783">
        <ele>1782.9020996</ele>
        <time>2009-01-08T12:15:28+01:00</time>
      </trkpt>
      <trkpt lat="45.34492" lon="5.87833">
        <ele>1782.4216309</ele>
        <time>2009-01-08T12:15:33+01:00</time>
      </trkpt>
      <trkpt lat="45.34493" lon="5.87832">
        <ele>1782.9020996</ele>
        <time>2009-01-08T12:15:56+01:00</time>
      </trkpt>
      <trkpt lat="45.34492" lon="5.87832">
        <ele>1782.9020996</ele>
        <time>2009-01-08T12:16:08+01:00</time>
      </trkpt>
      <trkpt lat="45.34489" lon="5.87833">
        <ele>1782.9020996</ele>
        <time>2009-01-08T12:16:13+01:00</time>
      </trkpt>
      <trkpt lat="45.34488" lon="5.87833">
        <ele>1782.9020996</ele>
        <time>2009-01-08T12:16:17+01:00</time>
      </trkpt>
      <trkpt lat="45.34486" lon="5.8783">
        <ele>1783.3828125</ele>
        <time>2009-01-08T12:16:22+01:00</time>
      </trkpt>
      <trkpt lat="45.34487" lon="5.87828">
        <ele>1783.3828125</ele>
        <time>2009-01-08T12:16:26+01:00</time>
      </trkpt>
      <trkpt lat="45.34486" lon="5.87828">
        <ele>1783.8635254</ele>
        <time>2009-01-08T12:16:36+01:00</time>
      </trkpt>
      <trkpt lat="45.34488" lon="5.87825">
        <ele>1784.8249512</ele>
        <time>2009-01-08T12:16:53+01:00</time>
      </trkpt>
      <trkpt lat="45.34489" lon="5.87824">
        <ele>1784.8249512</ele>
        <time>2009-01-08T12:16:58+01:00</time>
      </trkpt>
      <trkpt lat="45.34489" lon="5.87823">
        <ele>1785.3054199</ele>
        <time>2009-01-08T12:17:05+01:00</time>
      </trkpt>
      <trkpt lat="45.34488" lon="5.87825">
        <ele>1784.8249512</ele>
        <time>2009-01-08T12:17:09+01:00</time>
      </trkpt>
      <trkpt lat="45.34487" lon="5.87824">
        <ele>1782.9020996</ele>
        <time>2009-01-08T12:17:38+01:00</time>
      </trkpt>
      <trkpt lat="45.34487" lon="5.87822">
        <ele>1782.9020996</ele>
        <time>2009-01-08T12:17:54+01:00</time>
      </trkpt>
      <trkpt lat="45.34487" lon="5.87823">
        <ele>1782.9020996</ele>
        <time>2009-01-08T12:18:03+01:00</time>
      </trkpt>
      <trkpt lat="45.34488" lon="5.87823">
        <ele>1783.3828125</ele>
        <time>2009-01-08T12:18:27+01:00</time>
      </trkpt>
      <trkpt lat="45.34488" lon="5.87824">
        <ele>1783.3828125</ele>
        <time>2009-01-08T12:18:49+01:00</time>
      </trkpt>
      <trkpt lat="45.34488" lon="5.87822">
        <ele>1780.9797363</ele>
        <time>2009-01-08T12:19:21+01:00</time>
      </trkpt>
      <trkpt lat="45.34487" lon="5.87821">
        <ele>1780.9797363</ele>
        <time>2009-01-08T12:19:29+01:00</time>
      </trkpt>
      <trkpt lat="45.34488" lon="5.87822">
        <ele>1780.4990234</ele>
        <time>2009-01-08T12:19:35+01:00</time>
      </trkpt>
      <trkpt lat="45.34487" lon="5.87823">
        <ele>1781.4602051</ele>
        <time>2009-01-08T12:19:45+01:00</time>
      </trkpt>
      <trkpt lat="45.34487" lon="5.87821">
        <ele>1781.940918</ele>
        <time>2009-01-08T12:19:50+01:00</time>
      </trkpt>
      <trkpt lat="45.34488" lon="5.87822">
        <ele>1784.8249512</ele>
        <time>2009-01-08T12:20:04+01:00</time>
      </trkpt>
      <trkpt lat="45.34488" lon="5.87823">
        <ele>1786.7473145</ele>
        <time>2009-01-08T12:20:19+01:00</time>
      </trkpt>
      <trkpt lat="45.34489" lon="5.87824">
        <ele>1787.7087402</ele>
        <time>2009-01-08T12:20:38+01:00</time>
      </trkpt>
      <trkpt lat="45.34489" lon="5.87826">
        <ele>1786.2668457</ele>
        <time>2009-01-08T12:20:47+01:00</time>
      </trkpt>
      <trkpt lat="45.3449" lon="5.87823">
        <ele>1785.3054199</ele>
        <time>2009-01-08T12:21:01+01:00</time>
      </trkpt>
      <trkpt lat="45.34489" lon="5.87822">
        <ele>1780.4990234</ele>
        <time>2009-01-08T12:21:07+01:00</time>
      </trkpt>
      <trkpt lat="45.34488" lon="5.8782">
        <ele>1778.0957031</ele>
        <time>2009-01-08T12:21:15+01:00</time>
      </trkpt>
      <trkpt lat="45.34489" lon="5.8782">
        <ele>1779.0568848</ele>
        <time>2009-01-08T12:21:22+01:00</time>
      </trkpt>
      <trkpt lat="45.34489" lon="5.87821">
        <ele>1781.940918</ele>
        <time>2009-01-08T12:21:28+01:00</time>
      </trkpt>
      <trkpt lat="45.34489" lon="5.87822">
        <ele>1782.4216309</ele>
        <time>2009-01-08T12:21:39+01:00</time>
      </trkpt>
      <trkpt lat="45.34487" lon="5.87823">
        <ele>1782.9020996</ele>
        <time>2009-01-08T12:21:48+01:00</time>
      </trkpt>
      <trkpt lat="45.34483" lon="5.87821">
        <ele>1783.3828125</ele>
        <time>2009-01-08T12:21:54+01:00</time>
      </trkpt>
      <trkpt lat="45.34479" lon="5.87819">
        <ele>1784.8249512</ele>
        <time>2009-01-08T12:22:00+01:00</time>
      </trkpt>
      <trkpt lat="45.34476" lon="5.87817">
        <ele>1785.7861328</ele>
        <time>2009-01-08T12:22:05+01:00</time>
      </trkpt>
      <trkpt lat="45.34474" lon="5.87815">
        <ele>1785.7861328</ele>
        <time>2009-01-08T12:22:10+01:00</time>
      </trkpt>
      <trkpt lat="45.34471" lon="5.87814">
        <ele>1786.7473145</ele>
        <time>2009-01-08T12:22:15+01:00</time>
      </trkpt>
      <trkpt lat="45.34467" lon="5.87812">
        <ele>1787.7087402</ele>
        <time>2009-01-08T12:22:22+01:00</time>
      </trkpt>
      <trkpt lat="45.34466" lon="5.87809">
        <ele>1788.6704102</ele>
        <time>2009-01-08T12:22:27+01:00</time>
      </trkpt>
      <trkpt lat="45.34465" lon="5.8781">
        <ele>1790.1123047</ele>
        <time>2009-01-08T12:22:32+01:00</time>
      </trkpt>
      <trkpt lat="45.34467" lon="5.87808">
        <ele>1789.6315918</ele>
        <time>2009-01-08T12:22:47+01:00</time>
      </trkpt>
      <trkpt lat="45.34467" lon="5.8781">
        <ele>1790.5927734</ele>
        <time>2009-01-08T12:23:00+01:00</time>
      </trkpt>
      <trkpt lat="45.34466" lon="5.87811">
        <ele>1791.5541992</ele>
        <time>2009-01-08T12:23:09+01:00</time>
      </trkpt>
      <trkpt lat="45.34465" lon="5.8781">
        <ele>1790.5927734</ele>
        <time>2009-01-08T12:23:21+01:00</time>
      </trkpt>
      <trkpt lat="45.34464" lon="5.87812">
        <ele>1792.0349121</ele>
        <time>2009-01-08T12:23:29+01:00</time>
      </trkpt>
      <trkpt lat="45.34463" lon="5.87812">
        <ele>1791.5541992</ele>
        <time>2009-01-08T12:23:36+01:00</time>
      </trkpt>
      <trkpt lat="45.34463" lon="5.8781">
        <ele>1791.5541992</ele>
        <time>2009-01-08T12:23:47+01:00</time>
      </trkpt>
      <trkpt lat="45.34461" lon="5.8781">
        <ele>1791.5541992</ele>
        <time>2009-01-08T12:23:51+01:00</time>
      </trkpt>
      <trkpt lat="45.34456" lon="5.87807">
        <ele>1792.0349121</ele>
        <time>2009-01-08T12:23:57+01:00</time>
      </trkpt>
      <trkpt lat="45.34452" lon="5.87802">
        <ele>1792.515625</ele>
        <time>2009-01-08T12:24:03+01:00</time>
      </trkpt>
      <trkpt lat="45.34448" lon="5.87798">
        <ele>1792.0349121</ele>
        <time>2009-01-08T12:24:09+01:00</time>
      </trkpt>
      <trkpt lat="45.34443" lon="5.87795">
        <ele>1792.0349121</ele>
        <time>2009-01-08T12:24:15+01:00</time>
      </trkpt>
      <trkpt lat="45.3444" lon="5.87793">
        <ele>1792.0349121</ele>
        <time>2009-01-08T12:24:20+01:00</time>
      </trkpt>
      <trkpt lat="45.34438" lon="5.87788">
        <ele>1792.515625</ele>
        <time>2009-01-08T12:24:25+01:00</time>
      </trkpt>
      <trkpt lat="45.34439" lon="5.87784">
        <ele>1793.9575195</ele>
        <time>2009-01-08T12:24:38+01:00</time>
      </trkpt>
      <trkpt lat="45.3444" lon="5.8778">
        <ele>1795.3994141</ele>
        <time>2009-01-08T12:24:44+01:00</time>
      </trkpt>
      <trkpt lat="45.34442" lon="5.87774">
        <ele>1796.3608398</ele>
        <time>2009-01-08T12:24:52+01:00</time>
      </trkpt>
      <trkpt lat="45.34446" lon="5.87769">
        <ele>1797.8027344</ele>
        <time>2009-01-08T12:25:00+01:00</time>
      </trkpt>
      <trkpt lat="45.34449" lon="5.87766">
        <ele>1798.763916</ele>
        <time>2009-01-08T12:25:06+01:00</time>
      </trkpt>
      <trkpt lat="45.34453" lon="5.87761">
        <ele>1799.7253418</ele>
        <time>2009-01-08T12:25:13+01:00</time>
      </trkpt>
      <trkpt lat="45.34456" lon="5.87757">
        <ele>1801.1672363</ele>
        <time>2009-01-08T12:25:20+01:00</time>
      </trkpt>
      <trkpt lat="45.34461" lon="5.87752">
        <ele>1802.128418</ele>
        <time>2009-01-08T12:25:29+01:00</time>
      </trkpt>
      <trkpt lat="45.34464" lon="5.87748">
        <ele>1802.128418</ele>
        <time>2009-01-08T12:25:35+01:00</time>
      </trkpt>
      <trkpt lat="45.34467" lon="5.87743">
        <ele>1804.0515137</ele>
        <time>2009-01-08T12:25:42+01:00</time>
      </trkpt>
      <trkpt lat="45.3447" lon="5.87741">
        <ele>1804.0515137</ele>
        <time>2009-01-08T12:25:47+01:00</time>
      </trkpt>
      <trkpt lat="45.34474" lon="5.87736">
        <ele>1804.5319824</ele>
        <time>2009-01-08T12:25:56+01:00</time>
      </trkpt>
      <trkpt lat="45.34477" lon="5.87732">
        <ele>1805.4934082</ele>
        <time>2009-01-08T12:26:02+01:00</time>
      </trkpt>
      <trkpt lat="45.34478" lon="5.87728">
        <ele>1806.9353027</ele>
        <time>2009-01-08T12:26:07+01:00</time>
      </trkpt>
      <trkpt lat="45.3448" lon="5.87724">
        <ele>1807.8967285</ele>
        <time>2009-01-08T12:26:13+01:00</time>
      </trkpt>
      <trkpt lat="45.3448" lon="5.87723">
        <ele>1808.3771973</ele>
        <time>2009-01-08T12:26:19+01:00</time>
      </trkpt>
      <trkpt lat="45.34477" lon="5.87722">
        <ele>1808.3771973</ele>
        <time>2009-01-08T12:26:24+01:00</time>
      </trkpt>
      <trkpt lat="45.34474" lon="5.87721">
        <ele>1808.8579102</ele>
        <time>2009-01-08T12:26:29+01:00</time>
      </trkpt>
      <trkpt lat="45.3447" lon="5.87719">
        <ele>1809.338623</ele>
        <time>2009-01-08T12:26:35+01:00</time>
      </trkpt>
      <trkpt lat="45.34466" lon="5.87717">
        <ele>1810.7805176</ele>
        <time>2009-01-08T12:26:41+01:00</time>
      </trkpt>
      <trkpt lat="45.34464" lon="5.87715">
        <ele>1810.7805176</ele>
        <time>2009-01-08T12:26:46+01:00</time>
      </trkpt>
      <trkpt lat="45.3446" lon="5.87712">
        <ele>1812.703125</ele>
        <time>2009-01-08T12:26:52+01:00</time>
      </trkpt>
      <trkpt lat="45.34457" lon="5.87711">
        <ele>1814.6257324</ele>
        <time>2009-01-08T12:26:58+01:00</time>
      </trkpt>
      <trkpt lat="45.34454" lon="5.8771">
        <ele>1815.1064453</ele>
        <time>2009-01-08T12:27:02+01:00</time>
      </trkpt>
      <trkpt lat="45.34452" lon="5.87709">
        <ele>1816.5483398</ele>
        <time>2009-01-08T12:27:06+01:00</time>
      </trkpt>
      <trkpt lat="45.34448" lon="5.87707">
        <ele>1817.5095215</ele>
        <time>2009-01-08T12:27:12+01:00</time>
      </trkpt>
      <trkpt lat="45.34445" lon="5.87705">
        <ele>1818.9516602</ele>
        <time>2009-01-08T12:27:17+01:00</time>
      </trkpt>
      <trkpt lat="45.34443" lon="5.87704">
        <ele>1819.9128418</ele>
        <time>2009-01-08T12:27:22+01:00</time>
      </trkpt>
      <trkpt lat="45.34441" lon="5.87703">
        <ele>1821.3549805</ele>
        <time>2009-01-08T12:27:26+01:00</time>
      </trkpt>
      <trkpt lat="45.34438" lon="5.87702">
        <ele>1820.8745117</ele>
        <time>2009-01-08T12:27:31+01:00</time>
      </trkpt>
      <trkpt lat="45.34435" lon="5.877">
        <ele>1822.3164062</ele>
        <time>2009-01-08T12:27:36+01:00</time>
      </trkpt>
      <trkpt lat="45.34434" lon="5.87699">
        <ele>1822.7971191</ele>
        <time>2009-01-08T12:27:43+01:00</time>
      </trkpt>
      <trkpt lat="45.34432" lon="5.87697">
        <ele>1823.277832</ele>
        <time>2009-01-08T12:27:48+01:00</time>
      </trkpt>
      <trkpt lat="45.34428" lon="5.87696">
        <ele>1823.7583008</ele>
        <time>2009-01-08T12:27:53+01:00</time>
      </trkpt>
      <trkpt lat="45.34426" lon="5.87694">
        <ele>1823.277832</ele>
        <time>2009-01-08T12:27:58+01:00</time>
      </trkpt>
      <trkpt lat="45.34422" lon="5.87692">
        <ele>1823.7583008</ele>
        <time>2009-01-08T12:28:04+01:00</time>
      </trkpt>
      <trkpt lat="45.34419" lon="5.8769">
        <ele>1824.2390137</ele>
        <time>2009-01-08T12:28:09+01:00</time>
      </trkpt>
      <trkpt lat="45.34416" lon="5.87689">
        <ele>1825.6809082</ele>
        <time>2009-01-08T12:28:14+01:00</time>
      </trkpt>
      <trkpt lat="45.34414" lon="5.87688">
        <ele>1826.1616211</ele>
        <time>2009-01-08T12:28:18+01:00</time>
      </trkpt>
      <trkpt lat="45.34411" lon="5.87687">
        <ele>1826.1616211</ele>
        <time>2009-01-08T12:28:24+01:00</time>
      </trkpt>
      <trkpt lat="45.34407" lon="5.87688">
        <ele>1827.1230469</ele>
        <time>2009-01-08T12:28:31+01:00</time>
      </trkpt>
      <trkpt lat="45.34405" lon="5.87687">
        <ele>1828.0842285</ele>
        <time>2009-01-08T12:28:37+01:00</time>
      </trkpt>
      <trkpt lat="45.34405" lon="5.87688">
        <ele>1829.0454102</ele>
        <time>2009-01-08T12:28:43+01:00</time>
      </trkpt>
      <trkpt lat="45.34406" lon="5.87686">
        <ele>1829.526123</ele>
        <time>2009-01-08T12:28:50+01:00</time>
      </trkpt>
      <trkpt lat="45.34409" lon="5.87681">
        <ele>1830.9682617</ele>
        <time>2009-01-08T12:28:57+01:00</time>
      </trkpt>
      <trkpt lat="45.34414" lon="5.87676">
        <ele>1832.890625</ele>
        <time>2009-01-08T12:29:06+01:00</time>
      </trkpt>
      <trkpt lat="45.34416" lon="5.87673">
        <ele>1834.3327637</ele>
        <time>2009-01-08T12:29:11+01:00</time>
      </trkpt>
      <trkpt lat="45.34418" lon="5.8767">
        <ele>1834.8134766</ele>
        <time>2009-01-08T12:29:16+01:00</time>
      </trkpt>
      <trkpt lat="45.34421" lon="5.87666">
        <ele>1836.736084</ele>
        <time>2009-01-08T12:29:23+01:00</time>
      </trkpt>
      <trkpt lat="45.34424" lon="5.87664">
        <ele>1837.6975098</ele>
        <time>2009-01-08T12:29:28+01:00</time>
      </trkpt>
      <trkpt lat="45.34428" lon="5.87662">
        <ele>1839.1394043</ele>
        <time>2009-01-08T12:29:35+01:00</time>
      </trkpt>
      <trkpt lat="45.34431" lon="5.87658">
        <ele>1840.5812988</ele>
        <time>2009-01-08T12:29:41+01:00</time>
      </trkpt>
      <trkpt lat="45.34432" lon="5.87658">
        <ele>1840.1008301</ele>
        <time>2009-01-08T12:29:47+01:00</time>
      </trkpt>
      <trkpt lat="45.34433" lon="5.87656">
        <ele>1840.1008301</ele>
        <time>2009-01-08T12:29:57+01:00</time>
      </trkpt>
      <trkpt lat="45.34436" lon="5.87651">
        <ele>1841.5427246</ele>
        <time>2009-01-08T12:30:04+01:00</time>
      </trkpt>
      <trkpt lat="45.34438" lon="5.87648">
        <ele>1842.5041504</ele>
        <time>2009-01-08T12:30:08+01:00</time>
      </trkpt>
      <trkpt lat="45.34441" lon="5.87645">
        <ele>1842.5041504</ele>
        <time>2009-01-08T12:30:13+01:00</time>
      </trkpt>
      <trkpt lat="45.34444" lon="5.87641">
        <ele>1842.0234375</ele>
        <time>2009-01-08T12:30:20+01:00</time>
      </trkpt>
      <trkpt lat="45.34447" lon="5.87638">
        <ele>1841.5427246</ele>
        <time>2009-01-08T12:30:26+01:00</time>
      </trkpt>
      <trkpt lat="45.3445" lon="5.87634">
        <ele>1843.465332</ele>
        <time>2009-01-08T12:30:32+01:00</time>
      </trkpt>
      <trkpt lat="45.34452" lon="5.8763">
        <ele>1844.9072266</ele>
        <time>2009-01-08T12:30:38+01:00</time>
      </trkpt>
      <trkpt lat="45.34454" lon="5.87627">
        <ele>1846.3493652</ele>
        <time>2009-01-08T12:30:42+01:00</time>
      </trkpt>
      <trkpt lat="45.34455" lon="5.87626">
        <ele>1847.7912598</ele>
        <time>2009-01-08T12:30:46+01:00</time>
      </trkpt>
      <trkpt lat="45.34454" lon="5.87625">
        <ele>1848.7524414</ele>
        <time>2009-01-08T12:30:50+01:00</time>
      </trkpt>
      <trkpt lat="45.34453" lon="5.87625">
        <ele>1846.3493652</ele>
        <time>2009-01-08T12:31:09+01:00</time>
      </trkpt>
      <trkpt lat="45.34448" lon="5.87624">
        <ele>1845.3879395</ele>
        <time>2009-01-08T12:31:36+01:00</time>
      </trkpt>
      <trkpt lat="45.34443" lon="5.87624">
        <ele>1846.3493652</ele>
        <time>2009-01-08T12:31:43+01:00</time>
      </trkpt>
      <trkpt lat="45.34439" lon="5.87624">
        <ele>1847.3105469</ele>
        <time>2009-01-08T12:31:50+01:00</time>
      </trkpt>
      <trkpt lat="45.34435" lon="5.87624">
        <ele>1848.2717285</ele>
        <time>2009-01-08T12:31:57+01:00</time>
      </trkpt>
      <trkpt lat="45.34431" lon="5.87623">
        <ele>1849.7138672</ele>
        <time>2009-01-08T12:32:04+01:00</time>
      </trkpt>
      <trkpt lat="45.34429" lon="5.87624">
        <ele>1851.1557617</ele>
        <time>2009-01-08T12:32:09+01:00</time>
      </trkpt>
      <trkpt lat="45.34431" lon="5.8762">
        <ele>1853.0786133</ele>
        <time>2009-01-08T12:32:15+01:00</time>
      </trkpt>
      <trkpt lat="45.34434" lon="5.87617">
        <ele>1854.0400391</ele>
        <time>2009-01-08T12:32:21+01:00</time>
      </trkpt>
      <trkpt lat="45.34436" lon="5.87615">
        <ele>1854.5205078</ele>
        <time>2009-01-08T12:32:27+01:00</time>
      </trkpt>
      <trkpt lat="45.34439" lon="5.87609">
        <ele>1855.4819336</ele>
        <time>2009-01-08T12:32:34+01:00</time>
      </trkpt>
      <trkpt lat="45.34442" lon="5.87607">
        <ele>1856.4431152</ele>
        <time>2009-01-08T12:32:39+01:00</time>
      </trkpt>
      <trkpt lat="45.34445" lon="5.87605">
        <ele>1859.3271484</ele>
        <time>2009-01-08T12:32:44+01:00</time>
      </trkpt>
      <trkpt lat="45.34449" lon="5.87603">
        <ele>1861.7304688</ele>
        <time>2009-01-08T12:32:52+01:00</time>
      </trkpt>
      <trkpt lat="45.34454" lon="5.87602">
        <ele>1863.1723633</ele>
        <time>2009-01-08T12:32:58+01:00</time>
      </trkpt>
      <trkpt lat="45.34457" lon="5.876">
        <ele>1862.6916504</ele>
        <time>2009-01-08T12:33:03+01:00</time>
      </trkpt>
      <trkpt lat="45.3446" lon="5.87597">
        <ele>1863.1723633</ele>
        <time>2009-01-08T12:33:09+01:00</time>
      </trkpt>
      <trkpt lat="45.34463" lon="5.87595">
        <ele>1864.1335449</ele>
        <time>2009-01-08T12:33:14+01:00</time>
      </trkpt>
      <trkpt lat="45.34466" lon="5.87592">
        <ele>1865.0949707</ele>
        <time>2009-01-08T12:33:19+01:00</time>
      </trkpt>
      <trkpt lat="45.34465" lon="5.87591">
        <ele>1865.0949707</ele>
        <time>2009-01-08T12:33:26+01:00</time>
      </trkpt>
      <trkpt lat="45.34461" lon="5.87589">
        <ele>1865.5756836</ele>
        <time>2009-01-08T12:33:32+01:00</time>
      </trkpt>
      <trkpt lat="45.34458" lon="5.87588">
        <ele>1866.5368652</ele>
        <time>2009-01-08T12:33:38+01:00</time>
      </trkpt>
      <trkpt lat="45.34454" lon="5.87587">
        <ele>1867.0175781</ele>
        <time>2009-01-08T12:33:44+01:00</time>
      </trkpt>
      <trkpt lat="45.3445" lon="5.87585">
        <ele>1867.4980469</ele>
        <time>2009-01-08T12:33:50+01:00</time>
      </trkpt>
      <trkpt lat="45.34446" lon="5.87584">
        <ele>1867.9787598</ele>
        <time>2009-01-08T12:33:57+01:00</time>
      </trkpt>
      <trkpt lat="45.34443" lon="5.87585">
        <ele>1867.9787598</ele>
        <time>2009-01-08T12:34:02+01:00</time>
      </trkpt>
      <trkpt lat="45.34439" lon="5.87586">
        <ele>1868.4597168</ele>
        <time>2009-01-08T12:34:09+01:00</time>
      </trkpt>
      <trkpt lat="45.34435" lon="5.87586">
        <ele>1869.4211426</ele>
        <time>2009-01-08T12:34:14+01:00</time>
      </trkpt>
      <trkpt lat="45.34431" lon="5.87585">
        <ele>1869.9016113</ele>
        <time>2009-01-08T12:34:20+01:00</time>
      </trkpt>
      <trkpt lat="45.34426" lon="5.87585">
        <ele>1870.3823242</ele>
        <time>2009-01-08T12:34:26+01:00</time>
      </trkpt>
      <trkpt lat="45.34421" lon="5.87584">
        <ele>1871.8242188</ele>
        <time>2009-01-08T12:34:32+01:00</time>
      </trkpt>
      <trkpt lat="45.34417" lon="5.87585">
        <ele>1872.3049316</ele>
        <time>2009-01-08T12:34:38+01:00</time>
      </trkpt>
      <trkpt lat="45.34414" lon="5.87585">
        <ele>1873.2663574</ele>
        <time>2009-01-08T12:34:45+01:00</time>
      </trkpt>
      <trkpt lat="45.3441" lon="5.87588">
        <ele>1874.708252</ele>
        <time>2009-01-08T12:34:51+01:00</time>
      </trkpt>
      <trkpt lat="45.34407" lon="5.87589">
        <ele>1875.6694336</ele>
        <time>2009-01-08T12:34:57+01:00</time>
      </trkpt>
      <trkpt lat="45.34403" lon="5.8759">
        <ele>1876.6308594</ele>
        <time>2009-01-08T12:35:03+01:00</time>
      </trkpt>
      <trkpt lat="45.34402" lon="5.8759">
        <ele>1878.0727539</ele>
        <time>2009-01-08T12:35:08+01:00</time>
      </trkpt>
      <trkpt lat="45.34403" lon="5.87588">
        <ele>1878.0727539</ele>
        <time>2009-01-08T12:35:14+01:00</time>
      </trkpt>
      <trkpt lat="45.34407" lon="5.87582">
        <ele>1879.9953613</ele>
        <time>2009-01-08T12:35:23+01:00</time>
      </trkpt>
      <trkpt lat="45.34409" lon="5.87578">
        <ele>1881.4372559</ele>
        <time>2009-01-08T12:35:29+01:00</time>
      </trkpt>
      <trkpt lat="45.34409" lon="5.87579">
        <ele>1882.3986816</ele>
        <time>2009-01-08T12:35:35+01:00</time>
      </trkpt>
      <trkpt lat="45.34406" lon="5.87579">
        <ele>1882.3986816</ele>
        <time>2009-01-08T12:35:40+01:00</time>
      </trkpt>
      <trkpt lat="45.34402" lon="5.87581">
        <ele>1883.3598633</ele>
        <time>2009-01-08T12:35:47+01:00</time>
      </trkpt>
      <trkpt lat="45.34399" lon="5.87581">
        <ele>1883.3598633</ele>
        <time>2009-01-08T12:35:52+01:00</time>
      </trkpt>
      <trkpt lat="45.34398" lon="5.87581">
        <ele>1882.8791504</ele>
        <time>2009-01-08T12:35:57+01:00</time>
      </trkpt>
      <trkpt lat="45.34396" lon="5.87581">
        <ele>1882.3986816</ele>
        <time>2009-01-08T12:36:03+01:00</time>
      </trkpt>
      <trkpt lat="45.34392" lon="5.8758">
        <ele>1882.8791504</ele>
        <time>2009-01-08T12:36:09+01:00</time>
      </trkpt>
      <trkpt lat="45.34389" lon="5.87581">
        <ele>1883.8405762</ele>
        <time>2009-01-08T12:36:14+01:00</time>
      </trkpt>
      <trkpt lat="45.34388" lon="5.8758">
        <ele>1885.7634277</ele>
        <time>2009-01-08T12:36:20+01:00</time>
      </trkpt>
      <trkpt lat="45.3439" lon="5.87577">
        <ele>1886.2441406</ele>
        <time>2009-01-08T12:36:26+01:00</time>
      </trkpt>
      <trkpt lat="45.34392" lon="5.87576">
        <ele>1887.2053223</ele>
        <time>2009-01-08T12:36:31+01:00</time>
      </trkpt>
      <trkpt lat="45.34392" lon="5.87577">
        <ele>1887.6860352</ele>
        <time>2009-01-08T12:36:36+01:00</time>
      </trkpt>
      <trkpt lat="45.34391" lon="5.87577">
        <ele>1888.166748</ele>
        <time>2009-01-08T12:36:40+01:00</time>
      </trkpt>
      <trkpt lat="45.3439" lon="5.87576">
        <ele>1888.166748</ele>
        <time>2009-01-08T12:36:46+01:00</time>
      </trkpt>
      <trkpt lat="45.34388" lon="5.87576">
        <ele>1888.6474609</ele>
        <time>2009-01-08T12:36:51+01:00</time>
      </trkpt>
      <trkpt lat="45.34385" lon="5.87576">
        <ele>1888.6474609</ele>
        <time>2009-01-08T12:36:57+01:00</time>
      </trkpt>
      <trkpt lat="45.34384" lon="5.87576">
        <ele>1889.6086426</ele>
        <time>2009-01-08T12:37:03+01:00</time>
      </trkpt>
      <trkpt lat="45.34383" lon="5.87575">
        <ele>1890.0893555</ele>
        <time>2009-01-08T12:37:09+01:00</time>
      </trkpt>
      <trkpt lat="45.34381" lon="5.87575">
        <ele>1890.5698242</ele>
        <time>2009-01-08T12:37:13+01:00</time>
      </trkpt>
      <trkpt lat="45.34379" lon="5.87575">
        <ele>1891.0505371</ele>
        <time>2009-01-08T12:37:18+01:00</time>
      </trkpt>
      <trkpt lat="45.34376" lon="5.87578">
        <ele>1892.0119629</ele>
        <time>2009-01-08T12:37:23+01:00</time>
      </trkpt>
      <trkpt lat="45.34375" lon="5.87578">
        <ele>1892.0119629</ele>
        <time>2009-01-08T12:37:28+01:00</time>
      </trkpt>
      <trkpt lat="45.34371" lon="5.87579">
        <ele>1892.0119629</ele>
        <time>2009-01-08T12:37:37+01:00</time>
      </trkpt>
      <trkpt lat="45.34368" lon="5.87582">
        <ele>1893.9345703</ele>
        <time>2009-01-08T12:37:43+01:00</time>
      </trkpt>
      <trkpt lat="45.34367" lon="5.87584">
        <ele>1896.3378906</ele>
        <time>2009-01-08T12:37:53+01:00</time>
      </trkpt>
      <trkpt lat="45.34369" lon="5.8758">
        <ele>1896.8183594</ele>
        <time>2009-01-08T12:38:03+01:00</time>
      </trkpt>
      <trkpt lat="45.34371" lon="5.87577">
        <ele>1897.2990723</ele>
        <time>2009-01-08T12:38:11+01:00</time>
      </trkpt>
      <trkpt lat="45.3437" lon="5.87578">
        <ele>1897.7797852</ele>
        <time>2009-01-08T12:38:21+01:00</time>
      </trkpt>
      <trkpt lat="45.34369" lon="5.87579">
        <ele>1898.2602539</ele>
        <time>2009-01-08T12:38:28+01:00</time>
      </trkpt>
      <trkpt lat="45.34367" lon="5.87578">
        <ele>1896.3378906</ele>
        <time>2009-01-08T12:38:36+01:00</time>
      </trkpt>
      <trkpt lat="45.34367" lon="5.87577">
        <ele>1895.3764648</ele>
        <time>2009-01-08T12:38:40+01:00</time>
      </trkpt>
      <trkpt lat="45.34365" lon="5.87579">
        <ele>1895.8571777</ele>
        <time>2009-01-08T12:38:46+01:00</time>
      </trkpt>
      <trkpt lat="45.34364" lon="5.8758">
        <ele>1896.8183594</ele>
        <time>2009-01-08T12:38:51+01:00</time>
      </trkpt>
      <trkpt lat="45.34362" lon="5.87582">
        <ele>1898.7409668</ele>
        <time>2009-01-08T12:39:00+01:00</time>
      </trkpt>
      <trkpt lat="45.34361" lon="5.87583">
        <ele>1900.6638184</ele>
        <time>2009-01-08T12:39:05+01:00</time>
      </trkpt>
      <trkpt lat="45.3436" lon="5.87583">
        <ele>1901.1445312</ele>
        <time>2009-01-08T12:39:10+01:00</time>
      </trkpt>
      <trkpt lat="45.34361" lon="5.87581">
        <ele>1899.7023926</ele>
        <time>2009-01-08T12:39:20+01:00</time>
      </trkpt>
      <trkpt lat="45.34361" lon="5.8758">
        <ele>1899.7023926</ele>
        <time>2009-01-08T12:39:25+01:00</time>
      </trkpt>
      <trkpt lat="45.3436" lon="5.8758">
        <ele>1901.1445312</ele>
        <time>2009-01-08T12:39:35+01:00</time>
      </trkpt>
      <trkpt lat="45.34361" lon="5.87578">
        <ele>1901.6252441</ele>
        <time>2009-01-08T12:39:41+01:00</time>
      </trkpt>
      <trkpt lat="45.34363" lon="5.87578">
        <ele>1903.0671387</ele>
        <time>2009-01-08T12:39:49+01:00</time>
      </trkpt>
      <trkpt lat="45.34364" lon="5.87579">
        <ele>1904.0285645</ele>
        <time>2009-01-08T12:39:53+01:00</time>
      </trkpt>
      <trkpt lat="45.34362" lon="5.87579">
        <ele>1904.9897461</ele>
        <time>2009-01-08T12:40:03+01:00</time>
      </trkpt>
      <trkpt lat="45.3436" lon="5.87579">
        <ele>1903.5478516</ele>
        <time>2009-01-08T12:40:10+01:00</time>
      </trkpt>
      <trkpt lat="45.34358" lon="5.87577">
        <ele>1902.5864258</ele>
        <time>2009-01-08T12:40:15+01:00</time>
      </trkpt>
      <trkpt lat="45.34357" lon="5.87576">
        <ele>1901.6252441</ele>
        <time>2009-01-08T12:40:22+01:00</time>
      </trkpt>
      <trkpt lat="45.34356" lon="5.87575">
        <ele>1902.5864258</ele>
        <time>2009-01-08T12:40:37+01:00</time>
      </trkpt>
      <trkpt lat="45.34354" lon="5.87573">
        <ele>1903.5478516</ele>
        <time>2009-01-08T12:40:45+01:00</time>
      </trkpt>
      <trkpt lat="45.34354" lon="5.87572">
        <ele>1904.9897461</ele>
        <time>2009-01-08T12:40:51+01:00</time>
      </trkpt>
      <trkpt lat="45.34353" lon="5.87572">
        <ele>1905.470459</ele>
        <time>2009-01-08T12:40:58+01:00</time>
      </trkpt>
      <trkpt lat="45.34352" lon="5.87571">
        <ele>1907.3930664</ele>
        <time>2009-01-08T12:41:05+01:00</time>
      </trkpt>
      <trkpt lat="45.34351" lon="5.8757">
        <ele>1909.3156738</ele>
        <time>2009-01-08T12:41:13+01:00</time>
      </trkpt>
      <trkpt lat="45.34351" lon="5.87569">
        <ele>1910.2768555</ele>
        <time>2009-01-08T12:41:21+01:00</time>
      </trkpt>
      <trkpt lat="45.3435" lon="5.87569">
        <ele>1912.1994629</ele>
        <time>2009-01-08T12:41:29+01:00</time>
      </trkpt>
      <trkpt lat="45.34347" lon="5.87567">
        <ele>1911.2382812</ele>
        <time>2009-01-08T12:41:34+01:00</time>
      </trkpt>
      <trkpt lat="45.34346" lon="5.87567">
        <ele>1910.7575684</ele>
        <time>2009-01-08T12:41:41+01:00</time>
      </trkpt>
      <trkpt lat="45.34347" lon="5.87566">
        <ele>1909.7961426</ele>
        <time>2009-01-08T12:41:49+01:00</time>
      </trkpt>
      <trkpt lat="45.34346" lon="5.87566">
        <ele>1910.2768555</ele>
        <time>2009-01-08T12:42:02+01:00</time>
      </trkpt>
      <trkpt lat="45.34346" lon="5.87567">
        <ele>1910.7575684</ele>
        <time>2009-01-08T12:42:15+01:00</time>
      </trkpt>
      <trkpt lat="45.34345" lon="5.87568">
        <ele>1910.7575684</ele>
        <time>2009-01-08T12:42:28+01:00</time>
      </trkpt>
      <trkpt lat="45.34346" lon="5.87569">
        <ele>1911.7189941</ele>
        <time>2009-01-08T12:42:38+01:00</time>
      </trkpt>
      <trkpt lat="45.34344" lon="5.87572">
        <ele>1912.1994629</ele>
        <time>2009-01-08T12:42:46+01:00</time>
      </trkpt>
      <trkpt lat="45.34342" lon="5.87578">
        <ele>1913.6413574</ele>
        <time>2009-01-08T12:42:52+01:00</time>
      </trkpt>
      <trkpt lat="45.34336" lon="5.87586">
        <ele>1914.6027832</ele>
        <time>2009-01-08T12:43:01+01:00</time>
      </trkpt>
      <trkpt lat="45.34335" lon="5.87589">
        <ele>1914.6027832</ele>
        <time>2009-01-08T12:43:07+01:00</time>
      </trkpt>
      <trkpt lat="45.34335" lon="5.87592">
        <ele>1915.0834961</ele>
        <time>2009-01-08T12:43:17+01:00</time>
      </trkpt>
      <trkpt lat="45.34336" lon="5.87593">
        <ele>1916.0449219</ele>
        <time>2009-01-08T12:43:32+01:00</time>
      </trkpt>
      <trkpt lat="45.34333" lon="5.87592">
        <ele>1914.6027832</ele>
        <time>2009-01-08T12:43:38+01:00</time>
      </trkpt>
      <trkpt lat="45.3433" lon="5.87593">
        <ele>1913.1608887</ele>
        <time>2009-01-08T12:43:43+01:00</time>
      </trkpt>
      <trkpt lat="45.34326" lon="5.87597">
        <ele>1912.1994629</ele>
        <time>2009-01-08T12:43:50+01:00</time>
      </trkpt>
      <trkpt lat="45.34322" lon="5.87602">
        <ele>1911.7189941</ele>
        <time>2009-01-08T12:43:56+01:00</time>
      </trkpt>
      <trkpt lat="45.34321" lon="5.87603">
        <ele>1912.1994629</ele>
        <time>2009-01-08T12:44:02+01:00</time>
      </trkpt>
      <trkpt lat="45.34319" lon="5.87606">
        <ele>1909.3156738</ele>
        <time>2009-01-08T12:44:16+01:00</time>
      </trkpt>
      <trkpt lat="45.34315" lon="5.87608">
        <ele>1908.8349609</ele>
        <time>2009-01-08T12:44:20+01:00</time>
      </trkpt>
      <trkpt lat="45.34308" lon="5.87614">
        <ele>1907.8737793</ele>
        <time>2009-01-08T12:44:28+01:00</time>
      </trkpt>
      <trkpt lat="45.34303" lon="5.87622">
        <ele>1908.354248</ele>
        <time>2009-01-08T12:44:34+01:00</time>
      </trkpt>
      <trkpt lat="45.34297" lon="5.87629">
        <ele>1909.3156738</ele>
        <time>2009-01-08T12:44:40+01:00</time>
      </trkpt>
      <trkpt lat="45.34292" lon="5.87635">
        <ele>1909.7961426</ele>
        <time>2009-01-08T12:44:48+01:00</time>
      </trkpt>
      <trkpt lat="45.34288" lon="5.87637">
        <ele>1908.354248</ele>
        <time>2009-01-08T12:44:53+01:00</time>
      </trkpt>
      <trkpt lat="45.34283" lon="5.87644">
        <ele>1906.4316406</ele>
        <time>2009-01-08T12:44:59+01:00</time>
      </trkpt>
      <trkpt lat="45.3428" lon="5.87651">
        <ele>1905.470459</ele>
        <time>2009-01-08T12:45:05+01:00</time>
      </trkpt>
      <trkpt lat="45.34277" lon="5.87656">
        <ele>1904.9897461</ele>
        <time>2009-01-08T12:45:10+01:00</time>
      </trkpt>
      <trkpt lat="45.34274" lon="5.87661">
        <ele>1905.470459</ele>
        <time>2009-01-08T12:45:16+01:00</time>
      </trkpt>
      <trkpt lat="45.34267" lon="5.87669">
        <ele>1905.470459</ele>
        <time>2009-01-08T12:45:25+01:00</time>
      </trkpt>
      <trkpt lat="45.34263" lon="5.87674">
        <ele>1905.470459</ele>
        <time>2009-01-08T12:45:32+01:00</time>
      </trkpt>
      <trkpt lat="45.34259" lon="5.87677">
        <ele>1905.470459</ele>
        <time>2009-01-08T12:45:47+01:00</time>
      </trkpt>
      <trkpt lat="45.34254" lon="5.87682">
        <ele>1905.9509277</ele>
        <time>2009-01-08T12:45:54+01:00</time>
      </trkpt>
      <trkpt lat="45.3425" lon="5.87689">
        <ele>1905.9509277</ele>
        <time>2009-01-08T12:46:01+01:00</time>
      </trkpt>
      <trkpt lat="45.34247" lon="5.87692">
        <ele>1905.9509277</ele>
        <time>2009-01-08T12:46:07+01:00</time>
      </trkpt>
      <trkpt lat="45.34245" lon="5.87697">
        <ele>1905.470459</ele>
        <time>2009-01-08T12:46:12+01:00</time>
      </trkpt>
      <trkpt lat="45.34241" lon="5.87702">
        <ele>1905.470459</ele>
        <time>2009-01-08T12:46:18+01:00</time>
      </trkpt>
      <trkpt lat="45.34238" lon="5.87707">
        <ele>1905.9509277</ele>
        <time>2009-01-08T12:46:24+01:00</time>
      </trkpt>
      <trkpt lat="45.34234" lon="5.87713">
        <ele>1906.4316406</ele>
        <time>2009-01-08T12:46:30+01:00</time>
      </trkpt>
      <trkpt lat="45.34232" lon="5.87719">
        <ele>1906.4316406</ele>
        <time>2009-01-08T12:46:36+01:00</time>
      </trkpt>
      <trkpt lat="45.3423" lon="5.87725">
        <ele>1906.9123535</ele>
        <time>2009-01-08T12:46:42+01:00</time>
      </trkpt>
      <trkpt lat="45.34228" lon="5.87732">
        <ele>1907.3930664</ele>
        <time>2009-01-08T12:46:49+01:00</time>
      </trkpt>
      <trkpt lat="45.34226" lon="5.8774">
        <ele>1907.8737793</ele>
        <time>2009-01-08T12:46:56+01:00</time>
      </trkpt>
      <trkpt lat="45.34225" lon="5.87745">
        <ele>1908.354248</ele>
        <time>2009-01-08T12:47:02+01:00</time>
      </trkpt>
      <trkpt lat="45.34225" lon="5.87746">
        <ele>1908.354248</ele>
        <time>2009-01-08T12:47:08+01:00</time>
      </trkpt>
      <trkpt lat="45.34223" lon="5.87748">
        <ele>1908.8349609</ele>
        <time>2009-01-08T12:47:22+01:00</time>
      </trkpt>
      <trkpt lat="45.34223" lon="5.87749">
        <ele>1908.354248</ele>
        <time>2009-01-08T12:47:30+01:00</time>
      </trkpt>
      <trkpt lat="45.34223" lon="5.8775">
        <ele>1909.7961426</ele>
        <time>2009-01-08T12:47:39+01:00</time>
      </trkpt>
      <trkpt lat="45.34222" lon="5.87751">
        <ele>1910.2768555</ele>
        <time>2009-01-08T12:47:46+01:00</time>
      </trkpt>
      <trkpt lat="45.34222" lon="5.8775">
        <ele>1910.2768555</ele>
        <time>2009-01-08T12:47:51+01:00</time>
      </trkpt>
      <trkpt lat="45.34221" lon="5.87751">
        <ele>1909.3156738</ele>
        <time>2009-01-08T12:47:59+01:00</time>
      </trkpt>
      <trkpt lat="45.3422" lon="5.87754">
        <ele>1909.3156738</ele>
        <time>2009-01-08T12:48:10+01:00</time>
      </trkpt>
      <trkpt lat="45.34216" lon="5.87762">
        <ele>1909.3156738</ele>
        <time>2009-01-08T12:48:18+01:00</time>
      </trkpt>
      <trkpt lat="45.34213" lon="5.8777">
        <ele>1909.3156738</ele>
        <time>2009-01-08T12:48:25+01:00</time>
      </trkpt>
      <trkpt lat="45.34211" lon="5.87776">
        <ele>1909.7961426</ele>
        <time>2009-01-08T12:48:30+01:00</time>
      </trkpt>
      <trkpt lat="45.34204" lon="5.87784">
        <ele>1908.354248</ele>
        <time>2009-01-08T12:48:35+01:00</time>
      </trkpt>
      <trkpt lat="45.34199" lon="5.87789">
        <ele>1907.8737793</ele>
        <time>2009-01-08T12:48:41+01:00</time>
      </trkpt>
      <trkpt lat="45.34199" lon="5.8779">
        <ele>1907.8737793</ele>
        <time>2009-01-08T12:48:42+01:00</time>
      </trkpt>
      <trkpt lat="45.34195" lon="5.87796">
        <ele>1908.8349609</ele>
        <time>2009-01-08T12:48:49+01:00</time>
      </trkpt>
      <trkpt lat="45.34194" lon="5.87797">
        <ele>1908.8349609</ele>
        <time>2009-01-08T12:48:56+01:00</time>
      </trkpt>
      <trkpt lat="45.34192" lon="5.878">
        <ele>1909.3156738</ele>
        <time>2009-01-08T12:49:02+01:00</time>
      </trkpt>
      <trkpt lat="45.3419" lon="5.87804">
        <ele>1909.7961426</ele>
        <time>2009-01-08T12:49:07+01:00</time>
      </trkpt>
      <trkpt lat="45.34186" lon="5.87809">
        <ele>1910.7575684</ele>
        <time>2009-01-08T12:49:14+01:00</time>
      </trkpt>
      <trkpt lat="45.34182" lon="5.87813">
        <ele>1911.7189941</ele>
        <time>2009-01-08T12:49:21+01:00</time>
      </trkpt>
      <trkpt lat="45.3418" lon="5.87816">
        <ele>1913.1608887</ele>
        <time>2009-01-08T12:49:27+01:00</time>
      </trkpt>
      <trkpt lat="45.34178" lon="5.87819">
        <ele>1914.6027832</ele>
        <time>2009-01-08T12:49:32+01:00</time>
      </trkpt>
      <trkpt lat="45.34175" lon="5.87823">
        <ele>1915.564209</ele>
        <time>2009-01-08T12:49:39+01:00</time>
      </trkpt>
      <trkpt lat="45.34172" lon="5.87826">
        <ele>1916.0449219</ele>
        <time>2009-01-08T12:49:44+01:00</time>
      </trkpt>
      <trkpt lat="45.34168" lon="5.8783">
        <ele>1917.4868164</ele>
        <time>2009-01-08T12:49:52+01:00</time>
      </trkpt>
      <trkpt lat="45.34165" lon="5.87835">
        <ele>1918.9289551</ele>
        <time>2009-01-08T12:49:59+01:00</time>
      </trkpt>
      <trkpt lat="45.34164" lon="5.87839">
        <ele>1920.3708496</ele>
        <time>2009-01-08T12:50:05+01:00</time>
      </trkpt>
      <trkpt lat="45.34162" lon="5.87844">
        <ele>1920.8515625</ele>
        <time>2009-01-08T12:50:12+01:00</time>
      </trkpt>
      <trkpt lat="45.3416" lon="5.87849">
        <ele>1921.3320312</ele>
        <time>2009-01-08T12:50:18+01:00</time>
      </trkpt>
      <trkpt lat="45.34158" lon="5.87853">
        <ele>1922.7741699</ele>
        <time>2009-01-08T12:50:24+01:00</time>
      </trkpt>
      <trkpt lat="45.34155" lon="5.87859">
        <ele>1924.6967773</ele>
        <time>2009-01-08T12:50:32+01:00</time>
      </trkpt>
      <trkpt lat="45.34152" lon="5.87863">
        <ele>1925.657959</ele>
        <time>2009-01-08T12:50:38+01:00</time>
      </trkpt>
      <trkpt lat="45.34149" lon="5.87867">
        <ele>1926.6193848</ele>
        <time>2009-01-08T12:50:45+01:00</time>
      </trkpt>
      <trkpt lat="45.34144" lon="5.87871">
        <ele>1927.5805664</ele>
        <time>2009-01-08T12:50:53+01:00</time>
      </trkpt>
      <trkpt lat="45.34141" lon="5.87875">
        <ele>1928.0612793</ele>
        <time>2009-01-08T12:50:59+01:00</time>
      </trkpt>
      <trkpt lat="45.3414" lon="5.87878">
        <ele>1929.0224609</ele>
        <time>2009-01-08T12:51:04+01:00</time>
      </trkpt>
      <trkpt lat="45.34136" lon="5.87883">
        <ele>1930.4645996</ele>
        <time>2009-01-08T12:51:12+01:00</time>
      </trkpt>
      <trkpt lat="45.34133" lon="5.87887">
        <ele>1931.9064941</ele>
        <time>2009-01-08T12:51:19+01:00</time>
      </trkpt>
      <trkpt lat="45.34129" lon="5.87891">
        <ele>1932.3874512</ele>
        <time>2009-01-08T12:51:25+01:00</time>
      </trkpt>
      <trkpt lat="45.34126" lon="5.87893">
        <ele>1933.3486328</ele>
        <time>2009-01-08T12:51:30+01:00</time>
      </trkpt>
      <trkpt lat="45.34123" lon="5.87895">
        <ele>1933.8293457</ele>
        <time>2009-01-08T12:51:35+01:00</time>
      </trkpt>
      <trkpt lat="45.34121" lon="5.87897">
        <ele>1934.7907715</ele>
        <time>2009-01-08T12:51:40+01:00</time>
      </trkpt>
      <trkpt lat="45.34117" lon="5.87901">
        <ele>1936.232666</ele>
        <time>2009-01-08T12:51:48+01:00</time>
      </trkpt>
      <trkpt lat="45.34115" lon="5.87903">
        <ele>1937.1938477</ele>
        <time>2009-01-08T12:51:53+01:00</time>
      </trkpt>
      <trkpt lat="45.34111" lon="5.87907">
        <ele>1938.6359863</ele>
        <time>2009-01-08T12:52:01+01:00</time>
      </trkpt>
      <trkpt lat="45.34109" lon="5.8791">
        <ele>1940.0778809</ele>
        <time>2009-01-08T12:52:07+01:00</time>
      </trkpt>
      <trkpt lat="45.34107" lon="5.87913">
        <ele>1941.0390625</ele>
        <time>2009-01-08T12:52:13+01:00</time>
      </trkpt>
      <trkpt lat="45.34105" lon="5.87915">
        <ele>1941.5197754</ele>
        <time>2009-01-08T12:52:18+01:00</time>
      </trkpt>
      <trkpt lat="45.34102" lon="5.87919">
        <ele>1942.4812012</ele>
        <time>2009-01-08T12:52:24+01:00</time>
      </trkpt>
      <trkpt lat="45.34099" lon="5.87922">
        <ele>1942.9616699</ele>
        <time>2009-01-08T12:52:30+01:00</time>
      </trkpt>
      <trkpt lat="45.34096" lon="5.87925">
        <ele>1943.9230957</ele>
        <time>2009-01-08T12:52:35+01:00</time>
      </trkpt>
      <trkpt lat="45.34092" lon="5.87928">
        <ele>1944.8842773</ele>
        <time>2009-01-08T12:52:43+01:00</time>
      </trkpt>
      <trkpt lat="45.34088" lon="5.87931">
        <ele>1945.8457031</ele>
        <time>2009-01-08T12:52:50+01:00</time>
      </trkpt>
      <trkpt lat="45.34089" lon="5.87931">
        <ele>1945.8457031</ele>
        <time>2009-01-08T12:52:55+01:00</time>
      </trkpt>
      <trkpt lat="45.34091" lon="5.87931">
        <ele>1946.326416</ele>
        <time>2009-01-08T12:53:04+01:00</time>
      </trkpt>
      <trkpt lat="45.34094" lon="5.87932">
        <ele>1947.2875977</ele>
        <time>2009-01-08T12:53:09+01:00</time>
      </trkpt>
      <trkpt lat="45.34097" lon="5.87933">
        <ele>1947.7683105</ele>
        <time>2009-01-08T12:53:15+01:00</time>
      </trkpt>
      <trkpt lat="45.34101" lon="5.87933">
        <ele>1948.7297363</ele>
        <time>2009-01-08T12:53:20+01:00</time>
      </trkpt>
      <trkpt lat="45.34106" lon="5.87933">
        <ele>1949.6911621</ele>
        <time>2009-01-08T12:53:27+01:00</time>
      </trkpt>
      <trkpt lat="45.34108" lon="5.87934">
        <ele>1949.6911621</ele>
        <time>2009-01-08T12:53:32+01:00</time>
      </trkpt>
      <trkpt lat="45.3411" lon="5.87935">
        <ele>1950.6523438</ele>
        <time>2009-01-08T12:53:37+01:00</time>
      </trkpt>
      <trkpt lat="45.34108" lon="5.87936">
        <ele>1950.6523438</ele>
        <time>2009-01-08T12:53:42+01:00</time>
      </trkpt>
      <trkpt lat="45.34105" lon="5.87939">
        <ele>1951.6137695</ele>
        <time>2009-01-08T12:53:46+01:00</time>
      </trkpt>
      <trkpt lat="45.34101" lon="5.87942">
        <ele>1952.5749512</ele>
        <time>2009-01-08T12:53:52+01:00</time>
      </trkpt>
      <trkpt lat="45.34098" lon="5.87945">
        <ele>1954.0170898</ele>
        <time>2009-01-08T12:53:58+01:00</time>
      </trkpt>
      <trkpt lat="45.34095" lon="5.87948">
        <ele>1954.9782715</ele>
        <time>2009-01-08T12:54:03+01:00</time>
      </trkpt>
      <trkpt lat="45.34091" lon="5.87951">
        <ele>1956.420166</ele>
        <time>2009-01-08T12:54:10+01:00</time>
      </trkpt>
      <trkpt lat="45.34088" lon="5.87953">
        <ele>1957.8623047</ele>
        <time>2009-01-08T12:54:16+01:00</time>
      </trkpt>
      <trkpt lat="45.34084" lon="5.87955">
        <ele>1959.3041992</ele>
        <time>2009-01-08T12:54:23+01:00</time>
      </trkpt>
      <trkpt lat="45.34081" lon="5.87956">
        <ele>1959.784668</ele>
        <time>2009-01-08T12:55:03+01:00</time>
      </trkpt>
      <trkpt lat="45.34075" lon="5.87958">
        <ele>1960.7460938</ele>
        <time>2009-01-08T12:55:10+01:00</time>
      </trkpt>
      <trkpt lat="45.3407" lon="5.87959">
        <ele>1961.7075195</ele>
        <time>2009-01-08T12:55:16+01:00</time>
      </trkpt>
      <trkpt lat="45.34066" lon="5.8796">
        <ele>1963.1494141</ele>
        <time>2009-01-08T12:55:22+01:00</time>
      </trkpt>
      <trkpt lat="45.34062" lon="5.87961">
        <ele>1963.6298828</ele>
        <time>2009-01-08T12:55:29+01:00</time>
      </trkpt>
      <trkpt lat="45.34063" lon="5.87962">
        <ele>1964.1108398</ele>
        <time>2009-01-08T12:55:34+01:00</time>
      </trkpt>
      <trkpt lat="45.34065" lon="5.87962">
        <ele>1964.1108398</ele>
        <time>2009-01-08T12:55:40+01:00</time>
      </trkpt>
      <trkpt lat="45.34069" lon="5.87965">
        <ele>1965.0722656</ele>
        <time>2009-01-08T12:55:46+01:00</time>
      </trkpt>
      <trkpt lat="45.34072" lon="5.87968">
        <ele>1966.0334473</ele>
        <time>2009-01-08T12:55:52+01:00</time>
      </trkpt>
      <trkpt lat="45.34076" lon="5.87972">
        <ele>1966.5141602</ele>
        <time>2009-01-08T12:56:00+01:00</time>
      </trkpt>
      <trkpt lat="45.34079" lon="5.87975">
        <ele>1966.994873</ele>
        <time>2009-01-08T12:56:06+01:00</time>
      </trkpt>
      <trkpt lat="45.34083" lon="5.87978">
        <ele>1967.9560547</ele>
        <time>2009-01-08T12:56:12+01:00</time>
      </trkpt>
      <trkpt lat="45.34085" lon="5.8798">
        <ele>1968.4367676</ele>
        <time>2009-01-08T12:56:18+01:00</time>
      </trkpt>
      <trkpt lat="45.34088" lon="5.87982">
        <ele>1968.9174805</ele>
        <time>2009-01-08T12:56:24+01:00</time>
      </trkpt>
      <trkpt lat="45.3409" lon="5.87981">
        <ele>1968.9174805</ele>
        <time>2009-01-08T12:56:33+01:00</time>
      </trkpt>
      <trkpt lat="45.34097" lon="5.87979">
        <ele>1968.9174805</ele>
        <time>2009-01-08T12:56:40+01:00</time>
      </trkpt>
      <trkpt lat="45.34104" lon="5.87981">
        <ele>1969.3981934</ele>
        <time>2009-01-08T12:56:47+01:00</time>
      </trkpt>
      <trkpt lat="45.34108" lon="5.87982">
        <ele>1970.359375</ele>
        <time>2009-01-08T12:56:53+01:00</time>
      </trkpt>
      <trkpt lat="45.34113" lon="5.87984">
        <ele>1971.3205566</ele>
        <time>2009-01-08T12:56:59+01:00</time>
      </trkpt>
      <trkpt lat="45.34117" lon="5.87985">
        <ele>1972.2819824</ele>
        <time>2009-01-08T12:57:05+01:00</time>
      </trkpt>
      <trkpt lat="45.34121" lon="5.87988">
        <ele>1973.2434082</ele>
        <time>2009-01-08T12:57:12+01:00</time>
      </trkpt>
      <trkpt lat="45.34125" lon="5.8799">
        <ele>1974.6853027</ele>
        <time>2009-01-08T12:57:19+01:00</time>
      </trkpt>
      <trkpt lat="45.34126" lon="5.87992">
        <ele>1975.6464844</ele>
        <time>2009-01-08T12:57:23+01:00</time>
      </trkpt>
      <trkpt lat="45.34128" lon="5.87996">
        <ele>1975.6464844</ele>
        <time>2009-01-08T12:57:37+01:00</time>
      </trkpt>
      <trkpt lat="45.34133" lon="5.88005">
        <ele>1977.088623</ele>
        <time>2009-01-08T12:57:45+01:00</time>
      </trkpt>
      <trkpt lat="45.34136" lon="5.8801">
        <ele>1978.0498047</ele>
        <time>2009-01-08T12:57:52+01:00</time>
      </trkpt>
      <trkpt lat="45.34139" lon="5.88012">
        <ele>1978.0498047</ele>
        <time>2009-01-08T12:57:57+01:00</time>
      </trkpt>
      <trkpt lat="45.34141" lon="5.88013">
        <ele>1978.0498047</ele>
        <time>2009-01-08T12:58:04+01:00</time>
      </trkpt>
      <trkpt lat="45.3414" lon="5.88013">
        <ele>1978.0498047</ele>
        <time>2009-01-08T12:58:14+01:00</time>
      </trkpt>
      <trkpt lat="45.3414" lon="5.88014">
        <ele>1977.5690918</ele>
        <time>2009-01-08T12:58:20+01:00</time>
      </trkpt>
      <trkpt lat="45.34141" lon="5.88014">
        <ele>1976.1271973</ele>
        <time>2009-01-08T12:58:49+01:00</time>
      </trkpt>
      <trkpt lat="45.34142" lon="5.88014">
        <ele>1977.5690918</ele>
        <time>2009-01-08T12:59:14+01:00</time>
      </trkpt>
      <trkpt lat="45.34141" lon="5.88012">
        <ele>1977.5690918</ele>
        <time>2009-01-08T12:59:40+01:00</time>
      </trkpt>
      <trkpt lat="45.34141" lon="5.88014">
        <ele>1976.6079102</ele>
        <time>2009-01-08T12:59:54+01:00</time>
      </trkpt>
      <trkpt lat="45.34139" lon="5.88015">
        <ele>1977.5690918</ele>
        <time>2009-01-08T13:00:50+01:00</time>
      </trkpt>
      <trkpt lat="45.34138" lon="5.88015">
        <ele>1978.0498047</ele>
        <time>2009-01-08T13:00:55+01:00</time>
      </trkpt>
      <trkpt lat="45.3414" lon="5.88014">
        <ele>1978.5305176</ele>
        <time>2009-01-08T13:01:00+01:00</time>
      </trkpt>
      <trkpt lat="45.3414" lon="5.88013">
        <ele>1978.5305176</ele>
        <time>2009-01-08T13:01:07+01:00</time>
      </trkpt>
      <trkpt lat="45.3414" lon="5.88014">
        <ele>1978.5305176</ele>
        <time>2009-01-08T13:01:17+01:00</time>
      </trkpt>
      <trkpt lat="45.34141" lon="5.88013">
        <ele>1978.0498047</ele>
        <time>2009-01-08T13:01:52+01:00</time>
      </trkpt>
      <trkpt lat="45.34142" lon="5.88013">
        <ele>1977.5690918</ele>
        <time>2009-01-08T13:02:05+01:00</time>
      </trkpt>
      <trkpt lat="45.34141" lon="5.88013">
        <ele>1977.5690918</ele>
        <time>2009-01-08T13:02:24+01:00</time>
      </trkpt>
      <trkpt lat="45.3414" lon="5.88012">
        <ele>1977.5690918</ele>
        <time>2009-01-08T13:02:31+01:00</time>
      </trkpt>
      <trkpt lat="45.3414" lon="5.88013">
        <ele>1977.088623</ele>
        <time>2009-01-08T13:02:40+01:00</time>
      </trkpt>
      <trkpt lat="45.3414" lon="5.88014">
        <ele>1977.5690918</ele>
        <time>2009-01-08T13:02:45+01:00</time>
      </trkpt>
      <trkpt lat="45.3414" lon="5.88013">
        <ele>1978.5305176</ele>
        <time>2009-01-08T13:03:27+01:00</time>
      </trkpt>
      <trkpt lat="45.34141" lon="5.88012">
        <ele>1977.5690918</ele>
        <time>2009-01-08T13:03:48+01:00</time>
      </trkpt>
      <trkpt lat="45.3414" lon="5.8801">
        <ele>1979.4916992</ele>
        <time>2009-01-08T13:04:00+01:00</time>
      </trkpt>
      <trkpt lat="45.3414" lon="5.88011">
        <ele>1979.4916992</ele>
        <time>2009-01-08T13:04:42+01:00</time>
      </trkpt>
      <trkpt lat="45.3414" lon="5.88012">
        <ele>1978.5305176</ele>
        <time>2009-01-08T13:04:50+01:00</time>
      </trkpt>
      <trkpt lat="45.3414" lon="5.88013">
        <ele>1978.0498047</ele>
        <time>2009-01-08T13:05:07+01:00</time>
      </trkpt>
      <trkpt lat="45.3414" lon="5.88014">
        <ele>1978.5305176</ele>
        <time>2009-01-08T13:05:22+01:00</time>
      </trkpt>
      <trkpt lat="45.34141" lon="5.88014">
        <ele>1977.5690918</ele>
        <time>2009-01-08T13:05:30+01:00</time>
      </trkpt>
      <trkpt lat="45.34142" lon="5.88014">
        <ele>1976.6079102</ele>
        <time>2009-01-08T13:05:47+01:00</time>
      </trkpt>
      <trkpt lat="45.34141" lon="5.88014">
        <ele>1977.088623</ele>
        <time>2009-01-08T13:05:53+01:00</time>
      </trkpt>
      <trkpt lat="45.34141" lon="5.88013">
        <ele>1976.1271973</ele>
        <time>2009-01-08T13:06:12+01:00</time>
      </trkpt>
      <trkpt lat="45.3414" lon="5.88013">
        <ele>1976.6079102</ele>
        <time>2009-01-08T13:06:42+01:00</time>
      </trkpt>
      <trkpt lat="45.3414" lon="5.88012">
        <ele>1977.5690918</ele>
        <time>2009-01-08T13:07:16+01:00</time>
      </trkpt>
      <trkpt lat="45.34141" lon="5.88013">
        <ele>1977.5690918</ele>
        <time>2009-01-08T13:07:30+01:00</time>
      </trkpt>
      <trkpt lat="45.3414" lon="5.88012">
        <ele>1979.9724121</ele>
        <time>2009-01-08T13:07:51+01:00</time>
      </trkpt>
      <trkpt lat="45.3414" lon="5.88011">
        <ele>1979.9724121</ele>
        <time>2009-01-08T13:08:02+01:00</time>
      </trkpt>
      <trkpt lat="45.34139" lon="5.8801">
        <ele>1980.934082</ele>
        <time>2009-01-08T13:08:25+01:00</time>
      </trkpt>
      <trkpt lat="45.34138" lon="5.88013">
        <ele>1976.1271973</ele>
        <time>2009-01-08T13:08:43+01:00</time>
      </trkpt>
      <trkpt lat="45.34139" lon="5.88012">
        <ele>1976.6079102</ele>
        <time>2009-01-08T13:08:59+01:00</time>
      </trkpt>
      <trkpt lat="45.3414" lon="5.88012">
        <ele>1977.088623</ele>
        <time>2009-01-08T13:09:06+01:00</time>
      </trkpt>
      <trkpt lat="45.34139" lon="5.88012">
        <ele>1978.0498047</ele>
        <time>2009-01-08T13:09:19+01:00</time>
      </trkpt>
      <trkpt lat="45.3414" lon="5.88012">
        <ele>1978.0498047</ele>
        <time>2009-01-08T13:09:42+01:00</time>
      </trkpt>
      <trkpt lat="45.3414" lon="5.88011">
        <ele>1978.5305176</ele>
        <time>2009-01-08T13:09:56+01:00</time>
      </trkpt>
      <trkpt lat="45.34141" lon="5.88012">
        <ele>1978.5305176</ele>
        <time>2009-01-08T13:10:18+01:00</time>
      </trkpt>
      <trkpt lat="45.3414" lon="5.88012">
        <ele>1978.5305176</ele>
        <time>2009-01-08T13:10:49+01:00</time>
      </trkpt>
      <trkpt lat="45.34139" lon="5.88011">
        <ele>1978.5305176</ele>
        <time>2009-01-08T13:11:11+01:00</time>
      </trkpt>
      <trkpt lat="45.3414" lon="5.88011">
        <ele>1978.5305176</ele>
        <time>2009-01-08T13:11:19+01:00</time>
      </trkpt>
      <trkpt lat="45.3414" lon="5.88012">
        <ele>1977.5690918</ele>
        <time>2009-01-08T13:11:26+01:00</time>
      </trkpt>
      <trkpt lat="45.3414" lon="5.88011">
        <ele>1978.0498047</ele>
        <time>2009-01-08T13:11:32+01:00</time>
      </trkpt>
      <trkpt lat="45.34141" lon="5.88012">
        <ele>1977.088623</ele>
        <time>2009-01-08T13:11:39+01:00</time>
      </trkpt>
      <trkpt lat="45.34141" lon="5.88013">
        <ele>1977.5690918</ele>
        <time>2009-01-08T13:12:07+01:00</time>
      </trkpt>
      <trkpt lat="45.3414" lon="5.88013">
        <ele>1978.0498047</ele>
        <time>2009-01-08T13:12:32+01:00</time>
      </trkpt>
      <trkpt lat="45.3414" lon="5.88012">
        <ele>1980.4533691</ele>
        <time>2009-01-08T13:13:00+01:00</time>
      </trkpt>
      <trkpt lat="45.34141" lon="5.88014">
        <ele>1980.4533691</ele>
        <time>2009-01-08T13:13:21+01:00</time>
      </trkpt>
      <trkpt lat="45.34142" lon="5.88014">
        <ele>1979.0109863</ele>
        <time>2009-01-08T13:13:44+01:00</time>
      </trkpt>
      <trkpt lat="45.34142" lon="5.88013">
        <ele>1979.4916992</ele>
        <time>2009-01-08T13:14:03+01:00</time>
      </trkpt>
      <trkpt lat="45.34142" lon="5.88012">
        <ele>1979.0109863</ele>
        <time>2009-01-08T13:14:13+01:00</time>
      </trkpt>
      <trkpt lat="45.34142" lon="5.88013">
        <ele>1979.4916992</ele>
        <time>2009-01-08T13:14:31+01:00</time>
      </trkpt>
      <trkpt lat="45.34141" lon="5.88012">
        <ele>1978.5305176</ele>
        <time>2009-01-08T13:14:42+01:00</time>
      </trkpt>
      <trkpt lat="45.34141" lon="5.88013">
        <ele>1978.5305176</ele>
        <time>2009-01-08T13:14:49+01:00</time>
      </trkpt>
      <trkpt lat="45.3414" lon="5.88012">
        <ele>1979.4916992</ele>
        <time>2009-01-08T13:15:25+01:00</time>
      </trkpt>
      <trkpt lat="45.34137" lon="5.88012">
        <ele>1979.9724121</ele>
        <time>2009-01-08T13:15:31+01:00</time>
      </trkpt>
      <trkpt lat="45.34133" lon="5.88008">
        <ele>1978.5305176</ele>
        <time>2009-01-08T13:15:38+01:00</time>
      </trkpt>
      <trkpt lat="45.34129" lon="5.88001">
        <ele>1977.5690918</ele>
        <time>2009-01-08T13:15:43+01:00</time>
      </trkpt>
      <trkpt lat="45.34129" lon="5.87999">
        <ele>1979.9724121</ele>
        <time>2009-01-08T13:16:11+01:00</time>
      </trkpt>
      <trkpt lat="45.34129" lon="5.87998">
        <ele>1980.4533691</ele>
        <time>2009-01-08T13:16:17+01:00</time>
      </trkpt>
      <trkpt lat="45.34126" lon="5.87994">
        <ele>1979.4916992</ele>
        <time>2009-01-08T13:16:23+01:00</time>
      </trkpt>
      <trkpt lat="45.34126" lon="5.87992">
        <ele>1978.5305176</ele>
        <time>2009-01-08T13:16:28+01:00</time>
      </trkpt>
      <trkpt lat="45.34127" lon="5.87994">
        <ele>1976.6079102</ele>
        <time>2009-01-08T13:16:41+01:00</time>
      </trkpt>
      <trkpt lat="45.34126" lon="5.87992">
        <ele>1977.5690918</ele>
        <time>2009-01-08T13:16:48+01:00</time>
      </trkpt>
      <trkpt lat="45.34124" lon="5.8799">
        <ele>1977.088623</ele>
        <time>2009-01-08T13:16:51+01:00</time>
      </trkpt>
      <trkpt lat="45.34111" lon="5.87983">
        <ele>1973.723877</ele>
        <time>2009-01-08T13:16:56+01:00</time>
      </trkpt>
      <trkpt lat="45.34095" lon="5.8798">
        <ele>1971.8012695</ele>
        <time>2009-01-08T13:17:02+01:00</time>
      </trkpt>
      <trkpt lat="45.34083" lon="5.8798">
        <ele>1970.359375</ele>
        <time>2009-01-08T13:17:08+01:00</time>
      </trkpt>
      <trkpt lat="45.34081" lon="5.87979">
        <ele>1969.8786621</ele>
        <time>2009-01-08T13:17:09+01:00</time>
      </trkpt>
      <trkpt lat="45.34071" lon="5.87974">
        <ele>1968.4367676</ele>
        <time>2009-01-08T13:17:16+01:00</time>
      </trkpt>
      <trkpt lat="45.34066" lon="5.87971">
        <ele>1967.4753418</ele>
        <time>2009-01-08T13:17:23+01:00</time>
      </trkpt>
      <trkpt lat="45.34063" lon="5.8797">
        <ele>1966.5141602</ele>
        <time>2009-01-08T13:17:29+01:00</time>
      </trkpt>
      <trkpt lat="45.34064" lon="5.87968">
        <ele>1966.0334473</ele>
        <time>2009-01-08T13:17:39+01:00</time>
      </trkpt>
      <trkpt lat="45.34066" lon="5.87966">
        <ele>1965.5529785</ele>
        <time>2009-01-08T13:17:41+01:00</time>
      </trkpt>
      <trkpt lat="45.34075" lon="5.87962">
        <ele>1962.6687012</ele>
        <time>2009-01-08T13:17:46+01:00</time>
      </trkpt>
      <trkpt lat="45.34077" lon="5.87953">
        <ele>1961.2268066</ele>
        <time>2009-01-08T13:17:49+01:00</time>
      </trkpt>
      <trkpt lat="45.34085" lon="5.8795">
        <ele>1958.8234863</ele>
        <time>2009-01-08T13:17:51+01:00</time>
      </trkpt>
      <trkpt lat="45.34104" lon="5.87937">
        <ele>1955.9394531</ele>
        <time>2009-01-08T13:17:56+01:00</time>
      </trkpt>
      <trkpt lat="45.34106" lon="5.87929">
        <ele>1953.0556641</ele>
        <time>2009-01-08T13:17:58+01:00</time>
      </trkpt>
      <trkpt lat="45.34111" lon="5.87923">
        <ele>1949.2104492</ele>
        <time>2009-01-08T13:18:03+01:00</time>
      </trkpt>
      <trkpt lat="45.34112" lon="5.87923">
        <ele>1947.2875977</ele>
        <time>2009-01-08T13:18:13+01:00</time>
      </trkpt>
      <trkpt lat="45.34108" lon="5.87916">
        <ele>1944.4035645</ele>
        <time>2009-01-08T13:18:17+01:00</time>
      </trkpt>
      <trkpt lat="45.3411" lon="5.87908">
        <ele>1942.0004883</ele>
        <time>2009-01-08T13:18:21+01:00</time>
      </trkpt>
      <trkpt lat="45.34114" lon="5.8791">
        <ele>1937.6745605</ele>
        <time>2009-01-08T13:18:25+01:00</time>
      </trkpt>
      <trkpt lat="45.34114" lon="5.87911">
        <ele>1936.7131348</ele>
        <time>2009-01-08T13:18:32+01:00</time>
      </trkpt>
      <trkpt lat="45.34115" lon="5.87912">
        <ele>1934.3100586</ele>
        <time>2009-01-08T13:18:41+01:00</time>
      </trkpt>
      <trkpt lat="45.34115" lon="5.87913">
        <ele>1933.3486328</ele>
        <time>2009-01-08T13:18:49+01:00</time>
      </trkpt>
      <trkpt lat="45.34117" lon="5.87914">
        <ele>1929.9838867</ele>
        <time>2009-01-08T13:19:00+01:00</time>
      </trkpt>
      <trkpt lat="45.34129" lon="5.87896">
        <ele>1931.9064941</ele>
        <time>2009-01-08T13:19:05+01:00</time>
      </trkpt>
      <trkpt lat="45.34141" lon="5.8788">
        <ele>1931.4257812</ele>
        <time>2009-01-08T13:19:09+01:00</time>
      </trkpt>
      <trkpt lat="45.34142" lon="5.87859">
        <ele>1927.5805664</ele>
        <time>2009-01-08T13:19:14+01:00</time>
      </trkpt>
      <trkpt lat="45.3413" lon="5.87839">
        <ele>1920.3708496</ele>
        <time>2009-01-08T13:19:19+01:00</time>
      </trkpt>
      <trkpt lat="45.34124" lon="5.87828">
        <ele>1915.0834961</ele>
        <time>2009-01-08T13:19:22+01:00</time>
      </trkpt>
      <trkpt lat="45.3412" lon="5.87817">
        <ele>1910.7575684</ele>
        <time>2009-01-08T13:19:25+01:00</time>
      </trkpt>
      <trkpt lat="45.34114" lon="5.87811">
        <ele>1905.470459</ele>
        <time>2009-01-08T13:19:28+01:00</time>
      </trkpt>
      <trkpt lat="45.34115" lon="5.87813">
        <ele>1901.6252441</ele>
        <time>2009-01-08T13:19:35+01:00</time>
      </trkpt>
      <trkpt lat="45.34116" lon="5.87816">
        <ele>1901.1445312</ele>
        <time>2009-01-08T13:19:44+01:00</time>
      </trkpt>
      <trkpt lat="45.34116" lon="5.87817">
        <ele>1901.1445312</ele>
        <time>2009-01-08T13:19:54+01:00</time>
      </trkpt>
      <trkpt lat="45.34116" lon="5.87816">
        <ele>1899.7023926</ele>
        <time>2009-01-08T13:20:21+01:00</time>
      </trkpt>
      <trkpt lat="45.34117" lon="5.87817">
        <ele>1895.8571777</ele>
        <time>2009-01-08T13:20:45+01:00</time>
      </trkpt>
      <trkpt lat="45.34118" lon="5.87817">
        <ele>1893.4538574</ele>
        <time>2009-01-08T13:21:00+01:00</time>
      </trkpt>
      <trkpt lat="45.34118" lon="5.87818">
        <ele>1892.9731445</ele>
        <time>2009-01-08T13:21:08+01:00</time>
      </trkpt>
      <trkpt lat="45.34116" lon="5.87817">
        <ele>1897.2990723</ele>
        <time>2009-01-08T13:21:42+01:00</time>
      </trkpt>
      <trkpt lat="45.34114" lon="5.87815">
        <ele>1900.6638184</ele>
        <time>2009-01-08T13:21:50+01:00</time>
      </trkpt>
      <trkpt lat="45.34112" lon="5.87812">
        <ele>1900.6638184</ele>
        <time>2009-01-08T13:21:53+01:00</time>
      </trkpt>
      <trkpt lat="45.34112" lon="5.87797">
        <ele>1897.7797852</ele>
        <time>2009-01-08T13:21:57+01:00</time>
      </trkpt>
      <trkpt lat="45.3411" lon="5.87793">
        <ele>1896.8183594</ele>
        <time>2009-01-08T13:21:58+01:00</time>
      </trkpt>
      <trkpt lat="45.341" lon="5.87765">
        <ele>1885.7634277</ele>
        <time>2009-01-08T13:22:04+01:00</time>
      </trkpt>
      <trkpt lat="45.34097" lon="5.8776">
        <ele>1877.1115723</ele>
        <time>2009-01-08T13:22:07+01:00</time>
      </trkpt>
      <trkpt lat="45.34087" lon="5.87749">
        <ele>1867.0175781</ele>
        <time>2009-01-08T13:22:11+01:00</time>
      </trkpt>
      <trkpt lat="45.34089" lon="5.87752">
        <ele>1863.1723633</ele>
        <time>2009-01-08T13:22:14+01:00</time>
      </trkpt>
      <trkpt lat="45.3409" lon="5.87754">
        <ele>1857.8852539</ele>
        <time>2009-01-08T13:22:24+01:00</time>
      </trkpt>
      <trkpt lat="45.34089" lon="5.87751">
        <ele>1862.2109375</ele>
        <time>2009-01-08T13:23:11+01:00</time>
      </trkpt>
      <trkpt lat="45.34091" lon="5.87747">
        <ele>1863.1723633</ele>
        <time>2009-01-08T13:23:19+01:00</time>
      </trkpt>
      <trkpt lat="45.34096" lon="5.87727">
        <ele>1862.2109375</ele>
        <time>2009-01-08T13:23:23+01:00</time>
      </trkpt>
      <trkpt lat="45.34088" lon="5.87717">
        <ele>1856.9238281</ele>
        <time>2009-01-08T13:23:26+01:00</time>
      </trkpt>
      <trkpt lat="45.34081" lon="5.87707">
        <ele>1852.5979004</ele>
        <time>2009-01-08T13:23:29+01:00</time>
      </trkpt>
      <trkpt lat="45.34075" lon="5.87712">
        <ele>1849.2331543</ele>
        <time>2009-01-08T13:23:31+01:00</time>
      </trkpt>
      <trkpt lat="45.34075" lon="5.87714">
        <ele>1847.7912598</ele>
        <time>2009-01-08T13:23:32+01:00</time>
      </trkpt>
      <trkpt lat="45.34075" lon="5.87715">
        <ele>1845.8686523</ele>
        <time>2009-01-08T13:23:34+01:00</time>
      </trkpt>
      <trkpt lat="45.34076" lon="5.87718">
        <ele>1839.6201172</ele>
        <time>2009-01-08T13:23:42+01:00</time>
      </trkpt>
      <trkpt lat="45.34077" lon="5.87719">
        <ele>1837.6975098</ele>
        <time>2009-01-08T13:23:56+01:00</time>
      </trkpt>
      <trkpt lat="45.34076" lon="5.87717">
        <ele>1837.2167969</ele>
        <time>2009-01-08T13:24:06+01:00</time>
      </trkpt>
      <trkpt lat="45.34079" lon="5.87701">
        <ele>1834.8134766</ele>
        <time>2009-01-08T13:24:10+01:00</time>
      </trkpt>
      <trkpt lat="45.34078" lon="5.87678">
        <ele>1830.0068359</ele>
        <time>2009-01-08T13:24:15+01:00</time>
      </trkpt>
      <trkpt lat="45.34077" lon="5.87669">
        <ele>1827.1230469</ele>
        <time>2009-01-08T13:24:17+01:00</time>
      </trkpt>
      <trkpt lat="45.34074" lon="5.87646">
        <ele>1817.9902344</ele>
        <time>2009-01-08T13:24:22+01:00</time>
      </trkpt>
      <trkpt lat="45.34077" lon="5.87628">
        <ele>1810.2998047</ele>
        <time>2009-01-08T13:24:26+01:00</time>
      </trkpt>
      <trkpt lat="45.3407" lon="5.87626">
        <ele>1804.5319824</ele>
        <time>2009-01-08T13:24:29+01:00</time>
      </trkpt>
      <trkpt lat="45.34064" lon="5.87627">
        <ele>1800.6865234</ele>
        <time>2009-01-08T13:24:32+01:00</time>
      </trkpt>
      <trkpt lat="45.34058" lon="5.87622">
        <ele>1795.880127</ele>
        <time>2009-01-08T13:24:35+01:00</time>
      </trkpt>
      <trkpt lat="45.34066" lon="5.87598">
        <ele>1785.7861328</ele>
        <time>2009-01-08T13:24:39+01:00</time>
      </trkpt>
      <trkpt lat="45.34054" lon="5.87588">
        <ele>1779.5375977</ele>
        <time>2009-01-08T13:24:42+01:00</time>
      </trkpt>
      <trkpt lat="45.3405" lon="5.87593">
        <ele>1775.6923828</ele>
        <time>2009-01-08T13:24:45+01:00</time>
      </trkpt>
      <trkpt lat="45.3405" lon="5.87594">
        <ele>1776.1730957</ele>
        <time>2009-01-08T13:24:53+01:00</time>
      </trkpt>
      <trkpt lat="45.34048" lon="5.87592">
        <ele>1775.6923828</ele>
        <time>2009-01-08T13:25:00+01:00</time>
      </trkpt>
      <trkpt lat="45.34047" lon="5.87592">
        <ele>1774.2504883</ele>
        <time>2009-01-08T13:25:05+01:00</time>
      </trkpt>
      <trkpt lat="45.34032" lon="5.87582">
        <ele>1771.3662109</ele>
        <time>2009-01-08T13:25:12+01:00</time>
      </trkpt>
      <trkpt lat="45.34018" lon="5.87565">
        <ele>1766.0791016</ele>
        <time>2009-01-08T13:25:15+01:00</time>
      </trkpt>
      <trkpt lat="45.34014" lon="5.87542">
        <ele>1758.8693848</ele>
        <time>2009-01-08T13:25:19+01:00</time>
      </trkpt>
      <trkpt lat="45.34016" lon="5.87525">
        <ele>1751.6594238</ele>
        <time>2009-01-08T13:25:22+01:00</time>
      </trkpt>
      <trkpt lat="45.34015" lon="5.87493">
        <ele>1736.2783203</ele>
        <time>2009-01-08T13:25:28+01:00</time>
      </trkpt>
      <trkpt lat="45.34014" lon="5.87476">
        <ele>1726.6652832</ele>
        <time>2009-01-08T13:25:31+01:00</time>
      </trkpt>
      <trkpt lat="45.34012" lon="5.87477">
        <ele>1720.4165039</ele>
        <time>2009-01-08T13:25:34+01:00</time>
      </trkpt>
      <trkpt lat="45.34014" lon="5.87481">
        <ele>1717.052002</ele>
        <time>2009-01-08T13:25:41+01:00</time>
      </trkpt>
      <trkpt lat="45.34013" lon="5.8748">
        <ele>1717.052002</ele>
        <time>2009-01-08T13:25:55+01:00</time>
      </trkpt>
      <trkpt lat="45.34013" lon="5.87466">
        <ele>1715.1293945</ele>
        <time>2009-01-08T13:25:59+01:00</time>
      </trkpt>
      <trkpt lat="45.34018" lon="5.87458">
        <ele>1715.1293945</ele>
        <time>2009-01-08T13:26:01+01:00</time>
      </trkpt>
      <trkpt lat="45.34039" lon="5.87436">
        <ele>1709.842041</ele>
        <time>2009-01-08T13:26:06+01:00</time>
      </trkpt>
      <trkpt lat="45.34056" lon="5.87418">
        <ele>1708.8808594</ele>
        <time>2009-01-08T13:26:10+01:00</time>
      </trkpt>
      <trkpt lat="45.34058" lon="5.87415">
        <ele>1708.4001465</ele>
        <time>2009-01-08T13:26:11+01:00</time>
      </trkpt>
      <trkpt lat="45.34062" lon="5.87417">
        <ele>1703.112793</ele>
        <time>2009-01-08T13:26:18+01:00</time>
      </trkpt>
      <trkpt lat="45.34069" lon="5.87406">
        <ele>1699.2675781</ele>
        <time>2009-01-08T13:26:22+01:00</time>
      </trkpt>
      <trkpt lat="45.34072" lon="5.87391">
        <ele>1699.2675781</ele>
        <time>2009-01-08T13:26:24+01:00</time>
      </trkpt>
      <trkpt lat="45.34068" lon="5.87361">
        <ele>1694.4609375</ele>
        <time>2009-01-08T13:26:28+01:00</time>
      </trkpt>
      <trkpt lat="45.34059" lon="5.87331">
        <ele>1686.7702637</ele>
        <time>2009-01-08T13:26:32+01:00</time>
      </trkpt>
      <trkpt lat="45.34057" lon="5.87304">
        <ele>1680.5219727</ele>
        <time>2009-01-08T13:26:35+01:00</time>
      </trkpt>
      <trkpt lat="45.34068" lon="5.87279">
        <ele>1674.2731934</ele>
        <time>2009-01-08T13:26:38+01:00</time>
      </trkpt>
      <trkpt lat="45.34079" lon="5.87264">
        <ele>1663.6987305</ele>
        <time>2009-01-08T13:26:43+01:00</time>
      </trkpt>
      <trkpt lat="45.34078" lon="5.87266">
        <ele>1661.7763672</ele>
        <time>2009-01-08T13:26:48+01:00</time>
      </trkpt>
      <trkpt lat="45.34079" lon="5.87265">
        <ele>1661.2956543</ele>
        <time>2009-01-08T13:26:49+01:00</time>
      </trkpt>
      <trkpt lat="45.34084" lon="5.87239">
        <ele>1657.4501953</ele>
        <time>2009-01-08T13:26:53+01:00</time>
      </trkpt>
      <trkpt lat="45.34087" lon="5.87224">
        <ele>1655.5275879</ele>
        <time>2009-01-08T13:26:55+01:00</time>
      </trkpt>
      <trkpt lat="45.34083" lon="5.87201">
        <ele>1650.2404785</ele>
        <time>2009-01-08T13:26:59+01:00</time>
      </trkpt>
      <trkpt lat="45.34084" lon="5.87193">
        <ele>1649.2790527</ele>
        <time>2009-01-08T13:27:01+01:00</time>
      </trkpt>
      <trkpt lat="45.34086" lon="5.87196">
        <ele>1644.4724121</ele>
        <time>2009-01-08T13:27:07+01:00</time>
      </trkpt>
      <trkpt lat="45.34088" lon="5.87198">
        <ele>1642.5498047</ele>
        <time>2009-01-08T13:27:14+01:00</time>
      </trkpt>
      <trkpt lat="45.34085" lon="5.87202">
        <ele>1645.4338379</ele>
        <time>2009-01-08T13:27:52+01:00</time>
      </trkpt>
      <trkpt lat="45.34086" lon="5.87202">
        <ele>1643.9916992</ele>
        <time>2009-01-08T13:28:00+01:00</time>
      </trkpt>
      <trkpt lat="45.34085" lon="5.87197">
        <ele>1647.3564453</ele>
        <time>2009-01-08T13:28:20+01:00</time>
      </trkpt>
      <trkpt lat="45.34087" lon="5.87194">
        <ele>1646.3952637</ele>
        <time>2009-01-08T13:28:23+01:00</time>
      </trkpt>
      <trkpt lat="45.34095" lon="5.87194">
        <ele>1645.4338379</ele>
        <time>2009-01-08T13:28:27+01:00</time>
      </trkpt>
      <trkpt lat="45.34098" lon="5.87193">
        <ele>1650.7209473</ele>
        <time>2009-01-08T13:28:31+01:00</time>
      </trkpt>
      <trkpt lat="45.34103" lon="5.87192">
        <ele>1654.0856934</ele>
        <time>2009-01-08T13:28:38+01:00</time>
      </trkpt>
      <trkpt lat="45.34122" lon="5.87197">
        <ele>1647.8371582</ele>
        <time>2009-01-08T13:28:43+01:00</time>
      </trkpt>
      <trkpt lat="45.34132" lon="5.87195">
        <ele>1644.4724121</ele>
        <time>2009-01-08T13:28:47+01:00</time>
      </trkpt>
      <trkpt lat="45.34136" lon="5.87195">
        <ele>1640.6269531</ele>
        <time>2009-01-08T13:28:51+01:00</time>
      </trkpt>
      <trkpt lat="45.34138" lon="5.87195">
        <ele>1640.6269531</ele>
        <time>2009-01-08T13:28:53+01:00</time>
      </trkpt>
      <trkpt lat="45.3414" lon="5.87195">
        <ele>1640.6269531</ele>
        <time>2009-01-08T13:28:55+01:00</time>
      </trkpt>
      <trkpt lat="45.34143" lon="5.87195">
        <ele>1639.6657715</ele>
        <time>2009-01-08T13:29:00+01:00</time>
      </trkpt>
      <trkpt lat="45.34146" lon="5.87192">
        <ele>1640.6269531</ele>
        <time>2009-01-08T13:29:05+01:00</time>
      </trkpt>
      <trkpt lat="45.34149" lon="5.8719">
        <ele>1641.107666</ele>
        <time>2009-01-08T13:29:11+01:00</time>
      </trkpt>
      <trkpt lat="45.34151" lon="5.87187">
        <ele>1643.5109863</ele>
        <time>2009-01-08T13:29:19+01:00</time>
      </trkpt>
      <trkpt lat="45.34155" lon="5.8718">
        <ele>1645.4338379</ele>
        <time>2009-01-08T13:29:26+01:00</time>
      </trkpt>
      <trkpt lat="45.34156" lon="5.87179">
        <ele>1645.4338379</ele>
        <time>2009-01-08T13:29:27+01:00</time>
      </trkpt>
      <trkpt lat="45.34163" lon="5.87173">
        <ele>1642.5498047</ele>
        <time>2009-01-08T13:29:32+01:00</time>
      </trkpt>
      <trkpt lat="45.34169" lon="5.87167">
        <ele>1643.0302734</ele>
        <time>2009-01-08T13:29:36+01:00</time>
      </trkpt>
      <trkpt lat="45.3418" lon="5.87156">
        <ele>1641.5883789</ele>
        <time>2009-01-08T13:29:40+01:00</time>
      </trkpt>
      <trkpt lat="45.34182" lon="5.87149">
        <ele>1643.0302734</ele>
        <time>2009-01-08T13:29:42+01:00</time>
      </trkpt>
      <trkpt lat="45.34186" lon="5.87141">
        <ele>1646.3952637</ele>
        <time>2009-01-08T13:29:47+01:00</time>
      </trkpt>
      <trkpt lat="45.34193" lon="5.87128">
        <ele>1644.953125</ele>
        <time>2009-01-08T13:29:51+01:00</time>
      </trkpt>
      <trkpt lat="45.34202" lon="5.87117">
        <ele>1641.107666</ele>
        <time>2009-01-08T13:29:56+01:00</time>
      </trkpt>
      <trkpt lat="45.34203" lon="5.87115">
        <ele>1640.6269531</ele>
        <time>2009-01-08T13:29:58+01:00</time>
      </trkpt>
      <trkpt lat="45.34207" lon="5.87098">
        <ele>1638.7045898</ele>
        <time>2009-01-08T13:30:03+01:00</time>
      </trkpt>
      <trkpt lat="45.34207" lon="5.87069">
        <ele>1637.7431641</ele>
        <time>2009-01-08T13:30:08+01:00</time>
      </trkpt>
      <trkpt lat="45.342" lon="5.87046">
        <ele>1636.7817383</ele>
        <time>2009-01-08T13:30:13+01:00</time>
      </trkpt>
      <trkpt lat="45.34196" lon="5.87029">
        <ele>1634.859375</ele>
        <time>2009-01-08T13:30:18+01:00</time>
      </trkpt>
      <trkpt lat="45.34196" lon="5.87024">
        <ele>1634.3786621</ele>
        <time>2009-01-08T13:30:19+01:00</time>
      </trkpt>
      <trkpt lat="45.3419" lon="5.87008">
        <ele>1631.9753418</ele>
        <time>2009-01-08T13:30:23+01:00</time>
      </trkpt>
      <trkpt lat="45.34186" lon="5.86998">
        <ele>1633.4172363</ele>
        <time>2009-01-08T13:30:25+01:00</time>
      </trkpt>
      <trkpt lat="45.34186" lon="5.86997">
        <ele>1632.4560547</ele>
        <time>2009-01-08T13:30:30+01:00</time>
      </trkpt>
      <trkpt lat="45.34186" lon="5.8699">
        <ele>1630.5334473</ele>
        <time>2009-01-08T13:30:56+01:00</time>
      </trkpt>
      <trkpt lat="45.34186" lon="5.86989">
        <ele>1630.5334473</ele>
        <time>2009-01-08T13:30:58+01:00</time>
      </trkpt>
      <trkpt lat="45.34187" lon="5.8699">
        <ele>1629.0913086</ele>
        <time>2009-01-08T13:31:11+01:00</time>
      </trkpt>
      <trkpt lat="45.34185" lon="5.86986">
        <ele>1633.4172363</ele>
        <time>2009-01-08T13:31:34+01:00</time>
      </trkpt>
      <trkpt lat="45.34183" lon="5.86982">
        <ele>1636.7817383</ele>
        <time>2009-01-08T13:31:46+01:00</time>
      </trkpt>
      <trkpt lat="45.34187" lon="5.86988">
        <ele>1630.0527344</ele>
        <time>2009-01-08T13:31:53+01:00</time>
      </trkpt>
      <trkpt lat="45.34188" lon="5.86991">
        <ele>1627.6491699</ele>
        <time>2009-01-08T13:32:00+01:00</time>
      </trkpt>
      <trkpt lat="45.34188" lon="5.86987">
        <ele>1631.9753418</ele>
        <time>2009-01-08T13:32:07+01:00</time>
      </trkpt>
      <trkpt lat="45.34186" lon="5.86984">
        <ele>1634.859375</ele>
        <time>2009-01-08T13:32:24+01:00</time>
      </trkpt>
      <trkpt lat="45.34187" lon="5.8698">
        <ele>1635.3398438</ele>
        <time>2009-01-08T13:32:39+01:00</time>
      </trkpt>
      <trkpt lat="45.34186" lon="5.86979">
        <ele>1636.7817383</ele>
        <time>2009-01-08T13:32:41+01:00</time>
      </trkpt>
      <trkpt lat="45.34186" lon="5.86966">
        <ele>1634.3786621</ele>
        <time>2009-01-08T13:32:47+01:00</time>
      </trkpt>
      <trkpt lat="45.34185" lon="5.86943">
        <ele>1632.9365234</ele>
        <time>2009-01-08T13:32:53+01:00</time>
      </trkpt>
      <trkpt lat="45.34183" lon="5.86921">
        <ele>1631.9753418</ele>
        <time>2009-01-08T13:32:57+01:00</time>
      </trkpt>
      <trkpt lat="45.34181" lon="5.86891">
        <ele>1626.6879883</ele>
        <time>2009-01-08T13:33:02+01:00</time>
      </trkpt>
      <trkpt lat="45.3418" lon="5.86885">
        <ele>1624.7653809</ele>
        <time>2009-01-08T13:33:03+01:00</time>
      </trkpt>
      <trkpt lat="45.34174" lon="5.86873">
        <ele>1624.284668</ele>
        <time>2009-01-08T13:33:05+01:00</time>
      </trkpt>
      <trkpt lat="45.34164" lon="5.86851">
        <ele>1620.4394531</ele>
        <time>2009-01-08T13:33:10+01:00</time>
      </trkpt>
      <trkpt lat="45.34165" lon="5.86826">
        <ele>1619.9587402</ele>
        <time>2009-01-08T13:33:14+01:00</time>
      </trkpt>
      <trkpt lat="45.34178" lon="5.868">
        <ele>1612.2683105</ele>
        <time>2009-01-08T13:33:20+01:00</time>
      </trkpt>
      <trkpt lat="45.34183" lon="5.86788">
        <ele>1610.345459</ele>
        <time>2009-01-08T13:33:23+01:00</time>
      </trkpt>
      <trkpt lat="45.3419" lon="5.86769">
        <ele>1606.980957</ele>
        <time>2009-01-08T13:33:27+01:00</time>
      </trkpt>
      <trkpt lat="45.34194" lon="5.86762">
        <ele>1605.5390625</ele>
        <time>2009-01-08T13:33:28+01:00</time>
      </trkpt>
      <trkpt lat="45.34204" lon="5.86741">
        <ele>1602.1743164</ele>
        <time>2009-01-08T13:33:31+01:00</time>
      </trkpt>
      <trkpt lat="45.34214" lon="5.86718">
        <ele>1600.2519531</ele>
        <time>2009-01-08T13:33:34+01:00</time>
      </trkpt>
      <trkpt lat="45.34221" lon="5.86704">
        <ele>1600.2519531</ele>
        <time>2009-01-08T13:33:36+01:00</time>
      </trkpt>
      <trkpt lat="45.3424" lon="5.86683">
        <ele>1593.5224609</ele>
        <time>2009-01-08T13:33:40+01:00</time>
      </trkpt>
      <trkpt lat="45.34246" lon="5.86679">
        <ele>1592.5612793</ele>
        <time>2009-01-08T13:33:41+01:00</time>
      </trkpt>
      <trkpt lat="45.34277" lon="5.86659">
        <ele>1585.8320312</ele>
        <time>2009-01-08T13:33:48+01:00</time>
      </trkpt>
      <trkpt lat="45.34284" lon="5.86643">
        <ele>1581.5061035</ele>
        <time>2009-01-08T13:33:53+01:00</time>
      </trkpt>
      <trkpt lat="45.34297" lon="5.8663">
        <ele>1575.7380371</ele>
        <time>2009-01-08T13:33:57+01:00</time>
      </trkpt>
      <trkpt lat="45.34304" lon="5.86623">
        <ele>1574.2961426</ele>
        <time>2009-01-08T13:33:59+01:00</time>
      </trkpt>
      <trkpt lat="45.34319" lon="5.86607">
        <ele>1571.4121094</ele>
        <time>2009-01-08T13:34:04+01:00</time>
      </trkpt>
      <trkpt lat="45.34338" lon="5.86592">
        <ele>1567.0864258</ele>
        <time>2009-01-08T13:34:08+01:00</time>
      </trkpt>
      <trkpt lat="45.34349" lon="5.86572">
        <ele>1566.6057129</ele>
        <time>2009-01-08T13:34:13+01:00</time>
      </trkpt>
      <trkpt lat="45.34352" lon="5.86568">
        <ele>1566.125</ele>
        <time>2009-01-08T13:34:14+01:00</time>
      </trkpt>
      <trkpt lat="45.34359" lon="5.86559">
        <ele>1563.7214355</ele>
        <time>2009-01-08T13:34:16+01:00</time>
      </trkpt>
      <trkpt lat="45.34377" lon="5.86535">
        <ele>1558.9150391</ele>
        <time>2009-01-08T13:34:21+01:00</time>
      </trkpt>
      <trkpt lat="45.34383" lon="5.86524">
        <ele>1556.0310059</ele>
        <time>2009-01-08T13:34:23+01:00</time>
      </trkpt>
      <trkpt lat="45.34389" lon="5.86512">
        <ele>1555.0698242</ele>
        <time>2009-01-08T13:34:25+01:00</time>
      </trkpt>
      <trkpt lat="45.34402" lon="5.86494">
        <ele>1552.185791</ele>
        <time>2009-01-08T13:34:28+01:00</time>
      </trkpt>
      <trkpt lat="45.34416" lon="5.86487">
        <ele>1548.3405762</ele>
        <time>2009-01-08T13:34:32+01:00</time>
      </trkpt>
      <trkpt lat="45.34417" lon="5.86487">
        <ele>1548.3405762</ele>
        <time>2009-01-08T13:34:33+01:00</time>
      </trkpt>
      <trkpt lat="45.34417" lon="5.86486">
        <ele>1552.6665039</ele>
        <time>2009-01-08T13:34:39+01:00</time>
      </trkpt>
      <trkpt lat="45.34415" lon="5.86483">
        <ele>1559.395752</ele>
        <time>2009-01-08T13:34:46+01:00</time>
      </trkpt>
      <trkpt lat="45.34407" lon="5.86469">
        <ele>1576.6994629</ele>
        <time>2009-01-08T13:35:11+01:00</time>
      </trkpt>
      <trkpt lat="45.34411" lon="5.86458">
        <ele>1572.854248</ele>
        <time>2009-01-08T13:35:14+01:00</time>
      </trkpt>
      <trkpt lat="45.34433" lon="5.86449">
        <ele>1560.8376465</ele>
        <time>2009-01-08T13:35:18+01:00</time>
      </trkpt>
      <trkpt lat="45.34457" lon="5.86446">
        <ele>1546.8984375</ele>
        <time>2009-01-08T13:35:22+01:00</time>
      </trkpt>
      <trkpt lat="45.34466" lon="5.86442">
        <ele>1542.092041</ele>
        <time>2009-01-08T13:35:24+01:00</time>
      </trkpt>
      <trkpt lat="45.34485" lon="5.86437">
        <ele>1535.8435059</ele>
        <time>2009-01-08T13:35:28+01:00</time>
      </trkpt>
      <trkpt lat="45.34499" lon="5.86442">
        <ele>1529.5947266</ele>
        <time>2009-01-08T13:35:31+01:00</time>
      </trkpt>
      <trkpt lat="45.34517" lon="5.86457">
        <ele>1519.5012207</ele>
        <time>2009-01-08T13:35:35+01:00</time>
      </trkpt>
      <trkpt lat="45.34532" lon="5.86468">
        <ele>1514.213623</ele>
        <time>2009-01-08T13:35:39+01:00</time>
      </trkpt>
      <trkpt lat="45.34552" lon="5.86491">
        <ele>1509.8876953</ele>
        <time>2009-01-08T13:35:44+01:00</time>
      </trkpt>
      <trkpt lat="45.34565" lon="5.86501">
        <ele>1506.5231934</ele>
        <time>2009-01-08T13:35:47+01:00</time>
      </trkpt>
      <trkpt lat="45.34574" lon="5.86505">
        <ele>1504.6005859</ele>
        <time>2009-01-08T13:35:53+01:00</time>
      </trkpt>
      <trkpt lat="45.34569" lon="5.86501">
        <ele>1511.8105469</ele>
        <time>2009-01-08T13:36:21+01:00</time>
      </trkpt>
      <trkpt lat="45.34572" lon="5.86498">
        <ele>1511.329834</ele>
        <time>2009-01-08T13:36:25+01:00</time>
      </trkpt>
      <trkpt lat="45.34573" lon="5.86499">
        <ele>1509.4072266</ele>
        <time>2009-01-08T13:36:31+01:00</time>
      </trkpt>
      <trkpt lat="45.34573" lon="5.865">
        <ele>1507.0039062</ele>
        <time>2009-01-08T13:36:49+01:00</time>
      </trkpt>
      <trkpt lat="45.34577" lon="5.86498">
        <ele>1504.6005859</ele>
        <time>2009-01-08T13:37:10+01:00</time>
      </trkpt>
      <trkpt lat="45.34591" lon="5.86495">
        <ele>1502.6779785</ele>
        <time>2009-01-08T13:37:15+01:00</time>
      </trkpt>
      <trkpt lat="45.34594" lon="5.86495">
        <ele>1501.7167969</ele>
        <time>2009-01-08T13:37:16+01:00</time>
      </trkpt>
      <trkpt lat="45.34597" lon="5.86496">
        <ele>1501.236084</ele>
        <time>2009-01-08T13:37:21+01:00</time>
      </trkpt>
      <trkpt lat="45.34596" lon="5.86492">
        <ele>1502.1972656</ele>
        <time>2009-01-08T13:37:28+01:00</time>
      </trkpt>
      <trkpt lat="45.34587" lon="5.86477">
        <ele>1501.236084</ele>
        <time>2009-01-08T13:37:33+01:00</time>
      </trkpt>
      <trkpt lat="45.34585" lon="5.8647">
        <ele>1500.2749023</ele>
        <time>2009-01-08T13:37:35+01:00</time>
      </trkpt>
      <trkpt lat="45.34582" lon="5.8645">
        <ele>1496.9099121</ele>
        <time>2009-01-08T13:37:39+01:00</time>
      </trkpt>
      <trkpt lat="45.34589" lon="5.86434">
        <ele>1491.6228027</ele>
        <time>2009-01-08T13:37:42+01:00</time>
      </trkpt>
      <trkpt lat="45.34597" lon="5.86422">
        <ele>1484.8937988</ele>
        <time>2009-01-08T13:37:45+01:00</time>
      </trkpt>
      <trkpt lat="45.346" lon="5.86406">
        <ele>1475.7609863</ele>
        <time>2009-01-08T13:37:49+01:00</time>
      </trkpt>
      <trkpt lat="45.34602" lon="5.86406">
        <ele>1474.3190918</ele>
        <time>2009-01-08T13:37:50+01:00</time>
      </trkpt>
      <trkpt lat="45.34605" lon="5.86409">
        <ele>1471.4350586</ele>
        <time>2009-01-08T13:37:58+01:00</time>
      </trkpt>
      <trkpt lat="45.34606" lon="5.86407">
        <ele>1470.473877</ele>
        <time>2009-01-08T13:38:03+01:00</time>
      </trkpt>
      <trkpt lat="45.34605" lon="5.86389">
        <ele>1468.0705566</ele>
        <time>2009-01-08T13:38:07+01:00</time>
      </trkpt>
      <trkpt lat="45.34603" lon="5.86359">
        <ele>1463.263916</ele>
        <time>2009-01-08T13:38:11+01:00</time>
      </trkpt>
      <trkpt lat="45.34603" lon="5.86329">
        <ele>1458.9379883</ele>
        <time>2009-01-08T13:38:15+01:00</time>
      </trkpt>
      <trkpt lat="45.34604" lon="5.86315">
        <ele>1453.6508789</ele>
        <time>2009-01-08T13:38:19+01:00</time>
      </trkpt>
      <trkpt lat="45.346" lon="5.86293">
        <ele>1450.7666016</ele>
        <time>2009-01-08T13:38:24+01:00</time>
      </trkpt>
      <trkpt lat="45.34599" lon="5.86288">
        <ele>1450.7666016</ele>
        <time>2009-01-08T13:38:25+01:00</time>
      </trkpt>
      <trkpt lat="45.34596" lon="5.86275">
        <ele>1446.9213867</ele>
        <time>2009-01-08T13:38:29+01:00</time>
      </trkpt>
      <trkpt lat="45.34595" lon="5.86275">
        <ele>1446.9213867</ele>
        <time>2009-01-08T13:38:38+01:00</time>
      </trkpt>
      <trkpt lat="45.34594" lon="5.86267">
        <ele>1447.8828125</ele>
        <time>2009-01-08T13:38:51+01:00</time>
      </trkpt>
      <trkpt lat="45.34591" lon="5.86253">
        <ele>1449.324707</ele>
        <time>2009-01-08T13:38:55+01:00</time>
      </trkpt>
      <trkpt lat="45.34584" lon="5.86254">
        <ele>1445.9602051</ele>
        <time>2009-01-08T13:38:59+01:00</time>
      </trkpt>
      <trkpt lat="45.34575" lon="5.86258">
        <ele>1442.1149902</ele>
        <time>2009-01-08T13:39:03+01:00</time>
      </trkpt>
      <trkpt lat="45.34572" lon="5.86259">
        <ele>1441.6342773</ele>
        <time>2009-01-08T13:39:04+01:00</time>
      </trkpt>
      <trkpt lat="45.34568" lon="5.86261">
        <ele>1441.6342773</ele>
        <time>2009-01-08T13:39:10+01:00</time>
      </trkpt>
      <trkpt lat="45.34564" lon="5.86258">
        <ele>1439.230957</ele>
        <time>2009-01-08T13:39:14+01:00</time>
      </trkpt>
      <trkpt lat="45.3456" lon="5.86255">
        <ele>1437.7890625</ele>
        <time>2009-01-08T13:39:20+01:00</time>
      </trkpt>
      <trkpt lat="45.3456" lon="5.86256">
        <ele>1435.385498</ele>
        <time>2009-01-08T13:39:26+01:00</time>
      </trkpt>
      <trkpt lat="45.34557" lon="5.86254">
        <ele>1433.4628906</ele>
        <time>2009-01-08T13:39:31+01:00</time>
      </trkpt>
      <trkpt lat="45.34556" lon="5.86251">
        <ele>1434.4243164</ele>
        <time>2009-01-08T13:39:33+01:00</time>
      </trkpt>
      <trkpt lat="45.34555" lon="5.86238">
        <ele>1429.1369629</ele>
        <time>2009-01-08T13:39:38+01:00</time>
      </trkpt>
      <trkpt lat="45.34545" lon="5.86222">
        <ele>1425.7724609</ele>
        <time>2009-01-08T13:39:43+01:00</time>
      </trkpt>
      <trkpt lat="45.34539" lon="5.86209">
        <ele>1421.4465332</ele>
        <time>2009-01-08T13:39:46+01:00</time>
      </trkpt>
      <trkpt lat="45.34534" lon="5.86204">
        <ele>1418.5625</ele>
        <time>2009-01-08T13:39:48+01:00</time>
      </trkpt>
      <trkpt lat="45.34532" lon="5.8619">
        <ele>1414.2365723</ele>
        <time>2009-01-08T13:39:52+01:00</time>
      </trkpt>
      <trkpt lat="45.34522" lon="5.86185">
        <ele>1410.8720703</ele>
        <time>2009-01-08T13:39:56+01:00</time>
      </trkpt>
      <trkpt lat="45.34519" lon="5.86181">
        <ele>1409.9106445</ele>
        <time>2009-01-08T13:40:02+01:00</time>
      </trkpt>
      <trkpt lat="45.3452" lon="5.86178">
        <ele>1409.9106445</ele>
        <time>2009-01-08T13:40:05+01:00</time>
      </trkpt>
      <trkpt lat="45.34517" lon="5.86172">
        <ele>1408.9494629</ele>
        <time>2009-01-08T13:40:08+01:00</time>
      </trkpt>
      <trkpt lat="45.34508" lon="5.86172">
        <ele>1410.3913574</ele>
        <time>2009-01-08T13:40:12+01:00</time>
      </trkpt>
      <trkpt lat="45.34506" lon="5.86173">
        <ele>1410.3913574</ele>
        <time>2009-01-08T13:40:13+01:00</time>
      </trkpt>
      <trkpt lat="45.34497" lon="5.86166">
        <ele>1407.9882812</ele>
        <time>2009-01-08T13:40:18+01:00</time>
      </trkpt>
      <trkpt lat="45.34489" lon="5.86148">
        <ele>1403.6621094</ele>
        <time>2009-01-08T13:40:22+01:00</time>
      </trkpt>
      <trkpt lat="45.34488" lon="5.86142">
        <ele>1403.1813965</ele>
        <time>2009-01-08T13:40:24+01:00</time>
      </trkpt>
      <trkpt lat="45.34478" lon="5.86126">
        <ele>1398.8554688</ele>
        <time>2009-01-08T13:40:29+01:00</time>
      </trkpt>
      <trkpt lat="45.34477" lon="5.86117">
        <ele>1395.9716797</ele>
        <time>2009-01-08T13:40:31+01:00</time>
      </trkpt>
      <trkpt lat="45.34471" lon="5.86097">
        <ele>1389.2424316</ele>
        <time>2009-01-08T13:40:36+01:00</time>
      </trkpt>
      <trkpt lat="45.34463" lon="5.86087">
        <ele>1384.9165039</ele>
        <time>2009-01-08T13:40:39+01:00</time>
      </trkpt>
      <trkpt lat="45.34452" lon="5.86071">
        <ele>1379.1484375</ele>
        <time>2009-01-08T13:40:44+01:00</time>
      </trkpt>
      <trkpt lat="45.34447" lon="5.8607">
        <ele>1376.7453613</ele>
        <time>2009-01-08T13:40:48+01:00</time>
      </trkpt>
      <trkpt lat="45.34448" lon="5.86071">
        <ele>1373.8613281</ele>
        <time>2009-01-08T13:40:58+01:00</time>
      </trkpt>
      <trkpt lat="45.34443" lon="5.86071">
        <ele>1373.3808594</ele>
        <time>2009-01-08T13:41:02+01:00</time>
      </trkpt>
      <trkpt lat="45.34437" lon="5.86064">
        <ele>1372.4194336</ele>
        <time>2009-01-08T13:41:07+01:00</time>
      </trkpt>
      <trkpt lat="45.34434" lon="5.86047">
        <ele>1370.9772949</ele>
        <time>2009-01-08T13:41:12+01:00</time>
      </trkpt>
      <trkpt lat="45.34427" lon="5.86025">
        <ele>1369.0546875</ele>
        <time>2009-01-08T13:41:16+01:00</time>
      </trkpt>
      <trkpt lat="45.34414" lon="5.8601">
        <ele>1365.6901855</ele>
        <time>2009-01-08T13:41:21+01:00</time>
      </trkpt>
      <trkpt lat="45.34408" lon="5.85997">
        <ele>1362.3254395</ele>
        <time>2009-01-08T13:41:24+01:00</time>
      </trkpt>
      <trkpt lat="45.344" lon="5.85978">
        <ele>1358.4802246</ele>
        <time>2009-01-08T13:41:28+01:00</time>
      </trkpt>
      <trkpt lat="45.34391" lon="5.85964">
        <ele>1355.1154785</ele>
        <time>2009-01-08T13:41:32+01:00</time>
      </trkpt>
      <trkpt lat="45.3439" lon="5.8596">
        <ele>1354.6347656</ele>
        <time>2009-01-08T13:41:36+01:00</time>
      </trkpt>
      <trkpt lat="45.34389" lon="5.85945">
        <ele>1348.3862305</ele>
        <time>2009-01-08T13:41:41+01:00</time>
      </trkpt>
      <trkpt lat="45.34386" lon="5.85932">
        <ele>1349.3476562</ele>
        <time>2009-01-08T13:41:44+01:00</time>
      </trkpt>
      <trkpt lat="45.34382" lon="5.85922">
        <ele>1348.8669434</ele>
        <time>2009-01-08T13:41:52+01:00</time>
      </trkpt>
      <trkpt lat="45.34377" lon="5.85919">
        <ele>1361.3642578</ele>
        <time>2009-01-08T13:42:28+01:00</time>
      </trkpt>
      <trkpt lat="45.34371" lon="5.85916">
        <ele>1368.5739746</ele>
        <time>2009-01-08T13:42:45+01:00</time>
      </trkpt>
      <trkpt lat="45.34376" lon="5.85919">
        <ele>1363.767334</ele>
        <time>2009-01-08T13:43:18+01:00</time>
      </trkpt>
      <trkpt lat="45.34382" lon="5.85923">
        <ele>1355.1154785</ele>
        <time>2009-01-08T13:43:43+01:00</time>
      </trkpt>
      <trkpt lat="45.34382" lon="5.85926">
        <ele>1348.8669434</ele>
        <time>2009-01-08T13:44:03+01:00</time>
      </trkpt>
      <trkpt lat="45.3438" lon="5.85927">
        <ele>1353.673584</ele>
        <time>2009-01-08T13:44:07+01:00</time>
      </trkpt>
      <trkpt lat="45.34382" lon="5.85923">
        <ele>1355.1154785</ele>
        <time>2009-01-08T13:44:15+01:00</time>
      </trkpt>
      <trkpt lat="45.34379" lon="5.85927">
        <ele>1352.7121582</ele>
        <time>2009-01-08T13:45:02+01:00</time>
      </trkpt>
      <trkpt lat="45.34377" lon="5.85926">
        <ele>1353.673584</ele>
        <time>2009-01-08T13:45:11+01:00</time>
      </trkpt>
      <trkpt lat="45.34372" lon="5.85922">
        <ele>1363.767334</ele>
        <time>2009-01-08T13:45:49+01:00</time>
      </trkpt>
      <trkpt lat="45.34376" lon="5.85923">
        <ele>1361.8449707</ele>
        <time>2009-01-08T13:45:54+01:00</time>
      </trkpt>
      <trkpt lat="45.34374" lon="5.85925">
        <ele>1359.4416504</ele>
        <time>2009-01-08T13:46:09+01:00</time>
      </trkpt>
      <trkpt lat="45.34374" lon="5.85922">
        <ele>1359.9221191</ele>
        <time>2009-01-08T13:46:19+01:00</time>
      </trkpt>
      <trkpt lat="45.3438" lon="5.85925">
        <ele>1354.6347656</ele>
        <time>2009-01-08T13:46:40+01:00</time>
      </trkpt>
      <trkpt lat="45.34381" lon="5.85922">
        <ele>1361.3642578</ele>
        <time>2009-01-08T13:46:57+01:00</time>
      </trkpt>
      <trkpt lat="45.34384" lon="5.85919">
        <ele>1363.767334</ele>
        <time>2009-01-08T13:47:08+01:00</time>
      </trkpt>
      <trkpt lat="45.34387" lon="5.85916">
        <ele>1364.2480469</ele>
        <time>2009-01-08T13:47:14+01:00</time>
      </trkpt>
      <trkpt lat="45.34389" lon="5.85914">
        <ele>1363.767334</ele>
        <time>2009-01-08T13:47:16+01:00</time>
      </trkpt>
      <trkpt lat="45.34394" lon="5.8591">
        <ele>1363.767334</ele>
        <time>2009-01-08T13:47:23+01:00</time>
      </trkpt>
      <trkpt lat="45.34394" lon="5.85908">
        <ele>1366.1706543</ele>
        <time>2009-01-08T13:47:27+01:00</time>
      </trkpt>
      <trkpt lat="45.34397" lon="5.85906">
        <ele>1366.1706543</ele>
        <time>2009-01-08T13:47:32+01:00</time>
      </trkpt>
      <trkpt lat="45.34398" lon="5.859">
        <ele>1365.2094727</ele>
        <time>2009-01-08T13:47:37+01:00</time>
      </trkpt>
      <trkpt lat="45.34398" lon="5.85895">
        <ele>1364.7287598</ele>
        <time>2009-01-08T13:47:42+01:00</time>
      </trkpt>
      <trkpt lat="45.344" lon="5.85891">
        <ele>1362.3254395</ele>
        <time>2009-01-08T13:47:47+01:00</time>
      </trkpt>
      <trkpt lat="45.34398" lon="5.85883">
        <ele>1363.767334</ele>
        <time>2009-01-08T13:48:00+01:00</time>
      </trkpt>
      <trkpt lat="45.34396" lon="5.85882">
        <ele>1365.6901855</ele>
        <time>2009-01-08T13:48:04+01:00</time>
      </trkpt>
      <trkpt lat="45.34397" lon="5.85881">
        <ele>1372.4194336</ele>
        <time>2009-01-08T13:48:11+01:00</time>
      </trkpt>
      <trkpt lat="45.344" lon="5.85881">
        <ele>1372.4194336</ele>
        <time>2009-01-08T13:48:15+01:00</time>
      </trkpt>
      <trkpt lat="45.34403" lon="5.85879">
        <ele>1370.9772949</ele>
        <time>2009-01-08T13:48:21+01:00</time>
      </trkpt>
      <trkpt lat="45.34408" lon="5.85877">
        <ele>1370.0158691</ele>
        <time>2009-01-08T13:48:26+01:00</time>
      </trkpt>
      <trkpt lat="45.34411" lon="5.85878">
        <ele>1371.9384766</ele>
        <time>2009-01-08T13:48:30+01:00</time>
      </trkpt>
      <trkpt lat="45.34416" lon="5.8588">
        <ele>1376.7453613</ele>
        <time>2009-01-08T13:48:36+01:00</time>
      </trkpt>
      <trkpt lat="45.34419" lon="5.85882">
        <ele>1379.1484375</ele>
        <time>2009-01-08T13:48:40+01:00</time>
      </trkpt>
      <trkpt lat="45.34423" lon="5.8588">
        <ele>1378.6679688</ele>
        <time>2009-01-08T13:48:45+01:00</time>
      </trkpt>
      <trkpt lat="45.34426" lon="5.85881">
        <ele>1378.6679688</ele>
        <time>2009-01-08T13:48:49+01:00</time>
      </trkpt>
      <trkpt lat="45.3443" lon="5.85881">
        <ele>1377.2260742</ele>
        <time>2009-01-08T13:48:53+01:00</time>
      </trkpt>
      <trkpt lat="45.34433" lon="5.85883">
        <ele>1377.2260742</ele>
        <time>2009-01-08T13:48:57+01:00</time>
      </trkpt>
      <trkpt lat="45.34435" lon="5.85884">
        <ele>1377.706543</ele>
        <time>2009-01-08T13:49:00+01:00</time>
      </trkpt>
      <trkpt lat="45.34438" lon="5.85884">
        <ele>1377.2260742</ele>
        <time>2009-01-08T13:49:06+01:00</time>
      </trkpt>
      <trkpt lat="45.3444" lon="5.85882">
        <ele>1377.2260742</ele>
        <time>2009-01-08T13:49:10+01:00</time>
      </trkpt>
      <trkpt lat="45.34441" lon="5.85877">
        <ele>1377.2260742</ele>
        <time>2009-01-08T13:49:14+01:00</time>
      </trkpt>
      <trkpt lat="45.34439" lon="5.85871">
        <ele>1378.1872559</ele>
        <time>2009-01-08T13:49:21+01:00</time>
      </trkpt>
      <trkpt lat="45.34437" lon="5.85872">
        <ele>1383.4743652</ele>
        <time>2009-01-08T13:49:25+01:00</time>
      </trkpt>
      <trkpt lat="45.34435" lon="5.85867">
        <ele>1382.5131836</ele>
        <time>2009-01-08T13:49:30+01:00</time>
      </trkpt>
      <trkpt lat="45.34433" lon="5.85864">
        <ele>1382.9936523</ele>
        <time>2009-01-08T13:49:35+01:00</time>
      </trkpt>
      <trkpt lat="45.3443" lon="5.85863">
        <ele>1384.435791</ele>
        <time>2009-01-08T13:49:39+01:00</time>
      </trkpt>
      <trkpt lat="45.34425" lon="5.85858">
        <ele>1384.9165039</ele>
        <time>2009-01-08T13:49:46+01:00</time>
      </trkpt>
      <trkpt lat="45.34423" lon="5.85856">
        <ele>1385.3969727</ele>
        <time>2009-01-08T13:49:50+01:00</time>
      </trkpt>
      <trkpt lat="45.34421" lon="5.85855">
        <ele>1386.3583984</ele>
        <time>2009-01-08T13:49:54+01:00</time>
      </trkpt>
      <trkpt lat="45.34419" lon="5.85853">
        <ele>1385.3969727</ele>
        <time>2009-01-08T13:49:58+01:00</time>
      </trkpt>
      <trkpt lat="45.34415" lon="5.85851">
        <ele>1386.3583984</ele>
        <time>2009-01-08T13:50:03+01:00</time>
      </trkpt>
      <trkpt lat="45.3441" lon="5.85848">
        <ele>1388.28125</ele>
        <time>2009-01-08T13:50:11+01:00</time>
      </trkpt>
      <trkpt lat="45.34409" lon="5.85851">
        <ele>1391.645752</ele>
        <time>2009-01-08T13:50:17+01:00</time>
      </trkpt>
      <trkpt lat="45.34404" lon="5.85847">
        <ele>1392.6071777</ele>
        <time>2009-01-08T13:50:23+01:00</time>
      </trkpt>
      <trkpt lat="45.344" lon="5.85843">
        <ele>1394.0490723</ele>
        <time>2009-01-08T13:50:28+01:00</time>
      </trkpt>
      <trkpt lat="45.34398" lon="5.85841">
        <ele>1395.0102539</ele>
        <time>2009-01-08T13:50:31+01:00</time>
      </trkpt>
      <trkpt lat="45.34392" lon="5.85833">
        <ele>1395.9716797</ele>
        <time>2009-01-08T13:50:38+01:00</time>
      </trkpt>
      <trkpt lat="45.34388" lon="5.85827">
        <ele>1396.4523926</ele>
        <time>2009-01-08T13:50:44+01:00</time>
      </trkpt>
      <trkpt lat="45.34385" lon="5.85823">
        <ele>1395.4909668</ele>
        <time>2009-01-08T13:50:49+01:00</time>
      </trkpt>
      <trkpt lat="45.34381" lon="5.85819">
        <ele>1395.9716797</ele>
        <time>2009-01-08T13:50:54+01:00</time>
      </trkpt>
      <trkpt lat="45.34376" lon="5.85814">
        <ele>1396.9328613</ele>
        <time>2009-01-08T13:51:01+01:00</time>
      </trkpt>
      <trkpt lat="45.34372" lon="5.85809">
        <ele>1398.8554688</ele>
        <time>2009-01-08T13:51:07+01:00</time>
      </trkpt>
      <trkpt lat="45.34367" lon="5.85806">
        <ele>1399.3361816</ele>
        <time>2009-01-08T13:51:13+01:00</time>
      </trkpt>
      <trkpt lat="45.3436" lon="5.85802">
        <ele>1403.6621094</ele>
        <time>2009-01-08T13:51:19+01:00</time>
      </trkpt>
      <trkpt lat="45.34356" lon="5.85798">
        <ele>1404.6235352</ele>
        <time>2009-01-08T13:51:24+01:00</time>
      </trkpt>
      <trkpt lat="45.34353" lon="5.85794">
        <ele>1404.1430664</ele>
        <time>2009-01-08T13:51:28+01:00</time>
      </trkpt>
      <trkpt lat="45.34349" lon="5.85786">
        <ele>1400.7780762</ele>
        <time>2009-01-08T13:51:35+01:00</time>
      </trkpt>
      <trkpt lat="45.34346" lon="5.85781">
        <ele>1399.3361816</ele>
        <time>2009-01-08T13:51:41+01:00</time>
      </trkpt>
      <trkpt lat="45.34342" lon="5.85775">
        <ele>1400.7780762</ele>
        <time>2009-01-08T13:51:47+01:00</time>
      </trkpt>
      <trkpt lat="45.3434" lon="5.85772">
        <ele>1401.2587891</ele>
        <time>2009-01-08T13:51:49+01:00</time>
      </trkpt>
      <trkpt lat="45.34337" lon="5.85766">
        <ele>1402.7006836</ele>
        <time>2009-01-08T13:51:56+01:00</time>
      </trkpt>
      <trkpt lat="45.34333" lon="5.85761">
        <ele>1406.0654297</ele>
        <time>2009-01-08T13:52:02+01:00</time>
      </trkpt>
      <trkpt lat="45.34331" lon="5.85752">
        <ele>1405.5849609</ele>
        <time>2009-01-08T13:52:08+01:00</time>
      </trkpt>
      <trkpt lat="45.3433" lon="5.85747">
        <ele>1405.5849609</ele>
        <time>2009-01-08T13:52:11+01:00</time>
      </trkpt>
      <trkpt lat="45.34325" lon="5.85741">
        <ele>1409.9106445</ele>
        <time>2009-01-08T13:52:18+01:00</time>
      </trkpt>
      <trkpt lat="45.34322" lon="5.85731">
        <ele>1407.5075684</ele>
        <time>2009-01-08T13:52:25+01:00</time>
      </trkpt>
      <trkpt lat="45.34319" lon="5.85725">
        <ele>1406.5461426</ele>
        <time>2009-01-08T13:52:31+01:00</time>
      </trkpt>
      <trkpt lat="45.34315" lon="5.85717">
        <ele>1406.5461426</ele>
        <time>2009-01-08T13:52:37+01:00</time>
      </trkpt>
      <trkpt lat="45.34309" lon="5.8571">
        <ele>1407.9882812</ele>
        <time>2009-01-08T13:52:44+01:00</time>
      </trkpt>
      <trkpt lat="45.34307" lon="5.85705">
        <ele>1408.9494629</ele>
        <time>2009-01-08T13:52:48+01:00</time>
      </trkpt>
      <trkpt lat="45.34306" lon="5.85697">
        <ele>1413.2753906</ele>
        <time>2009-01-08T13:52:55+01:00</time>
      </trkpt>
      <trkpt lat="45.34308" lon="5.85693">
        <ele>1413.7558594</ele>
        <time>2009-01-08T13:52:57+01:00</time>
      </trkpt>
      <trkpt lat="45.34313" lon="5.85692">
        <ele>1417.6010742</ele>
        <time>2009-01-08T13:53:05+01:00</time>
      </trkpt>
      <trkpt lat="45.34317" lon="5.85693">
        <ele>1420.4853516</ele>
        <time>2009-01-08T13:53:11+01:00</time>
      </trkpt>
      <trkpt lat="45.34322" lon="5.8569">
        <ele>1420.0046387</ele>
        <time>2009-01-08T13:53:17+01:00</time>
      </trkpt>
      <trkpt lat="45.34324" lon="5.85692">
        <ele>1420.0046387</ele>
        <time>2009-01-08T13:53:22+01:00</time>
      </trkpt>
      <trkpt lat="45.34327" lon="5.85692">
        <ele>1423.8498535</ele>
        <time>2009-01-08T13:53:27+01:00</time>
      </trkpt>
      <trkpt lat="45.34329" lon="5.85693">
        <ele>1423.3693848</ele>
        <time>2009-01-08T13:53:31+01:00</time>
      </trkpt>
      <trkpt lat="45.34333" lon="5.85696">
        <ele>1422.407959</ele>
        <time>2009-01-08T13:53:36+01:00</time>
      </trkpt>
      <trkpt lat="45.34339" lon="5.85692">
        <ele>1418.5625</ele>
        <time>2009-01-08T13:53:40+01:00</time>
      </trkpt>
      <trkpt lat="45.34342" lon="5.85692">
        <ele>1417.6010742</ele>
        <time>2009-01-08T13:53:44+01:00</time>
      </trkpt>
      <trkpt lat="45.34344" lon="5.85697">
        <ele>1419.5239258</ele>
        <time>2009-01-08T13:53:50+01:00</time>
      </trkpt>
      <trkpt lat="45.3435" lon="5.85701">
        <ele>1417.6010742</ele>
        <time>2009-01-08T13:53:56+01:00</time>
      </trkpt>
      <trkpt lat="45.34354" lon="5.85703">
        <ele>1419.5239258</ele>
        <time>2009-01-08T13:54:01+01:00</time>
      </trkpt>
      <trkpt lat="45.34354" lon="5.85705">
        <ele>1421.4465332</ele>
        <time>2009-01-08T13:54:06+01:00</time>
      </trkpt>
      <trkpt lat="45.34356" lon="5.85706">
        <ele>1425.7724609</ele>
        <time>2009-01-08T13:54:10+01:00</time>
      </trkpt>
      <trkpt lat="45.34359" lon="5.85709">
        <ele>1426.2531738</ele>
        <time>2009-01-08T13:54:15+01:00</time>
      </trkpt>
      <trkpt lat="45.34367" lon="5.85708">
        <ele>1425.291748</ele>
        <time>2009-01-08T13:54:20+01:00</time>
      </trkpt>
      <trkpt lat="45.34369" lon="5.85709">
        <ele>1424.8112793</ele>
        <time>2009-01-08T13:54:22+01:00</time>
      </trkpt>
      <trkpt lat="45.34372" lon="5.85711">
        <ele>1425.291748</ele>
        <time>2009-01-08T13:54:24+01:00</time>
      </trkpt>
      <trkpt lat="45.34375" lon="5.85711">
        <ele>1422.8886719</ele>
        <time>2009-01-08T13:54:29+01:00</time>
      </trkpt>
      <trkpt lat="45.34379" lon="5.85716">
        <ele>1423.8498535</ele>
        <time>2009-01-08T13:54:34+01:00</time>
      </trkpt>
      <trkpt lat="45.34381" lon="5.8572">
        <ele>1423.3693848</ele>
        <time>2009-01-08T13:54:38+01:00</time>
      </trkpt>
      <trkpt lat="45.34386" lon="5.85724">
        <ele>1427.2145996</ele>
        <time>2009-01-08T13:54:45+01:00</time>
      </trkpt>
      <trkpt lat="45.3439" lon="5.85727">
        <ele>1432.501709</ele>
        <time>2009-01-08T13:54:50+01:00</time>
      </trkpt>
      <trkpt lat="45.34393" lon="5.85729">
        <ele>1434.9050293</ele>
        <time>2009-01-08T13:54:54+01:00</time>
      </trkpt>
      <trkpt lat="45.34396" lon="5.85731">
        <ele>1438.2697754</ele>
        <time>2009-01-08T13:54:59+01:00</time>
      </trkpt>
      <trkpt lat="45.34402" lon="5.85731">
        <ele>1434.4243164</ele>
        <time>2009-01-08T13:55:05+01:00</time>
      </trkpt>
      <trkpt lat="45.34407" lon="5.85732">
        <ele>1436.8276367</ele>
        <time>2009-01-08T13:55:11+01:00</time>
      </trkpt>
      <trkpt lat="45.34412" lon="5.85733">
        <ele>1438.2697754</ele>
        <time>2009-01-08T13:55:17+01:00</time>
      </trkpt>
      <trkpt lat="45.34416" lon="5.85733">
        <ele>1440.1923828</ele>
        <time>2009-01-08T13:55:23+01:00</time>
      </trkpt>
      <trkpt lat="45.34423" lon="5.85731">
        <ele>1443.5568848</ele>
        <time>2009-01-08T13:55:30+01:00</time>
      </trkpt>
      <trkpt lat="45.34426" lon="5.8573">
        <ele>1444.0375977</ele>
        <time>2009-01-08T13:55:34+01:00</time>
      </trkpt>
      <trkpt lat="45.34428" lon="5.85729">
        <ele>1443.5568848</ele>
        <time>2009-01-08T13:55:36+01:00</time>
      </trkpt>
      <trkpt lat="45.34431" lon="5.85727">
        <ele>1443.5568848</ele>
        <time>2009-01-08T13:55:41+01:00</time>
      </trkpt>
      <trkpt lat="45.34438" lon="5.85725">
        <ele>1445.9602051</ele>
        <time>2009-01-08T13:55:47+01:00</time>
      </trkpt>
      <trkpt lat="45.3444" lon="5.85723">
        <ele>1444.9987793</ele>
        <time>2009-01-08T13:55:49+01:00</time>
      </trkpt>
      <trkpt lat="45.34446" lon="5.8572">
        <ele>1442.1149902</ele>
        <time>2009-01-08T13:55:56+01:00</time>
      </trkpt>
      <trkpt lat="45.34449" lon="5.85719">
        <ele>1442.5957031</ele>
        <time>2009-01-08T13:56:01+01:00</time>
      </trkpt>
      <trkpt lat="45.34454" lon="5.85716">
        <ele>1448.8439941</ele>
        <time>2009-01-08T13:56:08+01:00</time>
      </trkpt>
      <trkpt lat="45.3446" lon="5.85713">
        <ele>1451.7280273</ele>
        <time>2009-01-08T13:56:15+01:00</time>
      </trkpt>
      <trkpt lat="45.34467" lon="5.85714">
        <ele>1453.170166</ele>
        <time>2009-01-08T13:56:22+01:00</time>
      </trkpt>
      <trkpt lat="45.34474" lon="5.85715">
        <ele>1456.534668</ele>
        <time>2009-01-08T13:56:29+01:00</time>
      </trkpt>
      <trkpt lat="45.34476" lon="5.85714">
        <ele>1455.5734863</ele>
        <time>2009-01-08T13:56:31+01:00</time>
      </trkpt>
      <trkpt lat="45.34479" lon="5.85715">
        <ele>1460.3798828</ele>
        <time>2009-01-08T13:56:37+01:00</time>
      </trkpt>
      <trkpt lat="45.34482" lon="5.85713">
        <ele>1457.9768066</ele>
        <time>2009-01-08T13:56:41+01:00</time>
      </trkpt>
      <trkpt lat="45.34488" lon="5.85713">
        <ele>1456.534668</ele>
        <time>2009-01-08T13:56:45+01:00</time>
      </trkpt>
      <trkpt lat="45.34495" lon="5.85711">
        <ele>1457.9768066</ele>
        <time>2009-01-08T13:56:49+01:00</time>
      </trkpt>
      <trkpt lat="45.34498" lon="5.85708">
        <ele>1455.5734863</ele>
        <time>2009-01-08T13:56:52+01:00</time>
      </trkpt>
      <trkpt lat="45.34502" lon="5.85707">
        <ele>1453.6508789</ele>
        <time>2009-01-08T13:57:00+01:00</time>
      </trkpt>
      <trkpt lat="45.34503" lon="5.85708">
        <ele>1457.9768066</ele>
        <time>2009-01-08T13:57:05+01:00</time>
      </trkpt>
      <trkpt lat="45.34503" lon="5.85707">
        <ele>1460.3798828</ele>
        <time>2009-01-08T13:57:14+01:00</time>
      </trkpt>
      <trkpt lat="45.34505" lon="5.85705">
        <ele>1460.3798828</ele>
        <time>2009-01-08T13:57:20+01:00</time>
      </trkpt>
      <trkpt lat="45.34511" lon="5.85705">
        <ele>1461.8220215</ele>
        <time>2009-01-08T13:57:27+01:00</time>
      </trkpt>
      <trkpt lat="45.34512" lon="5.85699">
        <ele>1463.263916</ele>
        <time>2009-01-08T13:57:31+01:00</time>
      </trkpt>
      <trkpt lat="45.34522" lon="5.85697">
        <ele>1466.628418</ele>
        <time>2009-01-08T13:57:39+01:00</time>
      </trkpt>
      <trkpt lat="45.34523" lon="5.85698">
        <ele>1467.5895996</ele>
        <time>2009-01-08T13:57:40+01:00</time>
      </trkpt>
      <trkpt lat="45.34531" lon="5.85698">
        <ele>1468.0705566</ele>
        <time>2009-01-08T13:57:49+01:00</time>
      </trkpt>
      <trkpt lat="45.34537" lon="5.85698">
        <ele>1468.0705566</ele>
        <time>2009-01-08T13:57:55+01:00</time>
      </trkpt>
      <trkpt lat="45.34541" lon="5.85698">
        <ele>1468.5512695</ele>
        <time>2009-01-08T13:58:00+01:00</time>
      </trkpt>
      <trkpt lat="45.34546" lon="5.85696">
        <ele>1469.5126953</ele>
        <time>2009-01-08T13:58:07+01:00</time>
      </trkpt>
      <trkpt lat="45.34551" lon="5.85696">
        <ele>1469.0319824</ele>
        <time>2009-01-08T13:58:12+01:00</time>
      </trkpt>
      <trkpt lat="45.34556" lon="5.85695">
        <ele>1467.5895996</ele>
        <time>2009-01-08T13:58:18+01:00</time>
      </trkpt>
      <trkpt lat="45.34559" lon="5.85693">
        <ele>1469.5126953</ele>
        <time>2009-01-08T13:58:23+01:00</time>
      </trkpt>
      <trkpt lat="45.34564" lon="5.85693">
        <ele>1476.2416992</ele>
        <time>2009-01-08T13:58:30+01:00</time>
      </trkpt>
      <trkpt lat="45.34566" lon="5.85695">
        <ele>1481.0483398</ele>
        <time>2009-01-08T13:58:35+01:00</time>
      </trkpt>
      <trkpt lat="45.34568" lon="5.85693">
        <ele>1482.4902344</ele>
        <time>2009-01-08T13:58:40+01:00</time>
      </trkpt>
      <trkpt lat="45.34573" lon="5.8569">
        <ele>1481.0483398</ele>
        <time>2009-01-08T13:58:48+01:00</time>
      </trkpt>
      <trkpt lat="45.34577" lon="5.85693">
        <ele>1479.1254883</ele>
        <time>2009-01-08T13:58:58+01:00</time>
      </trkpt>
      <trkpt lat="45.34578" lon="5.85689">
        <ele>1481.5288086</ele>
        <time>2009-01-08T13:59:05+01:00</time>
      </trkpt>
      <trkpt lat="45.34572" lon="5.85686">
        <ele>1480.0869141</ele>
        <time>2009-01-08T13:59:14+01:00</time>
      </trkpt>
      <trkpt lat="45.34571" lon="5.85687">
        <ele>1480.567627</ele>
        <time>2009-01-08T13:59:15+01:00</time>
      </trkpt>
      <trkpt lat="45.34566" lon="5.85686">
        <ele>1478.6450195</ele>
        <time>2009-01-08T13:59:19+01:00</time>
      </trkpt>
      <trkpt lat="45.34559" lon="5.85683">
        <ele>1481.0483398</ele>
        <time>2009-01-08T13:59:27+01:00</time>
      </trkpt>
      <trkpt lat="45.34557" lon="5.85677">
        <ele>1478.6450195</ele>
        <time>2009-01-08T13:59:31+01:00</time>
      </trkpt>
      <trkpt lat="45.34555" lon="5.8567">
        <ele>1476.2416992</ele>
        <time>2009-01-08T13:59:37+01:00</time>
      </trkpt>
      <trkpt lat="45.34555" lon="5.85667">
        <ele>1475.2802734</ele>
        <time>2009-01-08T13:59:42+01:00</time>
      </trkpt>
      <trkpt lat="45.34559" lon="5.85664">
        <ele>1473.8383789</ele>
        <time>2009-01-08T13:59:46+01:00</time>
      </trkpt>
      <trkpt lat="45.34562" lon="5.85661">
        <ele>1473.3579102</ele>
        <time>2009-01-08T13:59:51+01:00</time>
      </trkpt>
      <trkpt lat="45.34564" lon="5.8566">
        <ele>1477.203125</ele>
        <time>2009-01-08T13:59:57+01:00</time>
      </trkpt>
      <trkpt lat="45.34566" lon="5.85655">
        <ele>1483.451416</ele>
        <time>2009-01-08T14:00:04+01:00</time>
      </trkpt>
      <trkpt lat="45.34569" lon="5.85658">
        <ele>1486.8161621</ele>
        <time>2009-01-08T14:00:10+01:00</time>
      </trkpt>
      <trkpt lat="45.34571" lon="5.85655">
        <ele>1487.296875</ele>
        <time>2009-01-08T14:00:15+01:00</time>
      </trkpt>
      <trkpt lat="45.34574" lon="5.85653">
        <ele>1488.2583008</ele>
        <time>2009-01-08T14:00:20+01:00</time>
      </trkpt>
      <trkpt lat="45.34576" lon="5.85649">
        <ele>1489.2194824</ele>
        <time>2009-01-08T14:00:24+01:00</time>
      </trkpt>
      <trkpt lat="45.34578" lon="5.85645">
        <ele>1490.1809082</ele>
        <time>2009-01-08T14:00:29+01:00</time>
      </trkpt>
      <trkpt lat="45.34581" lon="5.85642">
        <ele>1490.1809082</ele>
        <time>2009-01-08T14:00:33+01:00</time>
      </trkpt>
      <trkpt lat="45.34583" lon="5.85641">
        <ele>1490.661377</ele>
        <time>2009-01-08T14:00:38+01:00</time>
      </trkpt>
      <trkpt lat="45.34581" lon="5.85637">
        <ele>1495.4680176</ele>
        <time>2009-01-08T14:00:46+01:00</time>
      </trkpt>
      <trkpt lat="45.34584" lon="5.85636">
        <ele>1497.8713379</ele>
        <time>2009-01-08T14:00:53+01:00</time>
      </trkpt>
      <trkpt lat="45.34585" lon="5.85636">
        <ele>1498.8325195</ele>
        <time>2009-01-08T14:00:57+01:00</time>
      </trkpt>
      <trkpt lat="45.34587" lon="5.85634">
        <ele>1497.8713379</ele>
        <time>2009-01-08T14:01:03+01:00</time>
      </trkpt>
      <trkpt lat="45.34588" lon="5.85632">
        <ele>1499.7939453</ele>
        <time>2009-01-08T14:01:09+01:00</time>
      </trkpt>
      <trkpt lat="45.34588" lon="5.85629">
        <ele>1498.8325195</ele>
        <time>2009-01-08T14:01:13+01:00</time>
      </trkpt>
      <trkpt lat="45.34588" lon="5.85621">
        <ele>1496.9099121</ele>
        <time>2009-01-08T14:01:23+01:00</time>
      </trkpt>
      <trkpt lat="45.34588" lon="5.85618">
        <ele>1496.9099121</ele>
        <time>2009-01-08T14:01:28+01:00</time>
      </trkpt>
      <trkpt lat="45.34588" lon="5.85614">
        <ele>1498.8325195</ele>
        <time>2009-01-08T14:01:34+01:00</time>
      </trkpt>
      <trkpt lat="45.34591" lon="5.85614">
        <ele>1500.2749023</ele>
        <time>2009-01-08T14:01:38+01:00</time>
      </trkpt>
      <trkpt lat="45.34595" lon="5.85613">
        <ele>1501.7167969</ele>
        <time>2009-01-08T14:01:45+01:00</time>
      </trkpt>
      <trkpt lat="45.34599" lon="5.85612">
        <ele>1504.1201172</ele>
        <time>2009-01-08T14:01:50+01:00</time>
      </trkpt>
      <trkpt lat="45.34601" lon="5.85607">
        <ele>1501.236084</ele>
        <time>2009-01-08T14:01:57+01:00</time>
      </trkpt>
      <trkpt lat="45.346" lon="5.85608">
        <ele>1498.3518066</ele>
        <time>2009-01-08T14:02:03+01:00</time>
      </trkpt>
      <trkpt lat="45.34599" lon="5.85601">
        <ele>1497.8713379</ele>
        <time>2009-01-08T14:02:12+01:00</time>
      </trkpt>
      <trkpt lat="45.34598" lon="5.85602">
        <ele>1501.7167969</ele>
        <time>2009-01-08T14:02:18+01:00</time>
      </trkpt>
      <trkpt lat="45.34597" lon="5.85595">
        <ele>1505.5620117</ele>
        <time>2009-01-08T14:02:25+01:00</time>
      </trkpt>
      <trkpt lat="45.34595" lon="5.85593">
        <ele>1507.4846191</ele>
        <time>2009-01-08T14:02:30+01:00</time>
      </trkpt>
      <trkpt lat="45.34594" lon="5.8559">
        <ele>1509.8876953</ele>
        <time>2009-01-08T14:02:35+01:00</time>
      </trkpt>
      <trkpt lat="45.34593" lon="5.85587">
        <ele>1515.1750488</ele>
        <time>2009-01-08T14:02:41+01:00</time>
      </trkpt>
      <trkpt lat="45.34593" lon="5.85584">
        <ele>1516.1364746</ele>
        <time>2009-01-08T14:02:46+01:00</time>
      </trkpt>
      <trkpt lat="45.34594" lon="5.85581">
        <ele>1510.3684082</ele>
        <time>2009-01-08T14:02:52+01:00</time>
      </trkpt>
      <trkpt lat="45.34598" lon="5.85579">
        <ele>1513.7329102</ele>
        <time>2009-01-08T14:02:58+01:00</time>
      </trkpt>
      <trkpt lat="45.346" lon="5.85582">
        <ele>1518.059082</ele>
        <time>2009-01-08T14:03:04+01:00</time>
      </trkpt>
      <trkpt lat="45.34599" lon="5.85579">
        <ele>1522.8657227</ele>
        <time>2009-01-08T14:03:08+01:00</time>
      </trkpt>
      <trkpt lat="45.34597" lon="5.85575">
        <ele>1520.9431152</ele>
        <time>2009-01-08T14:03:13+01:00</time>
      </trkpt>
      <trkpt lat="45.34596" lon="5.8557">
        <ele>1518.5397949</ele>
        <time>2009-01-08T14:03:18+01:00</time>
      </trkpt>
      <trkpt lat="45.34596" lon="5.85568">
        <ele>1517.5783691</ele>
        <time>2009-01-08T14:03:24+01:00</time>
      </trkpt>
      <trkpt lat="45.34598" lon="5.85567">
        <ele>1517.5783691</ele>
        <time>2009-01-08T14:03:28+01:00</time>
      </trkpt>
      <trkpt lat="45.346" lon="5.85566">
        <ele>1520.4624023</ele>
        <time>2009-01-08T14:03:30+01:00</time>
      </trkpt>
      <trkpt lat="45.34604" lon="5.85566">
        <ele>1522.8657227</ele>
        <time>2009-01-08T14:03:35+01:00</time>
      </trkpt>
      <trkpt lat="45.34609" lon="5.85565">
        <ele>1520.9431152</ele>
        <time>2009-01-08T14:03:41+01:00</time>
      </trkpt>
      <trkpt lat="45.34612" lon="5.85564">
        <ele>1519.0205078</ele>
        <time>2009-01-08T14:03:47+01:00</time>
      </trkpt>
      <trkpt lat="45.34616" lon="5.85564">
        <ele>1520.4624023</ele>
        <time>2009-01-08T14:03:53+01:00</time>
      </trkpt>
      <trkpt lat="45.34614" lon="5.85562">
        <ele>1520.9431152</ele>
        <time>2009-01-08T14:03:59+01:00</time>
      </trkpt>
      <trkpt lat="45.34611" lon="5.85559">
        <ele>1520.4624023</ele>
        <time>2009-01-08T14:04:05+01:00</time>
      </trkpt>
      <trkpt lat="45.34609" lon="5.85557">
        <ele>1523.3464355</ele>
        <time>2009-01-08T14:04:11+01:00</time>
      </trkpt>
      <trkpt lat="45.34608" lon="5.85557">
        <ele>1527.6721191</ele>
        <time>2009-01-08T14:04:16+01:00</time>
      </trkpt>
      <trkpt lat="45.34606" lon="5.85554">
        <ele>1527.1916504</ele>
        <time>2009-01-08T14:04:21+01:00</time>
      </trkpt>
      <trkpt lat="45.34603" lon="5.85552">
        <ele>1529.5947266</ele>
        <time>2009-01-08T14:04:26+01:00</time>
      </trkpt>
      <trkpt lat="45.34605" lon="5.85544">
        <ele>1526.2302246</ele>
        <time>2009-01-08T14:04:38+01:00</time>
      </trkpt>
      <trkpt lat="45.346" lon="5.8554">
        <ele>1527.1916504</ele>
        <time>2009-01-08T14:04:45+01:00</time>
      </trkpt>
      <trkpt lat="45.34599" lon="5.85537">
        <ele>1523.8269043</ele>
        <time>2009-01-08T14:04:55+01:00</time>
      </trkpt>
      <trkpt lat="45.34597" lon="5.85539">
        <ele>1529.1140137</ele>
        <time>2009-01-08T14:05:01+01:00</time>
      </trkpt>
      <trkpt lat="45.34595" lon="5.85538">
        <ele>1536.3242188</ele>
        <time>2009-01-08T14:05:06+01:00</time>
      </trkpt>
      <trkpt lat="45.34591" lon="5.85538">
        <ele>1543.0532227</ele>
        <time>2009-01-08T14:05:11+01:00</time>
      </trkpt>
      <trkpt lat="45.34589" lon="5.85534">
        <ele>1543.5339355</ele>
        <time>2009-01-08T14:05:16+01:00</time>
      </trkpt>
      <trkpt lat="45.34589" lon="5.85532">
        <ele>1543.0532227</ele>
        <time>2009-01-08T14:05:22+01:00</time>
      </trkpt>
      <trkpt lat="45.34587" lon="5.85525">
        <ele>1538.7275391</ele>
        <time>2009-01-08T14:05:27+01:00</time>
      </trkpt>
      <trkpt lat="45.34586" lon="5.85522">
        <ele>1539.2080078</ele>
        <time>2009-01-08T14:05:32+01:00</time>
      </trkpt>
      <trkpt lat="45.34585" lon="5.85514">
        <ele>1536.8046875</ele>
        <time>2009-01-08T14:05:39+01:00</time>
      </trkpt>
      <trkpt lat="45.34582" lon="5.8551">
        <ele>1536.8046875</ele>
        <time>2009-01-08T14:05:45+01:00</time>
      </trkpt>
      <trkpt lat="45.3458" lon="5.85506">
        <ele>1536.3242188</ele>
        <time>2009-01-08T14:05:50+01:00</time>
      </trkpt>
      <trkpt lat="45.34579" lon="5.85503">
        <ele>1534.8823242</ele>
        <time>2009-01-08T14:05:54+01:00</time>
      </trkpt>
      <trkpt lat="45.34576" lon="5.85499">
        <ele>1533.9208984</ele>
        <time>2009-01-08T14:06:00+01:00</time>
      </trkpt>
      <trkpt lat="45.34573" lon="5.85496">
        <ele>1532.4790039</ele>
        <time>2009-01-08T14:06:06+01:00</time>
      </trkpt>
      <trkpt lat="45.34571" lon="5.85493">
        <ele>1530.5561523</ele>
        <time>2009-01-08T14:06:12+01:00</time>
      </trkpt>
      <trkpt lat="45.34568" lon="5.8549">
        <ele>1531.9980469</ele>
        <time>2009-01-08T14:06:16+01:00</time>
      </trkpt>
      <trkpt lat="45.34566" lon="5.85489">
        <ele>1533.9208984</ele>
        <time>2009-01-08T14:06:21+01:00</time>
      </trkpt>
      <trkpt lat="45.34567" lon="5.85489">
        <ele>1534.4016113</ele>
        <time>2009-01-08T14:06:22+01:00</time>
      </trkpt>
      <trkpt lat="45.34569" lon="5.85488">
        <ele>1545.456543</ele>
        <time>2009-01-08T14:06:32+01:00</time>
      </trkpt>
      <trkpt lat="45.34572" lon="5.85488">
        <ele>1546.8984375</ele>
        <time>2009-01-08T14:06:36+01:00</time>
      </trkpt>
      <trkpt lat="45.34575" lon="5.85492">
        <ele>1555.0698242</ele>
        <time>2009-01-08T14:06:42+01:00</time>
      </trkpt>
      <trkpt lat="45.34579" lon="5.8549">
        <ele>1553.1472168</ele>
        <time>2009-01-08T14:06:49+01:00</time>
      </trkpt>
      <trkpt lat="45.34585" lon="5.85486">
        <ele>1549.7827148</ele>
        <time>2009-01-08T14:06:55+01:00</time>
      </trkpt>
      <trkpt lat="45.34585" lon="5.85483">
        <ele>1549.7827148</ele>
        <time>2009-01-08T14:07:00+01:00</time>
      </trkpt>
      <trkpt lat="45.34589" lon="5.85481">
        <ele>1549.7827148</ele>
        <time>2009-01-08T14:07:05+01:00</time>
      </trkpt>
      <trkpt lat="45.34593" lon="5.85483">
        <ele>1555.5505371</ele>
        <time>2009-01-08T14:07:10+01:00</time>
      </trkpt>
      <trkpt lat="45.34595" lon="5.85483">
        <ele>1557.9538574</ele>
        <time>2009-01-08T14:07:16+01:00</time>
      </trkpt>
      <trkpt lat="45.34599" lon="5.85482">
        <ele>1556.5117188</ele>
        <time>2009-01-08T14:07:20+01:00</time>
      </trkpt>
      <trkpt lat="45.346" lon="5.85481">
        <ele>1556.0310059</ele>
        <time>2009-01-08T14:07:21+01:00</time>
      </trkpt>
      <trkpt lat="45.34604" lon="5.8548">
        <ele>1556.0310059</ele>
        <time>2009-01-08T14:07:27+01:00</time>
      </trkpt>
      <trkpt lat="45.34606" lon="5.85483">
        <ele>1558.9150391</ele>
        <time>2009-01-08T14:07:32+01:00</time>
      </trkpt>
      <trkpt lat="45.34607" lon="5.85483">
        <ele>1562.7602539</ele>
        <time>2009-01-08T14:07:38+01:00</time>
      </trkpt>
      <trkpt lat="45.34609" lon="5.85485">
        <ele>1565.6445312</ele>
        <time>2009-01-08T14:07:43+01:00</time>
      </trkpt>
      <trkpt lat="45.34608" lon="5.85485">
        <ele>1568.0476074</ele>
        <time>2009-01-08T14:07:50+01:00</time>
      </trkpt>
      <trkpt lat="45.34607" lon="5.85481">
        <ele>1566.6057129</ele>
        <time>2009-01-08T14:07:54+01:00</time>
      </trkpt>
      <trkpt lat="45.34606" lon="5.8548">
        <ele>1566.125</ele>
        <time>2009-01-08T14:07:55+01:00</time>
      </trkpt>
      <trkpt lat="45.34604" lon="5.85473">
        <ele>1561.7990723</ele>
        <time>2009-01-08T14:08:01+01:00</time>
      </trkpt>
      <trkpt lat="45.34604" lon="5.85467">
        <ele>1559.395752</ele>
        <time>2009-01-08T14:08:07+01:00</time>
      </trkpt>
      <trkpt lat="45.34602" lon="5.85464">
        <ele>1559.395752</ele>
        <time>2009-01-08T14:08:12+01:00</time>
      </trkpt>
      <trkpt lat="45.34604" lon="5.8546">
        <ele>1557.4731445</ele>
        <time>2009-01-08T14:08:17+01:00</time>
      </trkpt>
      <trkpt lat="45.34607" lon="5.85462">
        <ele>1560.3569336</ele>
        <time>2009-01-08T14:08:22+01:00</time>
      </trkpt>
      <trkpt lat="45.3461" lon="5.8546">
        <ele>1559.8762207</ele>
        <time>2009-01-08T14:08:26+01:00</time>
      </trkpt>
      <trkpt lat="45.34614" lon="5.85459">
        <ele>1561.7990723</ele>
        <time>2009-01-08T14:08:32+01:00</time>
      </trkpt>
      <trkpt lat="45.34617" lon="5.85458">
        <ele>1562.279541</ele>
        <time>2009-01-08T14:08:37+01:00</time>
      </trkpt>
      <trkpt lat="45.34619" lon="5.85457">
        <ele>1559.395752</ele>
        <time>2009-01-08T14:08:43+01:00</time>
      </trkpt>
      <trkpt lat="45.34622" lon="5.85459">
        <ele>1563.7214355</ele>
        <time>2009-01-08T14:08:48+01:00</time>
      </trkpt>
      <trkpt lat="45.34624" lon="5.85461">
        <ele>1566.6057129</ele>
        <time>2009-01-08T14:08:52+01:00</time>
      </trkpt>
      <trkpt lat="45.34625" lon="5.85458">
        <ele>1571.8928223</ele>
        <time>2009-01-08T14:08:58+01:00</time>
      </trkpt>
      <trkpt lat="45.34629" lon="5.85458">
        <ele>1576.6994629</ele>
        <time>2009-01-08T14:09:04+01:00</time>
      </trkpt>
      <trkpt lat="45.34632" lon="5.85459">
        <ele>1580.064209</ele>
        <time>2009-01-08T14:09:09+01:00</time>
      </trkpt>
      <trkpt lat="45.34633" lon="5.85458">
        <ele>1579.1025391</ele>
        <time>2009-01-08T14:09:11+01:00</time>
      </trkpt>
      <trkpt lat="45.34635" lon="5.85456">
        <ele>1578.6220703</ele>
        <time>2009-01-08T14:09:17+01:00</time>
      </trkpt>
      <trkpt lat="45.34636" lon="5.85453">
        <ele>1578.6220703</ele>
        <time>2009-01-08T14:09:22+01:00</time>
      </trkpt>
      <trkpt lat="45.3464" lon="5.85452">
        <ele>1580.064209</ele>
        <time>2009-01-08T14:09:27+01:00</time>
      </trkpt>
      <trkpt lat="45.34644" lon="5.8545">
        <ele>1581.0256348</ele>
        <time>2009-01-08T14:09:32+01:00</time>
      </trkpt>
      <trkpt lat="45.34646" lon="5.85447">
        <ele>1582.947998</ele>
        <time>2009-01-08T14:09:37+01:00</time>
      </trkpt>
      <trkpt lat="45.34649" lon="5.85447">
        <ele>1580.064209</ele>
        <time>2009-01-08T14:09:42+01:00</time>
      </trkpt>
      <trkpt lat="45.34652" lon="5.85446">
        <ele>1580.064209</ele>
        <time>2009-01-08T14:09:47+01:00</time>
      </trkpt>
      <trkpt lat="45.34658" lon="5.8545">
        <ele>1584.8708496</ele>
        <time>2009-01-08T14:09:54+01:00</time>
      </trkpt>
      <trkpt lat="45.34661" lon="5.8545">
        <ele>1582.947998</ele>
        <time>2009-01-08T14:09:58+01:00</time>
      </trkpt>
      <trkpt lat="45.34665" lon="5.85448">
        <ele>1581.5061035</ele>
        <time>2009-01-08T14:10:03+01:00</time>
      </trkpt>
      <trkpt lat="45.34668" lon="5.85448">
        <ele>1581.0256348</ele>
        <time>2009-01-08T14:10:09+01:00</time>
      </trkpt>
      <trkpt lat="45.34669" lon="5.85448">
        <ele>1581.9868164</ele>
        <time>2009-01-08T14:10:13+01:00</time>
      </trkpt>
      <trkpt lat="45.34675" lon="5.85445">
        <ele>1578.1413574</ele>
        <time>2009-01-08T14:10:18+01:00</time>
      </trkpt>
      <trkpt lat="45.34678" lon="5.85444">
        <ele>1578.1413574</ele>
        <time>2009-01-08T14:10:21+01:00</time>
      </trkpt>
      <trkpt lat="45.34682" lon="5.85443">
        <ele>1577.6606445</ele>
        <time>2009-01-08T14:10:26+01:00</time>
      </trkpt>
      <trkpt lat="45.34684" lon="5.85443">
        <ele>1578.6220703</ele>
        <time>2009-01-08T14:10:30+01:00</time>
      </trkpt>
      <trkpt lat="45.34685" lon="5.85443">
        <ele>1581.5061035</ele>
        <time>2009-01-08T14:10:34+01:00</time>
      </trkpt>
      <trkpt lat="45.34686" lon="5.85443">
        <ele>1584.3901367</ele>
        <time>2009-01-08T14:10:39+01:00</time>
      </trkpt>
      <trkpt lat="45.34693" lon="5.85443">
        <ele>1582.4675293</ele>
        <time>2009-01-08T14:10:46+01:00</time>
      </trkpt>
      <trkpt lat="45.34703" lon="5.85433">
        <ele>1575.2573242</ele>
        <time>2009-01-08T14:11:06+01:00</time>
      </trkpt>
      <trkpt lat="45.34706" lon="5.85434">
        <ele>1575.7380371</ele>
        <time>2009-01-08T14:11:12+01:00</time>
      </trkpt>
      <trkpt lat="45.34708" lon="5.8544">
        <ele>1578.1413574</ele>
        <time>2009-01-08T14:11:19+01:00</time>
      </trkpt>
      <trkpt lat="45.34712" lon="5.85442">
        <ele>1578.6220703</ele>
        <time>2009-01-08T14:11:24+01:00</time>
      </trkpt>
      <trkpt lat="45.34714" lon="5.85444">
        <ele>1579.1025391</ele>
        <time>2009-01-08T14:11:28+01:00</time>
      </trkpt>
      <trkpt lat="45.34716" lon="5.85444">
        <ele>1581.0256348</ele>
        <time>2009-01-08T14:11:33+01:00</time>
      </trkpt>
      <trkpt lat="45.34719" lon="5.85445">
        <ele>1581.5061035</ele>
        <time>2009-01-08T14:11:38+01:00</time>
      </trkpt>
      <trkpt lat="45.34722" lon="5.85447">
        <ele>1583.4287109</ele>
        <time>2009-01-08T14:11:44+01:00</time>
      </trkpt>
      <trkpt lat="45.34724" lon="5.85447">
        <ele>1584.8708496</ele>
        <time>2009-01-08T14:11:49+01:00</time>
      </trkpt>
      <trkpt lat="45.34727" lon="5.85447">
        <ele>1585.8320312</ele>
        <time>2009-01-08T14:11:54+01:00</time>
      </trkpt>
      <trkpt lat="45.34729" lon="5.85447">
        <ele>1586.7932129</ele>
        <time>2009-01-08T14:11:59+01:00</time>
      </trkpt>
      <trkpt lat="45.34726" lon="5.85448">
        <ele>1587.7546387</ele>
        <time>2009-01-08T14:12:04+01:00</time>
      </trkpt>
      <trkpt lat="45.34724" lon="5.85444">
        <ele>1587.7546387</ele>
        <time>2009-01-08T14:12:09+01:00</time>
      </trkpt>
      <trkpt lat="45.34724" lon="5.85441">
        <ele>1587.2739258</ele>
        <time>2009-01-08T14:12:13+01:00</time>
      </trkpt>
      <trkpt lat="45.34728" lon="5.85441">
        <ele>1588.2353516</ele>
        <time>2009-01-08T14:12:18+01:00</time>
      </trkpt>
      <trkpt lat="45.34732" lon="5.85443">
        <ele>1590.157959</ele>
        <time>2009-01-08T14:12:25+01:00</time>
      </trkpt>
      <trkpt lat="45.34735" lon="5.85441">
        <ele>1588.7160645</ele>
        <time>2009-01-08T14:12:31+01:00</time>
      </trkpt>
      <trkpt lat="45.34732" lon="5.85439">
        <ele>1594.4836426</ele>
        <time>2009-01-08T14:12:44+01:00</time>
      </trkpt>
      <trkpt lat="45.34732" lon="5.85438">
        <ele>1594.4836426</ele>
        <time>2009-01-08T14:12:48+01:00</time>
      </trkpt>
      <trkpt lat="45.34732" lon="5.85437">
        <ele>1594.0031738</ele>
        <time>2009-01-08T14:12:52+01:00</time>
      </trkpt>
      <trkpt lat="45.34732" lon="5.85436">
        <ele>1593.041748</ele>
        <time>2009-01-08T14:13:02+01:00</time>
      </trkpt>
      <trkpt lat="45.34731" lon="5.85436">
        <ele>1593.5224609</ele>
        <time>2009-01-08T14:13:12+01:00</time>
      </trkpt>
      <trkpt lat="45.3473" lon="5.85435">
        <ele>1594.4836426</ele>
        <time>2009-01-08T14:13:20+01:00</time>
      </trkpt>
      <trkpt lat="45.3473" lon="5.85434">
        <ele>1596.887207</ele>
        <time>2009-01-08T14:13:29+01:00</time>
      </trkpt>
      <trkpt lat="45.34731" lon="5.85435">
        <ele>1589.1965332</ele>
        <time>2009-01-08T14:13:53+01:00</time>
      </trkpt>
      <trkpt lat="45.34729" lon="5.85433">
        <ele>1594.0031738</ele>
        <time>2009-01-08T14:14:02+01:00</time>
      </trkpt>
      <trkpt lat="45.3473" lon="5.85433">
        <ele>1589.1965332</ele>
        <time>2009-01-08T14:14:13+01:00</time>
      </trkpt>
      <trkpt lat="45.34731" lon="5.85436">
        <ele>1590.6384277</ele>
        <time>2009-01-08T14:14:27+01:00</time>
      </trkpt>
      <trkpt lat="45.34729" lon="5.85437">
        <ele>1594.0031738</ele>
        <time>2009-01-08T14:14:37+01:00</time>
      </trkpt>
      <trkpt lat="45.34729" lon="5.85436">
        <ele>1603.1357422</ele>
        <time>2009-01-08T14:15:00+01:00</time>
      </trkpt>
      <trkpt lat="45.34729" lon="5.85435">
        <ele>1598.8098145</ele>
        <time>2009-01-08T14:15:06+01:00</time>
      </trkpt>
      <trkpt lat="45.34733" lon="5.85434">
        <ele>1588.7160645</ele>
        <time>2009-01-08T14:15:24+01:00</time>
      </trkpt>
      <trkpt lat="45.34732" lon="5.85432">
        <ele>1588.2353516</ele>
        <time>2009-01-08T14:15:31+01:00</time>
      </trkpt>
      <trkpt lat="45.34731" lon="5.8543">
        <ele>1591.1191406</ele>
        <time>2009-01-08T14:15:40+01:00</time>
      </trkpt>
      <trkpt lat="45.34733" lon="5.85428">
        <ele>1592.0805664</ele>
        <time>2009-01-08T14:15:45+01:00</time>
      </trkpt>
      <trkpt lat="45.34736" lon="5.85429">
        <ele>1594.0031738</ele>
        <time>2009-01-08T14:15:50+01:00</time>
      </trkpt>
      <trkpt lat="45.34736" lon="5.8543">
        <ele>1598.8098145</ele>
        <time>2009-01-08T14:15:57+01:00</time>
      </trkpt>
      <trkpt lat="45.34737" lon="5.85428">
        <ele>1605.0583496</ele>
        <time>2009-01-08T14:16:06+01:00</time>
      </trkpt>
      <trkpt lat="45.34735" lon="5.85426">
        <ele>1603.1357422</ele>
        <time>2009-01-08T14:16:16+01:00</time>
      </trkpt>
      <trkpt lat="45.34734" lon="5.85423">
        <ele>1603.1357422</ele>
        <time>2009-01-08T14:16:22+01:00</time>
      </trkpt>
      <trkpt lat="45.34732" lon="5.85422">
        <ele>1603.1357422</ele>
        <time>2009-01-08T14:16:27+01:00</time>
      </trkpt>
      <trkpt lat="45.34731" lon="5.85419">
        <ele>1601.2131348</ele>
        <time>2009-01-08T14:16:33+01:00</time>
      </trkpt>
      <trkpt lat="45.34733" lon="5.85419">
        <ele>1601.2131348</ele>
        <time>2009-01-08T14:16:38+01:00</time>
      </trkpt>
      <trkpt lat="45.34734" lon="5.85417">
        <ele>1601.2131348</ele>
        <time>2009-01-08T14:16:44+01:00</time>
      </trkpt>
      <trkpt lat="45.34736" lon="5.85415">
        <ele>1600.7324219</ele>
        <time>2009-01-08T14:16:48+01:00</time>
      </trkpt>
      <trkpt lat="45.34738" lon="5.85414">
        <ele>1601.6938477</ele>
        <time>2009-01-08T14:16:53+01:00</time>
      </trkpt>
      <trkpt lat="45.34741" lon="5.85412">
        <ele>1602.1743164</ele>
        <time>2009-01-08T14:16:57+01:00</time>
      </trkpt>
      <trkpt lat="45.34743" lon="5.85413">
        <ele>1604.097168</ele>
        <time>2009-01-08T14:17:01+01:00</time>
      </trkpt>
      <trkpt lat="45.34745" lon="5.85414">
        <ele>1605.0583496</ele>
        <time>2009-01-08T14:17:07+01:00</time>
      </trkpt>
      <trkpt lat="45.34746" lon="5.85414">
        <ele>1606.0195312</ele>
        <time>2009-01-08T14:17:14+01:00</time>
      </trkpt>
      <trkpt lat="45.34747" lon="5.85413">
        <ele>1605.5390625</ele>
        <time>2009-01-08T14:17:22+01:00</time>
      </trkpt>
      <trkpt lat="45.34747" lon="5.85412">
        <ele>1605.5390625</ele>
        <time>2009-01-08T14:17:32+01:00</time>
      </trkpt>
      <trkpt lat="45.34747" lon="5.85411">
        <ele>1607.4616699</ele>
        <time>2009-01-08T14:17:37+01:00</time>
      </trkpt>
      <trkpt lat="45.34745" lon="5.8541">
        <ele>1609.8647461</ele>
        <time>2009-01-08T14:17:43+01:00</time>
      </trkpt>
      <trkpt lat="45.34747" lon="5.8541">
        <ele>1612.2683105</ele>
        <time>2009-01-08T14:17:49+01:00</time>
      </trkpt>
      <trkpt lat="45.3475" lon="5.8541">
        <ele>1612.2683105</ele>
        <time>2009-01-08T14:17:55+01:00</time>
      </trkpt>
      <trkpt lat="45.34749" lon="5.85409">
        <ele>1610.8261719</ele>
        <time>2009-01-08T14:18:00+01:00</time>
      </trkpt>
      <trkpt lat="45.34746" lon="5.85406">
        <ele>1609.8647461</ele>
        <time>2009-01-08T14:18:05+01:00</time>
      </trkpt>
      <trkpt lat="45.34746" lon="5.85403">
        <ele>1609.8647461</ele>
        <time>2009-01-08T14:18:10+01:00</time>
      </trkpt>
      <trkpt lat="45.34748" lon="5.85405">
        <ele>1613.2297363</ele>
        <time>2009-01-08T14:18:16+01:00</time>
      </trkpt>
      <trkpt lat="45.34749" lon="5.85402">
        <ele>1611.3068848</ele>
        <time>2009-01-08T14:18:23+01:00</time>
      </trkpt>
      <trkpt lat="45.34751" lon="5.85404">
        <ele>1612.2683105</ele>
        <time>2009-01-08T14:18:32+01:00</time>
      </trkpt>
      <trkpt lat="45.34752" lon="5.85403">
        <ele>1615.6330566</ele>
        <time>2009-01-08T14:18:37+01:00</time>
      </trkpt>
      <trkpt lat="45.34754" lon="5.85402">
        <ele>1618.0361328</ele>
        <time>2009-01-08T14:18:51+01:00</time>
      </trkpt>
      <trkpt lat="45.34755" lon="5.85402">
        <ele>1618.5168457</ele>
        <time>2009-01-08T14:18:57+01:00</time>
      </trkpt>
      <trkpt lat="45.34756" lon="5.85402">
        <ele>1617.5554199</ele>
        <time>2009-01-08T14:19:02+01:00</time>
      </trkpt>
      <trkpt lat="45.34755" lon="5.854">
        <ele>1617.0749512</ele>
        <time>2009-01-08T14:19:08+01:00</time>
      </trkpt>
      <trkpt lat="45.34753" lon="5.85398">
        <ele>1616.5942383</ele>
        <time>2009-01-08T14:19:14+01:00</time>
      </trkpt>
      <trkpt lat="45.34753" lon="5.85395">
        <ele>1616.1135254</ele>
        <time>2009-01-08T14:19:18+01:00</time>
      </trkpt>
      <trkpt lat="45.34751" lon="5.85394">
        <ele>1616.5942383</ele>
        <time>2009-01-08T14:19:25+01:00</time>
      </trkpt>
      <trkpt lat="45.3475" lon="5.85393">
        <ele>1618.0361328</ele>
        <time>2009-01-08T14:19:29+01:00</time>
      </trkpt>
      <trkpt lat="45.34747" lon="5.85392">
        <ele>1620.920166</ele>
        <time>2009-01-08T14:19:34+01:00</time>
      </trkpt>
      <trkpt lat="45.34746" lon="5.85391">
        <ele>1622.3620605</ele>
        <time>2009-01-08T14:19:39+01:00</time>
      </trkpt>
      <trkpt lat="45.34744" lon="5.85389">
        <ele>1621.8813477</ele>
        <time>2009-01-08T14:19:43+01:00</time>
      </trkpt>
      <trkpt lat="45.34742" lon="5.85389">
        <ele>1623.3234863</ele>
        <time>2009-01-08T14:19:48+01:00</time>
      </trkpt>
      <trkpt lat="45.34742" lon="5.85387">
        <ele>1624.7653809</ele>
        <time>2009-01-08T14:19:54+01:00</time>
      </trkpt>
      <trkpt lat="45.34741" lon="5.85385">
        <ele>1624.7653809</ele>
        <time>2009-01-08T14:19:58+01:00</time>
      </trkpt>
      <trkpt lat="45.3474" lon="5.85384">
        <ele>1626.2072754</ele>
        <time>2009-01-08T14:20:02+01:00</time>
      </trkpt>
      <trkpt lat="45.34739" lon="5.85381">
        <ele>1625.2458496</ele>
        <time>2009-01-08T14:20:08+01:00</time>
      </trkpt>
      <trkpt lat="45.34737" lon="5.85377">
        <ele>1624.284668</ele>
        <time>2009-01-08T14:20:15+01:00</time>
      </trkpt>
      <trkpt lat="45.34735" lon="5.85375">
        <ele>1623.3234863</ele>
        <time>2009-01-08T14:20:20+01:00</time>
      </trkpt>
      <trkpt lat="45.34734" lon="5.85373">
        <ele>1622.8427734</ele>
        <time>2009-01-08T14:20:26+01:00</time>
      </trkpt>
      <trkpt lat="45.34732" lon="5.85371">
        <ele>1624.284668</ele>
        <time>2009-01-08T14:20:33+01:00</time>
      </trkpt>
      <trkpt lat="45.3473" lon="5.8537">
        <ele>1625.2458496</ele>
        <time>2009-01-08T14:20:38+01:00</time>
      </trkpt>
      <trkpt lat="45.3473" lon="5.85368">
        <ele>1626.2072754</ele>
        <time>2009-01-08T14:20:43+01:00</time>
      </trkpt>
      <trkpt lat="45.34728" lon="5.85369">
        <ele>1626.2072754</ele>
        <time>2009-01-08T14:20:50+01:00</time>
      </trkpt>
      <trkpt lat="45.34728" lon="5.85368">
        <ele>1625.7265625</ele>
        <time>2009-01-08T14:20:55+01:00</time>
      </trkpt>
      <trkpt lat="45.3473" lon="5.85368">
        <ele>1625.7265625</ele>
        <time>2009-01-08T14:21:00+01:00</time>
      </trkpt>
      <trkpt lat="45.34731" lon="5.85367">
        <ele>1626.6879883</ele>
        <time>2009-01-08T14:21:04+01:00</time>
      </trkpt>
      <trkpt lat="45.34733" lon="5.85366">
        <ele>1626.6879883</ele>
        <time>2009-01-08T14:21:09+01:00</time>
      </trkpt>
      <trkpt lat="45.34736" lon="5.85365">
        <ele>1626.6879883</ele>
        <time>2009-01-08T14:21:14+01:00</time>
      </trkpt>
      <trkpt lat="45.34738" lon="5.85364">
        <ele>1626.6879883</ele>
        <time>2009-01-08T14:21:19+01:00</time>
      </trkpt>
      <trkpt lat="45.3474" lon="5.85363">
        <ele>1627.6491699</ele>
        <time>2009-01-08T14:21:26+01:00</time>
      </trkpt>
      <trkpt lat="45.34742" lon="5.85363">
        <ele>1627.6491699</ele>
        <time>2009-01-08T14:21:30+01:00</time>
      </trkpt>
      <trkpt lat="45.34744" lon="5.85363">
        <ele>1629.0913086</ele>
        <time>2009-01-08T14:21:35+01:00</time>
      </trkpt>
      <trkpt lat="45.34746" lon="5.85362">
        <ele>1628.6108398</ele>
        <time>2009-01-08T14:21:40+01:00</time>
      </trkpt>
      <trkpt lat="45.34748" lon="5.85363">
        <ele>1629.0913086</ele>
        <time>2009-01-08T14:21:45+01:00</time>
      </trkpt>
      <trkpt lat="45.34749" lon="5.85362">
        <ele>1630.5334473</ele>
        <time>2009-01-08T14:21:52+01:00</time>
      </trkpt>
      <trkpt lat="45.34752" lon="5.85361">
        <ele>1633.4172363</ele>
        <time>2009-01-08T14:21:59+01:00</time>
      </trkpt>
      <trkpt lat="45.34753" lon="5.85361">
        <ele>1634.3786621</ele>
        <time>2009-01-08T14:22:06+01:00</time>
      </trkpt>
      <trkpt lat="45.34755" lon="5.85361">
        <ele>1635.8205566</ele>
        <time>2009-01-08T14:22:12+01:00</time>
      </trkpt>
      <trkpt lat="45.34757" lon="5.85362">
        <ele>1635.3398438</ele>
        <time>2009-01-08T14:22:16+01:00</time>
      </trkpt>
      <trkpt lat="45.3476" lon="5.85363">
        <ele>1635.8205566</ele>
        <time>2009-01-08T14:22:22+01:00</time>
      </trkpt>
      <trkpt lat="45.34761" lon="5.85363">
        <ele>1634.3786621</ele>
        <time>2009-01-08T14:22:28+01:00</time>
      </trkpt>
      <trkpt lat="45.34764" lon="5.85363">
        <ele>1634.3786621</ele>
        <time>2009-01-08T14:22:36+01:00</time>
      </trkpt>
      <trkpt lat="45.34766" lon="5.85362">
        <ele>1634.3786621</ele>
        <time>2009-01-08T14:22:42+01:00</time>
      </trkpt>
      <trkpt lat="45.34765" lon="5.85362">
        <ele>1636.3012695</ele>
        <time>2009-01-08T14:22:55+01:00</time>
      </trkpt>
      <trkpt lat="45.34762" lon="5.85362">
        <ele>1637.2624512</ele>
        <time>2009-01-08T14:22:59+01:00</time>
      </trkpt>
      <trkpt lat="45.34761" lon="5.85361">
        <ele>1638.7045898</ele>
        <time>2009-01-08T14:23:07+01:00</time>
      </trkpt>
      <trkpt lat="45.34761" lon="5.85362">
        <ele>1639.6657715</ele>
        <time>2009-01-08T14:23:14+01:00</time>
      </trkpt>
      <trkpt lat="45.34762" lon="5.85358">
        <ele>1638.7045898</ele>
        <time>2009-01-08T14:23:23+01:00</time>
      </trkpt>
      <trkpt lat="45.34763" lon="5.85359">
        <ele>1639.1850586</ele>
        <time>2009-01-08T14:23:27+01:00</time>
      </trkpt>
      <trkpt lat="45.34764" lon="5.85356">
        <ele>1638.223877</ele>
        <time>2009-01-08T14:23:33+01:00</time>
      </trkpt>
      <trkpt lat="45.34766" lon="5.85358">
        <ele>1641.5883789</ele>
        <time>2009-01-08T14:23:39+01:00</time>
      </trkpt>
      <trkpt lat="45.34769" lon="5.85357">
        <ele>1642.0690918</ele>
        <time>2009-01-08T14:23:45+01:00</time>
      </trkpt>
      <trkpt lat="45.34771" lon="5.85356">
        <ele>1643.0302734</ele>
        <time>2009-01-08T14:23:49+01:00</time>
      </trkpt>
      <trkpt lat="45.34773" lon="5.85355">
        <ele>1644.4724121</ele>
        <time>2009-01-08T14:23:55+01:00</time>
      </trkpt>
      <trkpt lat="45.34775" lon="5.85355">
        <ele>1645.4338379</ele>
        <time>2009-01-08T14:24:01+01:00</time>
      </trkpt>
      <trkpt lat="45.34777" lon="5.85354">
        <ele>1646.3952637</ele>
        <time>2009-01-08T14:24:06+01:00</time>
      </trkpt>
      <trkpt lat="45.34779" lon="5.85354">
        <ele>1645.9145508</ele>
        <time>2009-01-08T14:24:11+01:00</time>
      </trkpt>
      <trkpt lat="45.3478" lon="5.85354">
        <ele>1645.9145508</ele>
        <time>2009-01-08T14:24:16+01:00</time>
      </trkpt>
      <trkpt lat="45.34781" lon="5.85352">
        <ele>1644.953125</ele>
        <time>2009-01-08T14:24:24+01:00</time>
      </trkpt>
      <trkpt lat="45.34783" lon="5.85351">
        <ele>1643.5109863</ele>
        <time>2009-01-08T14:24:29+01:00</time>
      </trkpt>
      <trkpt lat="45.34782" lon="5.85352">
        <ele>1642.5498047</ele>
        <time>2009-01-08T14:24:41+01:00</time>
      </trkpt>
      <trkpt lat="45.34779" lon="5.85355">
        <ele>1647.3564453</ele>
        <time>2009-01-08T14:24:57+01:00</time>
      </trkpt>
      <trkpt lat="45.34778" lon="5.85353">
        <ele>1646.3952637</ele>
        <time>2009-01-08T14:25:02+01:00</time>
      </trkpt>
      <trkpt lat="45.34778" lon="5.85349">
        <ele>1646.3952637</ele>
        <time>2009-01-08T14:25:07+01:00</time>
      </trkpt>
      <trkpt lat="45.3478" lon="5.8535">
        <ele>1648.7983398</ele>
        <time>2009-01-08T14:25:16+01:00</time>
      </trkpt>
      <trkpt lat="45.34781" lon="5.85348">
        <ele>1648.317627</ele>
        <time>2009-01-08T14:25:21+01:00</time>
      </trkpt>
      <trkpt lat="45.34783" lon="5.85348">
        <ele>1649.7597656</ele>
        <time>2009-01-08T14:25:26+01:00</time>
      </trkpt>
      <trkpt lat="45.34784" lon="5.85348">
        <ele>1649.2790527</ele>
        <time>2009-01-08T14:25:34+01:00</time>
      </trkpt>
      <trkpt lat="45.34787" lon="5.85347">
        <ele>1649.2790527</ele>
        <time>2009-01-08T14:25:39+01:00</time>
      </trkpt>
      <trkpt lat="45.3479" lon="5.85348">
        <ele>1649.2790527</ele>
        <time>2009-01-08T14:25:44+01:00</time>
      </trkpt>
      <trkpt lat="45.34793" lon="5.85349">
        <ele>1649.2790527</ele>
        <time>2009-01-08T14:25:49+01:00</time>
      </trkpt>
      <trkpt lat="45.34795" lon="5.8535">
        <ele>1649.2790527</ele>
        <time>2009-01-08T14:25:54+01:00</time>
      </trkpt>
      <trkpt lat="45.34799" lon="5.85352">
        <ele>1649.7597656</ele>
        <time>2009-01-08T14:26:00+01:00</time>
      </trkpt>
      <trkpt lat="45.34803" lon="5.85354">
        <ele>1650.7209473</ele>
        <time>2009-01-08T14:26:07+01:00</time>
      </trkpt>
      <trkpt lat="45.34805" lon="5.85355">
        <ele>1651.2016602</ele>
        <time>2009-01-08T14:26:11+01:00</time>
      </trkpt>
      <trkpt lat="45.34809" lon="5.85355">
        <ele>1652.6435547</ele>
        <time>2009-01-08T14:26:18+01:00</time>
      </trkpt>
      <trkpt lat="45.34812" lon="5.85355">
        <ele>1654.0856934</ele>
        <time>2009-01-08T14:26:23+01:00</time>
      </trkpt>
      <trkpt lat="45.34815" lon="5.85355">
        <ele>1655.046875</ele>
        <time>2009-01-08T14:26:28+01:00</time>
      </trkpt>
      <trkpt lat="45.34818" lon="5.85355">
        <ele>1656.4887695</ele>
        <time>2009-01-08T14:26:34+01:00</time>
      </trkpt>
      <trkpt lat="45.34822" lon="5.85354">
        <ele>1657.4501953</ele>
        <time>2009-01-08T14:26:41+01:00</time>
      </trkpt>
      <trkpt lat="45.34825" lon="5.85354">
        <ele>1657.9309082</ele>
        <time>2009-01-08T14:26:47+01:00</time>
      </trkpt>
      <trkpt lat="45.34827" lon="5.85354">
        <ele>1658.411377</ele>
        <time>2009-01-08T14:26:55+01:00</time>
      </trkpt>
      <trkpt lat="45.34829" lon="5.85355">
        <ele>1659.3728027</ele>
        <time>2009-01-08T14:26:59+01:00</time>
      </trkpt>
      <trkpt lat="45.34832" lon="5.85355">
        <ele>1659.8532715</ele>
        <time>2009-01-08T14:27:03+01:00</time>
      </trkpt>
      <trkpt lat="45.34835" lon="5.85354">
        <ele>1660.3342285</ele>
        <time>2009-01-08T14:27:09+01:00</time>
      </trkpt>
      <trkpt lat="45.34838" lon="5.85354">
        <ele>1661.7763672</ele>
        <time>2009-01-08T14:27:14+01:00</time>
      </trkpt>
      <trkpt lat="45.34841" lon="5.85354">
        <ele>1662.7375488</ele>
        <time>2009-01-08T14:27:21+01:00</time>
      </trkpt>
      <trkpt lat="45.34845" lon="5.85353">
        <ele>1663.2182617</ele>
        <time>2009-01-08T14:27:28+01:00</time>
      </trkpt>
      <trkpt lat="45.34849" lon="5.85353">
        <ele>1664.1794434</ele>
        <time>2009-01-08T14:27:34+01:00</time>
      </trkpt>
      <trkpt lat="45.34853" lon="5.85352">
        <ele>1665.1408691</ele>
        <time>2009-01-08T14:27:41+01:00</time>
      </trkpt>
      <trkpt lat="45.34856" lon="5.85351">
        <ele>1666.1020508</ele>
        <time>2009-01-08T14:27:47+01:00</time>
      </trkpt>
      <trkpt lat="45.34861" lon="5.85351">
        <ele>1667.5439453</ele>
        <time>2009-01-08T14:27:55+01:00</time>
      </trkpt>
      <trkpt lat="45.34863" lon="5.8535">
        <ele>1668.0246582</ele>
        <time>2009-01-08T14:28:01+01:00</time>
      </trkpt>
      <trkpt lat="45.34862" lon="5.85351">
        <ele>1668.5053711</ele>
        <time>2009-01-08T14:28:10+01:00</time>
      </trkpt>
      <trkpt lat="45.34863" lon="5.8535">
        <ele>1667.5439453</ele>
        <time>2009-01-08T14:28:17+01:00</time>
      </trkpt>
      <trkpt lat="45.34864" lon="5.85351">
        <ele>1667.5439453</ele>
        <time>2009-01-08T14:28:23+01:00</time>
      </trkpt>
      <trkpt lat="45.34869" lon="5.8535">
        <ele>1668.0246582</ele>
        <time>2009-01-08T14:28:31+01:00</time>
      </trkpt>
      <trkpt lat="45.34873" lon="5.85348">
        <ele>1668.986084</ele>
        <time>2009-01-08T14:28:38+01:00</time>
      </trkpt>
      <trkpt lat="45.34878" lon="5.85347">
        <ele>1670.4279785</ele>
        <time>2009-01-08T14:28:47+01:00</time>
      </trkpt>
      <trkpt lat="45.34882" lon="5.85346">
        <ele>1671.3891602</ele>
        <time>2009-01-08T14:28:53+01:00</time>
      </trkpt>
      <trkpt lat="45.34884" lon="5.85346">
        <ele>1672.3505859</ele>
        <time>2009-01-08T14:28:58+01:00</time>
      </trkpt>
      <trkpt lat="45.34888" lon="5.85345">
        <ele>1673.7924805</ele>
        <time>2009-01-08T14:29:06+01:00</time>
      </trkpt>
      <trkpt lat="45.34892" lon="5.85344">
        <ele>1674.7539062</ele>
        <time>2009-01-08T14:29:13+01:00</time>
      </trkpt>
      <trkpt lat="45.34893" lon="5.85344">
        <ele>1674.7539062</ele>
        <time>2009-01-08T14:29:19+01:00</time>
      </trkpt>
      <trkpt lat="45.3489" lon="5.85342">
        <ele>1675.234375</ele>
        <time>2009-01-08T14:29:26+01:00</time>
      </trkpt>
      <trkpt lat="45.34887" lon="5.85339">
        <ele>1674.2731934</ele>
        <time>2009-01-08T14:29:31+01:00</time>
      </trkpt>
      <trkpt lat="45.34885" lon="5.85337">
        <ele>1675.234375</ele>
        <time>2009-01-08T14:29:35+01:00</time>
      </trkpt>
      <trkpt lat="45.34883" lon="5.85335">
        <ele>1675.234375</ele>
        <time>2009-01-08T14:29:40+01:00</time>
      </trkpt>
      <trkpt lat="45.34881" lon="5.85334">
        <ele>1674.2731934</ele>
        <time>2009-01-08T14:29:44+01:00</time>
      </trkpt>
      <trkpt lat="45.34881" lon="5.85333">
        <ele>1673.7924805</ele>
        <time>2009-01-08T14:29:51+01:00</time>
      </trkpt>
      <trkpt lat="45.34879" lon="5.85331">
        <ele>1674.7539062</ele>
        <time>2009-01-08T14:30:27+01:00</time>
      </trkpt>
      <trkpt lat="45.34877" lon="5.85328">
        <ele>1675.7150879</ele>
        <time>2009-01-08T14:30:32+01:00</time>
      </trkpt>
      <trkpt lat="45.34874" lon="5.85327">
        <ele>1676.6767578</ele>
        <time>2009-01-08T14:30:36+01:00</time>
      </trkpt>
      <trkpt lat="45.34872" lon="5.85325">
        <ele>1678.1186523</ele>
        <time>2009-01-08T14:30:40+01:00</time>
      </trkpt>
      <trkpt lat="45.3487" lon="5.85323">
        <ele>1679.079834</ele>
        <time>2009-01-08T14:30:45+01:00</time>
      </trkpt>
      <trkpt lat="45.34868" lon="5.85321">
        <ele>1679.5605469</ele>
        <time>2009-01-08T14:30:49+01:00</time>
      </trkpt>
      <trkpt lat="45.34865" lon="5.85319">
        <ele>1680.0412598</ele>
        <time>2009-01-08T14:30:54+01:00</time>
      </trkpt>
      <trkpt lat="45.34864" lon="5.85316">
        <ele>1680.0412598</ele>
        <time>2009-01-08T14:30:58+01:00</time>
      </trkpt>
      <trkpt lat="45.34868" lon="5.85315">
        <ele>1679.5605469</ele>
        <time>2009-01-08T14:31:07+01:00</time>
      </trkpt>
      <trkpt lat="45.34873" lon="5.85314">
        <ele>1681.4831543</ele>
        <time>2009-01-08T14:31:14+01:00</time>
      </trkpt>
      <trkpt lat="45.34878" lon="5.85313">
        <ele>1683.8864746</ele>
        <time>2009-01-08T14:31:21+01:00</time>
      </trkpt>
      <trkpt lat="45.34883" lon="5.85312">
        <ele>1685.809082</ele>
        <time>2009-01-08T14:31:28+01:00</time>
      </trkpt>
      <trkpt lat="45.34888" lon="5.8531">
        <ele>1687.7316895</ele>
        <time>2009-01-08T14:31:35+01:00</time>
      </trkpt>
      <trkpt lat="45.34891" lon="5.85309">
        <ele>1689.6542969</ele>
        <time>2009-01-08T14:31:41+01:00</time>
      </trkpt>
      <trkpt lat="45.34895" lon="5.85308">
        <ele>1689.6542969</ele>
        <time>2009-01-08T14:31:47+01:00</time>
      </trkpt>
      <trkpt lat="45.34898" lon="5.85308">
        <ele>1690.6154785</ele>
        <time>2009-01-08T14:31:53+01:00</time>
      </trkpt>
      <trkpt lat="45.34901" lon="5.85308">
        <ele>1691.0961914</ele>
        <time>2009-01-08T14:31:58+01:00</time>
      </trkpt>
      <trkpt lat="45.34904" lon="5.85306">
        <ele>1692.0578613</ele>
        <time>2009-01-08T14:32:04+01:00</time>
      </trkpt>
      <trkpt lat="45.34908" lon="5.85305">
        <ele>1693.4997559</ele>
        <time>2009-01-08T14:32:09+01:00</time>
      </trkpt>
      <trkpt lat="45.34911" lon="5.85305">
        <ele>1693.9804688</ele>
        <time>2009-01-08T14:32:14+01:00</time>
      </trkpt>
      <trkpt lat="45.34915" lon="5.85303">
        <ele>1694.9416504</ele>
        <time>2009-01-08T14:32:21+01:00</time>
      </trkpt>
      <trkpt lat="45.34919" lon="5.85302">
        <ele>1695.9030762</ele>
        <time>2009-01-08T14:32:27+01:00</time>
      </trkpt>
      <trkpt lat="45.34922" lon="5.85302">
        <ele>1696.8642578</ele>
        <time>2009-01-08T14:32:32+01:00</time>
      </trkpt>
      <trkpt lat="45.34925" lon="5.85301">
        <ele>1697.3449707</ele>
        <time>2009-01-08T14:32:37+01:00</time>
      </trkpt>
      <trkpt lat="45.34927" lon="5.85301">
        <ele>1697.8256836</ele>
        <time>2009-01-08T14:32:42+01:00</time>
      </trkpt>
      <trkpt lat="45.34929" lon="5.853">
        <ele>1698.3061523</ele>
        <time>2009-01-08T14:32:48+01:00</time>
      </trkpt>
      <trkpt lat="45.34932" lon="5.85299">
        <ele>1698.7868652</ele>
        <time>2009-01-08T14:32:53+01:00</time>
      </trkpt>
      <trkpt lat="45.34935" lon="5.85298">
        <ele>1699.748291</ele>
        <time>2009-01-08T14:32:59+01:00</time>
      </trkpt>
      <trkpt lat="45.34939" lon="5.85297">
        <ele>1700.2290039</ele>
        <time>2009-01-08T14:33:06+01:00</time>
      </trkpt>
      <trkpt lat="45.34943" lon="5.85296">
        <ele>1700.7094727</ele>
        <time>2009-01-08T14:33:12+01:00</time>
      </trkpt>
      <trkpt lat="45.34947" lon="5.85295">
        <ele>1701.1901855</ele>
        <time>2009-01-08T14:33:19+01:00</time>
      </trkpt>
      <trkpt lat="45.34946" lon="5.85297">
        <ele>1700.7094727</ele>
        <time>2009-01-08T14:33:42+01:00</time>
      </trkpt>
      <trkpt lat="45.34949" lon="5.85296">
        <ele>1702.1513672</ele>
        <time>2009-01-08T14:33:48+01:00</time>
      </trkpt>
      <trkpt lat="45.34953" lon="5.85295">
        <ele>1702.6320801</ele>
        <time>2009-01-08T14:33:53+01:00</time>
      </trkpt>
      <trkpt lat="45.34956" lon="5.85294">
        <ele>1704.0742188</ele>
        <time>2009-01-08T14:33:58+01:00</time>
      </trkpt>
      <trkpt lat="45.34961" lon="5.85293">
        <ele>1705.5161133</ele>
        <time>2009-01-08T14:34:04+01:00</time>
      </trkpt>
      <trkpt lat="45.34964" lon="5.85291">
        <ele>1706.4772949</ele>
        <time>2009-01-08T14:34:10+01:00</time>
      </trkpt>
      <trkpt lat="45.34969" lon="5.85291">
        <ele>1707.4387207</ele>
        <time>2009-01-08T14:34:16+01:00</time>
      </trkpt>
      <trkpt lat="45.34972" lon="5.85289">
        <ele>1707.9194336</ele>
        <time>2009-01-08T14:34:22+01:00</time>
      </trkpt>
      <trkpt lat="45.34975" lon="5.85288">
        <ele>1708.8808594</ele>
        <time>2009-01-08T14:34:27+01:00</time>
      </trkpt>
      <trkpt lat="45.34978" lon="5.85288">
        <ele>1709.3615723</ele>
        <time>2009-01-08T14:34:32+01:00</time>
      </trkpt>
      <trkpt lat="45.3498" lon="5.85287">
        <ele>1710.8034668</ele>
        <time>2009-01-08T14:34:38+01:00</time>
      </trkpt>
      <trkpt lat="45.34984" lon="5.85286">
        <ele>1711.7648926</ele>
        <time>2009-01-08T14:34:44+01:00</time>
      </trkpt>
      <trkpt lat="45.34988" lon="5.85285">
        <ele>1713.2067871</ele>
        <time>2009-01-08T14:34:51+01:00</time>
      </trkpt>
      <trkpt lat="45.34991" lon="5.85283">
        <ele>1714.1679688</ele>
        <time>2009-01-08T14:34:57+01:00</time>
      </trkpt>
      <trkpt lat="45.34997" lon="5.85281">
        <ele>1715.6101074</ele>
        <time>2009-01-08T14:35:06+01:00</time>
      </trkpt>
      <trkpt lat="45.34999" lon="5.8528">
        <ele>1716.5712891</ele>
        <time>2009-01-08T14:35:12+01:00</time>
      </trkpt>
      <trkpt lat="45.35002" lon="5.85279">
        <ele>1717.052002</ele>
        <time>2009-01-08T14:35:17+01:00</time>
      </trkpt>
      <trkpt lat="45.35005" lon="5.85277">
        <ele>1718.4938965</ele>
        <time>2009-01-08T14:35:22+01:00</time>
      </trkpt>
      <trkpt lat="45.35009" lon="5.85275">
        <ele>1718.4938965</ele>
        <time>2009-01-08T14:35:29+01:00</time>
      </trkpt>
      <trkpt lat="45.35013" lon="5.85274">
        <ele>1719.4553223</ele>
        <time>2009-01-08T14:35:35+01:00</time>
      </trkpt>
      <trkpt lat="45.35015" lon="5.85273">
        <ele>1719.935791</ele>
        <time>2009-01-08T14:35:40+01:00</time>
      </trkpt>
      <trkpt lat="45.35019" lon="5.85272">
        <ele>1721.3776855</ele>
        <time>2009-01-08T14:35:46+01:00</time>
      </trkpt>
      <trkpt lat="45.35024" lon="5.85271">
        <ele>1722.8198242</ele>
        <time>2009-01-08T14:35:54+01:00</time>
      </trkpt>
      <trkpt lat="45.35027" lon="5.85269">
        <ele>1724.2619629</ele>
        <time>2009-01-08T14:36:01+01:00</time>
      </trkpt>
      <trkpt lat="45.35028" lon="5.85268">
        <ele>1724.7426758</ele>
        <time>2009-01-08T14:36:07+01:00</time>
      </trkpt>
      <trkpt lat="45.3503" lon="5.85267">
        <ele>1725.7038574</ele>
        <time>2009-01-08T14:36:11+01:00</time>
      </trkpt>
      <trkpt lat="45.35033" lon="5.85265">
        <ele>1726.6652832</ele>
        <time>2009-01-08T14:36:17+01:00</time>
      </trkpt>
      <trkpt lat="45.35036" lon="5.85264">
        <ele>1727.6264648</ele>
        <time>2009-01-08T14:36:23+01:00</time>
      </trkpt>
      <trkpt lat="45.3504" lon="5.85262">
        <ele>1729.0683594</ele>
        <time>2009-01-08T14:36:30+01:00</time>
      </trkpt>
      <trkpt lat="45.35042" lon="5.85261">
        <ele>1729.5490723</ele>
        <time>2009-01-08T14:36:34+01:00</time>
      </trkpt>
      <trkpt lat="45.35044" lon="5.85259">
        <ele>1730.0297852</ele>
        <time>2009-01-08T14:36:39+01:00</time>
      </trkpt>
      <trkpt lat="45.35046" lon="5.85258">
        <ele>1730.510498</ele>
        <time>2009-01-08T14:36:43+01:00</time>
      </trkpt>
      <trkpt lat="45.35048" lon="5.85257">
        <ele>1731.9523926</ele>
        <time>2009-01-08T14:36:48+01:00</time>
      </trkpt>
      <trkpt lat="45.35052" lon="5.85254">
        <ele>1732.9135742</ele>
        <time>2009-01-08T14:36:56+01:00</time>
      </trkpt>
      <trkpt lat="45.35056" lon="5.85253">
        <ele>1733.3942871</ele>
        <time>2009-01-08T14:37:02+01:00</time>
      </trkpt>
      <trkpt lat="45.35058" lon="5.85252">
        <ele>1733.875</ele>
        <time>2009-01-08T14:37:06+01:00</time>
      </trkpt>
      <trkpt lat="45.35061" lon="5.8525">
        <ele>1734.8364258</ele>
        <time>2009-01-08T14:37:11+01:00</time>
      </trkpt>
      <trkpt lat="45.35063" lon="5.85249">
        <ele>1735.7976074</ele>
        <time>2009-01-08T14:37:15+01:00</time>
      </trkpt>
      <trkpt lat="45.35065" lon="5.85247">
        <ele>1736.7587891</ele>
        <time>2009-01-08T14:37:20+01:00</time>
      </trkpt>
      <trkpt lat="45.35067" lon="5.85247">
        <ele>1737.239502</ele>
        <time>2009-01-08T14:37:26+01:00</time>
      </trkpt>
      <trkpt lat="45.35068" lon="5.85245">
        <ele>1736.7587891</ele>
        <time>2009-01-08T14:37:35+01:00</time>
      </trkpt>
      <trkpt lat="45.35072" lon="5.85242">
        <ele>1738.2009277</ele>
        <time>2009-01-08T14:38:01+01:00</time>
      </trkpt>
      <trkpt lat="45.35074" lon="5.85241">
        <ele>1738.6816406</ele>
        <time>2009-01-08T14:38:06+01:00</time>
      </trkpt>
      <trkpt lat="45.35078" lon="5.85239">
        <ele>1740.1237793</ele>
        <time>2009-01-08T14:38:12+01:00</time>
      </trkpt>
      <trkpt lat="45.35082" lon="5.85237">
        <ele>1741.0849609</ele>
        <time>2009-01-08T14:38:18+01:00</time>
      </trkpt>
      <trkpt lat="45.35085" lon="5.85235">
        <ele>1742.0463867</ele>
        <time>2009-01-08T14:38:23+01:00</time>
      </trkpt>
      <trkpt lat="45.35087" lon="5.85233">
        <ele>1743.4882812</ele>
        <time>2009-01-08T14:38:29+01:00</time>
      </trkpt>
      <trkpt lat="45.3509" lon="5.85232">
        <ele>1743.9689941</ele>
        <time>2009-01-08T14:38:35+01:00</time>
      </trkpt>
      <trkpt lat="45.35089" lon="5.85232">
        <ele>1743.9689941</ele>
        <time>2009-01-08T14:38:39+01:00</time>
      </trkpt>
      <trkpt lat="45.35088" lon="5.85231">
        <ele>1743.9689941</ele>
        <time>2009-01-08T14:38:44+01:00</time>
      </trkpt>
      <trkpt lat="45.35085" lon="5.85229">
        <ele>1744.4494629</ele>
        <time>2009-01-08T14:38:49+01:00</time>
      </trkpt>
      <trkpt lat="45.35082" lon="5.85227">
        <ele>1745.8916016</ele>
        <time>2009-01-08T14:38:55+01:00</time>
      </trkpt>
      <trkpt lat="45.3508" lon="5.85226">
        <ele>1747.3334961</ele>
        <time>2009-01-08T14:38:59+01:00</time>
      </trkpt>
      <trkpt lat="45.35078" lon="5.85224">
        <ele>1747.814209</ele>
        <time>2009-01-08T14:39:04+01:00</time>
      </trkpt>
      <trkpt lat="45.35077" lon="5.85223">
        <ele>1748.7753906</ele>
        <time>2009-01-08T14:39:09+01:00</time>
      </trkpt>
      <trkpt lat="45.35075" lon="5.85221">
        <ele>1748.7753906</ele>
        <time>2009-01-08T14:39:13+01:00</time>
      </trkpt>
      <trkpt lat="45.35073" lon="5.8522">
        <ele>1748.7753906</ele>
        <time>2009-01-08T14:39:17+01:00</time>
      </trkpt>
      <trkpt lat="45.3507" lon="5.85219">
        <ele>1748.7753906</ele>
        <time>2009-01-08T14:39:21+01:00</time>
      </trkpt>
      <trkpt lat="45.35067" lon="5.85219">
        <ele>1748.7753906</ele>
        <time>2009-01-08T14:39:25+01:00</time>
      </trkpt>
      <trkpt lat="45.35065" lon="5.85218">
        <ele>1749.7368164</ele>
        <time>2009-01-08T14:39:30+01:00</time>
      </trkpt>
      <trkpt lat="45.35063" lon="5.85216">
        <ele>1750.2175293</ele>
        <time>2009-01-08T14:39:34+01:00</time>
      </trkpt>
      <trkpt lat="45.35061" lon="5.85214">
        <ele>1751.6594238</ele>
        <time>2009-01-08T14:39:40+01:00</time>
      </trkpt>
      <trkpt lat="45.35058" lon="5.85213">
        <ele>1752.6206055</ele>
        <time>2009-01-08T14:39:44+01:00</time>
      </trkpt>
      <trkpt lat="45.35056" lon="5.85213">
        <ele>1753.1013184</ele>
        <time>2009-01-08T14:39:48+01:00</time>
      </trkpt>
      <trkpt lat="45.35054" lon="5.85213">
        <ele>1753.5820312</ele>
        <time>2009-01-08T14:39:54+01:00</time>
      </trkpt>
      <trkpt lat="45.35053" lon="5.85213">
        <ele>1753.5820312</ele>
        <time>2009-01-08T14:39:58+01:00</time>
      </trkpt>
      <trkpt lat="45.35052" lon="5.85213">
        <ele>1754.0627441</ele>
        <time>2009-01-08T14:40:05+01:00</time>
      </trkpt>
      <trkpt lat="45.3505" lon="5.85212">
        <ele>1754.0627441</ele>
        <time>2009-01-08T14:40:11+01:00</time>
      </trkpt>
      <trkpt lat="45.35048" lon="5.8521">
        <ele>1753.5820312</ele>
        <time>2009-01-08T14:40:16+01:00</time>
      </trkpt>
      <trkpt lat="45.35045" lon="5.85209">
        <ele>1753.5820312</ele>
        <time>2009-01-08T14:40:20+01:00</time>
      </trkpt>
      <trkpt lat="45.35044" lon="5.85208">
        <ele>1753.5820312</ele>
        <time>2009-01-08T14:40:24+01:00</time>
      </trkpt>
      <trkpt lat="45.35044" lon="5.85206">
        <ele>1754.5432129</ele>
        <time>2009-01-08T14:40:29+01:00</time>
      </trkpt>
      <trkpt lat="45.35047" lon="5.85205">
        <ele>1755.5046387</ele>
        <time>2009-01-08T14:40:35+01:00</time>
      </trkpt>
      <trkpt lat="45.3505" lon="5.85203">
        <ele>1756.4660645</ele>
        <time>2009-01-08T14:40:40+01:00</time>
      </trkpt>
      <trkpt lat="45.35052" lon="5.85201">
        <ele>1757.9082031</ele>
        <time>2009-01-08T14:40:45+01:00</time>
      </trkpt>
      <trkpt lat="45.35055" lon="5.85199">
        <ele>1758.8693848</ele>
        <time>2009-01-08T14:40:51+01:00</time>
      </trkpt>
      <trkpt lat="45.35057" lon="5.85197">
        <ele>1760.3112793</ele>
        <time>2009-01-08T14:40:57+01:00</time>
      </trkpt>
      <trkpt lat="45.3506" lon="5.85194">
        <ele>1760.7919922</ele>
        <time>2009-01-08T14:41:03+01:00</time>
      </trkpt>
      <trkpt lat="45.35062" lon="5.85192">
        <ele>1762.2338867</ele>
        <time>2009-01-08T14:41:08+01:00</time>
      </trkpt>
      <trkpt lat="45.35064" lon="5.85191">
        <ele>1763.1953125</ele>
        <time>2009-01-08T14:41:15+01:00</time>
      </trkpt>
      <trkpt lat="45.35061" lon="5.8519">
        <ele>1762.7145996</ele>
        <time>2009-01-08T14:41:26+01:00</time>
      </trkpt>
      <trkpt lat="45.35058" lon="5.85189">
        <ele>1762.2338867</ele>
        <time>2009-01-08T14:41:32+01:00</time>
      </trkpt>
      <trkpt lat="45.35056" lon="5.85187">
        <ele>1762.7145996</ele>
        <time>2009-01-08T14:41:36+01:00</time>
      </trkpt>
      <trkpt lat="45.35053" lon="5.85185">
        <ele>1763.6757812</ele>
        <time>2009-01-08T14:41:42+01:00</time>
      </trkpt>
      <trkpt lat="45.35053" lon="5.85183">
        <ele>1764.1564941</ele>
        <time>2009-01-08T14:41:46+01:00</time>
      </trkpt>
      <trkpt lat="45.35054" lon="5.85182">
        <ele>1765.5986328</ele>
        <time>2009-01-08T14:41:54+01:00</time>
      </trkpt>
      <trkpt lat="45.35055" lon="5.8518">
        <ele>1766.5598145</ele>
        <time>2009-01-08T14:41:59+01:00</time>
      </trkpt>
      <trkpt lat="45.35058" lon="5.85177">
        <ele>1767.5209961</ele>
        <time>2009-01-08T14:42:05+01:00</time>
      </trkpt>
      <trkpt lat="45.3506" lon="5.85175">
        <ele>1768.4824219</ele>
        <time>2009-01-08T14:42:10+01:00</time>
      </trkpt>
      <trkpt lat="45.35061" lon="5.85172">
        <ele>1767.5209961</ele>
        <time>2009-01-08T14:42:22+01:00</time>
      </trkpt>
      <trkpt lat="45.35063" lon="5.8517">
        <ele>1767.5209961</ele>
        <time>2009-01-08T14:42:26+01:00</time>
      </trkpt>
      <trkpt lat="45.35064" lon="5.85167">
        <ele>1768.001709</ele>
        <time>2009-01-08T14:42:31+01:00</time>
      </trkpt>
      <trkpt lat="45.35067" lon="5.85164">
        <ele>1768.001709</ele>
        <time>2009-01-08T14:42:36+01:00</time>
      </trkpt>
      <trkpt lat="45.35067" lon="5.85162">
        <ele>1769.9243164</ele>
        <time>2009-01-08T14:42:40+01:00</time>
      </trkpt>
      <trkpt lat="45.35066" lon="5.85161">
        <ele>1769.4438477</ele>
        <time>2009-01-08T14:42:44+01:00</time>
      </trkpt>
      <trkpt lat="45.35063" lon="5.85161">
        <ele>1770.4050293</ele>
        <time>2009-01-08T14:42:51+01:00</time>
      </trkpt>
      <trkpt lat="45.3506" lon="5.85161">
        <ele>1772.3278809</ele>
        <time>2009-01-08T14:42:56+01:00</time>
      </trkpt>
      <trkpt lat="45.35057" lon="5.85162">
        <ele>1774.2504883</ele>
        <time>2009-01-08T14:43:02+01:00</time>
      </trkpt>
      <trkpt lat="45.35055" lon="5.85163">
        <ele>1774.7312012</ele>
        <time>2009-01-08T14:43:06+01:00</time>
      </trkpt>
      <trkpt lat="45.35053" lon="5.85162">
        <ele>1775.6923828</ele>
        <time>2009-01-08T14:43:10+01:00</time>
      </trkpt>
      <trkpt lat="45.35051" lon="5.85161">
        <ele>1776.1730957</ele>
        <time>2009-01-08T14:43:14+01:00</time>
      </trkpt>
      <trkpt lat="45.35049" lon="5.85159">
        <ele>1776.1730957</ele>
        <time>2009-01-08T14:43:19+01:00</time>
      </trkpt>
      <trkpt lat="45.35048" lon="5.85158">
        <ele>1777.1345215</ele>
        <time>2009-01-08T14:43:23+01:00</time>
      </trkpt>
      <trkpt lat="45.35048" lon="5.85157">
        <ele>1776.6538086</ele>
        <time>2009-01-08T14:43:30+01:00</time>
      </trkpt>
      <trkpt lat="45.35047" lon="5.85157">
        <ele>1777.1345215</ele>
        <time>2009-01-08T14:43:38+01:00</time>
      </trkpt>
      <trkpt lat="45.35045" lon="5.85155">
        <ele>1776.6538086</ele>
        <time>2009-01-08T14:44:03+01:00</time>
      </trkpt>
      <trkpt lat="45.35046" lon="5.85155">
        <ele>1778.576416</ele>
        <time>2009-01-08T14:44:34+01:00</time>
      </trkpt>
      <trkpt lat="45.35045" lon="5.85154">
        <ele>1779.5375977</ele>
        <time>2009-01-08T14:44:55+01:00</time>
      </trkpt>
      <trkpt lat="45.35044" lon="5.85152">
        <ele>1780.0183105</ele>
        <time>2009-01-08T14:45:03+01:00</time>
      </trkpt>
      <trkpt lat="45.35042" lon="5.85151">
        <ele>1780.0183105</ele>
        <time>2009-01-08T14:45:07+01:00</time>
      </trkpt>
      <trkpt lat="45.3504" lon="5.85149">
        <ele>1780.4990234</ele>
        <time>2009-01-08T14:45:11+01:00</time>
      </trkpt>
      <trkpt lat="45.35039" lon="5.85148">
        <ele>1781.4602051</ele>
        <time>2009-01-08T14:45:15+01:00</time>
      </trkpt>
      <trkpt lat="45.35038" lon="5.85145">
        <ele>1782.4216309</ele>
        <time>2009-01-08T14:45:19+01:00</time>
      </trkpt>
      <trkpt lat="45.35036" lon="5.85138">
        <ele>1783.8635254</ele>
        <time>2009-01-08T14:45:26+01:00</time>
      </trkpt>
      <trkpt lat="45.35035" lon="5.85137">
        <ele>1785.3054199</ele>
        <time>2009-01-08T14:45:35+01:00</time>
      </trkpt>
      <trkpt lat="45.35032" lon="5.85132">
        <ele>1785.7861328</ele>
        <time>2009-01-08T14:45:40+01:00</time>
      </trkpt>
      <trkpt lat="45.35029" lon="5.85128">
        <ele>1785.7861328</ele>
        <time>2009-01-08T14:45:45+01:00</time>
      </trkpt>
      <trkpt lat="45.35025" lon="5.85122">
        <ele>1786.2668457</ele>
        <time>2009-01-08T14:45:52+01:00</time>
      </trkpt>
      <trkpt lat="45.35021" lon="5.8512">
        <ele>1786.7473145</ele>
        <time>2009-01-08T14:45:57+01:00</time>
      </trkpt>
      <trkpt lat="45.35016" lon="5.85117">
        <ele>1787.2280273</ele>
        <time>2009-01-08T14:46:03+01:00</time>
      </trkpt>
      <trkpt lat="45.35015" lon="5.85117">
        <ele>1787.2280273</ele>
        <time>2009-01-08T14:46:08+01:00</time>
      </trkpt>
      <trkpt lat="45.35011" lon="5.85115">
        <ele>1787.7087402</ele>
        <time>2009-01-08T14:46:13+01:00</time>
      </trkpt>
      <trkpt lat="45.35011" lon="5.85116">
        <ele>1787.7087402</ele>
        <time>2009-01-08T14:46:21+01:00</time>
      </trkpt>
      <trkpt lat="45.35011" lon="5.85115">
        <ele>1787.2280273</ele>
        <time>2009-01-08T14:46:32+01:00</time>
      </trkpt>
      <trkpt lat="45.35012" lon="5.85115">
        <ele>1786.7473145</ele>
        <time>2009-01-08T14:46:43+01:00</time>
      </trkpt>
      <trkpt lat="45.35012" lon="5.85116">
        <ele>1785.7861328</ele>
        <time>2009-01-08T14:47:04+01:00</time>
      </trkpt>
      <trkpt lat="45.35013" lon="5.85116">
        <ele>1784.8249512</ele>
        <time>2009-01-08T14:47:12+01:00</time>
      </trkpt>
      <trkpt lat="45.35012" lon="5.85116">
        <ele>1784.8249512</ele>
        <time>2009-01-08T14:47:17+01:00</time>
      </trkpt>
      <trkpt lat="45.35009" lon="5.85114">
        <ele>1784.8249512</ele>
        <time>2009-01-08T14:47:23+01:00</time>
      </trkpt>
      <trkpt lat="45.3501" lon="5.85114">
        <ele>1783.8635254</ele>
        <time>2009-01-08T14:47:44+01:00</time>
      </trkpt>
      <trkpt lat="45.35005" lon="5.85113">
        <ele>1784.8249512</ele>
        <time>2009-01-08T14:48:17+01:00</time>
      </trkpt>
      <trkpt lat="45.34996" lon="5.8511">
        <ele>1786.7473145</ele>
        <time>2009-01-08T14:48:25+01:00</time>
      </trkpt>
      <trkpt lat="45.34986" lon="5.85106">
        <ele>1788.1896973</ele>
        <time>2009-01-08T14:48:32+01:00</time>
      </trkpt>
      <trkpt lat="45.34981" lon="5.85103">
        <ele>1789.1508789</ele>
        <time>2009-01-08T14:48:36+01:00</time>
      </trkpt>
      <trkpt lat="45.34978" lon="5.85102">
        <ele>1789.1508789</ele>
        <time>2009-01-08T14:48:38+01:00</time>
      </trkpt>
      <trkpt lat="45.3497" lon="5.85104">
        <ele>1790.1123047</ele>
        <time>2009-01-08T14:48:45+01:00</time>
      </trkpt>
      <trkpt lat="45.34962" lon="5.85105">
        <ele>1791.0734863</ele>
        <time>2009-01-08T14:48:53+01:00</time>
      </trkpt>
      <trkpt lat="45.34954" lon="5.85103">
        <ele>1792.0349121</ele>
        <time>2009-01-08T14:49:00+01:00</time>
      </trkpt>
      <trkpt lat="45.34948" lon="5.85099">
        <ele>1792.515625</ele>
        <time>2009-01-08T14:49:06+01:00</time>
      </trkpt>
      <trkpt lat="45.34942" lon="5.85095">
        <ele>1792.9960938</ele>
        <time>2009-01-08T14:49:12+01:00</time>
      </trkpt>
      <trkpt lat="45.34935" lon="5.8509">
        <ele>1792.9960938</ele>
        <time>2009-01-08T14:49:19+01:00</time>
      </trkpt>
      <trkpt lat="45.34928" lon="5.85084">
        <ele>1792.9960938</ele>
        <time>2009-01-08T14:49:26+01:00</time>
      </trkpt>
      <trkpt lat="45.34923" lon="5.85078">
        <ele>1793.4768066</ele>
        <time>2009-01-08T14:49:32+01:00</time>
      </trkpt>
      <trkpt lat="45.34917" lon="5.85073">
        <ele>1792.0349121</ele>
        <time>2009-01-08T14:49:38+01:00</time>
      </trkpt>
      <trkpt lat="45.34912" lon="5.85074">
        <ele>1792.0349121</ele>
        <time>2009-01-08T14:49:43+01:00</time>
      </trkpt>
      <trkpt lat="45.34906" lon="5.85075">
        <ele>1792.515625</ele>
        <time>2009-01-08T14:49:51+01:00</time>
      </trkpt>
      <trkpt lat="45.349" lon="5.85077">
        <ele>1793.9575195</ele>
        <time>2009-01-08T14:49:59+01:00</time>
      </trkpt>
      <trkpt lat="45.34894" lon="5.85079">
        <ele>1794.9187012</ele>
        <time>2009-01-08T14:50:07+01:00</time>
      </trkpt>
      <trkpt lat="45.34892" lon="5.8508">
        <ele>1795.3994141</ele>
        <time>2009-01-08T14:50:12+01:00</time>
      </trkpt>
      <trkpt lat="45.34892" lon="5.85079">
        <ele>1794.9187012</ele>
        <time>2009-01-08T14:50:22+01:00</time>
      </trkpt>
      <trkpt lat="45.34891" lon="5.85079">
        <ele>1795.3994141</ele>
        <time>2009-01-08T14:50:35+01:00</time>
      </trkpt>
      <trkpt lat="45.34892" lon="5.85078">
        <ele>1795.3994141</ele>
        <time>2009-01-08T14:50:40+01:00</time>
      </trkpt>
      <trkpt lat="45.34891" lon="5.85079">
        <ele>1794.4379883</ele>
        <time>2009-01-08T14:50:44+01:00</time>
      </trkpt>
      <trkpt lat="45.34892" lon="5.85079">
        <ele>1793.9575195</ele>
        <time>2009-01-08T14:50:50+01:00</time>
      </trkpt>
      <trkpt lat="45.34891" lon="5.85079">
        <ele>1793.9575195</ele>
        <time>2009-01-08T14:50:57+01:00</time>
      </trkpt>
      <trkpt lat="45.34892" lon="5.85079">
        <ele>1792.9960938</ele>
        <time>2009-01-08T14:51:12+01:00</time>
      </trkpt>
      <trkpt lat="45.34892" lon="5.85078">
        <ele>1792.515625</ele>
        <time>2009-01-08T14:51:39+01:00</time>
      </trkpt>
      <trkpt lat="45.34891" lon="5.85078">
        <ele>1792.0349121</ele>
        <time>2009-01-08T14:51:44+01:00</time>
      </trkpt>
      <trkpt lat="45.34891" lon="5.85079">
        <ele>1792.9960938</ele>
        <time>2009-01-08T14:52:11+01:00</time>
      </trkpt>
      <trkpt lat="45.34891" lon="5.85076">
        <ele>1792.515625</ele>
        <time>2009-01-08T14:52:26+01:00</time>
      </trkpt>
      <trkpt lat="45.34895" lon="5.85075">
        <ele>1792.515625</ele>
        <time>2009-01-08T14:52:32+01:00</time>
      </trkpt>
      <trkpt lat="45.34894" lon="5.85076">
        <ele>1792.515625</ele>
        <time>2009-01-08T14:52:37+01:00</time>
      </trkpt>
      <trkpt lat="45.34891" lon="5.85077">
        <ele>1792.9960938</ele>
        <time>2009-01-08T14:52:45+01:00</time>
      </trkpt>
      <trkpt lat="45.34891" lon="5.85078">
        <ele>1795.3994141</ele>
        <time>2009-01-08T14:52:57+01:00</time>
      </trkpt>
      <trkpt lat="45.34891" lon="5.85079">
        <ele>1794.4379883</ele>
        <time>2009-01-08T14:53:09+01:00</time>
      </trkpt>
      <trkpt lat="45.34891" lon="5.8508">
        <ele>1794.9187012</ele>
        <time>2009-01-08T14:53:43+01:00</time>
      </trkpt>
      <trkpt lat="45.3489" lon="5.8508">
        <ele>1794.9187012</ele>
        <time>2009-01-08T14:53:54+01:00</time>
      </trkpt>
      <trkpt lat="45.34889" lon="5.85081">
        <ele>1795.3994141</ele>
        <time>2009-01-08T14:54:02+01:00</time>
      </trkpt>
      <trkpt lat="45.34887" lon="5.85081">
        <ele>1794.9187012</ele>
        <time>2009-01-08T14:54:05+01:00</time>
      </trkpt>
      <trkpt lat="45.34877" lon="5.85082">
        <ele>1793.4768066</ele>
        <time>2009-01-08T14:54:10+01:00</time>
      </trkpt>
      <trkpt lat="45.34866" lon="5.85084">
        <ele>1791.0734863</ele>
        <time>2009-01-08T14:54:14+01:00</time>
      </trkpt>
      <trkpt lat="45.34861" lon="5.85077">
        <ele>1790.1123047</ele>
        <time>2009-01-08T14:54:18+01:00</time>
      </trkpt>
      <trkpt lat="45.3486" lon="5.85072">
        <ele>1789.6315918</ele>
        <time>2009-01-08T14:54:24+01:00</time>
      </trkpt>
      <trkpt lat="45.3486" lon="5.8507">
        <ele>1789.6315918</ele>
        <time>2009-01-08T14:54:28+01:00</time>
      </trkpt>
      <trkpt lat="45.34859" lon="5.85069">
        <ele>1790.1123047</ele>
        <time>2009-01-08T14:54:33+01:00</time>
      </trkpt>
      <trkpt lat="45.34858" lon="5.85071">
        <ele>1790.5927734</ele>
        <time>2009-01-08T14:54:38+01:00</time>
      </trkpt>
      <trkpt lat="45.34859" lon="5.85072">
        <ele>1791.0734863</ele>
        <time>2009-01-08T14:54:43+01:00</time>
      </trkpt>
      <trkpt lat="45.3486" lon="5.85073">
        <ele>1790.5927734</ele>
        <time>2009-01-08T14:54:44+01:00</time>
      </trkpt>
      <trkpt lat="45.34858" lon="5.85083">
        <ele>1789.6315918</ele>
        <time>2009-01-08T14:54:49+01:00</time>
      </trkpt>
      <trkpt lat="45.34857" lon="5.85083">
        <ele>1789.6315918</ele>
        <time>2009-01-08T14:54:50+01:00</time>
      </trkpt>
      <trkpt lat="45.34845" lon="5.85086">
        <ele>1788.6704102</ele>
        <time>2009-01-08T14:54:56+01:00</time>
      </trkpt>
      <trkpt lat="45.34834" lon="5.85084">
        <ele>1787.2280273</ele>
        <time>2009-01-08T14:55:02+01:00</time>
      </trkpt>
      <trkpt lat="45.34826" lon="5.85082">
        <ele>1786.7473145</ele>
        <time>2009-01-08T14:55:07+01:00</time>
      </trkpt>
      <trkpt lat="45.34819" lon="5.85079">
        <ele>1786.2668457</ele>
        <time>2009-01-08T14:55:11+01:00</time>
      </trkpt>
      <trkpt lat="45.34812" lon="5.85077">
        <ele>1787.2280273</ele>
        <time>2009-01-08T14:55:15+01:00</time>
      </trkpt>
      <trkpt lat="45.34807" lon="5.85076">
        <ele>1787.2280273</ele>
        <time>2009-01-08T14:55:22+01:00</time>
      </trkpt>
      <trkpt lat="45.34803" lon="5.85075">
        <ele>1788.1896973</ele>
        <time>2009-01-08T14:55:29+01:00</time>
      </trkpt>
      <trkpt lat="45.34799" lon="5.85076">
        <ele>1789.1508789</ele>
        <time>2009-01-08T14:55:40+01:00</time>
      </trkpt>
      <trkpt lat="45.34792" lon="5.85077">
        <ele>1790.5927734</ele>
        <time>2009-01-08T14:55:47+01:00</time>
      </trkpt>
      <trkpt lat="45.3479" lon="5.85075">
        <ele>1791.0734863</ele>
        <time>2009-01-08T14:55:53+01:00</time>
      </trkpt>
      <trkpt lat="45.34789" lon="5.85074">
        <ele>1789.6315918</ele>
        <time>2009-01-08T14:56:02+01:00</time>
      </trkpt>
      <trkpt lat="45.34785" lon="5.85074">
        <ele>1788.1896973</ele>
        <time>2009-01-08T14:56:08+01:00</time>
      </trkpt>
      <trkpt lat="45.34782" lon="5.85069">
        <ele>1788.1896973</ele>
        <time>2009-01-08T14:56:16+01:00</time>
      </trkpt>
      <trkpt lat="45.34782" lon="5.85068">
        <ele>1787.7087402</ele>
        <time>2009-01-08T14:56:29+01:00</time>
      </trkpt>
      <trkpt lat="45.34781" lon="5.85067">
        <ele>1788.1896973</ele>
        <time>2009-01-08T14:56:34+01:00</time>
      </trkpt>
      <trkpt lat="45.34777" lon="5.85068">
        <ele>1789.6315918</ele>
        <time>2009-01-08T14:57:04+01:00</time>
      </trkpt>
      <trkpt lat="45.34776" lon="5.85066">
        <ele>1788.6704102</ele>
        <time>2009-01-08T14:57:09+01:00</time>
      </trkpt>
      <trkpt lat="45.34777" lon="5.85067">
        <ele>1788.1896973</ele>
        <time>2009-01-08T14:57:15+01:00</time>
      </trkpt>
      <trkpt lat="45.34775" lon="5.85072">
        <ele>1787.7087402</ele>
        <time>2009-01-08T14:57:19+01:00</time>
      </trkpt>
      <trkpt lat="45.3477" lon="5.8508">
        <ele>1786.2668457</ele>
        <time>2009-01-08T14:57:23+01:00</time>
      </trkpt>
      <trkpt lat="45.34762" lon="5.85082">
        <ele>1784.8249512</ele>
        <time>2009-01-08T14:57:27+01:00</time>
      </trkpt>
      <trkpt lat="45.3475" lon="5.85081">
        <ele>1782.9020996</ele>
        <time>2009-01-08T14:57:31+01:00</time>
      </trkpt>
      <trkpt lat="45.34747" lon="5.8508">
        <ele>1782.4216309</ele>
        <time>2009-01-08T14:57:34+01:00</time>
      </trkpt>
      <trkpt lat="45.34745" lon="5.85078">
        <ele>1781.4602051</ele>
        <time>2009-01-08T14:57:37+01:00</time>
      </trkpt>
      <trkpt lat="45.34737" lon="5.8508">
        <ele>1779.5375977</ele>
        <time>2009-01-08T14:57:42+01:00</time>
      </trkpt>
      <trkpt lat="45.34733" lon="5.85076">
        <ele>1779.5375977</ele>
        <time>2009-01-08T14:57:47+01:00</time>
      </trkpt>
      <trkpt lat="45.34729" lon="5.85073">
        <ele>1780.0183105</ele>
        <time>2009-01-08T14:57:53+01:00</time>
      </trkpt>
      <trkpt lat="45.34728" lon="5.85074">
        <ele>1781.940918</ele>
        <time>2009-01-08T14:57:58+01:00</time>
      </trkpt>
      <trkpt lat="45.34726" lon="5.85074">
        <ele>1782.4216309</ele>
        <time>2009-01-08T14:58:03+01:00</time>
      </trkpt>
      <trkpt lat="45.34721" lon="5.85072">
        <ele>1782.4216309</ele>
        <time>2009-01-08T14:58:08+01:00</time>
      </trkpt>
      <trkpt lat="45.34715" lon="5.85073">
        <ele>1783.3828125</ele>
        <time>2009-01-08T14:58:13+01:00</time>
      </trkpt>
      <trkpt lat="45.34714" lon="5.85073">
        <ele>1783.8635254</ele>
        <time>2009-01-08T14:58:20+01:00</time>
      </trkpt>
      <trkpt lat="45.34713" lon="5.85072">
        <ele>1785.3054199</ele>
        <time>2009-01-08T14:58:27+01:00</time>
      </trkpt>
      <trkpt lat="45.34712" lon="5.85072">
        <ele>1785.3054199</ele>
        <time>2009-01-08T14:58:34+01:00</time>
      </trkpt>
      <trkpt lat="45.3471" lon="5.85072">
        <ele>1786.7473145</ele>
        <time>2009-01-08T14:58:40+01:00</time>
      </trkpt>
      <trkpt lat="45.34709" lon="5.85071">
        <ele>1787.2280273</ele>
        <time>2009-01-08T14:58:45+01:00</time>
      </trkpt>
      <trkpt lat="45.34707" lon="5.85069">
        <ele>1787.2280273</ele>
        <time>2009-01-08T14:58:48+01:00</time>
      </trkpt>
      <trkpt lat="45.34704" lon="5.85068">
        <ele>1787.2280273</ele>
        <time>2009-01-08T14:58:55+01:00</time>
      </trkpt>
      <trkpt lat="45.34703" lon="5.85068">
        <ele>1786.7473145</ele>
        <time>2009-01-08T14:59:02+01:00</time>
      </trkpt>
      <trkpt lat="45.34701" lon="5.85068">
        <ele>1786.7473145</ele>
        <time>2009-01-08T14:59:08+01:00</time>
      </trkpt>
      <trkpt lat="45.34698" lon="5.85067">
        <ele>1786.2668457</ele>
        <time>2009-01-08T14:59:13+01:00</time>
      </trkpt>
      <trkpt lat="45.34697" lon="5.85066">
        <ele>1785.7861328</ele>
        <time>2009-01-08T14:59:16+01:00</time>
      </trkpt>
      <trkpt lat="45.34694" lon="5.85061">
        <ele>1784.8249512</ele>
        <time>2009-01-08T14:59:21+01:00</time>
      </trkpt>
      <trkpt lat="45.34692" lon="5.85061">
        <ele>1783.8635254</ele>
        <time>2009-01-08T14:59:25+01:00</time>
      </trkpt>
      <trkpt lat="45.34688" lon="5.85061">
        <ele>1783.8635254</ele>
        <time>2009-01-08T14:59:28+01:00</time>
      </trkpt>
      <trkpt lat="45.34688" lon="5.8506">
        <ele>1783.8635254</ele>
        <time>2009-01-08T14:59:33+01:00</time>
      </trkpt>
      <trkpt lat="45.34687" lon="5.85063">
        <ele>1784.3442383</ele>
        <time>2009-01-08T14:59:38+01:00</time>
      </trkpt>
      <trkpt lat="45.34685" lon="5.85065">
        <ele>1784.8249512</ele>
        <time>2009-01-08T14:59:44+01:00</time>
      </trkpt>
      <trkpt lat="45.34684" lon="5.85064">
        <ele>1785.3054199</ele>
        <time>2009-01-08T14:59:50+01:00</time>
      </trkpt>
      <trkpt lat="45.34683" lon="5.85065">
        <ele>1786.2668457</ele>
        <time>2009-01-08T14:59:56+01:00</time>
      </trkpt>
      <trkpt lat="45.34681" lon="5.85065">
        <ele>1784.8249512</ele>
        <time>2009-01-08T15:00:00+01:00</time>
      </trkpt>
      <trkpt lat="45.34676" lon="5.85061">
        <ele>1784.3442383</ele>
        <time>2009-01-08T15:00:05+01:00</time>
      </trkpt>
      <trkpt lat="45.34674" lon="5.85061">
        <ele>1785.3054199</ele>
        <time>2009-01-08T15:00:11+01:00</time>
      </trkpt>
      <trkpt lat="45.34671" lon="5.8506">
        <ele>1784.8249512</ele>
        <time>2009-01-08T15:00:15+01:00</time>
      </trkpt>
      <trkpt lat="45.34669" lon="5.85059">
        <ele>1785.3054199</ele>
        <time>2009-01-08T15:00:19+01:00</time>
      </trkpt>
      <trkpt lat="45.34666" lon="5.85058">
        <ele>1785.7861328</ele>
        <time>2009-01-08T15:00:24+01:00</time>
      </trkpt>
      <trkpt lat="45.34664" lon="5.85058">
        <ele>1785.7861328</ele>
        <time>2009-01-08T15:00:28+01:00</time>
      </trkpt>
      <trkpt lat="45.34661" lon="5.85057">
        <ele>1784.8249512</ele>
        <time>2009-01-08T15:00:39+01:00</time>
      </trkpt>
      <trkpt lat="45.34659" lon="5.85057">
        <ele>1784.3442383</ele>
        <time>2009-01-08T15:00:46+01:00</time>
      </trkpt>
      <trkpt lat="45.34658" lon="5.85056">
        <ele>1783.8635254</ele>
        <time>2009-01-08T15:00:51+01:00</time>
      </trkpt>
      <trkpt lat="45.3466" lon="5.85054">
        <ele>1781.940918</ele>
        <time>2009-01-08T15:00:58+01:00</time>
      </trkpt>
      <trkpt lat="45.34661" lon="5.85052">
        <ele>1780.9797363</ele>
        <time>2009-01-08T15:01:06+01:00</time>
      </trkpt>
      <trkpt lat="45.34659" lon="5.85051">
        <ele>1780.9797363</ele>
        <time>2009-01-08T15:01:12+01:00</time>
      </trkpt>
      <trkpt lat="45.34659" lon="5.8505">
        <ele>1780.4990234</ele>
        <time>2009-01-08T15:01:13+01:00</time>
      </trkpt>
      <trkpt lat="45.34646" lon="5.8503">
        <ele>1777.1345215</ele>
        <time>2009-01-08T15:01:17+01:00</time>
      </trkpt>
      <trkpt lat="45.34637" lon="5.85018">
        <ele>1774.2504883</ele>
        <time>2009-01-08T15:01:21+01:00</time>
      </trkpt>
      <trkpt lat="45.34636" lon="5.85017">
        <ele>1768.9631348</ele>
        <time>2009-01-08T15:01:30+01:00</time>
      </trkpt>
      <trkpt lat="45.34635" lon="5.85015">
        <ele>1767.5209961</ele>
        <time>2009-01-08T15:01:34+01:00</time>
      </trkpt>
      <trkpt lat="45.34633" lon="5.85014">
        <ele>1767.5209961</ele>
        <time>2009-01-08T15:01:41+01:00</time>
      </trkpt>
      <trkpt lat="45.34626" lon="5.8501">
        <ele>1765.1179199</ele>
        <time>2009-01-08T15:01:46+01:00</time>
      </trkpt>
      <trkpt lat="45.34615" lon="5.85003">
        <ele>1764.637207</ele>
        <time>2009-01-08T15:01:51+01:00</time>
      </trkpt>
      <trkpt lat="45.34612" lon="5.85001">
        <ele>1763.6757812</ele>
        <time>2009-01-08T15:01:55+01:00</time>
      </trkpt>
      <trkpt lat="45.34609" lon="5.85001">
        <ele>1763.6757812</ele>
        <time>2009-01-08T15:01:59+01:00</time>
      </trkpt>
      <trkpt lat="45.34607" lon="5.84998">
        <ele>1763.1953125</ele>
        <time>2009-01-08T15:02:04+01:00</time>
      </trkpt>
      <trkpt lat="45.34602" lon="5.84995">
        <ele>1763.1953125</ele>
        <time>2009-01-08T15:02:10+01:00</time>
      </trkpt>
      <trkpt lat="45.34598" lon="5.84992">
        <ele>1763.6757812</ele>
        <time>2009-01-08T15:02:17+01:00</time>
      </trkpt>
      <trkpt lat="45.34593" lon="5.84988">
        <ele>1763.6757812</ele>
        <time>2009-01-08T15:02:24+01:00</time>
      </trkpt>
      <trkpt lat="45.34591" lon="5.84985">
        <ele>1763.6757812</ele>
        <time>2009-01-08T15:02:29+01:00</time>
      </trkpt>
      <trkpt lat="45.34589" lon="5.84982">
        <ele>1764.1564941</ele>
        <time>2009-01-08T15:02:34+01:00</time>
      </trkpt>
      <trkpt lat="45.34587" lon="5.84979">
        <ele>1764.1564941</ele>
        <time>2009-01-08T15:02:39+01:00</time>
      </trkpt>
      <trkpt lat="45.34587" lon="5.84977">
        <ele>1764.1564941</ele>
        <time>2009-01-08T15:02:43+01:00</time>
      </trkpt>
      <trkpt lat="45.34585" lon="5.84976">
        <ele>1764.1564941</ele>
        <time>2009-01-08T15:02:48+01:00</time>
      </trkpt>
      <trkpt lat="45.34583" lon="5.84976">
        <ele>1763.6757812</ele>
        <time>2009-01-08T15:02:54+01:00</time>
      </trkpt>
      <trkpt lat="45.34581" lon="5.84975">
        <ele>1763.6757812</ele>
        <time>2009-01-08T15:02:59+01:00</time>
      </trkpt>
      <trkpt lat="45.3458" lon="5.84974">
        <ele>1762.7145996</ele>
        <time>2009-01-08T15:03:04+01:00</time>
      </trkpt>
      <trkpt lat="45.34578" lon="5.84974">
        <ele>1762.2338867</ele>
        <time>2009-01-08T15:03:11+01:00</time>
      </trkpt>
      <trkpt lat="45.34576" lon="5.84971">
        <ele>1760.7919922</ele>
        <time>2009-01-08T15:03:14+01:00</time>
      </trkpt>
      <trkpt lat="45.34572" lon="5.8496">
        <ele>1758.8693848</ele>
        <time>2009-01-08T15:03:19+01:00</time>
      </trkpt>
      <trkpt lat="45.34569" lon="5.84958">
        <ele>1758.3886719</ele>
        <time>2009-01-08T15:03:26+01:00</time>
      </trkpt>
      <trkpt lat="45.34569" lon="5.84957">
        <ele>1755.9851074</ele>
        <time>2009-01-08T15:03:34+01:00</time>
      </trkpt>
      <trkpt lat="45.34569" lon="5.84956">
        <ele>1755.5046387</ele>
        <time>2009-01-08T15:03:42+01:00</time>
      </trkpt>
      <trkpt lat="45.34568" lon="5.84955">
        <ele>1754.5432129</ele>
        <time>2009-01-08T15:03:59+01:00</time>
      </trkpt>
      <trkpt lat="45.34566" lon="5.84954">
        <ele>1755.5046387</ele>
        <time>2009-01-08T15:04:04+01:00</time>
      </trkpt>
      <trkpt lat="45.34564" lon="5.84954">
        <ele>1755.9851074</ele>
        <time>2009-01-08T15:04:09+01:00</time>
      </trkpt>
      <trkpt lat="45.34561" lon="5.84953">
        <ele>1756.4660645</ele>
        <time>2009-01-08T15:04:15+01:00</time>
      </trkpt>
      <trkpt lat="45.34558" lon="5.84953">
        <ele>1756.4660645</ele>
        <time>2009-01-08T15:04:20+01:00</time>
      </trkpt>
      <trkpt lat="45.34558" lon="5.84952">
        <ele>1755.9851074</ele>
        <time>2009-01-08T15:04:26+01:00</time>
      </trkpt>
      <trkpt lat="45.34557" lon="5.84952">
        <ele>1756.9467773</ele>
        <time>2009-01-08T15:04:33+01:00</time>
      </trkpt>
      <trkpt lat="45.34557" lon="5.8495">
        <ele>1757.9082031</ele>
        <time>2009-01-08T15:04:47+01:00</time>
      </trkpt>
      <trkpt lat="45.34558" lon="5.84951">
        <ele>1757.9082031</ele>
        <time>2009-01-08T15:04:52+01:00</time>
      </trkpt>
      <trkpt lat="45.34558" lon="5.8495">
        <ele>1757.9082031</ele>
        <time>2009-01-08T15:05:02+01:00</time>
      </trkpt>
      <trkpt lat="45.34557" lon="5.84949">
        <ele>1756.4660645</ele>
        <time>2009-01-08T15:05:09+01:00</time>
      </trkpt>
      <trkpt lat="45.34556" lon="5.84945">
        <ele>1755.5046387</ele>
        <time>2009-01-08T15:05:14+01:00</time>
      </trkpt>
      <trkpt lat="45.34557" lon="5.84941">
        <ele>1754.0627441</ele>
        <time>2009-01-08T15:05:21+01:00</time>
      </trkpt>
      <trkpt lat="45.3456" lon="5.8494">
        <ele>1749.2561035</ele>
        <time>2009-01-08T15:05:27+01:00</time>
      </trkpt>
      <trkpt lat="45.34563" lon="5.84942">
        <ele>1743.4882812</ele>
        <time>2009-01-08T15:05:31+01:00</time>
      </trkpt>
      <trkpt lat="45.34562" lon="5.8494">
        <ele>1742.0463867</ele>
        <time>2009-01-08T15:05:35+01:00</time>
      </trkpt>
      <trkpt lat="45.3456" lon="5.84936">
        <ele>1740.1237793</ele>
        <time>2009-01-08T15:05:38+01:00</time>
      </trkpt>
      <trkpt lat="45.34546" lon="5.84917">
        <ele>1734.8364258</ele>
        <time>2009-01-08T15:05:43+01:00</time>
      </trkpt>
      <trkpt lat="45.34542" lon="5.84913">
        <ele>1732.9135742</ele>
        <time>2009-01-08T15:05:46+01:00</time>
      </trkpt>
      <trkpt lat="45.34536" lon="5.84901">
        <ele>1729.5490723</ele>
        <time>2009-01-08T15:05:49+01:00</time>
      </trkpt>
      <trkpt lat="45.34535" lon="5.84896">
        <ele>1728.5878906</ele>
        <time>2009-01-08T15:05:50+01:00</time>
      </trkpt>
      <trkpt lat="45.34526" lon="5.84871">
        <ele>1718.9746094</ele>
        <time>2009-01-08T15:05:56+01:00</time>
      </trkpt>
      <trkpt lat="45.34524" lon="5.84846">
        <ele>1712.7260742</ele>
        <time>2009-01-08T15:06:00+01:00</time>
      </trkpt>
      <trkpt lat="45.34522" lon="5.84839">
        <ele>1711.2841797</ele>
        <time>2009-01-08T15:06:01+01:00</time>
      </trkpt>
      <trkpt lat="45.34507" lon="5.84815">
        <ele>1703.112793</ele>
        <time>2009-01-08T15:06:06+01:00</time>
      </trkpt>
      <trkpt lat="45.34507" lon="5.84799">
        <ele>1700.2290039</ele>
        <time>2009-01-08T15:06:08+01:00</time>
      </trkpt>
      <trkpt lat="45.34497" lon="5.84782">
        <ele>1697.3449707</ele>
        <time>2009-01-08T15:06:11+01:00</time>
      </trkpt>
      <trkpt lat="45.34491" lon="5.84769">
        <ele>1694.4609375</ele>
        <time>2009-01-08T15:06:14+01:00</time>
      </trkpt>
      <trkpt lat="45.3448" lon="5.84743">
        <ele>1689.6542969</ele>
        <time>2009-01-08T15:06:18+01:00</time>
      </trkpt>
      <trkpt lat="45.34476" lon="5.84726">
        <ele>1687.7316895</ele>
        <time>2009-01-08T15:06:21+01:00</time>
      </trkpt>
      <trkpt lat="45.34474" lon="5.84715">
        <ele>1684.8479004</ele>
        <time>2009-01-08T15:06:26+01:00</time>
      </trkpt>
      <trkpt lat="45.34474" lon="5.84714">
        <ele>1683.8864746</ele>
        <time>2009-01-08T15:06:32+01:00</time>
      </trkpt>
      <trkpt lat="45.34474" lon="5.84713">
        <ele>1683.8864746</ele>
        <time>2009-01-08T15:06:45+01:00</time>
      </trkpt>
      <trkpt lat="45.34472" lon="5.84691">
        <ele>1681.9638672</ele>
        <time>2009-01-08T15:06:49+01:00</time>
      </trkpt>
      <trkpt lat="45.34471" lon="5.84682">
        <ele>1680.5219727</ele>
        <time>2009-01-08T15:06:50+01:00</time>
      </trkpt>
      <trkpt lat="45.34471" lon="5.84664">
        <ele>1678.1186523</ele>
        <time>2009-01-08T15:06:52+01:00</time>
      </trkpt>
      <trkpt lat="45.34489" lon="5.84624">
        <ele>1672.3505859</ele>
        <time>2009-01-08T15:06:56+01:00</time>
      </trkpt>
      <trkpt lat="45.34509" lon="5.84604">
        <ele>1668.5053711</ele>
        <time>2009-01-08T15:06:59+01:00</time>
      </trkpt>
      <trkpt lat="45.3452" lon="5.84579">
        <ele>1662.2568359</ele>
        <time>2009-01-08T15:07:02+01:00</time>
      </trkpt>
      <trkpt lat="45.3453" lon="5.84544">
        <ele>1653.6049805</ele>
        <time>2009-01-08T15:07:05+01:00</time>
      </trkpt>
      <trkpt lat="45.3453" lon="5.84518">
        <ele>1648.317627</ele>
        <time>2009-01-08T15:07:07+01:00</time>
      </trkpt>
      <trkpt lat="45.34531" lon="5.84491">
        <ele>1642.0690918</ele>
        <time>2009-01-08T15:07:09+01:00</time>
      </trkpt>
      <trkpt lat="45.34541" lon="5.84428">
        <ele>1623.8039551</ele>
        <time>2009-01-08T15:07:14+01:00</time>
      </trkpt>
      <trkpt lat="45.34536" lon="5.84403">
        <ele>1616.5942383</ele>
        <time>2009-01-08T15:07:16+01:00</time>
      </trkpt>
      <trkpt lat="45.34526" lon="5.84356">
        <ele>1606.0195312</ele>
        <time>2009-01-08T15:07:19+01:00</time>
      </trkpt>
      <trkpt lat="45.34527" lon="5.8434">
        <ele>1601.6938477</ele>
        <time>2009-01-08T15:07:20+01:00</time>
      </trkpt>
      <trkpt lat="45.34523" lon="5.84252">
        <ele>1575.7380371</ele>
        <time>2009-01-08T15:07:25+01:00</time>
      </trkpt>
      <trkpt lat="45.34508" lon="5.842">
        <ele>1561.7990723</ele>
        <time>2009-01-08T15:07:28+01:00</time>
      </trkpt>
      <trkpt lat="45.34498" lon="5.84165">
        <ele>1553.1472168</ele>
        <time>2009-01-08T15:07:30+01:00</time>
      </trkpt>
      <trkpt lat="45.34479" lon="5.84095">
        <ele>1534.8823242</ele>
        <time>2009-01-08T15:07:34+01:00</time>
      </trkpt>
      <trkpt lat="45.34455" lon="5.84057">
        <ele>1523.8269043</ele>
        <time>2009-01-08T15:07:37+01:00</time>
      </trkpt>
      <trkpt lat="45.34432" lon="5.84003">
        <ele>1509.8876953</ele>
        <time>2009-01-08T15:07:41+01:00</time>
      </trkpt>
      <trkpt lat="45.34425" lon="5.83958">
        <ele>1496.9099121</ele>
        <time>2009-01-08T15:07:44+01:00</time>
      </trkpt>
      <trkpt lat="45.34414" lon="5.83905">
        <ele>1485.3742676</ele>
        <time>2009-01-08T15:07:47+01:00</time>
      </trkpt>
      <trkpt lat="45.34428" lon="5.83874">
        <ele>1479.1254883</ele>
        <time>2009-01-08T15:07:49+01:00</time>
      </trkpt>
      <trkpt lat="45.34443" lon="5.83835">
        <ele>1467.1091309</ele>
        <time>2009-01-08T15:07:52+01:00</time>
      </trkpt>
      <trkpt lat="45.34447" lon="5.83777">
        <ele>1448.8439941</ele>
        <time>2009-01-08T15:07:56+01:00</time>
      </trkpt>
      <trkpt lat="45.34453" lon="5.83746">
        <ele>1438.2697754</ele>
        <time>2009-01-08T15:07:58+01:00</time>
      </trkpt>
      <trkpt lat="45.34462" lon="5.83718">
        <ele>1426.7338867</ele>
        <time>2009-01-08T15:08:00+01:00</time>
      </trkpt>
      <trkpt lat="45.34488" lon="5.83641">
        <ele>1402.7006836</ele>
        <time>2009-01-08T15:08:04+01:00</time>
      </trkpt>
      <trkpt lat="45.34504" lon="5.83603">
        <ele>1390.6843262</ele>
        <time>2009-01-08T15:08:06+01:00</time>
      </trkpt>
      <trkpt lat="45.34519" lon="5.83545">
        <ele>1372.9001465</ele>
        <time>2009-01-08T15:08:09+01:00</time>
      </trkpt>
      <trkpt lat="45.34514" lon="5.83496">
        <ele>1358.9609375</ele>
        <time>2009-01-08T15:08:12+01:00</time>
      </trkpt>
      <trkpt lat="45.34519" lon="5.83461">
        <ele>1349.3476562</ele>
        <time>2009-01-08T15:08:15+01:00</time>
      </trkpt>
      <trkpt lat="45.34533" lon="5.83442">
        <ele>1344.5410156</ele>
        <time>2009-01-08T15:08:17+01:00</time>
      </trkpt>
      <trkpt lat="45.34533" lon="5.83419">
        <ele>1338.7731934</ele>
        <time>2009-01-08T15:08:21+01:00</time>
      </trkpt>
      <trkpt lat="45.34528" lon="5.83393">
        <ele>1333.9665527</ele>
        <time>2009-01-08T15:08:24+01:00</time>
      </trkpt>
      <trkpt lat="45.34525" lon="5.83364">
        <ele>1328.1987305</ele>
        <time>2009-01-08T15:08:27+01:00</time>
      </trkpt>
      <trkpt lat="45.3453" lon="5.83334">
        <ele>1322.4306641</ele>
        <time>2009-01-08T15:08:30+01:00</time>
      </trkpt>
      <trkpt lat="45.3454" lon="5.83299">
        <ele>1318.5854492</ele>
        <time>2009-01-08T15:08:33+01:00</time>
      </trkpt>
      <trkpt lat="45.34552" lon="5.83273">
        <ele>1314.2595215</ele>
        <time>2009-01-08T15:08:36+01:00</time>
      </trkpt>
      <trkpt lat="45.34553" lon="5.83245">
        <ele>1310.4143066</ele>
        <time>2009-01-08T15:08:39+01:00</time>
      </trkpt>
      <trkpt lat="45.34556" lon="5.83216">
        <ele>1304.1657715</ele>
        <time>2009-01-08T15:08:42+01:00</time>
      </trkpt>
      <trkpt lat="45.34548" lon="5.83175">
        <ele>1298.3977051</ele>
        <time>2009-01-08T15:08:45+01:00</time>
      </trkpt>
      <trkpt lat="45.34535" lon="5.83123">
        <ele>1287.3425293</ele>
        <time>2009-01-08T15:08:49+01:00</time>
      </trkpt>
      <trkpt lat="45.34542" lon="5.83082">
        <ele>1278.690918</ele>
        <time>2009-01-08T15:08:52+01:00</time>
      </trkpt>
      <trkpt lat="45.34548" lon="5.83031">
        <ele>1269.0776367</ele>
        <time>2009-01-08T15:08:56+01:00</time>
      </trkpt>
      <trkpt lat="45.34553" lon="5.83006">
        <ele>1263.7902832</ele>
        <time>2009-01-08T15:08:58+01:00</time>
      </trkpt>
      <trkpt lat="45.34561" lon="5.82971">
        <ele>1254.6577148</ele>
        <time>2009-01-08T15:09:01+01:00</time>
      </trkpt>
      <trkpt lat="45.34564" lon="5.8296">
        <ele>1251.2932129</ele>
        <time>2009-01-08T15:09:02+01:00</time>
      </trkpt>
      <trkpt lat="45.34585" lon="5.82898">
        <ele>1236.873291</ele>
        <time>2009-01-08T15:09:07+01:00</time>
      </trkpt>
      <trkpt lat="45.34597" lon="5.82872">
        <ele>1229.6635742</ele>
        <time>2009-01-08T15:09:10+01:00</time>
      </trkpt>
      <trkpt lat="45.34615" lon="5.82852">
        <ele>1221.4921875</ele>
        <time>2009-01-08T15:09:13+01:00</time>
      </trkpt>
      <trkpt lat="45.34628" lon="5.82834">
        <ele>1215.2438965</ele>
        <time>2009-01-08T15:09:15+01:00</time>
      </trkpt>
      <trkpt lat="45.34664" lon="5.82793">
        <ele>1202.2658691</ele>
        <time>2009-01-08T15:09:19+01:00</time>
      </trkpt>
      <trkpt lat="45.3469" lon="5.82771">
        <ele>1196.0175781</ele>
        <time>2009-01-08T15:09:22+01:00</time>
      </trkpt>
      <trkpt lat="45.34708" lon="5.82743">
        <ele>1189.2880859</ele>
        <time>2009-01-08T15:09:25+01:00</time>
      </trkpt>
      <trkpt lat="45.3471" lon="5.8272">
        <ele>1184.0009766</ele>
        <time>2009-01-08T15:09:27+01:00</time>
      </trkpt>
      <trkpt lat="45.34719" lon="5.8268">
        <ele>1175.8295898</ele>
        <time>2009-01-08T15:09:30+01:00</time>
      </trkpt>
      <trkpt lat="45.34741" lon="5.82654">
        <ele>1169.1005859</ele>
        <time>2009-01-08T15:09:33+01:00</time>
      </trkpt>
      <trkpt lat="45.34757" lon="5.82631">
        <ele>1159.9677734</ele>
        <time>2009-01-08T15:09:36+01:00</time>
      </trkpt>
      <trkpt lat="45.34762" lon="5.82613">
        <ele>1154.2001953</ele>
        <time>2009-01-08T15:09:38+01:00</time>
      </trkpt>
      <trkpt lat="45.34773" lon="5.82591">
        <ele>1145.5480957</ele>
        <time>2009-01-08T15:09:41+01:00</time>
      </trkpt>
      <trkpt lat="45.34785" lon="5.82565">
        <ele>1135.9350586</ele>
        <time>2009-01-08T15:09:45+01:00</time>
      </trkpt>
      <trkpt lat="45.34792" lon="5.82539">
        <ele>1126.8024902</ele>
        <time>2009-01-08T15:09:48+01:00</time>
      </trkpt>
      <trkpt lat="45.34795" lon="5.8251">
        <ele>1120.5539551</ele>
        <time>2009-01-08T15:09:50+01:00</time>
      </trkpt>
      <trkpt lat="45.3479" lon="5.82458">
        <ele>1109.4987793</ele>
        <time>2009-01-08T15:09:53+01:00</time>
      </trkpt>
      <trkpt lat="45.34773" lon="5.82392">
        <ele>1097.4821777</ele>
        <time>2009-01-08T15:09:57+01:00</time>
      </trkpt>
      <trkpt lat="45.34748" lon="5.82362">
        <ele>1087.8691406</ele>
        <time>2009-01-08T15:10:00+01:00</time>
      </trkpt>
      <trkpt lat="45.34716" lon="5.82346">
        <ele>1077.7751465</ele>
        <time>2009-01-08T15:10:03+01:00</time>
      </trkpt>
      <trkpt lat="45.34708" lon="5.82335">
        <ele>1074.4106445</ele>
        <time>2009-01-08T15:10:04+01:00</time>
      </trkpt>
      <trkpt lat="45.34652" lon="5.8227">
        <ele>1057.5876465</ele>
        <time>2009-01-08T15:10:10+01:00</time>
      </trkpt>
      <trkpt lat="45.34638" lon="5.82255">
        <ele>1056.6262207</ele>
        <time>2009-01-08T15:10:12+01:00</time>
      </trkpt>
      <trkpt lat="45.34619" lon="5.82233">
        <ele>1053.2617188</ele>
        <time>2009-01-08T15:10:16+01:00</time>
      </trkpt>
      <trkpt lat="45.34606" lon="5.82203">
        <ele>1048.454834</ele>
        <time>2009-01-08T15:10:19+01:00</time>
      </trkpt>
      <trkpt lat="45.34578" lon="5.82189">
        <ele>1042.6872559</ele>
        <time>2009-01-08T15:10:22+01:00</time>
      </trkpt>
      <trkpt lat="45.3453" lon="5.82165">
        <ele>1036.9191895</ele>
        <time>2009-01-08T15:10:27+01:00</time>
      </trkpt>
      <trkpt lat="45.34512" lon="5.82157">
        <ele>1034.0351562</ele>
        <time>2009-01-08T15:10:29+01:00</time>
      </trkpt>
      <trkpt lat="45.3448" lon="5.82137">
        <ele>1029.2285156</ele>
        <time>2009-01-08T15:10:33+01:00</time>
      </trkpt>
      <trkpt lat="45.34469" lon="5.82126">
        <ele>1027.3061523</ele>
        <time>2009-01-08T15:10:35+01:00</time>
      </trkpt>
      <trkpt lat="45.34447" lon="5.82107">
        <ele>1023.9414062</ele>
        <time>2009-01-08T15:10:39+01:00</time>
      </trkpt>
      <trkpt lat="45.34423" lon="5.82085">
        <ele>1019.1347656</ele>
        <time>2009-01-08T15:10:43+01:00</time>
      </trkpt>
      <trkpt lat="45.34372" lon="5.82045">
        <ele>1010.963623</ele>
        <time>2009-01-08T15:10:50+01:00</time>
      </trkpt>
      <trkpt lat="45.34365" lon="5.82041">
        <ele>1010.0021973</ele>
        <time>2009-01-08T15:10:51+01:00</time>
      </trkpt>
      <trkpt lat="45.34332" lon="5.82015">
        <ele>1005.1958008</ele>
        <time>2009-01-08T15:10:56+01:00</time>
      </trkpt>
      <trkpt lat="45.3434" lon="5.81994">
        <ele>1001.8310547</ele>
        <time>2009-01-08T15:10:58+01:00</time>
      </trkpt>
      <trkpt lat="45.34365" lon="5.81978">
        <ele>996.0632324</ele>
        <time>2009-01-08T15:11:01+01:00</time>
      </trkpt>
      <trkpt lat="45.34384" lon="5.81985">
        <ele>990.2954102</ele>
        <time>2009-01-08T15:11:03+01:00</time>
      </trkpt>
      <trkpt lat="45.34407" lon="5.81976">
        <ele>982.6047363</ele>
        <time>2009-01-08T15:11:06+01:00</time>
      </trkpt>
      <trkpt lat="45.34409" lon="5.81959">
        <ele>976.8369141</ele>
        <time>2009-01-08T15:11:08+01:00</time>
      </trkpt>
      <trkpt lat="45.34406" lon="5.81946">
        <ele>974.4335938</ele>
        <time>2009-01-08T15:11:11+01:00</time>
      </trkpt>
      <trkpt lat="45.34412" lon="5.81943">
        <ele>971.0688477</ele>
        <time>2009-01-08T15:11:15+01:00</time>
      </trkpt>
      <trkpt lat="45.34422" lon="5.81927">
        <ele>965.7817383</ele>
        <time>2009-01-08T15:11:19+01:00</time>
      </trkpt>
      <trkpt lat="45.34431" lon="5.81913">
        <ele>960.0136719</ele>
        <time>2009-01-08T15:11:22+01:00</time>
      </trkpt>
      <trkpt lat="45.3444" lon="5.81907">
        <ele>956.168457</ele>
        <time>2009-01-08T15:11:24+01:00</time>
      </trkpt>
      <trkpt lat="45.34459" lon="5.81884">
        <ele>946.074707</ele>
        <time>2009-01-08T15:11:29+01:00</time>
      </trkpt>
      <trkpt lat="45.34466" lon="5.81873">
        <ele>941.7487793</ele>
        <time>2009-01-08T15:11:31+01:00</time>
      </trkpt>
      <trkpt lat="45.34472" lon="5.81861">
        <ele>936.4614258</ele>
        <time>2009-01-08T15:11:33+01:00</time>
      </trkpt>
      <trkpt lat="45.34476" lon="5.81837">
        <ele>929.2514648</ele>
        <time>2009-01-08T15:11:36+01:00</time>
      </trkpt>
      <trkpt lat="45.34481" lon="5.81799">
        <ele>920.1188965</ele>
        <time>2009-01-08T15:11:40+01:00</time>
      </trkpt>
      <trkpt lat="45.34482" lon="5.81777">
        <ele>915.3125</ele>
        <time>2009-01-08T15:11:42+01:00</time>
      </trkpt>
      <trkpt lat="45.34477" lon="5.81748">
        <ele>909.0639648</ele>
        <time>2009-01-08T15:11:45+01:00</time>
      </trkpt>
      <trkpt lat="45.34482" lon="5.81729">
        <ele>905.2185059</ele>
        <time>2009-01-08T15:11:47+01:00</time>
      </trkpt>
      <trkpt lat="45.34479" lon="5.81711">
        <ele>902.3344727</ele>
        <time>2009-01-08T15:11:49+01:00</time>
      </trkpt>
      <trkpt lat="45.34468" lon="5.81701">
        <ele>898.4892578</ele>
        <time>2009-01-08T15:11:52+01:00</time>
      </trkpt>
      <trkpt lat="45.34462" lon="5.81702">
        <ele>898.0087891</ele>
        <time>2009-01-08T15:11:55+01:00</time>
      </trkpt>
      <trkpt lat="45.34454" lon="5.81694">
        <ele>896.0861816</ele>
        <time>2009-01-08T15:11:59+01:00</time>
      </trkpt>
      <trkpt lat="45.34456" lon="5.81692">
        <ele>897.5280762</ele>
        <time>2009-01-08T15:12:04+01:00</time>
      </trkpt>
      <trkpt lat="45.34456" lon="5.81693">
        <ele>899.4506836</ele>
        <time>2009-01-08T15:12:12+01:00</time>
      </trkpt>
      <trkpt lat="45.34458" lon="5.81692">
        <ele>899.9313965</ele>
        <time>2009-01-08T15:12:15+01:00</time>
      </trkpt>
      <trkpt lat="45.34468" lon="5.81685">
        <ele>899.9313965</ele>
        <time>2009-01-08T15:12:22+01:00</time>
      </trkpt>
      <trkpt lat="45.34473" lon="5.81686">
        <ele>900.4121094</ele>
        <time>2009-01-08T15:12:26+01:00</time>
      </trkpt>
      <trkpt lat="45.34474" lon="5.81686">
        <ele>900.8925781</ele>
        <time>2009-01-08T15:12:33+01:00</time>
      </trkpt>
      <trkpt lat="45.34473" lon="5.81686">
        <ele>901.373291</ele>
        <time>2009-01-08T15:12:44+01:00</time>
      </trkpt>
      <trkpt lat="45.34474" lon="5.81688">
        <ele>898.0087891</ele>
        <time>2009-01-08T15:13:07+01:00</time>
      </trkpt>
      <trkpt lat="45.34473" lon="5.81688">
        <ele>898.9699707</ele>
        <time>2009-01-08T15:13:12+01:00</time>
      </trkpt>
      <trkpt lat="45.34474" lon="5.81686">
        <ele>897.5280762</ele>
        <time>2009-01-08T15:13:26+01:00</time>
      </trkpt>
      <trkpt lat="45.34474" lon="5.81687">
        <ele>897.5280762</ele>
        <time>2009-01-08T15:13:34+01:00</time>
      </trkpt>
      <trkpt lat="45.34472" lon="5.81687">
        <ele>898.0087891</ele>
        <time>2009-01-08T15:14:00+01:00</time>
      </trkpt>
      <trkpt lat="45.34473" lon="5.81686">
        <ele>899.9313965</ele>
        <time>2009-01-08T15:14:08+01:00</time>
      </trkpt>
      <trkpt lat="45.34473" lon="5.81687">
        <ele>901.373291</ele>
        <time>2009-01-08T15:14:13+01:00</time>
      </trkpt>
      <trkpt lat="45.34473" lon="5.81686">
        <ele>900.4121094</ele>
        <time>2009-01-08T15:14:25+01:00</time>
      </trkpt>
      <trkpt lat="45.34472" lon="5.81686">
        <ele>899.9313965</ele>
        <time>2009-01-08T15:14:30+01:00</time>
      </trkpt>
      <trkpt lat="45.34473" lon="5.81688">
        <ele>899.9313965</ele>
        <time>2009-01-08T15:14:32+01:00</time>
      </trkpt>
      <trkpt lat="45.34475" lon="5.81687">
        <ele>899.9313965</ele>
        <time>2009-01-08T15:14:38+01:00</time>
      </trkpt>
      <trkpt lat="45.34494" lon="5.81842">
        <ele>929.8</ele>
      </trkpt>
      <trkpt lat="45.34475" lon="5.81888">
        <ele>942.5</ele>
      </trkpt>
      <trkpt lat="45.34436" lon="5.81941">
        <ele>964.7</ele>
      </trkpt>
      <trkpt lat="45.34346" lon="5.82004">
        <ele>1001.2</ele>
      </trkpt>
      <trkpt lat="45.34434" lon="5.82078">
        <ele>1016.2</ele>
      </trkpt>
      <trkpt lat="45.34528" lon="5.82148">
        <ele>1035.5</ele>
      </trkpt>
      <trkpt lat="45.34648" lon="5.82231">
        <ele>1057.2</ele>
      </trkpt>
      <trkpt lat="45.34703" lon="5.82313">
        <ele>1071.1</ele>
      </trkpt>
      <trkpt lat="45.34767" lon="5.82413">
        <ele>1099</ele>
      </trkpt>
      <trkpt lat="45.34785" lon="5.82496">
        <ele>1115.9</ele>
      </trkpt>
      <trkpt lat="45.34744" lon="5.82629">
        <ele>1159.2</ele>
      </trkpt>
      <trkpt lat="45.34673" lon="5.82758">
        <ele>1192.5</ele>
      </trkpt>
      <trkpt lat="45.34567" lon="5.82886">
        <ele>1234.1</ele>
      </trkpt>
      <trkpt lat="45.34551" lon="5.83078">
        <ele>1278.4</ele>
      </trkpt>
      <trkpt lat="45.34559" lon="5.83167">
        <ele>1297.9</ele>
      </trkpt>
      <trkpt lat="45.34562" lon="5.83275">
        <ele>1324.4</ele>
      </trkpt>
      <trkpt lat="45.34537" lon="5.83359">
        <ele>1338.3</ele>
      </trkpt>
      <trkpt lat="45.34498" lon="5.83564">
        <ele>1379.4</ele>
      </trkpt>
      <trkpt lat="45.3447" lon="5.83758">
        <ele>1436.9</ele>
      </trkpt>
      <trkpt lat="45.34448" lon="5.83867">
        <ele>1475</ele>
      </trkpt>
      <trkpt lat="45.34432" lon="5.83908">
        <ele>1488.2</ele>
      </trkpt>
      <trkpt lat="45.34447" lon="5.84016">
        <ele>1517</ele>
      </trkpt>
      <trkpt lat="45.34489" lon="5.84163">
        <ele>1548.8</ele>
      </trkpt>
      <trkpt lat="45.34507" lon="5.84241">
        <ele>1569</ele>
      </trkpt>
      <trkpt lat="45.34517" lon="5.84348">
        <ele>1595.6</ele>
      </trkpt>
      <trkpt lat="45.34519" lon="5.84506">
        <ele>1640.6</ele>
      </trkpt>
      <trkpt lat="45.34502" lon="5.84586">
        <ele>1659.7</ele>
      </trkpt>
      <trkpt lat="45.34448" lon="5.84693">
        <ele>1672.9</ele>
      </trkpt>
      <trkpt lat="45.34554" lon="5.84788">
        <ele>1678.4</ele>
      </trkpt>
      <trkpt lat="45.34685" lon="5.84826">
        <ele>1649</ele>
      </trkpt>
      <trkpt lat="45.34805" lon="5.84782">
        <ele>1635.3</ele>
      </trkpt>
      <trkpt lat="45.34866" lon="5.84722">
        <ele>1623.2</ele>
      </trkpt>
      <trkpt lat="45.34948" lon="5.84631">
        <ele>1614.6</ele>
      </trkpt>
      <trkpt lat="45.34994" lon="5.84568">
        <ele>1606.4</ele>
      </trkpt>
      <trkpt lat="45.35088" lon="5.84533">
        <ele>1601.1</ele>
      </trkpt>
      <trkpt lat="45.35108" lon="5.84668">
        <ele>1628.3</ele>
      </trkpt>
      <trkpt lat="45.35132" lon="5.84788">
        <ele>1663.6</ele>
      </trkpt>
      <trkpt lat="45.35147" lon="5.84923">
        <ele>1708.3</ele>
      </trkpt>
      <trkpt lat="45.35169" lon="5.85043">
        <ele>1739.5</ele>
      </trkpt>
      <trkpt lat="45.35178" lon="5.8511">
        <ele>1748.3</ele>
      </trkpt>
      <trkpt lat="45.35115" lon="5.85097">
        <ele>1765.4</ele>
      </trkpt>
      <trkpt lat="45.34981" lon="5.85043">
        <ele>1775.1</ele>
      </trkpt>
      <trkpt lat="45.3489" lon="5.85035">
        <ele>1780.5</ele>
      </trkpt>
      <trkpt lat="45.34881" lon="5.85149">
        <ele>1767.2</ele>
      </trkpt>
      <trkpt lat="45.34898" lon="5.85224">
        <ele>1727.2</ele>
      </trkpt>
      <trkpt lat="45.34881" lon="5.8549">
        <ele>1595.3</ele>
      </trkpt>
      <trkpt lat="45.34859" lon="5.85573">
        <ele>1564.2</ele>
      </trkpt>
      <trkpt lat="45.34822" lon="5.85756">
        <ele>1500.6</ele>
      </trkpt>
      <trkpt lat="45.34789" lon="5.8587">
        <ele>1493.2</ele>
      </trkpt>
      <trkpt lat="45.34697" lon="5.86007">
        <ele>1511.8</ele>
      </trkpt>
      <trkpt lat="45.34642" lon="5.86091">
        <ele>1486.9</ele>
      </trkpt>
      <trkpt lat="45.34684" lon="5.8635">
        <ele>1484.6</ele>
      </trkpt>
      <trkpt lat="45.34655" lon="5.86563">
        <ele>1512.8</ele>
      </trkpt>
      <trkpt lat="45.34604" lon="5.86495">
        <ele>1487.5</ele>
        <time>2009-01-08T10:19:02+01:00</time>
      </trkpt>
    </trkseg>
  </trk>
</gpx>